<?xml version="1.0" encoding="UTF-8" standalone="no" ?>
<gpx xmlns="http://www.topografix.com/GPX/1/1" xmlns:xsi="http://www.w3.org/2001/XMLSchema-instance" xsi:schemaLocation="http://www.topografix.com/GPX/1/1 http://www.topografix.com/GPX/1/1/gpx.xsd" version="1.1" creator="VisuGPX - https://www.visugpx.com">
  <metadata>
    <name>Chemins - St Aignan Bouaye Brains Le Pellerin La Montagne Roche Ballue</name>
    <desc><![CDATA[Chemins - St Aignan Bouaye Brains Le Pellerin La Montagne Roche Ballue]]></desc>
  </metadata>
  <trk>
    <name><![CDATA[2021-04-18 10:40 +02:00]]></name>
    <trkseg>
      <trkpt lat="47.16774" lon="-1.62648">
        <ele>69</ele>
        <time>2021-04-18T08:39:58.000Z</time>
      </trkpt>
      <trkpt lat="47.16777" lon="-1.62666">
        <ele>72</ele>
        <time>2021-04-18T08:42:42.000Z</time>
      </trkpt>
      <trkpt lat="47.16772" lon="-1.62678">
        <ele>74</ele>
        <time>2021-04-18T08:42:44.000Z</time>
      </trkpt>
      <trkpt lat="47.16762" lon="-1.62675">
        <ele>73</ele>
        <time>2021-04-18T08:42:46.000Z</time>
      </trkpt>
      <trkpt lat="47.1675" lon="-1.62672">
        <ele>72</ele>
        <time>2021-04-18T08:42:48.000Z</time>
      </trkpt>
      <trkpt lat="47.16738" lon="-1.62679">
        <ele>70</ele>
        <time>2021-04-18T08:42:50.000Z</time>
      </trkpt>
      <trkpt lat="47.16728" lon="-1.62688">
        <ele>68</ele>
        <time>2021-04-18T08:42:52.000Z</time>
      </trkpt>
      <trkpt lat="47.16719" lon="-1.62694">
        <ele>69</ele>
        <time>2021-04-18T08:42:54.000Z</time>
      </trkpt>
      <trkpt lat="47.16709" lon="-1.6269">
        <ele>69</ele>
        <time>2021-04-18T08:42:56.000Z</time>
      </trkpt>
      <trkpt lat="47.16702" lon="-1.62673">
        <ele>69</ele>
        <time>2021-04-18T08:42:58.000Z</time>
      </trkpt>
      <trkpt lat="47.16698" lon="-1.62653">
        <ele>69</ele>
        <time>2021-04-18T08:43:00.000Z</time>
      </trkpt>
      <trkpt lat="47.16696" lon="-1.62632">
        <ele>69</ele>
        <time>2021-04-18T08:43:02.000Z</time>
      </trkpt>
      <trkpt lat="47.16694" lon="-1.6261">
        <ele>70</ele>
        <time>2021-04-18T08:43:04.000Z</time>
      </trkpt>
      <trkpt lat="47.16696" lon="-1.62589">
        <ele>70</ele>
        <time>2021-04-18T08:43:06.000Z</time>
      </trkpt>
      <trkpt lat="47.16698" lon="-1.62567">
        <ele>69</ele>
        <time>2021-04-18T08:43:08.000Z</time>
      </trkpt>
      <trkpt lat="47.16699" lon="-1.62543">
        <ele>66</ele>
        <time>2021-04-18T08:43:10.000Z</time>
      </trkpt>
      <trkpt lat="47.16702" lon="-1.62524">
        <ele>66</ele>
        <time>2021-04-18T08:43:12.000Z</time>
      </trkpt>
      <trkpt lat="47.16705" lon="-1.62504">
        <ele>67</ele>
        <time>2021-04-18T08:43:14.000Z</time>
      </trkpt>
      <trkpt lat="47.16709" lon="-1.62485">
        <ele>67</ele>
        <time>2021-04-18T08:43:16.000Z</time>
      </trkpt>
      <trkpt lat="47.16712" lon="-1.62465">
        <ele>67</ele>
        <time>2021-04-18T08:43:18.000Z</time>
      </trkpt>
      <trkpt lat="47.16717" lon="-1.62438">
        <ele>69</ele>
        <time>2021-04-18T08:43:21.000Z</time>
      </trkpt>
      <trkpt lat="47.16722" lon="-1.62423">
        <ele>70</ele>
        <time>2021-04-18T08:43:23.000Z</time>
      </trkpt>
      <trkpt lat="47.16725" lon="-1.6241">
        <ele>71</ele>
        <time>2021-04-18T08:43:25.000Z</time>
      </trkpt>
      <trkpt lat="47.16715" lon="-1.62391">
        <ele>72</ele>
        <time>2021-04-18T08:43:28.000Z</time>
      </trkpt>
      <trkpt lat="47.16705" lon="-1.62376">
        <ele>72</ele>
        <time>2021-04-18T08:43:30.000Z</time>
      </trkpt>
      <trkpt lat="47.16695" lon="-1.62365">
        <ele>73</ele>
        <time>2021-04-18T08:43:32.000Z</time>
      </trkpt>
      <trkpt lat="47.16683" lon="-1.62359">
        <ele>76</ele>
        <time>2021-04-18T08:43:35.000Z</time>
      </trkpt>
      <trkpt lat="47.16663" lon="-1.62366">
        <ele>80</ele>
        <time>2021-04-18T08:43:38.000Z</time>
      </trkpt>
      <trkpt lat="47.16641" lon="-1.62379">
        <ele>81</ele>
        <time>2021-04-18T08:43:41.000Z</time>
      </trkpt>
      <trkpt lat="47.16626" lon="-1.62391">
        <ele>81</ele>
        <time>2021-04-18T08:43:43.000Z</time>
      </trkpt>
      <trkpt lat="47.16613" lon="-1.62406">
        <ele>78</ele>
        <time>2021-04-18T08:43:45.000Z</time>
      </trkpt>
      <trkpt lat="47.16606" lon="-1.62422">
        <ele>76</ele>
        <time>2021-04-18T08:43:47.000Z</time>
      </trkpt>
      <trkpt lat="47.16599" lon="-1.62438">
        <ele>74</ele>
        <time>2021-04-18T08:43:49.000Z</time>
      </trkpt>
      <trkpt lat="47.16593" lon="-1.62453">
        <ele>75</ele>
        <time>2021-04-18T08:43:51.000Z</time>
      </trkpt>
      <trkpt lat="47.16586" lon="-1.6247">
        <ele>73</ele>
        <time>2021-04-18T08:43:53.000Z</time>
      </trkpt>
      <trkpt lat="47.1658" lon="-1.62487">
        <ele>72</ele>
        <time>2021-04-18T08:43:55.000Z</time>
      </trkpt>
      <trkpt lat="47.16575" lon="-1.62501">
        <ele>72</ele>
        <time>2021-04-18T08:43:57.000Z</time>
      </trkpt>
      <trkpt lat="47.16567" lon="-1.62515">
        <ele>72</ele>
        <time>2021-04-18T08:43:59.000Z</time>
      </trkpt>
      <trkpt lat="47.16561" lon="-1.62529">
        <ele>72</ele>
        <time>2021-04-18T08:44:01.000Z</time>
      </trkpt>
      <trkpt lat="47.16553" lon="-1.62543">
        <ele>74</ele>
        <time>2021-04-18T08:44:04.000Z</time>
      </trkpt>
      <trkpt lat="47.16545" lon="-1.62555">
        <ele>75</ele>
        <time>2021-04-18T08:44:06.000Z</time>
      </trkpt>
      <trkpt lat="47.16534" lon="-1.62564">
        <ele>75</ele>
        <time>2021-04-18T08:44:08.000Z</time>
      </trkpt>
      <trkpt lat="47.16515" lon="-1.62563">
        <ele>76</ele>
        <time>2021-04-18T08:44:11.000Z</time>
      </trkpt>
      <trkpt lat="47.16501" lon="-1.62559">
        <ele>76</ele>
        <time>2021-04-18T08:44:13.000Z</time>
      </trkpt>
      <trkpt lat="47.16486" lon="-1.62555">
        <ele>76</ele>
        <time>2021-04-18T08:44:15.000Z</time>
      </trkpt>
      <trkpt lat="47.16466" lon="-1.62549">
        <ele>75</ele>
        <time>2021-04-18T08:44:18.000Z</time>
      </trkpt>
      <trkpt lat="47.16454" lon="-1.62546">
        <ele>73</ele>
        <time>2021-04-18T08:44:20.000Z</time>
      </trkpt>
      <trkpt lat="47.16442" lon="-1.62541">
        <ele>74</ele>
        <time>2021-04-18T08:44:22.000Z</time>
      </trkpt>
      <trkpt lat="47.16429" lon="-1.62543">
        <ele>74</ele>
        <time>2021-04-18T08:44:24.000Z</time>
      </trkpt>
      <trkpt lat="47.16419" lon="-1.62553">
        <ele>75</ele>
        <time>2021-04-18T08:44:26.000Z</time>
      </trkpt>
      <trkpt lat="47.16408" lon="-1.62564">
        <ele>75</ele>
        <time>2021-04-18T08:44:28.000Z</time>
      </trkpt>
      <trkpt lat="47.16397" lon="-1.62575">
        <ele>74</ele>
        <time>2021-04-18T08:44:30.000Z</time>
      </trkpt>
      <trkpt lat="47.16384" lon="-1.62582">
        <ele>73</ele>
        <time>2021-04-18T08:44:32.000Z</time>
      </trkpt>
      <trkpt lat="47.16371" lon="-1.62585">
        <ele>72</ele>
        <time>2021-04-18T08:44:34.000Z</time>
      </trkpt>
      <trkpt lat="47.16357" lon="-1.62584">
        <ele>72</ele>
        <time>2021-04-18T08:44:36.000Z</time>
      </trkpt>
      <trkpt lat="47.16343" lon="-1.6258">
        <ele>73</ele>
        <time>2021-04-18T08:44:38.000Z</time>
      </trkpt>
      <trkpt lat="47.1633" lon="-1.62573">
        <ele>73</ele>
        <time>2021-04-18T08:44:40.000Z</time>
      </trkpt>
      <trkpt lat="47.16316" lon="-1.62566">
        <ele>73</ele>
        <time>2021-04-18T08:44:42.000Z</time>
      </trkpt>
      <trkpt lat="47.16303" lon="-1.6256">
        <ele>73</ele>
        <time>2021-04-18T08:44:44.000Z</time>
      </trkpt>
      <trkpt lat="47.16283" lon="-1.6255">
        <ele>74</ele>
        <time>2021-04-18T08:44:47.000Z</time>
      </trkpt>
      <trkpt lat="47.1627" lon="-1.62545">
        <ele>73</ele>
        <time>2021-04-18T08:44:49.000Z</time>
      </trkpt>
      <trkpt lat="47.16256" lon="-1.62542">
        <ele>73</ele>
        <time>2021-04-18T08:44:51.000Z</time>
      </trkpt>
      <trkpt lat="47.16237" lon="-1.62538">
        <ele>72</ele>
        <time>2021-04-18T08:44:54.000Z</time>
      </trkpt>
      <trkpt lat="47.16222" lon="-1.62539">
        <ele>71</ele>
        <time>2021-04-18T08:44:56.000Z</time>
      </trkpt>
      <trkpt lat="47.16208" lon="-1.62538">
        <ele>68</ele>
        <time>2021-04-18T08:44:58.000Z</time>
      </trkpt>
      <trkpt lat="47.16195" lon="-1.62536">
        <ele>71</ele>
        <time>2021-04-18T08:45:00.000Z</time>
      </trkpt>
      <trkpt lat="47.16181" lon="-1.62534">
        <ele>72</ele>
        <time>2021-04-18T08:45:02.000Z</time>
      </trkpt>
      <trkpt lat="47.16165" lon="-1.62532">
        <ele>75</ele>
        <time>2021-04-18T08:45:05.000Z</time>
      </trkpt>
      <trkpt lat="47.16155" lon="-1.62533">
        <ele>76</ele>
        <time>2021-04-18T08:45:07.000Z</time>
      </trkpt>
      <trkpt lat="47.16142" lon="-1.62533">
        <ele>79</ele>
        <time>2021-04-18T08:45:09.000Z</time>
      </trkpt>
      <trkpt lat="47.16128" lon="-1.62531">
        <ele>79</ele>
        <time>2021-04-18T08:45:11.000Z</time>
      </trkpt>
      <trkpt lat="47.16113" lon="-1.62529">
        <ele>80</ele>
        <time>2021-04-18T08:45:13.000Z</time>
      </trkpt>
      <trkpt lat="47.16097" lon="-1.62531">
        <ele>81</ele>
        <time>2021-04-18T08:45:15.000Z</time>
      </trkpt>
      <trkpt lat="47.16086" lon="-1.62531">
        <ele>80</ele>
        <time>2021-04-18T08:45:16.000Z</time>
      </trkpt>
      <trkpt lat="47.16075" lon="-1.62532">
        <ele>79</ele>
        <time>2021-04-18T08:45:17.000Z</time>
      </trkpt>
      <trkpt lat="47.16066" lon="-1.62532">
        <ele>79</ele>
        <time>2021-04-18T08:45:18.000Z</time>
      </trkpt>
      <trkpt lat="47.16056" lon="-1.62531">
        <ele>79</ele>
        <time>2021-04-18T08:45:19.000Z</time>
      </trkpt>
      <trkpt lat="47.16046" lon="-1.6253">
        <ele>78</ele>
        <time>2021-04-18T08:45:20.000Z</time>
      </trkpt>
      <trkpt lat="47.1602" lon="-1.6253">
        <ele>75</ele>
        <time>2021-04-18T08:45:23.000Z</time>
      </trkpt>
      <trkpt lat="47.16005" lon="-1.62533">
        <ele>74</ele>
        <time>2021-04-18T08:45:25.000Z</time>
      </trkpt>
      <trkpt lat="47.15989" lon="-1.62547">
        <ele>73</ele>
        <time>2021-04-18T08:45:27.000Z</time>
      </trkpt>
      <trkpt lat="47.15979" lon="-1.62567">
        <ele>69</ele>
        <time>2021-04-18T08:45:29.000Z</time>
      </trkpt>
      <trkpt lat="47.15978" lon="-1.62589">
        <ele>67</ele>
        <time>2021-04-18T08:45:31.000Z</time>
      </trkpt>
      <trkpt lat="47.1598" lon="-1.62624">
        <ele>59</ele>
        <time>2021-04-18T08:45:34.000Z</time>
      </trkpt>
      <trkpt lat="47.1598" lon="-1.62644">
        <ele>60</ele>
        <time>2021-04-18T08:45:36.000Z</time>
      </trkpt>
      <trkpt lat="47.1597" lon="-1.62669">
        <ele>63</ele>
        <time>2021-04-18T08:45:39.000Z</time>
      </trkpt>
      <trkpt lat="47.15962" lon="-1.62681">
        <ele>63</ele>
        <time>2021-04-18T08:45:41.000Z</time>
      </trkpt>
      <trkpt lat="47.15951" lon="-1.62682">
        <ele>65</ele>
        <time>2021-04-18T08:45:42.000Z</time>
      </trkpt>
      <trkpt lat="47.15941" lon="-1.62682">
        <ele>64</ele>
        <time>2021-04-18T08:45:43.000Z</time>
      </trkpt>
      <trkpt lat="47.15924" lon="-1.62684">
        <ele>63</ele>
        <time>2021-04-18T08:45:45.000Z</time>
      </trkpt>
      <trkpt lat="47.15897" lon="-1.62687">
        <ele>60</ele>
        <time>2021-04-18T08:45:48.000Z</time>
      </trkpt>
      <trkpt lat="47.15879" lon="-1.62686">
        <ele>60</ele>
        <time>2021-04-18T08:45:50.000Z</time>
      </trkpt>
      <trkpt lat="47.15862" lon="-1.62688">
        <ele>60</ele>
        <time>2021-04-18T08:45:52.000Z</time>
      </trkpt>
      <trkpt lat="47.15847" lon="-1.62691">
        <ele>61</ele>
        <time>2021-04-18T08:45:54.000Z</time>
      </trkpt>
      <trkpt lat="47.15832" lon="-1.62693">
        <ele>63</ele>
        <time>2021-04-18T08:45:56.000Z</time>
      </trkpt>
      <trkpt lat="47.15817" lon="-1.62695">
        <ele>62</ele>
        <time>2021-04-18T08:45:58.000Z</time>
      </trkpt>
      <trkpt lat="47.15802" lon="-1.627">
        <ele>62</ele>
        <time>2021-04-18T08:46:00.000Z</time>
      </trkpt>
      <trkpt lat="47.15792" lon="-1.62698">
        <ele>65</ele>
        <time>2021-04-18T08:46:02.000Z</time>
      </trkpt>
      <trkpt lat="47.15771" lon="-1.62699">
        <ele>67</ele>
        <time>2021-04-18T08:46:05.000Z</time>
      </trkpt>
      <trkpt lat="47.15758" lon="-1.62698">
        <ele>68</ele>
        <time>2021-04-18T08:46:07.000Z</time>
      </trkpt>
      <trkpt lat="47.15749" lon="-1.62696">
        <ele>68</ele>
        <time>2021-04-18T08:46:09.000Z</time>
      </trkpt>
      <trkpt lat="47.15738" lon="-1.62694">
        <ele>68</ele>
        <time>2021-04-18T08:46:11.000Z</time>
      </trkpt>
      <trkpt lat="47.15731" lon="-1.62684">
        <ele>67</ele>
        <time>2021-04-18T08:46:13.000Z</time>
      </trkpt>
      <trkpt lat="47.15731" lon="-1.62671">
        <ele>65</ele>
        <time>2021-04-18T08:46:15.000Z</time>
      </trkpt>
      <trkpt lat="47.15729" lon="-1.62657">
        <ele>63</ele>
        <time>2021-04-18T08:46:17.000Z</time>
      </trkpt>
      <trkpt lat="47.15727" lon="-1.62637">
        <ele>61</ele>
        <time>2021-04-18T08:46:20.000Z</time>
      </trkpt>
      <trkpt lat="47.15724" lon="-1.6261">
        <ele>60</ele>
        <time>2021-04-18T08:46:25.000Z</time>
      </trkpt>
      <trkpt lat="47.15722" lon="-1.62595">
        <ele>58</ele>
        <time>2021-04-18T08:46:29.000Z</time>
      </trkpt>
      <trkpt lat="47.15722" lon="-1.6258">
        <ele>59</ele>
        <time>2021-04-18T08:46:31.000Z</time>
      </trkpt>
      <trkpt lat="47.15723" lon="-1.62565">
        <ele>59</ele>
        <time>2021-04-18T08:46:33.000Z</time>
      </trkpt>
      <trkpt lat="47.15721" lon="-1.62543">
        <ele>59</ele>
        <time>2021-04-18T08:46:36.000Z</time>
      </trkpt>
      <trkpt lat="47.15719" lon="-1.62529">
        <ele>59</ele>
        <time>2021-04-18T08:46:38.000Z</time>
      </trkpt>
      <trkpt lat="47.1572" lon="-1.62515">
        <ele>60</ele>
        <time>2021-04-18T08:46:40.000Z</time>
      </trkpt>
      <trkpt lat="47.15719" lon="-1.62491">
        <ele>58</ele>
        <time>2021-04-18T08:46:43.000Z</time>
      </trkpt>
      <trkpt lat="47.15718" lon="-1.62475">
        <ele>58</ele>
        <time>2021-04-18T08:46:45.000Z</time>
      </trkpt>
      <trkpt lat="47.15718" lon="-1.62457">
        <ele>59</ele>
        <time>2021-04-18T08:46:48.000Z</time>
      </trkpt>
      <trkpt lat="47.15718" lon="-1.62443">
        <ele>60</ele>
        <time>2021-04-18T08:46:50.000Z</time>
      </trkpt>
      <trkpt lat="47.15718" lon="-1.62426">
        <ele>60</ele>
        <time>2021-04-18T08:46:54.000Z</time>
      </trkpt>
      <trkpt lat="47.15716" lon="-1.62408">
        <ele>61</ele>
        <time>2021-04-18T08:46:57.000Z</time>
      </trkpt>
      <trkpt lat="47.15714" lon="-1.6239">
        <ele>62</ele>
        <time>2021-04-18T08:47:00.000Z</time>
      </trkpt>
      <trkpt lat="47.15707" lon="-1.62377">
        <ele>62</ele>
        <time>2021-04-18T08:47:04.000Z</time>
      </trkpt>
      <trkpt lat="47.15695" lon="-1.62374">
        <ele>61</ele>
        <time>2021-04-18T08:47:07.000Z</time>
      </trkpt>
      <trkpt lat="47.15686" lon="-1.62374">
        <ele>62</ele>
        <time>2021-04-18T08:47:13.000Z</time>
      </trkpt>
      <trkpt lat="47.15683" lon="-1.62362">
        <ele>66</ele>
        <time>2021-04-18T08:47:20.000Z</time>
      </trkpt>
      <trkpt lat="47.15671" lon="-1.62361">
        <ele>69</ele>
        <time>2021-04-18T08:47:24.000Z</time>
      </trkpt>
      <trkpt lat="47.15661" lon="-1.62358">
        <ele>75</ele>
        <time>2021-04-18T08:47:28.000Z</time>
      </trkpt>
      <trkpt lat="47.15651" lon="-1.62351">
        <ele>76</ele>
        <time>2021-04-18T08:47:32.000Z</time>
      </trkpt>
      <trkpt lat="47.15634" lon="-1.6235">
        <ele>87</ele>
        <time>2021-04-18T08:47:36.000Z</time>
      </trkpt>
      <trkpt lat="47.15625" lon="-1.6234">
        <ele>80</ele>
        <time>2021-04-18T08:47:39.000Z</time>
      </trkpt>
      <trkpt lat="47.15626" lon="-1.62356">
        <ele>81</ele>
        <time>2021-04-18T08:47:45.000Z</time>
      </trkpt>
      <trkpt lat="47.15633" lon="-1.62368">
        <ele>74</ele>
        <time>2021-04-18T08:48:00.000Z</time>
      </trkpt>
      <trkpt lat="47.15624" lon="-1.62375">
        <ele>77</ele>
        <time>2021-04-18T08:48:28.000Z</time>
      </trkpt>
      <trkpt lat="47.15618" lon="-1.62363">
        <ele>78</ele>
        <time>2021-04-18T08:48:36.000Z</time>
      </trkpt>
      <trkpt lat="47.15608" lon="-1.62367">
        <ele>79</ele>
        <time>2021-04-18T08:48:43.000Z</time>
      </trkpt>
      <trkpt lat="47.15598" lon="-1.62373">
        <ele>69</ele>
        <time>2021-04-18T08:49:20.000Z</time>
      </trkpt>
      <trkpt lat="47.1559" lon="-1.62382">
        <ele>71</ele>
        <time>2021-04-18T08:49:26.000Z</time>
      </trkpt>
      <trkpt lat="47.15583" lon="-1.62391">
        <ele>73</ele>
        <time>2021-04-18T08:49:29.000Z</time>
      </trkpt>
      <trkpt lat="47.15576" lon="-1.624">
        <ele>76</ele>
        <time>2021-04-18T08:49:32.000Z</time>
      </trkpt>
      <trkpt lat="47.1557" lon="-1.62411">
        <ele>78</ele>
        <time>2021-04-18T08:49:36.000Z</time>
      </trkpt>
      <trkpt lat="47.15561" lon="-1.62419">
        <ele>80</ele>
        <time>2021-04-18T08:49:41.000Z</time>
      </trkpt>
      <trkpt lat="47.15551" lon="-1.62422">
        <ele>76</ele>
        <time>2021-04-18T08:49:48.000Z</time>
      </trkpt>
      <trkpt lat="47.15549" lon="-1.62436">
        <ele>83</ele>
        <time>2021-04-18T08:49:53.000Z</time>
      </trkpt>
      <trkpt lat="47.15553" lon="-1.62449">
        <ele>87</ele>
        <time>2021-04-18T08:49:57.000Z</time>
      </trkpt>
      <trkpt lat="47.15562" lon="-1.62455">
        <ele>89</ele>
        <time>2021-04-18T08:50:00.000Z</time>
      </trkpt>
      <trkpt lat="47.15572" lon="-1.62456">
        <ele>92</ele>
        <time>2021-04-18T08:50:04.000Z</time>
      </trkpt>
      <trkpt lat="47.15582" lon="-1.62462">
        <ele>94</ele>
        <time>2021-04-18T08:50:08.000Z</time>
      </trkpt>
      <trkpt lat="47.15593" lon="-1.62479">
        <ele>96</ele>
        <time>2021-04-18T08:50:13.000Z</time>
      </trkpt>
      <trkpt lat="47.15602" lon="-1.62498">
        <ele>96</ele>
        <time>2021-04-18T08:50:17.000Z</time>
      </trkpt>
      <trkpt lat="47.15609" lon="-1.62506">
        <ele>96</ele>
        <time>2021-04-18T08:50:19.000Z</time>
      </trkpt>
      <trkpt lat="47.1562" lon="-1.62511">
        <ele>94</ele>
        <time>2021-04-18T08:50:22.000Z</time>
      </trkpt>
      <trkpt lat="47.15631" lon="-1.62506">
        <ele>91</ele>
        <time>2021-04-18T08:50:25.000Z</time>
      </trkpt>
      <trkpt lat="47.15641" lon="-1.625">
        <ele>87</ele>
        <time>2021-04-18T08:50:29.000Z</time>
      </trkpt>
      <trkpt lat="47.15652" lon="-1.62496">
        <ele>89</ele>
        <time>2021-04-18T08:50:32.000Z</time>
      </trkpt>
      <trkpt lat="47.15658" lon="-1.62481">
        <ele>95</ele>
        <time>2021-04-18T08:50:35.000Z</time>
      </trkpt>
      <trkpt lat="47.15663" lon="-1.62469">
        <ele>98</ele>
        <time>2021-04-18T08:50:37.000Z</time>
      </trkpt>
      <trkpt lat="47.1567" lon="-1.62457">
        <ele>100</ele>
        <time>2021-04-18T08:50:39.000Z</time>
      </trkpt>
      <trkpt lat="47.15676" lon="-1.62446">
        <ele>103</ele>
        <time>2021-04-18T08:50:41.000Z</time>
      </trkpt>
      <trkpt lat="47.1568" lon="-1.62434">
        <ele>104</ele>
        <time>2021-04-18T08:50:43.000Z</time>
      </trkpt>
      <trkpt lat="47.15684" lon="-1.62417">
        <ele>104</ele>
        <time>2021-04-18T08:50:46.000Z</time>
      </trkpt>
      <trkpt lat="47.15692" lon="-1.62406">
        <ele>102</ele>
        <time>2021-04-18T08:50:49.000Z</time>
      </trkpt>
      <trkpt lat="47.15703" lon="-1.624">
        <ele>96</ele>
        <time>2021-04-18T08:50:53.000Z</time>
      </trkpt>
      <trkpt lat="47.15709" lon="-1.6241">
        <ele>88</ele>
        <time>2021-04-18T08:51:01.000Z</time>
      </trkpt>
      <trkpt lat="47.1571" lon="-1.6243">
        <ele>85</ele>
        <time>2021-04-18T08:51:06.000Z</time>
      </trkpt>
      <trkpt lat="47.15707" lon="-1.62444">
        <ele>83</ele>
        <time>2021-04-18T08:51:09.000Z</time>
      </trkpt>
      <trkpt lat="47.15709" lon="-1.62459">
        <ele>82</ele>
        <time>2021-04-18T08:51:12.000Z</time>
      </trkpt>
      <trkpt lat="47.15711" lon="-1.62479">
        <ele>77</ele>
        <time>2021-04-18T08:51:15.000Z</time>
      </trkpt>
      <trkpt lat="47.15716" lon="-1.62504">
        <ele>71</ele>
        <time>2021-04-18T08:51:19.000Z</time>
      </trkpt>
      <trkpt lat="47.15717" lon="-1.62522">
        <ele>67</ele>
        <time>2021-04-18T08:51:22.000Z</time>
      </trkpt>
      <trkpt lat="47.15719" lon="-1.62539">
        <ele>66</ele>
        <time>2021-04-18T08:51:25.000Z</time>
      </trkpt>
      <trkpt lat="47.1572" lon="-1.62553">
        <ele>67</ele>
        <time>2021-04-18T08:51:28.000Z</time>
      </trkpt>
      <trkpt lat="47.15722" lon="-1.62576">
        <ele>66</ele>
        <time>2021-04-18T08:51:32.000Z</time>
      </trkpt>
      <trkpt lat="47.15724" lon="-1.6259">
        <ele>64</ele>
        <time>2021-04-18T08:51:34.000Z</time>
      </trkpt>
      <trkpt lat="47.15728" lon="-1.62606">
        <ele>62</ele>
        <time>2021-04-18T08:51:37.000Z</time>
      </trkpt>
      <trkpt lat="47.15725" lon="-1.62627">
        <ele>60</ele>
        <time>2021-04-18T08:51:41.000Z</time>
      </trkpt>
      <trkpt lat="47.15728" lon="-1.62643">
        <ele>60</ele>
        <time>2021-04-18T08:51:44.000Z</time>
      </trkpt>
      <trkpt lat="47.15729" lon="-1.62668">
        <ele>59</ele>
        <time>2021-04-18T08:51:48.000Z</time>
      </trkpt>
      <trkpt lat="47.1573" lon="-1.62687">
        <ele>58</ele>
        <time>2021-04-18T08:51:51.000Z</time>
      </trkpt>
      <trkpt lat="47.1573" lon="-1.62703">
        <ele>57</ele>
        <time>2021-04-18T08:51:54.000Z</time>
      </trkpt>
      <trkpt lat="47.15732" lon="-1.62718">
        <ele>59</ele>
        <time>2021-04-18T08:51:57.000Z</time>
      </trkpt>
      <trkpt lat="47.15731" lon="-1.62734">
        <ele>61</ele>
        <time>2021-04-18T08:52:00.000Z</time>
      </trkpt>
      <trkpt lat="47.1573" lon="-1.62751">
        <ele>63</ele>
        <time>2021-04-18T08:52:04.000Z</time>
      </trkpt>
      <trkpt lat="47.15731" lon="-1.62766">
        <ele>66</ele>
        <time>2021-04-18T08:52:07.000Z</time>
      </trkpt>
      <trkpt lat="47.15731" lon="-1.62781">
        <ele>69</ele>
        <time>2021-04-18T08:52:10.000Z</time>
      </trkpt>
      <trkpt lat="47.15731" lon="-1.62797">
        <ele>71</ele>
        <time>2021-04-18T08:52:13.000Z</time>
      </trkpt>
      <trkpt lat="47.15727" lon="-1.62826">
        <ele>74</ele>
        <time>2021-04-18T08:52:18.000Z</time>
      </trkpt>
      <trkpt lat="47.1572" lon="-1.62848">
        <ele>73</ele>
        <time>2021-04-18T08:52:21.000Z</time>
      </trkpt>
      <trkpt lat="47.15711" lon="-1.62867">
        <ele>83</ele>
        <time>2021-04-18T08:52:25.000Z</time>
      </trkpt>
      <trkpt lat="47.15702" lon="-1.62877">
        <ele>88</ele>
        <time>2021-04-18T08:52:28.000Z</time>
      </trkpt>
      <trkpt lat="47.15692" lon="-1.62889">
        <ele>92</ele>
        <time>2021-04-18T08:52:31.000Z</time>
      </trkpt>
      <trkpt lat="47.15684" lon="-1.62897">
        <ele>93</ele>
        <time>2021-04-18T08:52:33.000Z</time>
      </trkpt>
      <trkpt lat="47.15673" lon="-1.62904">
        <ele>89</ele>
        <time>2021-04-18T08:52:35.000Z</time>
      </trkpt>
      <trkpt lat="47.15663" lon="-1.6291">
        <ele>86</ele>
        <time>2021-04-18T08:52:37.000Z</time>
      </trkpt>
      <trkpt lat="47.15654" lon="-1.62917">
        <ele>84</ele>
        <time>2021-04-18T08:52:39.000Z</time>
      </trkpt>
      <trkpt lat="47.15644" lon="-1.62924">
        <ele>82</ele>
        <time>2021-04-18T08:52:41.000Z</time>
      </trkpt>
      <trkpt lat="47.15635" lon="-1.6293">
        <ele>80</ele>
        <time>2021-04-18T08:52:43.000Z</time>
      </trkpt>
      <trkpt lat="47.15625" lon="-1.62937">
        <ele>78</ele>
        <time>2021-04-18T08:52:45.000Z</time>
      </trkpt>
      <trkpt lat="47.1561" lon="-1.62954">
        <ele>76</ele>
        <time>2021-04-18T08:52:49.000Z</time>
      </trkpt>
      <trkpt lat="47.15602" lon="-1.62964">
        <ele>74</ele>
        <time>2021-04-18T08:52:51.000Z</time>
      </trkpt>
      <trkpt lat="47.15591" lon="-1.62973">
        <ele>72</ele>
        <time>2021-04-18T08:52:53.000Z</time>
      </trkpt>
      <trkpt lat="47.15578" lon="-1.62988">
        <ele>74</ele>
        <time>2021-04-18T08:52:57.000Z</time>
      </trkpt>
      <trkpt lat="47.15571" lon="-1.62998">
        <ele>73</ele>
        <time>2021-04-18T08:52:59.000Z</time>
      </trkpt>
      <trkpt lat="47.15562" lon="-1.6301">
        <ele>75</ele>
        <time>2021-04-18T08:53:02.000Z</time>
      </trkpt>
      <trkpt lat="47.15557" lon="-1.63024">
        <ele>82</ele>
        <time>2021-04-18T08:53:05.000Z</time>
      </trkpt>
      <trkpt lat="47.15549" lon="-1.6304">
        <ele>83</ele>
        <time>2021-04-18T08:53:08.000Z</time>
      </trkpt>
      <trkpt lat="47.15541" lon="-1.63049">
        <ele>81</ele>
        <time>2021-04-18T08:53:10.000Z</time>
      </trkpt>
      <trkpt lat="47.15531" lon="-1.63062">
        <ele>80</ele>
        <time>2021-04-18T08:53:13.000Z</time>
      </trkpt>
      <trkpt lat="47.1552" lon="-1.63075">
        <ele>79</ele>
        <time>2021-04-18T08:53:16.000Z</time>
      </trkpt>
      <trkpt lat="47.15511" lon="-1.63089">
        <ele>78</ele>
        <time>2021-04-18T08:53:19.000Z</time>
      </trkpt>
      <trkpt lat="47.15504" lon="-1.63098">
        <ele>78</ele>
        <time>2021-04-18T08:53:21.000Z</time>
      </trkpt>
      <trkpt lat="47.15494" lon="-1.63106">
        <ele>76</ele>
        <time>2021-04-18T08:53:23.000Z</time>
      </trkpt>
      <trkpt lat="47.15481" lon="-1.63114">
        <ele>72</ele>
        <time>2021-04-18T08:53:26.000Z</time>
      </trkpt>
      <trkpt lat="47.15475" lon="-1.63126">
        <ele>73</ele>
        <time>2021-04-18T08:53:28.000Z</time>
      </trkpt>
      <trkpt lat="47.15469" lon="-1.63138">
        <ele>72</ele>
        <time>2021-04-18T08:53:30.000Z</time>
      </trkpt>
      <trkpt lat="47.15461" lon="-1.63146">
        <ele>70</ele>
        <time>2021-04-18T08:53:32.000Z</time>
      </trkpt>
      <trkpt lat="47.15452" lon="-1.63158">
        <ele>70</ele>
        <time>2021-04-18T08:53:35.000Z</time>
      </trkpt>
      <trkpt lat="47.15447" lon="-1.63168">
        <ele>70</ele>
        <time>2021-04-18T08:53:37.000Z</time>
      </trkpt>
      <trkpt lat="47.1544" lon="-1.63178">
        <ele>70</ele>
        <time>2021-04-18T08:53:39.000Z</time>
      </trkpt>
      <trkpt lat="47.15432" lon="-1.63191">
        <ele>71</ele>
        <time>2021-04-18T08:53:42.000Z</time>
      </trkpt>
      <trkpt lat="47.15427" lon="-1.63203">
        <ele>71</ele>
        <time>2021-04-18T08:53:44.000Z</time>
      </trkpt>
      <trkpt lat="47.15419" lon="-1.63219">
        <ele>72</ele>
        <time>2021-04-18T08:53:47.000Z</time>
      </trkpt>
      <trkpt lat="47.15411" lon="-1.63234">
        <ele>73</ele>
        <time>2021-04-18T08:53:50.000Z</time>
      </trkpt>
      <trkpt lat="47.15405" lon="-1.63244">
        <ele>75</ele>
        <time>2021-04-18T08:53:52.000Z</time>
      </trkpt>
      <trkpt lat="47.15398" lon="-1.63256">
        <ele>74</ele>
        <time>2021-04-18T08:53:54.000Z</time>
      </trkpt>
      <trkpt lat="47.1539" lon="-1.63266">
        <ele>73</ele>
        <time>2021-04-18T08:53:56.000Z</time>
      </trkpt>
      <trkpt lat="47.15378" lon="-1.6328">
        <ele>72</ele>
        <time>2021-04-18T08:53:59.000Z</time>
      </trkpt>
      <trkpt lat="47.15361" lon="-1.63302">
        <ele>68</ele>
        <time>2021-04-18T08:54:04.000Z</time>
      </trkpt>
      <trkpt lat="47.15354" lon="-1.63313">
        <ele>72</ele>
        <time>2021-04-18T08:54:07.000Z</time>
      </trkpt>
      <trkpt lat="47.15342" lon="-1.63327">
        <ele>74</ele>
        <time>2021-04-18T08:54:10.000Z</time>
      </trkpt>
      <trkpt lat="47.15335" lon="-1.63335">
        <ele>76</ele>
        <time>2021-04-18T08:54:12.000Z</time>
      </trkpt>
      <trkpt lat="47.15323" lon="-1.63346">
        <ele>75</ele>
        <time>2021-04-18T08:54:15.000Z</time>
      </trkpt>
      <trkpt lat="47.15314" lon="-1.63356">
        <ele>73</ele>
        <time>2021-04-18T08:54:17.000Z</time>
      </trkpt>
      <trkpt lat="47.15306" lon="-1.63366">
        <ele>72</ele>
        <time>2021-04-18T08:54:19.000Z</time>
      </trkpt>
      <trkpt lat="47.15299" lon="-1.63374">
        <ele>71</ele>
        <time>2021-04-18T08:54:21.000Z</time>
      </trkpt>
      <trkpt lat="47.15289" lon="-1.63387">
        <ele>71</ele>
        <time>2021-04-18T08:54:24.000Z</time>
      </trkpt>
      <trkpt lat="47.15279" lon="-1.63399">
        <ele>71</ele>
        <time>2021-04-18T08:54:27.000Z</time>
      </trkpt>
      <trkpt lat="47.15266" lon="-1.63416">
        <ele>73</ele>
        <time>2021-04-18T08:54:31.000Z</time>
      </trkpt>
      <trkpt lat="47.15253" lon="-1.63429">
        <ele>71</ele>
        <time>2021-04-18T08:54:34.000Z</time>
      </trkpt>
      <trkpt lat="47.15245" lon="-1.63434">
        <ele>71</ele>
        <time>2021-04-18T08:54:36.000Z</time>
      </trkpt>
      <trkpt lat="47.15237" lon="-1.63441">
        <ele>73</ele>
        <time>2021-04-18T08:54:38.000Z</time>
      </trkpt>
      <trkpt lat="47.15229" lon="-1.63454">
        <ele>77</ele>
        <time>2021-04-18T08:54:41.000Z</time>
      </trkpt>
      <trkpt lat="47.15219" lon="-1.63467">
        <ele>77</ele>
        <time>2021-04-18T08:54:44.000Z</time>
      </trkpt>
      <trkpt lat="47.15212" lon="-1.63476">
        <ele>77</ele>
        <time>2021-04-18T08:54:46.000Z</time>
      </trkpt>
      <trkpt lat="47.15204" lon="-1.6349">
        <ele>77</ele>
        <time>2021-04-18T08:54:49.000Z</time>
      </trkpt>
      <trkpt lat="47.15196" lon="-1.63499">
        <ele>76</ele>
        <time>2021-04-18T08:54:51.000Z</time>
      </trkpt>
      <trkpt lat="47.1519" lon="-1.63508">
        <ele>77</ele>
        <time>2021-04-18T08:54:53.000Z</time>
      </trkpt>
      <trkpt lat="47.15182" lon="-1.63517">
        <ele>77</ele>
        <time>2021-04-18T08:54:55.000Z</time>
      </trkpt>
      <trkpt lat="47.15172" lon="-1.63529">
        <ele>76</ele>
        <time>2021-04-18T08:54:58.000Z</time>
      </trkpt>
      <trkpt lat="47.15164" lon="-1.63541">
        <ele>76</ele>
        <time>2021-04-18T08:55:01.000Z</time>
      </trkpt>
      <trkpt lat="47.15156" lon="-1.63551">
        <ele>78</ele>
        <time>2021-04-18T08:55:04.000Z</time>
      </trkpt>
      <trkpt lat="47.15147" lon="-1.63561">
        <ele>78</ele>
        <time>2021-04-18T08:55:07.000Z</time>
      </trkpt>
      <trkpt lat="47.15139" lon="-1.6357">
        <ele>79</ele>
        <time>2021-04-18T08:55:10.000Z</time>
      </trkpt>
      <trkpt lat="47.15126" lon="-1.63561">
        <ele>78</ele>
        <time>2021-04-18T08:55:14.000Z</time>
      </trkpt>
      <trkpt lat="47.1512" lon="-1.63548">
        <ele>77</ele>
        <time>2021-04-18T08:55:17.000Z</time>
      </trkpt>
      <trkpt lat="47.15109" lon="-1.63529">
        <ele>79</ele>
        <time>2021-04-18T08:55:21.000Z</time>
      </trkpt>
      <trkpt lat="47.15103" lon="-1.63518">
        <ele>79</ele>
        <time>2021-04-18T08:55:23.000Z</time>
      </trkpt>
      <trkpt lat="47.15097" lon="-1.63506">
        <ele>79</ele>
        <time>2021-04-18T08:55:25.000Z</time>
      </trkpt>
      <trkpt lat="47.15092" lon="-1.63493">
        <ele>77</ele>
        <time>2021-04-18T08:55:27.000Z</time>
      </trkpt>
      <trkpt lat="47.15084" lon="-1.6348">
        <ele>77</ele>
        <time>2021-04-18T08:55:30.000Z</time>
      </trkpt>
      <trkpt lat="47.15078" lon="-1.63464">
        <ele>74</ele>
        <time>2021-04-18T08:55:33.000Z</time>
      </trkpt>
      <trkpt lat="47.15072" lon="-1.63453">
        <ele>75</ele>
        <time>2021-04-18T08:55:36.000Z</time>
      </trkpt>
      <trkpt lat="47.15066" lon="-1.6344">
        <ele>76</ele>
        <time>2021-04-18T08:55:38.000Z</time>
      </trkpt>
      <trkpt lat="47.15057" lon="-1.63418">
        <ele>76</ele>
        <time>2021-04-18T08:55:41.000Z</time>
      </trkpt>
      <trkpt lat="47.15048" lon="-1.63405">
        <ele>76</ele>
        <time>2021-04-18T08:55:43.000Z</time>
      </trkpt>
      <trkpt lat="47.1504" lon="-1.63394">
        <ele>75</ele>
        <time>2021-04-18T08:55:45.000Z</time>
      </trkpt>
      <trkpt lat="47.15033" lon="-1.63385">
        <ele>75</ele>
        <time>2021-04-18T08:55:47.000Z</time>
      </trkpt>
      <trkpt lat="47.15021" lon="-1.63369">
        <ele>75</ele>
        <time>2021-04-18T08:55:51.000Z</time>
      </trkpt>
      <trkpt lat="47.1501" lon="-1.63353">
        <ele>75</ele>
        <time>2021-04-18T08:55:54.000Z</time>
      </trkpt>
      <trkpt lat="47.15003" lon="-1.63343">
        <ele>75</ele>
        <time>2021-04-18T08:55:56.000Z</time>
      </trkpt>
      <trkpt lat="47.14991" lon="-1.63328">
        <ele>76</ele>
        <time>2021-04-18T08:55:59.000Z</time>
      </trkpt>
      <trkpt lat="47.14984" lon="-1.63318">
        <ele>77</ele>
        <time>2021-04-18T08:56:01.000Z</time>
      </trkpt>
      <trkpt lat="47.14974" lon="-1.63303">
        <ele>77</ele>
        <time>2021-04-18T08:56:04.000Z</time>
      </trkpt>
      <trkpt lat="47.14965" lon="-1.63291">
        <ele>76</ele>
        <time>2021-04-18T08:56:06.000Z</time>
      </trkpt>
      <trkpt lat="47.14955" lon="-1.63278">
        <ele>76</ele>
        <time>2021-04-18T08:56:08.000Z</time>
      </trkpt>
      <trkpt lat="47.14947" lon="-1.63268">
        <ele>76</ele>
        <time>2021-04-18T08:56:10.000Z</time>
      </trkpt>
      <trkpt lat="47.14939" lon="-1.63258">
        <ele>75</ele>
        <time>2021-04-18T08:56:12.000Z</time>
      </trkpt>
      <trkpt lat="47.14931" lon="-1.63247">
        <ele>74</ele>
        <time>2021-04-18T08:56:14.000Z</time>
      </trkpt>
      <trkpt lat="47.14924" lon="-1.63237">
        <ele>74</ele>
        <time>2021-04-18T08:56:16.000Z</time>
      </trkpt>
      <trkpt lat="47.14917" lon="-1.63228">
        <ele>74</ele>
        <time>2021-04-18T08:56:18.000Z</time>
      </trkpt>
      <trkpt lat="47.1491" lon="-1.63219">
        <ele>74</ele>
        <time>2021-04-18T08:56:20.000Z</time>
      </trkpt>
      <trkpt lat="47.14899" lon="-1.63208">
        <ele>75</ele>
        <time>2021-04-18T08:56:23.000Z</time>
      </trkpt>
      <trkpt lat="47.14889" lon="-1.63201">
        <ele>76</ele>
        <time>2021-04-18T08:56:26.000Z</time>
      </trkpt>
      <trkpt lat="47.14878" lon="-1.63187">
        <ele>79</ele>
        <time>2021-04-18T08:56:32.000Z</time>
      </trkpt>
      <trkpt lat="47.14876" lon="-1.63168">
        <ele>77</ele>
        <time>2021-04-18T08:56:35.000Z</time>
      </trkpt>
      <trkpt lat="47.14876" lon="-1.63153">
        <ele>76</ele>
        <time>2021-04-18T08:56:37.000Z</time>
      </trkpt>
      <trkpt lat="47.14876" lon="-1.63137">
        <ele>75</ele>
        <time>2021-04-18T08:56:39.000Z</time>
      </trkpt>
      <trkpt lat="47.14877" lon="-1.63122">
        <ele>75</ele>
        <time>2021-04-18T08:56:41.000Z</time>
      </trkpt>
      <trkpt lat="47.14878" lon="-1.63108">
        <ele>75</ele>
        <time>2021-04-18T08:56:43.000Z</time>
      </trkpt>
      <trkpt lat="47.1488" lon="-1.63094">
        <ele>75</ele>
        <time>2021-04-18T08:56:45.000Z</time>
      </trkpt>
      <trkpt lat="47.14882" lon="-1.6308">
        <ele>74</ele>
        <time>2021-04-18T08:56:47.000Z</time>
      </trkpt>
      <trkpt lat="47.14883" lon="-1.63065">
        <ele>75</ele>
        <time>2021-04-18T08:56:49.000Z</time>
      </trkpt>
      <trkpt lat="47.14885" lon="-1.6305">
        <ele>74</ele>
        <time>2021-04-18T08:56:51.000Z</time>
      </trkpt>
      <trkpt lat="47.14888" lon="-1.63027">
        <ele>73</ele>
        <time>2021-04-18T08:56:54.000Z</time>
      </trkpt>
      <trkpt lat="47.14891" lon="-1.63012">
        <ele>73</ele>
        <time>2021-04-18T08:56:56.000Z</time>
      </trkpt>
      <trkpt lat="47.14893" lon="-1.62997">
        <ele>72</ele>
        <time>2021-04-18T08:56:58.000Z</time>
      </trkpt>
      <trkpt lat="47.14895" lon="-1.62983">
        <ele>72</ele>
        <time>2021-04-18T08:57:00.000Z</time>
      </trkpt>
      <trkpt lat="47.14899" lon="-1.62968">
        <ele>71</ele>
        <time>2021-04-18T08:57:02.000Z</time>
      </trkpt>
      <trkpt lat="47.14901" lon="-1.62946">
        <ele>71</ele>
        <time>2021-04-18T08:57:05.000Z</time>
      </trkpt>
      <trkpt lat="47.14902" lon="-1.62931">
        <ele>71</ele>
        <time>2021-04-18T08:57:07.000Z</time>
      </trkpt>
      <trkpt lat="47.14904" lon="-1.62907">
        <ele>71</ele>
        <time>2021-04-18T08:57:10.000Z</time>
      </trkpt>
      <trkpt lat="47.14904" lon="-1.62892">
        <ele>71</ele>
        <time>2021-04-18T08:57:12.000Z</time>
      </trkpt>
      <trkpt lat="47.14908" lon="-1.62873">
        <ele>70</ele>
        <time>2021-04-18T08:57:14.000Z</time>
      </trkpt>
      <trkpt lat="47.1491" lon="-1.62859">
        <ele>68</ele>
        <time>2021-04-18T08:57:16.000Z</time>
      </trkpt>
      <trkpt lat="47.14913" lon="-1.62845">
        <ele>69</ele>
        <time>2021-04-18T08:57:18.000Z</time>
      </trkpt>
      <trkpt lat="47.14915" lon="-1.6283">
        <ele>70</ele>
        <time>2021-04-18T08:57:20.000Z</time>
      </trkpt>
      <trkpt lat="47.14917" lon="-1.62816">
        <ele>70</ele>
        <time>2021-04-18T08:57:22.000Z</time>
      </trkpt>
      <trkpt lat="47.14919" lon="-1.628">
        <ele>70</ele>
        <time>2021-04-18T08:57:24.000Z</time>
      </trkpt>
      <trkpt lat="47.14921" lon="-1.62785">
        <ele>70</ele>
        <time>2021-04-18T08:57:26.000Z</time>
      </trkpt>
      <trkpt lat="47.14924" lon="-1.6277">
        <ele>70</ele>
        <time>2021-04-18T08:57:28.000Z</time>
      </trkpt>
      <trkpt lat="47.14926" lon="-1.62754">
        <ele>70</ele>
        <time>2021-04-18T08:57:30.000Z</time>
      </trkpt>
      <trkpt lat="47.14928" lon="-1.6274">
        <ele>70</ele>
        <time>2021-04-18T08:57:32.000Z</time>
      </trkpt>
      <trkpt lat="47.14931" lon="-1.62725">
        <ele>70</ele>
        <time>2021-04-18T08:57:34.000Z</time>
      </trkpt>
      <trkpt lat="47.14933" lon="-1.62709">
        <ele>69</ele>
        <time>2021-04-18T08:57:36.000Z</time>
      </trkpt>
      <trkpt lat="47.14936" lon="-1.62684">
        <ele>68</ele>
        <time>2021-04-18T08:57:39.000Z</time>
      </trkpt>
      <trkpt lat="47.14939" lon="-1.62669">
        <ele>68</ele>
        <time>2021-04-18T08:57:41.000Z</time>
      </trkpt>
      <trkpt lat="47.14942" lon="-1.62644">
        <ele>67</ele>
        <time>2021-04-18T08:57:44.000Z</time>
      </trkpt>
      <trkpt lat="47.14946" lon="-1.62619">
        <ele>67</ele>
        <time>2021-04-18T08:57:47.000Z</time>
      </trkpt>
      <trkpt lat="47.14951" lon="-1.62591">
        <ele>65</ele>
        <time>2021-04-18T08:57:50.000Z</time>
      </trkpt>
      <trkpt lat="47.14953" lon="-1.62575">
        <ele>67</ele>
        <time>2021-04-18T08:57:52.000Z</time>
      </trkpt>
      <trkpt lat="47.14955" lon="-1.62559">
        <ele>67</ele>
        <time>2021-04-18T08:57:54.000Z</time>
      </trkpt>
      <trkpt lat="47.14957" lon="-1.62532">
        <ele>67</ele>
        <time>2021-04-18T08:57:57.000Z</time>
      </trkpt>
      <trkpt lat="47.14959" lon="-1.62517">
        <ele>67</ele>
        <time>2021-04-18T08:57:59.000Z</time>
      </trkpt>
      <trkpt lat="47.14963" lon="-1.62493">
        <ele>68</ele>
        <time>2021-04-18T08:58:02.000Z</time>
      </trkpt>
      <trkpt lat="47.14966" lon="-1.62476">
        <ele>68</ele>
        <time>2021-04-18T08:58:04.000Z</time>
      </trkpt>
      <trkpt lat="47.14968" lon="-1.62459">
        <ele>67</ele>
        <time>2021-04-18T08:58:06.000Z</time>
      </trkpt>
      <trkpt lat="47.1497" lon="-1.6244">
        <ele>67</ele>
        <time>2021-04-18T08:58:08.000Z</time>
      </trkpt>
      <trkpt lat="47.14973" lon="-1.62423">
        <ele>67</ele>
        <time>2021-04-18T08:58:10.000Z</time>
      </trkpt>
      <trkpt lat="47.14976" lon="-1.62406">
        <ele>68</ele>
        <time>2021-04-18T08:58:12.000Z</time>
      </trkpt>
      <trkpt lat="47.14979" lon="-1.6239">
        <ele>68</ele>
        <time>2021-04-18T08:58:14.000Z</time>
      </trkpt>
      <trkpt lat="47.14981" lon="-1.62372">
        <ele>68</ele>
        <time>2021-04-18T08:58:16.000Z</time>
      </trkpt>
      <trkpt lat="47.14984" lon="-1.62354">
        <ele>68</ele>
        <time>2021-04-18T08:58:18.000Z</time>
      </trkpt>
      <trkpt lat="47.14986" lon="-1.62336">
        <ele>68</ele>
        <time>2021-04-18T08:58:20.000Z</time>
      </trkpt>
      <trkpt lat="47.14988" lon="-1.62318">
        <ele>69</ele>
        <time>2021-04-18T08:58:22.000Z</time>
      </trkpt>
      <trkpt lat="47.1499" lon="-1.623">
        <ele>69</ele>
        <time>2021-04-18T08:58:24.000Z</time>
      </trkpt>
      <trkpt lat="47.14992" lon="-1.62283">
        <ele>69</ele>
        <time>2021-04-18T08:58:26.000Z</time>
      </trkpt>
      <trkpt lat="47.14994" lon="-1.62265">
        <ele>67</ele>
        <time>2021-04-18T08:58:28.000Z</time>
      </trkpt>
      <trkpt lat="47.14997" lon="-1.62237">
        <ele>71</ele>
        <time>2021-04-18T08:58:32.000Z</time>
      </trkpt>
      <trkpt lat="47.14999" lon="-1.62223">
        <ele>73</ele>
        <time>2021-04-18T08:58:34.000Z</time>
      </trkpt>
      <trkpt lat="47.15003" lon="-1.62201">
        <ele>73</ele>
        <time>2021-04-18T08:58:36.000Z</time>
      </trkpt>
      <trkpt lat="47.15009" lon="-1.62186">
        <ele>73</ele>
        <time>2021-04-18T08:58:38.000Z</time>
      </trkpt>
      <trkpt lat="47.1501" lon="-1.62169">
        <ele>73</ele>
        <time>2021-04-18T08:58:40.000Z</time>
      </trkpt>
      <trkpt lat="47.15012" lon="-1.6215">
        <ele>71</ele>
        <time>2021-04-18T08:58:42.000Z</time>
      </trkpt>
      <trkpt lat="47.15019" lon="-1.62122">
        <ele>69</ele>
        <time>2021-04-18T08:58:45.000Z</time>
      </trkpt>
      <trkpt lat="47.1502" lon="-1.62108">
        <ele>69</ele>
        <time>2021-04-18T08:58:47.000Z</time>
      </trkpt>
      <trkpt lat="47.15021" lon="-1.62091">
        <ele>70</ele>
        <time>2021-04-18T08:58:49.000Z</time>
      </trkpt>
      <trkpt lat="47.1502" lon="-1.62077">
        <ele>70</ele>
        <time>2021-04-18T08:58:51.000Z</time>
      </trkpt>
      <trkpt lat="47.15013" lon="-1.62065">
        <ele>70</ele>
        <time>2021-04-18T08:58:53.000Z</time>
      </trkpt>
      <trkpt lat="47.15004" lon="-1.62059">
        <ele>69</ele>
        <time>2021-04-18T08:58:55.000Z</time>
      </trkpt>
      <trkpt lat="47.14994" lon="-1.62055">
        <ele>69</ele>
        <time>2021-04-18T08:58:57.000Z</time>
      </trkpt>
      <trkpt lat="47.14983" lon="-1.62052">
        <ele>70</ele>
        <time>2021-04-18T08:58:59.000Z</time>
      </trkpt>
      <trkpt lat="47.14971" lon="-1.62048">
        <ele>69</ele>
        <time>2021-04-18T08:59:01.000Z</time>
      </trkpt>
      <trkpt lat="47.14958" lon="-1.62045">
        <ele>70</ele>
        <time>2021-04-18T08:59:03.000Z</time>
      </trkpt>
      <trkpt lat="47.14945" lon="-1.62041">
        <ele>70</ele>
        <time>2021-04-18T08:59:05.000Z</time>
      </trkpt>
      <trkpt lat="47.14933" lon="-1.62038">
        <ele>70</ele>
        <time>2021-04-18T08:59:07.000Z</time>
      </trkpt>
      <trkpt lat="47.14921" lon="-1.62034">
        <ele>70</ele>
        <time>2021-04-18T08:59:09.000Z</time>
      </trkpt>
      <trkpt lat="47.14903" lon="-1.62029">
        <ele>70</ele>
        <time>2021-04-18T08:59:12.000Z</time>
      </trkpt>
      <trkpt lat="47.14891" lon="-1.62025">
        <ele>70</ele>
        <time>2021-04-18T08:59:14.000Z</time>
      </trkpt>
      <trkpt lat="47.14879" lon="-1.62021">
        <ele>69</ele>
        <time>2021-04-18T08:59:16.000Z</time>
      </trkpt>
      <trkpt lat="47.14867" lon="-1.62018">
        <ele>70</ele>
        <time>2021-04-18T08:59:18.000Z</time>
      </trkpt>
      <trkpt lat="47.14855" lon="-1.62015">
        <ele>70</ele>
        <time>2021-04-18T08:59:20.000Z</time>
      </trkpt>
      <trkpt lat="47.14843" lon="-1.62014">
        <ele>70</ele>
        <time>2021-04-18T08:59:22.000Z</time>
      </trkpt>
      <trkpt lat="47.14831" lon="-1.62014">
        <ele>70</ele>
        <time>2021-04-18T08:59:24.000Z</time>
      </trkpt>
      <trkpt lat="47.14819" lon="-1.62015">
        <ele>71</ele>
        <time>2021-04-18T08:59:26.000Z</time>
      </trkpt>
      <trkpt lat="47.14807" lon="-1.62015">
        <ele>71</ele>
        <time>2021-04-18T08:59:28.000Z</time>
      </trkpt>
      <trkpt lat="47.14788" lon="-1.62015">
        <ele>70</ele>
        <time>2021-04-18T08:59:31.000Z</time>
      </trkpt>
      <trkpt lat="47.14777" lon="-1.62016">
        <ele>70</ele>
        <time>2021-04-18T08:59:33.000Z</time>
      </trkpt>
      <trkpt lat="47.14763" lon="-1.62015">
        <ele>69</ele>
        <time>2021-04-18T08:59:35.000Z</time>
      </trkpt>
      <trkpt lat="47.1475" lon="-1.62017">
        <ele>68</ele>
        <time>2021-04-18T08:59:37.000Z</time>
      </trkpt>
      <trkpt lat="47.14738" lon="-1.62022">
        <ele>68</ele>
        <time>2021-04-18T08:59:39.000Z</time>
      </trkpt>
      <trkpt lat="47.14726" lon="-1.62027">
        <ele>69</ele>
        <time>2021-04-18T08:59:41.000Z</time>
      </trkpt>
      <trkpt lat="47.14714" lon="-1.62028">
        <ele>68</ele>
        <time>2021-04-18T08:59:43.000Z</time>
      </trkpt>
      <trkpt lat="47.14702" lon="-1.62032">
        <ele>68</ele>
        <time>2021-04-18T08:59:45.000Z</time>
      </trkpt>
      <trkpt lat="47.14689" lon="-1.62036">
        <ele>67</ele>
        <time>2021-04-18T08:59:47.000Z</time>
      </trkpt>
      <trkpt lat="47.14669" lon="-1.62039">
        <ele>62</ele>
        <time>2021-04-18T08:59:50.000Z</time>
      </trkpt>
      <trkpt lat="47.14651" lon="-1.6204">
        <ele>62</ele>
        <time>2021-04-18T08:59:53.000Z</time>
      </trkpt>
      <trkpt lat="47.14639" lon="-1.6204">
        <ele>63</ele>
        <time>2021-04-18T08:59:55.000Z</time>
      </trkpt>
      <trkpt lat="47.14626" lon="-1.62041">
        <ele>64</ele>
        <time>2021-04-18T08:59:57.000Z</time>
      </trkpt>
      <trkpt lat="47.14608" lon="-1.62041">
        <ele>65</ele>
        <time>2021-04-18T09:00:00.000Z</time>
      </trkpt>
      <trkpt lat="47.14596" lon="-1.62042">
        <ele>65</ele>
        <time>2021-04-18T09:00:02.000Z</time>
      </trkpt>
      <trkpt lat="47.14584" lon="-1.62043">
        <ele>66</ele>
        <time>2021-04-18T09:00:04.000Z</time>
      </trkpt>
      <trkpt lat="47.14572" lon="-1.62044">
        <ele>66</ele>
        <time>2021-04-18T09:00:06.000Z</time>
      </trkpt>
      <trkpt lat="47.1456" lon="-1.62043">
        <ele>67</ele>
        <time>2021-04-18T09:00:08.000Z</time>
      </trkpt>
      <trkpt lat="47.14548" lon="-1.62041">
        <ele>67</ele>
        <time>2021-04-18T09:00:10.000Z</time>
      </trkpt>
      <trkpt lat="47.14538" lon="-1.62036">
        <ele>68</ele>
        <time>2021-04-18T09:00:12.000Z</time>
      </trkpt>
      <trkpt lat="47.14527" lon="-1.62029">
        <ele>68</ele>
        <time>2021-04-18T09:00:14.000Z</time>
      </trkpt>
      <trkpt lat="47.14515" lon="-1.62026">
        <ele>69</ele>
        <time>2021-04-18T09:00:16.000Z</time>
      </trkpt>
      <trkpt lat="47.14502" lon="-1.62031">
        <ele>68</ele>
        <time>2021-04-18T09:00:18.000Z</time>
      </trkpt>
      <trkpt lat="47.1449" lon="-1.62039">
        <ele>68</ele>
        <time>2021-04-18T09:00:20.000Z</time>
      </trkpt>
      <trkpt lat="47.14479" lon="-1.62048">
        <ele>67</ele>
        <time>2021-04-18T09:00:22.000Z</time>
      </trkpt>
      <trkpt lat="47.14467" lon="-1.62056">
        <ele>68</ele>
        <time>2021-04-18T09:00:24.000Z</time>
      </trkpt>
      <trkpt lat="47.14457" lon="-1.62065">
        <ele>67</ele>
        <time>2021-04-18T09:00:26.000Z</time>
      </trkpt>
      <trkpt lat="47.14444" lon="-1.62075">
        <ele>67</ele>
        <time>2021-04-18T09:00:28.000Z</time>
      </trkpt>
      <trkpt lat="47.14433" lon="-1.62084">
        <ele>65</ele>
        <time>2021-04-18T09:00:30.000Z</time>
      </trkpt>
      <trkpt lat="47.14422" lon="-1.62091">
        <ele>68</ele>
        <time>2021-04-18T09:00:32.000Z</time>
      </trkpt>
      <trkpt lat="47.14412" lon="-1.621">
        <ele>68</ele>
        <time>2021-04-18T09:00:34.000Z</time>
      </trkpt>
      <trkpt lat="47.14401" lon="-1.62107">
        <ele>68</ele>
        <time>2021-04-18T09:00:36.000Z</time>
      </trkpt>
      <trkpt lat="47.14391" lon="-1.62115">
        <ele>67</ele>
        <time>2021-04-18T09:00:38.000Z</time>
      </trkpt>
      <trkpt lat="47.14381" lon="-1.62122">
        <ele>67</ele>
        <time>2021-04-18T09:00:40.000Z</time>
      </trkpt>
      <trkpt lat="47.14371" lon="-1.62131">
        <ele>67</ele>
        <time>2021-04-18T09:00:42.000Z</time>
      </trkpt>
      <trkpt lat="47.1436" lon="-1.62138">
        <ele>66</ele>
        <time>2021-04-18T09:00:44.000Z</time>
      </trkpt>
      <trkpt lat="47.1435" lon="-1.62146">
        <ele>66</ele>
        <time>2021-04-18T09:00:46.000Z</time>
      </trkpt>
      <trkpt lat="47.1434" lon="-1.62154">
        <ele>66</ele>
        <time>2021-04-18T09:00:48.000Z</time>
      </trkpt>
      <trkpt lat="47.14329" lon="-1.62163">
        <ele>66</ele>
        <time>2021-04-18T09:00:50.000Z</time>
      </trkpt>
      <trkpt lat="47.14319" lon="-1.62171">
        <ele>66</ele>
        <time>2021-04-18T09:00:52.000Z</time>
      </trkpt>
      <trkpt lat="47.14308" lon="-1.62178">
        <ele>66</ele>
        <time>2021-04-18T09:00:54.000Z</time>
      </trkpt>
      <trkpt lat="47.14297" lon="-1.62187">
        <ele>66</ele>
        <time>2021-04-18T09:00:56.000Z</time>
      </trkpt>
      <trkpt lat="47.14286" lon="-1.62195">
        <ele>66</ele>
        <time>2021-04-18T09:00:58.000Z</time>
      </trkpt>
      <trkpt lat="47.14272" lon="-1.6221">
        <ele>65</ele>
        <time>2021-04-18T09:01:01.000Z</time>
      </trkpt>
      <trkpt lat="47.14267" lon="-1.62226">
        <ele>65</ele>
        <time>2021-04-18T09:01:03.000Z</time>
      </trkpt>
      <trkpt lat="47.14264" lon="-1.62242">
        <ele>65</ele>
        <time>2021-04-18T09:01:05.000Z</time>
      </trkpt>
      <trkpt lat="47.14261" lon="-1.62261">
        <ele>63</ele>
        <time>2021-04-18T09:01:07.000Z</time>
      </trkpt>
      <trkpt lat="47.14256" lon="-1.62279">
        <ele>60</ele>
        <time>2021-04-18T09:01:09.000Z</time>
      </trkpt>
      <trkpt lat="47.14251" lon="-1.62306">
        <ele>62</ele>
        <time>2021-04-18T09:01:12.000Z</time>
      </trkpt>
      <trkpt lat="47.14249" lon="-1.62324">
        <ele>62</ele>
        <time>2021-04-18T09:01:14.000Z</time>
      </trkpt>
      <trkpt lat="47.14249" lon="-1.6234">
        <ele>63</ele>
        <time>2021-04-18T09:01:16.000Z</time>
      </trkpt>
      <trkpt lat="47.14247" lon="-1.62359">
        <ele>63</ele>
        <time>2021-04-18T09:01:18.000Z</time>
      </trkpt>
      <trkpt lat="47.14242" lon="-1.62379">
        <ele>64</ele>
        <time>2021-04-18T09:01:20.000Z</time>
      </trkpt>
      <trkpt lat="47.14238" lon="-1.62399">
        <ele>63</ele>
        <time>2021-04-18T09:01:22.000Z</time>
      </trkpt>
      <trkpt lat="47.14235" lon="-1.62418">
        <ele>64</ele>
        <time>2021-04-18T09:01:24.000Z</time>
      </trkpt>
      <trkpt lat="47.14231" lon="-1.62438">
        <ele>64</ele>
        <time>2021-04-18T09:01:26.000Z</time>
      </trkpt>
      <trkpt lat="47.14228" lon="-1.62457">
        <ele>63</ele>
        <time>2021-04-18T09:01:28.000Z</time>
      </trkpt>
      <trkpt lat="47.14224" lon="-1.62476">
        <ele>64</ele>
        <time>2021-04-18T09:01:30.000Z</time>
      </trkpt>
      <trkpt lat="47.14222" lon="-1.62496">
        <ele>63</ele>
        <time>2021-04-18T09:01:32.000Z</time>
      </trkpt>
      <trkpt lat="47.1422" lon="-1.62514">
        <ele>64</ele>
        <time>2021-04-18T09:01:34.000Z</time>
      </trkpt>
      <trkpt lat="47.14216" lon="-1.62533">
        <ele>64</ele>
        <time>2021-04-18T09:01:36.000Z</time>
      </trkpt>
      <trkpt lat="47.14213" lon="-1.62551">
        <ele>64</ele>
        <time>2021-04-18T09:01:38.000Z</time>
      </trkpt>
      <trkpt lat="47.14213" lon="-1.6257">
        <ele>64</ele>
        <time>2021-04-18T09:01:40.000Z</time>
      </trkpt>
      <trkpt lat="47.14215" lon="-1.62588">
        <ele>65</ele>
        <time>2021-04-18T09:01:42.000Z</time>
      </trkpt>
      <trkpt lat="47.14215" lon="-1.62607">
        <ele>65</ele>
        <time>2021-04-18T09:01:44.000Z</time>
      </trkpt>
      <trkpt lat="47.14216" lon="-1.62626">
        <ele>65</ele>
        <time>2021-04-18T09:01:46.000Z</time>
      </trkpt>
      <trkpt lat="47.14215" lon="-1.62644">
        <ele>62</ele>
        <time>2021-04-18T09:01:48.000Z</time>
      </trkpt>
      <trkpt lat="47.14216" lon="-1.62663">
        <ele>61</ele>
        <time>2021-04-18T09:01:50.000Z</time>
      </trkpt>
      <trkpt lat="47.14216" lon="-1.62679">
        <ele>63</ele>
        <time>2021-04-18T09:01:52.000Z</time>
      </trkpt>
      <trkpt lat="47.14209" lon="-1.62692">
        <ele>67</ele>
        <time>2021-04-18T09:01:54.000Z</time>
      </trkpt>
      <trkpt lat="47.14199" lon="-1.62702">
        <ele>70</ele>
        <time>2021-04-18T09:01:56.000Z</time>
      </trkpt>
      <trkpt lat="47.14189" lon="-1.6271">
        <ele>71</ele>
        <time>2021-04-18T09:01:58.000Z</time>
      </trkpt>
      <trkpt lat="47.14166" lon="-1.62722">
        <ele>73</ele>
        <time>2021-04-18T09:02:02.000Z</time>
      </trkpt>
      <trkpt lat="47.14153" lon="-1.62727">
        <ele>73</ele>
        <time>2021-04-18T09:02:04.000Z</time>
      </trkpt>
      <trkpt lat="47.1414" lon="-1.6273">
        <ele>73</ele>
        <time>2021-04-18T09:02:06.000Z</time>
      </trkpt>
      <trkpt lat="47.14127" lon="-1.6273">
        <ele>71</ele>
        <time>2021-04-18T09:02:08.000Z</time>
      </trkpt>
      <trkpt lat="47.14113" lon="-1.62729">
        <ele>71</ele>
        <time>2021-04-18T09:02:10.000Z</time>
      </trkpt>
      <trkpt lat="47.14099" lon="-1.62726">
        <ele>68</ele>
        <time>2021-04-18T09:02:12.000Z</time>
      </trkpt>
      <trkpt lat="47.14086" lon="-1.62725">
        <ele>71</ele>
        <time>2021-04-18T09:02:15.000Z</time>
      </trkpt>
      <trkpt lat="47.14066" lon="-1.62726">
        <ele>77</ele>
        <time>2021-04-18T09:02:18.000Z</time>
      </trkpt>
      <trkpt lat="47.14054" lon="-1.62725">
        <ele>77</ele>
        <time>2021-04-18T09:02:20.000Z</time>
      </trkpt>
      <trkpt lat="47.14032" lon="-1.62725">
        <ele>77</ele>
        <time>2021-04-18T09:02:23.000Z</time>
      </trkpt>
      <trkpt lat="47.14016" lon="-1.62728">
        <ele>74</ele>
        <time>2021-04-18T09:02:25.000Z</time>
      </trkpt>
      <trkpt lat="47.13993" lon="-1.62738">
        <ele>70</ele>
        <time>2021-04-18T09:02:28.000Z</time>
      </trkpt>
      <trkpt lat="47.13981" lon="-1.62746">
        <ele>68</ele>
        <time>2021-04-18T09:02:30.000Z</time>
      </trkpt>
      <trkpt lat="47.13963" lon="-1.62761">
        <ele>64</ele>
        <time>2021-04-18T09:02:33.000Z</time>
      </trkpt>
      <trkpt lat="47.1395" lon="-1.6277">
        <ele>62</ele>
        <time>2021-04-18T09:02:35.000Z</time>
      </trkpt>
      <trkpt lat="47.13938" lon="-1.62779">
        <ele>62</ele>
        <time>2021-04-18T09:02:37.000Z</time>
      </trkpt>
      <trkpt lat="47.13927" lon="-1.62789">
        <ele>61</ele>
        <time>2021-04-18T09:02:39.000Z</time>
      </trkpt>
      <trkpt lat="47.13916" lon="-1.62799">
        <ele>61</ele>
        <time>2021-04-18T09:02:41.000Z</time>
      </trkpt>
      <trkpt lat="47.13907" lon="-1.6281">
        <ele>62</ele>
        <time>2021-04-18T09:02:43.000Z</time>
      </trkpt>
      <trkpt lat="47.13897" lon="-1.62823">
        <ele>62</ele>
        <time>2021-04-18T09:02:45.000Z</time>
      </trkpt>
      <trkpt lat="47.13886" lon="-1.62836">
        <ele>61</ele>
        <time>2021-04-18T09:02:47.000Z</time>
      </trkpt>
      <trkpt lat="47.13869" lon="-1.62855">
        <ele>60</ele>
        <time>2021-04-18T09:02:50.000Z</time>
      </trkpt>
      <trkpt lat="47.13858" lon="-1.62868">
        <ele>60</ele>
        <time>2021-04-18T09:02:52.000Z</time>
      </trkpt>
      <trkpt lat="47.13847" lon="-1.62879">
        <ele>61</ele>
        <time>2021-04-18T09:02:54.000Z</time>
      </trkpt>
      <trkpt lat="47.13835" lon="-1.62889">
        <ele>61</ele>
        <time>2021-04-18T09:02:56.000Z</time>
      </trkpt>
      <trkpt lat="47.13823" lon="-1.62885">
        <ele>61</ele>
        <time>2021-04-18T09:02:58.000Z</time>
      </trkpt>
      <trkpt lat="47.13813" lon="-1.62869">
        <ele>60</ele>
        <time>2021-04-18T09:03:00.000Z</time>
      </trkpt>
      <trkpt lat="47.13806" lon="-1.6285">
        <ele>58</ele>
        <time>2021-04-18T09:03:02.000Z</time>
      </trkpt>
      <trkpt lat="47.13802" lon="-1.62835">
        <ele>60</ele>
        <time>2021-04-18T09:03:04.000Z</time>
      </trkpt>
      <trkpt lat="47.13795" lon="-1.62818">
        <ele>60</ele>
        <time>2021-04-18T09:03:06.000Z</time>
      </trkpt>
      <trkpt lat="47.13788" lon="-1.62802">
        <ele>58</ele>
        <time>2021-04-18T09:03:08.000Z</time>
      </trkpt>
      <trkpt lat="47.13782" lon="-1.62785">
        <ele>59</ele>
        <time>2021-04-18T09:03:10.000Z</time>
      </trkpt>
      <trkpt lat="47.1378" lon="-1.62765">
        <ele>60</ele>
        <time>2021-04-18T09:03:12.000Z</time>
      </trkpt>
      <trkpt lat="47.13778" lon="-1.62743">
        <ele>60</ele>
        <time>2021-04-18T09:03:14.000Z</time>
      </trkpt>
      <trkpt lat="47.13775" lon="-1.62719">
        <ele>58</ele>
        <time>2021-04-18T09:03:17.000Z</time>
      </trkpt>
      <trkpt lat="47.13764" lon="-1.62727">
        <ele>64</ele>
        <time>2021-04-18T09:03:24.000Z</time>
      </trkpt>
      <trkpt lat="47.13756" lon="-1.62732">
        <ele>66</ele>
        <time>2021-04-18T09:03:26.000Z</time>
      </trkpt>
      <trkpt lat="47.13744" lon="-1.62736">
        <ele>65</ele>
        <time>2021-04-18T09:03:29.000Z</time>
      </trkpt>
      <trkpt lat="47.13731" lon="-1.6274">
        <ele>65</ele>
        <time>2021-04-18T09:03:31.000Z</time>
      </trkpt>
      <trkpt lat="47.1372" lon="-1.62745">
        <ele>65</ele>
        <time>2021-04-18T09:03:33.000Z</time>
      </trkpt>
      <trkpt lat="47.1371" lon="-1.62751">
        <ele>67</ele>
        <time>2021-04-18T09:03:36.000Z</time>
      </trkpt>
      <trkpt lat="47.13695" lon="-1.62762">
        <ele>70</ele>
        <time>2021-04-18T09:03:40.000Z</time>
      </trkpt>
      <trkpt lat="47.13669" lon="-1.62774">
        <ele>75</ele>
        <time>2021-04-18T09:03:44.000Z</time>
      </trkpt>
      <trkpt lat="47.1366" lon="-1.62778">
        <ele>74</ele>
        <time>2021-04-18T09:03:45.000Z</time>
      </trkpt>
      <trkpt lat="47.13644" lon="-1.62783">
        <ele>72</ele>
        <time>2021-04-18T09:03:47.000Z</time>
      </trkpt>
      <trkpt lat="47.13628" lon="-1.62789">
        <ele>71</ele>
        <time>2021-04-18T09:03:49.000Z</time>
      </trkpt>
      <trkpt lat="47.13614" lon="-1.62794">
        <ele>69</ele>
        <time>2021-04-18T09:03:51.000Z</time>
      </trkpt>
      <trkpt lat="47.13603" lon="-1.62799">
        <ele>69</ele>
        <time>2021-04-18T09:03:53.000Z</time>
      </trkpt>
      <trkpt lat="47.13585" lon="-1.62807">
        <ele>69</ele>
        <time>2021-04-18T09:03:56.000Z</time>
      </trkpt>
      <trkpt lat="47.13571" lon="-1.62814">
        <ele>67</ele>
        <time>2021-04-18T09:03:58.000Z</time>
      </trkpt>
      <trkpt lat="47.1356" lon="-1.62821">
        <ele>67</ele>
        <time>2021-04-18T09:04:00.000Z</time>
      </trkpt>
      <trkpt lat="47.13537" lon="-1.62834">
        <ele>66</ele>
        <time>2021-04-18T09:04:03.000Z</time>
      </trkpt>
      <trkpt lat="47.13518" lon="-1.62851">
        <ele>62</ele>
        <time>2021-04-18T09:04:06.000Z</time>
      </trkpt>
      <trkpt lat="47.13505" lon="-1.62863">
        <ele>62</ele>
        <time>2021-04-18T09:04:08.000Z</time>
      </trkpt>
      <trkpt lat="47.13489" lon="-1.62875">
        <ele>63</ele>
        <time>2021-04-18T09:04:11.000Z</time>
      </trkpt>
      <trkpt lat="47.13479" lon="-1.62882">
        <ele>63</ele>
        <time>2021-04-18T09:04:13.000Z</time>
      </trkpt>
      <trkpt lat="47.1346" lon="-1.62899">
        <ele>69</ele>
        <time>2021-04-18T09:04:17.000Z</time>
      </trkpt>
      <trkpt lat="47.13452" lon="-1.62907">
        <ele>69</ele>
        <time>2021-04-18T09:04:19.000Z</time>
      </trkpt>
      <trkpt lat="47.1344" lon="-1.62915">
        <ele>68</ele>
        <time>2021-04-18T09:04:21.000Z</time>
      </trkpt>
      <trkpt lat="47.13432" lon="-1.62921">
        <ele>69</ele>
        <time>2021-04-18T09:04:22.000Z</time>
      </trkpt>
      <trkpt lat="47.13421" lon="-1.62927">
        <ele>72</ele>
        <time>2021-04-18T09:04:24.000Z</time>
      </trkpt>
      <trkpt lat="47.13411" lon="-1.62932">
        <ele>72</ele>
        <time>2021-04-18T09:04:26.000Z</time>
      </trkpt>
      <trkpt lat="47.13402" lon="-1.62932">
        <ele>72</ele>
        <time>2021-04-18T09:04:27.000Z</time>
      </trkpt>
      <trkpt lat="47.13392" lon="-1.62932">
        <ele>71</ele>
        <time>2021-04-18T09:04:28.000Z</time>
      </trkpt>
      <trkpt lat="47.13377" lon="-1.62935">
        <ele>70</ele>
        <time>2021-04-18T09:04:30.000Z</time>
      </trkpt>
      <trkpt lat="47.13359" lon="-1.62936">
        <ele>70</ele>
        <time>2021-04-18T09:04:33.000Z</time>
      </trkpt>
      <trkpt lat="47.13341" lon="-1.62945">
        <ele>78</ele>
        <time>2021-04-18T09:04:36.000Z</time>
      </trkpt>
      <trkpt lat="47.13331" lon="-1.62936">
        <ele>74</ele>
        <time>2021-04-18T09:04:39.000Z</time>
      </trkpt>
      <trkpt lat="47.13325" lon="-1.62924">
        <ele>77</ele>
        <time>2021-04-18T09:04:41.000Z</time>
      </trkpt>
      <trkpt lat="47.13322" lon="-1.62905">
        <ele>73</ele>
        <time>2021-04-18T09:04:43.000Z</time>
      </trkpt>
      <trkpt lat="47.13317" lon="-1.6289">
        <ele>73</ele>
        <time>2021-04-18T09:04:45.000Z</time>
      </trkpt>
      <trkpt lat="47.13311" lon="-1.62874">
        <ele>74</ele>
        <time>2021-04-18T09:04:47.000Z</time>
      </trkpt>
      <trkpt lat="47.13303" lon="-1.62837">
        <ele>71</ele>
        <time>2021-04-18T09:04:50.000Z</time>
      </trkpt>
      <trkpt lat="47.133" lon="-1.62824">
        <ele>69</ele>
        <time>2021-04-18T09:04:51.000Z</time>
      </trkpt>
      <trkpt lat="47.13292" lon="-1.62797">
        <ele>64</ele>
        <time>2021-04-18T09:04:53.000Z</time>
      </trkpt>
      <trkpt lat="47.13287" lon="-1.62772">
        <ele>61</ele>
        <time>2021-04-18T09:04:55.000Z</time>
      </trkpt>
      <trkpt lat="47.13282" lon="-1.6275">
        <ele>59</ele>
        <time>2021-04-18T09:04:57.000Z</time>
      </trkpt>
      <trkpt lat="47.13276" lon="-1.6273">
        <ele>57</ele>
        <time>2021-04-18T09:04:59.000Z</time>
      </trkpt>
      <trkpt lat="47.13266" lon="-1.62696">
        <ele>55</ele>
        <time>2021-04-18T09:05:02.000Z</time>
      </trkpt>
      <trkpt lat="47.1326" lon="-1.62676">
        <ele>52</ele>
        <time>2021-04-18T09:05:04.000Z</time>
      </trkpt>
      <trkpt lat="47.13254" lon="-1.62656">
        <ele>53</ele>
        <time>2021-04-18T09:05:06.000Z</time>
      </trkpt>
      <trkpt lat="47.13248" lon="-1.62634">
        <ele>53</ele>
        <time>2021-04-18T09:05:08.000Z</time>
      </trkpt>
      <trkpt lat="47.13241" lon="-1.62614">
        <ele>53</ele>
        <time>2021-04-18T09:05:10.000Z</time>
      </trkpt>
      <trkpt lat="47.13232" lon="-1.62599">
        <ele>53</ele>
        <time>2021-04-18T09:05:12.000Z</time>
      </trkpt>
      <trkpt lat="47.13222" lon="-1.62584">
        <ele>53</ele>
        <time>2021-04-18T09:05:14.000Z</time>
      </trkpt>
      <trkpt lat="47.13211" lon="-1.6257">
        <ele>54</ele>
        <time>2021-04-18T09:05:16.000Z</time>
      </trkpt>
      <trkpt lat="47.13203" lon="-1.62556">
        <ele>54</ele>
        <time>2021-04-18T09:05:18.000Z</time>
      </trkpt>
      <trkpt lat="47.13199" lon="-1.62541">
        <ele>57</ele>
        <time>2021-04-18T09:05:20.000Z</time>
      </trkpt>
      <trkpt lat="47.13192" lon="-1.62525">
        <ele>56</ele>
        <time>2021-04-18T09:05:22.000Z</time>
      </trkpt>
      <trkpt lat="47.13185" lon="-1.62507">
        <ele>56</ele>
        <time>2021-04-18T09:05:24.000Z</time>
      </trkpt>
      <trkpt lat="47.13175" lon="-1.6248">
        <ele>55</ele>
        <time>2021-04-18T09:05:27.000Z</time>
      </trkpt>
      <trkpt lat="47.13169" lon="-1.62465">
        <ele>55</ele>
        <time>2021-04-18T09:05:29.000Z</time>
      </trkpt>
      <trkpt lat="47.13162" lon="-1.6245">
        <ele>56</ele>
        <time>2021-04-18T09:05:31.000Z</time>
      </trkpt>
      <trkpt lat="47.13156" lon="-1.62437">
        <ele>56</ele>
        <time>2021-04-18T09:05:33.000Z</time>
      </trkpt>
      <trkpt lat="47.13152" lon="-1.62424">
        <ele>56</ele>
        <time>2021-04-18T09:05:35.000Z</time>
      </trkpt>
      <trkpt lat="47.13145" lon="-1.62409">
        <ele>55</ele>
        <time>2021-04-18T09:05:37.000Z</time>
      </trkpt>
      <trkpt lat="47.13139" lon="-1.62394">
        <ele>54</ele>
        <time>2021-04-18T09:05:39.000Z</time>
      </trkpt>
      <trkpt lat="47.13133" lon="-1.62379">
        <ele>53</ele>
        <time>2021-04-18T09:05:41.000Z</time>
      </trkpt>
      <trkpt lat="47.13124" lon="-1.62363">
        <ele>55</ele>
        <time>2021-04-18T09:05:44.000Z</time>
      </trkpt>
      <trkpt lat="47.13117" lon="-1.6235">
        <ele>54</ele>
        <time>2021-04-18T09:05:46.000Z</time>
      </trkpt>
      <trkpt lat="47.13113" lon="-1.62338">
        <ele>56</ele>
        <time>2021-04-18T09:05:49.000Z</time>
      </trkpt>
      <trkpt lat="47.13102" lon="-1.62336">
        <ele>61</ele>
        <time>2021-04-18T09:05:54.000Z</time>
      </trkpt>
      <trkpt lat="47.13089" lon="-1.62348">
        <ele>63</ele>
        <time>2021-04-18T09:05:57.000Z</time>
      </trkpt>
      <trkpt lat="47.13083" lon="-1.62361">
        <ele>68</ele>
        <time>2021-04-18T09:05:59.000Z</time>
      </trkpt>
      <trkpt lat="47.13075" lon="-1.62377">
        <ele>69</ele>
        <time>2021-04-18T09:06:01.000Z</time>
      </trkpt>
      <trkpt lat="47.13063" lon="-1.6241">
        <ele>67</ele>
        <time>2021-04-18T09:06:04.000Z</time>
      </trkpt>
      <trkpt lat="47.13051" lon="-1.6244">
        <ele>64</ele>
        <time>2021-04-18T09:06:07.000Z</time>
      </trkpt>
      <trkpt lat="47.13043" lon="-1.6246">
        <ele>63</ele>
        <time>2021-04-18T09:06:09.000Z</time>
      </trkpt>
      <trkpt lat="47.13033" lon="-1.62482">
        <ele>61</ele>
        <time>2021-04-18T09:06:11.000Z</time>
      </trkpt>
      <trkpt lat="47.13023" lon="-1.62501">
        <ele>59</ele>
        <time>2021-04-18T09:06:13.000Z</time>
      </trkpt>
      <trkpt lat="47.13013" lon="-1.62516">
        <ele>58</ele>
        <time>2021-04-18T09:06:15.000Z</time>
      </trkpt>
      <trkpt lat="47.12988" lon="-1.62544">
        <ele>56</ele>
        <time>2021-04-18T09:06:18.000Z</time>
      </trkpt>
      <trkpt lat="47.12974" lon="-1.62554">
        <ele>54</ele>
        <time>2021-04-18T09:06:20.000Z</time>
      </trkpt>
      <trkpt lat="47.1296" lon="-1.62562">
        <ele>52</ele>
        <time>2021-04-18T09:06:22.000Z</time>
      </trkpt>
      <trkpt lat="47.12944" lon="-1.6257">
        <ele>52</ele>
        <time>2021-04-18T09:06:24.000Z</time>
      </trkpt>
      <trkpt lat="47.12927" lon="-1.62578">
        <ele>52</ele>
        <time>2021-04-18T09:06:26.000Z</time>
      </trkpt>
      <trkpt lat="47.12913" lon="-1.62585">
        <ele>52</ele>
        <time>2021-04-18T09:06:28.000Z</time>
      </trkpt>
      <trkpt lat="47.12903" lon="-1.62592">
        <ele>52</ele>
        <time>2021-04-18T09:06:30.000Z</time>
      </trkpt>
      <trkpt lat="47.12891" lon="-1.62599">
        <ele>52</ele>
        <time>2021-04-18T09:06:32.000Z</time>
      </trkpt>
      <trkpt lat="47.12877" lon="-1.62604">
        <ele>51</ele>
        <time>2021-04-18T09:06:34.000Z</time>
      </trkpt>
      <trkpt lat="47.12864" lon="-1.62611">
        <ele>53</ele>
        <time>2021-04-18T09:06:36.000Z</time>
      </trkpt>
      <trkpt lat="47.12848" lon="-1.6262">
        <ele>53</ele>
        <time>2021-04-18T09:06:38.000Z</time>
      </trkpt>
      <trkpt lat="47.12826" lon="-1.62638">
        <ele>52</ele>
        <time>2021-04-18T09:06:41.000Z</time>
      </trkpt>
      <trkpt lat="47.12812" lon="-1.62651">
        <ele>53</ele>
        <time>2021-04-18T09:06:43.000Z</time>
      </trkpt>
      <trkpt lat="47.12793" lon="-1.62671">
        <ele>54</ele>
        <time>2021-04-18T09:06:46.000Z</time>
      </trkpt>
      <trkpt lat="47.12779" lon="-1.62688">
        <ele>52</ele>
        <time>2021-04-18T09:06:48.000Z</time>
      </trkpt>
      <trkpt lat="47.12766" lon="-1.62704">
        <ele>50</ele>
        <time>2021-04-18T09:06:50.000Z</time>
      </trkpt>
      <trkpt lat="47.12753" lon="-1.62717">
        <ele>52</ele>
        <time>2021-04-18T09:06:52.000Z</time>
      </trkpt>
      <trkpt lat="47.1274" lon="-1.62732">
        <ele>52</ele>
        <time>2021-04-18T09:06:54.000Z</time>
      </trkpt>
      <trkpt lat="47.12727" lon="-1.62746">
        <ele>53</ele>
        <time>2021-04-18T09:06:56.000Z</time>
      </trkpt>
      <trkpt lat="47.12715" lon="-1.62759">
        <ele>54</ele>
        <time>2021-04-18T09:06:58.000Z</time>
      </trkpt>
      <trkpt lat="47.12703" lon="-1.62772">
        <ele>54</ele>
        <time>2021-04-18T09:07:00.000Z</time>
      </trkpt>
      <trkpt lat="47.12692" lon="-1.62784">
        <ele>54</ele>
        <time>2021-04-18T09:07:02.000Z</time>
      </trkpt>
      <trkpt lat="47.12682" lon="-1.62797">
        <ele>53</ele>
        <time>2021-04-18T09:07:04.000Z</time>
      </trkpt>
      <trkpt lat="47.12674" lon="-1.62806">
        <ele>52</ele>
        <time>2021-04-18T09:07:06.000Z</time>
      </trkpt>
      <trkpt lat="47.12666" lon="-1.62818">
        <ele>55</ele>
        <time>2021-04-18T09:07:08.000Z</time>
      </trkpt>
      <trkpt lat="47.12653" lon="-1.62826">
        <ele>54</ele>
        <time>2021-04-18T09:07:10.000Z</time>
      </trkpt>
      <trkpt lat="47.12627" lon="-1.62846">
        <ele>52</ele>
        <time>2021-04-18T09:07:14.000Z</time>
      </trkpt>
      <trkpt lat="47.12616" lon="-1.62856">
        <ele>54</ele>
        <time>2021-04-18T09:07:16.000Z</time>
      </trkpt>
      <trkpt lat="47.12608" lon="-1.62865">
        <ele>54</ele>
        <time>2021-04-18T09:07:18.000Z</time>
      </trkpt>
      <trkpt lat="47.12596" lon="-1.62877">
        <ele>53</ele>
        <time>2021-04-18T09:07:20.000Z</time>
      </trkpt>
      <trkpt lat="47.12582" lon="-1.62889">
        <ele>53</ele>
        <time>2021-04-18T09:07:22.000Z</time>
      </trkpt>
      <trkpt lat="47.12568" lon="-1.62901">
        <ele>53</ele>
        <time>2021-04-18T09:07:24.000Z</time>
      </trkpt>
      <trkpt lat="47.12555" lon="-1.62914">
        <ele>52</ele>
        <time>2021-04-18T09:07:26.000Z</time>
      </trkpt>
      <trkpt lat="47.12535" lon="-1.62931">
        <ele>52</ele>
        <time>2021-04-18T09:07:29.000Z</time>
      </trkpt>
      <trkpt lat="47.12523" lon="-1.62943">
        <ele>50</ele>
        <time>2021-04-18T09:07:31.000Z</time>
      </trkpt>
      <trkpt lat="47.1251" lon="-1.62953">
        <ele>51</ele>
        <time>2021-04-18T09:07:33.000Z</time>
      </trkpt>
      <trkpt lat="47.12496" lon="-1.62966">
        <ele>52</ele>
        <time>2021-04-18T09:07:35.000Z</time>
      </trkpt>
      <trkpt lat="47.12482" lon="-1.62977">
        <ele>52</ele>
        <time>2021-04-18T09:07:37.000Z</time>
      </trkpt>
      <trkpt lat="47.12469" lon="-1.62989">
        <ele>52</ele>
        <time>2021-04-18T09:07:39.000Z</time>
      </trkpt>
      <trkpt lat="47.12457" lon="-1.63">
        <ele>52</ele>
        <time>2021-04-18T09:07:41.000Z</time>
      </trkpt>
      <trkpt lat="47.12437" lon="-1.63016">
        <ele>52</ele>
        <time>2021-04-18T09:07:44.000Z</time>
      </trkpt>
      <trkpt lat="47.12425" lon="-1.63028">
        <ele>51</ele>
        <time>2021-04-18T09:07:46.000Z</time>
      </trkpt>
      <trkpt lat="47.12412" lon="-1.6304">
        <ele>52</ele>
        <time>2021-04-18T09:07:48.000Z</time>
      </trkpt>
      <trkpt lat="47.12398" lon="-1.63053">
        <ele>52</ele>
        <time>2021-04-18T09:07:50.000Z</time>
      </trkpt>
      <trkpt lat="47.1238" lon="-1.63071">
        <ele>52</ele>
        <time>2021-04-18T09:07:53.000Z</time>
      </trkpt>
      <trkpt lat="47.12368" lon="-1.63083">
        <ele>52</ele>
        <time>2021-04-18T09:07:55.000Z</time>
      </trkpt>
      <trkpt lat="47.12355" lon="-1.63093">
        <ele>52</ele>
        <time>2021-04-18T09:07:57.000Z</time>
      </trkpt>
      <trkpt lat="47.12338" lon="-1.63116">
        <ele>51</ele>
        <time>2021-04-18T09:08:00.000Z</time>
      </trkpt>
      <trkpt lat="47.12334" lon="-1.63137">
        <ele>51</ele>
        <time>2021-04-18T09:08:02.000Z</time>
      </trkpt>
      <trkpt lat="47.12331" lon="-1.63157">
        <ele>50</ele>
        <time>2021-04-18T09:08:04.000Z</time>
      </trkpt>
      <trkpt lat="47.12329" lon="-1.63178">
        <ele>50</ele>
        <time>2021-04-18T09:08:06.000Z</time>
      </trkpt>
      <trkpt lat="47.12317" lon="-1.63215">
        <ele>49</ele>
        <time>2021-04-18T09:08:10.000Z</time>
      </trkpt>
      <trkpt lat="47.12308" lon="-1.63233">
        <ele>48</ele>
        <time>2021-04-18T09:08:12.000Z</time>
      </trkpt>
      <trkpt lat="47.12304" lon="-1.63252">
        <ele>49</ele>
        <time>2021-04-18T09:08:14.000Z</time>
      </trkpt>
      <trkpt lat="47.12305" lon="-1.63272">
        <ele>51</ele>
        <time>2021-04-18T09:08:16.000Z</time>
      </trkpt>
      <trkpt lat="47.12304" lon="-1.63299">
        <ele>49</ele>
        <time>2021-04-18T09:08:19.000Z</time>
      </trkpt>
      <trkpt lat="47.12306" lon="-1.63322">
        <ele>50</ele>
        <time>2021-04-18T09:08:21.000Z</time>
      </trkpt>
      <trkpt lat="47.12301" lon="-1.63339">
        <ele>51</ele>
        <time>2021-04-18T09:08:23.000Z</time>
      </trkpt>
      <trkpt lat="47.12293" lon="-1.63358">
        <ele>51</ele>
        <time>2021-04-18T09:08:25.000Z</time>
      </trkpt>
      <trkpt lat="47.12279" lon="-1.6337">
        <ele>51</ele>
        <time>2021-04-18T09:08:27.000Z</time>
      </trkpt>
      <trkpt lat="47.12262" lon="-1.63389">
        <ele>52</ele>
        <time>2021-04-18T09:08:30.000Z</time>
      </trkpt>
      <trkpt lat="47.1225" lon="-1.63404">
        <ele>53</ele>
        <time>2021-04-18T09:08:32.000Z</time>
      </trkpt>
      <trkpt lat="47.12238" lon="-1.63417">
        <ele>53</ele>
        <time>2021-04-18T09:08:34.000Z</time>
      </trkpt>
      <trkpt lat="47.12227" lon="-1.6343">
        <ele>53</ele>
        <time>2021-04-18T09:08:36.000Z</time>
      </trkpt>
      <trkpt lat="47.12207" lon="-1.6345">
        <ele>52</ele>
        <time>2021-04-18T09:08:39.000Z</time>
      </trkpt>
      <trkpt lat="47.12193" lon="-1.63465">
        <ele>52</ele>
        <time>2021-04-18T09:08:41.000Z</time>
      </trkpt>
      <trkpt lat="47.12184" lon="-1.63472">
        <ele>51</ele>
        <time>2021-04-18T09:08:42.000Z</time>
      </trkpt>
      <trkpt lat="47.1217" lon="-1.63492">
        <ele>51</ele>
        <time>2021-04-18T09:08:45.000Z</time>
      </trkpt>
      <trkpt lat="47.12152" lon="-1.6351">
        <ele>52</ele>
        <time>2021-04-18T09:08:48.000Z</time>
      </trkpt>
      <trkpt lat="47.12132" lon="-1.6353">
        <ele>50</ele>
        <time>2021-04-18T09:08:51.000Z</time>
      </trkpt>
      <trkpt lat="47.12118" lon="-1.63552">
        <ele>53</ele>
        <time>2021-04-18T09:08:54.000Z</time>
      </trkpt>
      <trkpt lat="47.12099" lon="-1.63569">
        <ele>55</ele>
        <time>2021-04-18T09:08:57.000Z</time>
      </trkpt>
      <trkpt lat="47.12085" lon="-1.63581">
        <ele>55</ele>
        <time>2021-04-18T09:08:59.000Z</time>
      </trkpt>
      <trkpt lat="47.12073" lon="-1.63593">
        <ele>57</ele>
        <time>2021-04-18T09:09:01.000Z</time>
      </trkpt>
      <trkpt lat="47.1206" lon="-1.63609">
        <ele>56</ele>
        <time>2021-04-18T09:09:03.000Z</time>
      </trkpt>
      <trkpt lat="47.12048" lon="-1.63627">
        <ele>54</ele>
        <time>2021-04-18T09:09:05.000Z</time>
      </trkpt>
      <trkpt lat="47.12039" lon="-1.63645">
        <ele>54</ele>
        <time>2021-04-18T09:09:07.000Z</time>
      </trkpt>
      <trkpt lat="47.12031" lon="-1.63663">
        <ele>52</ele>
        <time>2021-04-18T09:09:09.000Z</time>
      </trkpt>
      <trkpt lat="47.12023" lon="-1.63683">
        <ele>54</ele>
        <time>2021-04-18T09:09:11.000Z</time>
      </trkpt>
      <trkpt lat="47.1201" lon="-1.63711">
        <ele>55</ele>
        <time>2021-04-18T09:09:14.000Z</time>
      </trkpt>
      <trkpt lat="47.12004" lon="-1.63732">
        <ele>56</ele>
        <time>2021-04-18T09:09:16.000Z</time>
      </trkpt>
      <trkpt lat="47.11994" lon="-1.63762">
        <ele>55</ele>
        <time>2021-04-18T09:09:19.000Z</time>
      </trkpt>
      <trkpt lat="47.11988" lon="-1.63784">
        <ele>53</ele>
        <time>2021-04-18T09:09:21.000Z</time>
      </trkpt>
      <trkpt lat="47.11982" lon="-1.63806">
        <ele>54</ele>
        <time>2021-04-18T09:09:23.000Z</time>
      </trkpt>
      <trkpt lat="47.11978" lon="-1.63829">
        <ele>53</ele>
        <time>2021-04-18T09:09:25.000Z</time>
      </trkpt>
      <trkpt lat="47.11976" lon="-1.63852">
        <ele>53</ele>
        <time>2021-04-18T09:09:27.000Z</time>
      </trkpt>
      <trkpt lat="47.11974" lon="-1.63876">
        <ele>53</ele>
        <time>2021-04-18T09:09:29.000Z</time>
      </trkpt>
      <trkpt lat="47.11972" lon="-1.639">
        <ele>53</ele>
        <time>2021-04-18T09:09:31.000Z</time>
      </trkpt>
      <trkpt lat="47.11969" lon="-1.63922">
        <ele>53</ele>
        <time>2021-04-18T09:09:33.000Z</time>
      </trkpt>
      <trkpt lat="47.11966" lon="-1.63957">
        <ele>53</ele>
        <time>2021-04-18T09:09:36.000Z</time>
      </trkpt>
      <trkpt lat="47.11963" lon="-1.6398">
        <ele>53</ele>
        <time>2021-04-18T09:09:38.000Z</time>
      </trkpt>
      <trkpt lat="47.1196" lon="-1.64003">
        <ele>53</ele>
        <time>2021-04-18T09:09:40.000Z</time>
      </trkpt>
      <trkpt lat="47.11957" lon="-1.64036">
        <ele>52</ele>
        <time>2021-04-18T09:09:43.000Z</time>
      </trkpt>
      <trkpt lat="47.11954" lon="-1.64057">
        <ele>50</ele>
        <time>2021-04-18T09:09:45.000Z</time>
      </trkpt>
      <trkpt lat="47.11953" lon="-1.64081">
        <ele>47</ele>
        <time>2021-04-18T09:09:47.000Z</time>
      </trkpt>
      <trkpt lat="47.11951" lon="-1.64104">
        <ele>48</ele>
        <time>2021-04-18T09:09:49.000Z</time>
      </trkpt>
      <trkpt lat="47.1195" lon="-1.64124">
        <ele>50</ele>
        <time>2021-04-18T09:09:51.000Z</time>
      </trkpt>
      <trkpt lat="47.11949" lon="-1.64146">
        <ele>51</ele>
        <time>2021-04-18T09:09:53.000Z</time>
      </trkpt>
      <trkpt lat="47.1195" lon="-1.64168">
        <ele>51</ele>
        <time>2021-04-18T09:09:55.000Z</time>
      </trkpt>
      <trkpt lat="47.11951" lon="-1.64189">
        <ele>50</ele>
        <time>2021-04-18T09:09:57.000Z</time>
      </trkpt>
      <trkpt lat="47.11952" lon="-1.64222">
        <ele>49</ele>
        <time>2021-04-18T09:10:00.000Z</time>
      </trkpt>
      <trkpt lat="47.11954" lon="-1.64244">
        <ele>47</ele>
        <time>2021-04-18T09:10:02.000Z</time>
      </trkpt>
      <trkpt lat="47.11956" lon="-1.64264">
        <ele>48</ele>
        <time>2021-04-18T09:10:04.000Z</time>
      </trkpt>
      <trkpt lat="47.11963" lon="-1.64293">
        <ele>52</ele>
        <time>2021-04-18T09:10:07.000Z</time>
      </trkpt>
      <trkpt lat="47.11974" lon="-1.64309">
        <ele>52</ele>
        <time>2021-04-18T09:10:09.000Z</time>
      </trkpt>
      <trkpt lat="47.11989" lon="-1.64325">
        <ele>54</ele>
        <time>2021-04-18T09:10:12.000Z</time>
      </trkpt>
      <trkpt lat="47.12001" lon="-1.64336">
        <ele>55</ele>
        <time>2021-04-18T09:10:14.000Z</time>
      </trkpt>
      <trkpt lat="47.12011" lon="-1.64348">
        <ele>55</ele>
        <time>2021-04-18T09:10:16.000Z</time>
      </trkpt>
      <trkpt lat="47.12021" lon="-1.64359">
        <ele>57</ele>
        <time>2021-04-18T09:10:18.000Z</time>
      </trkpt>
      <trkpt lat="47.12033" lon="-1.64372">
        <ele>57</ele>
        <time>2021-04-18T09:10:20.000Z</time>
      </trkpt>
      <trkpt lat="47.12049" lon="-1.64377">
        <ele>57</ele>
        <time>2021-04-18T09:10:22.000Z</time>
      </trkpt>
      <trkpt lat="47.12064" lon="-1.64378">
        <ele>57</ele>
        <time>2021-04-18T09:10:24.000Z</time>
      </trkpt>
      <trkpt lat="47.1208" lon="-1.64377">
        <ele>57</ele>
        <time>2021-04-18T09:10:26.000Z</time>
      </trkpt>
      <trkpt lat="47.12101" lon="-1.64377">
        <ele>57</ele>
        <time>2021-04-18T09:10:29.000Z</time>
      </trkpt>
      <trkpt lat="47.12115" lon="-1.64377">
        <ele>57</ele>
        <time>2021-04-18T09:10:31.000Z</time>
      </trkpt>
      <trkpt lat="47.12133" lon="-1.64376">
        <ele>55</ele>
        <time>2021-04-18T09:10:34.000Z</time>
      </trkpt>
      <trkpt lat="47.12145" lon="-1.64381">
        <ele>56</ele>
        <time>2021-04-18T09:10:36.000Z</time>
      </trkpt>
      <trkpt lat="47.12157" lon="-1.64396">
        <ele>58</ele>
        <time>2021-04-18T09:10:38.000Z</time>
      </trkpt>
      <trkpt lat="47.12168" lon="-1.64412">
        <ele>60</ele>
        <time>2021-04-18T09:10:40.000Z</time>
      </trkpt>
      <trkpt lat="47.12186" lon="-1.64432">
        <ele>59</ele>
        <time>2021-04-18T09:10:43.000Z</time>
      </trkpt>
      <trkpt lat="47.12197" lon="-1.64443">
        <ele>60</ele>
        <time>2021-04-18T09:10:45.000Z</time>
      </trkpt>
      <trkpt lat="47.1221" lon="-1.64456">
        <ele>61</ele>
        <time>2021-04-18T09:10:47.000Z</time>
      </trkpt>
      <trkpt lat="47.12221" lon="-1.64471">
        <ele>62</ele>
        <time>2021-04-18T09:10:49.000Z</time>
      </trkpt>
      <trkpt lat="47.12232" lon="-1.64486">
        <ele>62</ele>
        <time>2021-04-18T09:10:51.000Z</time>
      </trkpt>
      <trkpt lat="47.12244" lon="-1.64501">
        <ele>61</ele>
        <time>2021-04-18T09:10:53.000Z</time>
      </trkpt>
      <trkpt lat="47.12255" lon="-1.64517">
        <ele>60</ele>
        <time>2021-04-18T09:10:55.000Z</time>
      </trkpt>
      <trkpt lat="47.12266" lon="-1.64533">
        <ele>60</ele>
        <time>2021-04-18T09:10:57.000Z</time>
      </trkpt>
      <trkpt lat="47.12275" lon="-1.64549">
        <ele>62</ele>
        <time>2021-04-18T09:10:59.000Z</time>
      </trkpt>
      <trkpt lat="47.12284" lon="-1.64566">
        <ele>60</ele>
        <time>2021-04-18T09:11:01.000Z</time>
      </trkpt>
      <trkpt lat="47.12291" lon="-1.64584">
        <ele>60</ele>
        <time>2021-04-18T09:11:03.000Z</time>
      </trkpt>
      <trkpt lat="47.12295" lon="-1.64607">
        <ele>59</ele>
        <time>2021-04-18T09:11:05.000Z</time>
      </trkpt>
      <trkpt lat="47.12295" lon="-1.64628">
        <ele>58</ele>
        <time>2021-04-18T09:11:07.000Z</time>
      </trkpt>
      <trkpt lat="47.12294" lon="-1.64648">
        <ele>57</ele>
        <time>2021-04-18T09:11:09.000Z</time>
      </trkpt>
      <trkpt lat="47.12293" lon="-1.64668">
        <ele>57</ele>
        <time>2021-04-18T09:11:11.000Z</time>
      </trkpt>
      <trkpt lat="47.12293" lon="-1.64687">
        <ele>57</ele>
        <time>2021-04-18T09:11:13.000Z</time>
      </trkpt>
      <trkpt lat="47.12293" lon="-1.64717">
        <ele>59</ele>
        <time>2021-04-18T09:11:16.000Z</time>
      </trkpt>
      <trkpt lat="47.12292" lon="-1.64736">
        <ele>59</ele>
        <time>2021-04-18T09:11:18.000Z</time>
      </trkpt>
      <trkpt lat="47.1229" lon="-1.6476">
        <ele>60</ele>
        <time>2021-04-18T09:11:20.000Z</time>
      </trkpt>
      <trkpt lat="47.12289" lon="-1.64786">
        <ele>57</ele>
        <time>2021-04-18T09:11:22.000Z</time>
      </trkpt>
      <trkpt lat="47.12288" lon="-1.64819">
        <ele>60</ele>
        <time>2021-04-18T09:11:25.000Z</time>
      </trkpt>
      <trkpt lat="47.12285" lon="-1.64851">
        <ele>60</ele>
        <time>2021-04-18T09:11:28.000Z</time>
      </trkpt>
      <trkpt lat="47.12282" lon="-1.6487">
        <ele>58</ele>
        <time>2021-04-18T09:11:30.000Z</time>
      </trkpt>
      <trkpt lat="47.12278" lon="-1.64884">
        <ele>57</ele>
        <time>2021-04-18T09:11:33.000Z</time>
      </trkpt>
      <trkpt lat="47.12275" lon="-1.64901">
        <ele>57</ele>
        <time>2021-04-18T09:11:36.000Z</time>
      </trkpt>
      <trkpt lat="47.12275" lon="-1.64927">
        <ele>55</ele>
        <time>2021-04-18T09:11:40.000Z</time>
      </trkpt>
      <trkpt lat="47.12274" lon="-1.64946">
        <ele>55</ele>
        <time>2021-04-18T09:11:42.000Z</time>
      </trkpt>
      <trkpt lat="47.12272" lon="-1.64967">
        <ele>54</ele>
        <time>2021-04-18T09:11:44.000Z</time>
      </trkpt>
      <trkpt lat="47.12268" lon="-1.64999">
        <ele>52</ele>
        <time>2021-04-18T09:11:47.000Z</time>
      </trkpt>
      <trkpt lat="47.12267" lon="-1.65015">
        <ele>52</ele>
        <time>2021-04-18T09:11:49.000Z</time>
      </trkpt>
      <trkpt lat="47.12262" lon="-1.65039">
        <ele>52</ele>
        <time>2021-04-18T09:11:52.000Z</time>
      </trkpt>
      <trkpt lat="47.12259" lon="-1.65052">
        <ele>53</ele>
        <time>2021-04-18T09:11:54.000Z</time>
      </trkpt>
      <trkpt lat="47.12257" lon="-1.65069">
        <ele>56</ele>
        <time>2021-04-18T09:11:57.000Z</time>
      </trkpt>
      <trkpt lat="47.12257" lon="-1.65082">
        <ele>57</ele>
        <time>2021-04-18T09:11:59.000Z</time>
      </trkpt>
      <trkpt lat="47.12254" lon="-1.65108">
        <ele>62</ele>
        <time>2021-04-18T09:12:02.000Z</time>
      </trkpt>
      <trkpt lat="47.1225" lon="-1.65129">
        <ele>63</ele>
        <time>2021-04-18T09:12:04.000Z</time>
      </trkpt>
      <trkpt lat="47.12244" lon="-1.6515">
        <ele>62</ele>
        <time>2021-04-18T09:12:06.000Z</time>
      </trkpt>
      <trkpt lat="47.1224" lon="-1.65167">
        <ele>60</ele>
        <time>2021-04-18T09:12:08.000Z</time>
      </trkpt>
      <trkpt lat="47.12238" lon="-1.65187">
        <ele>60</ele>
        <time>2021-04-18T09:12:10.000Z</time>
      </trkpt>
      <trkpt lat="47.12236" lon="-1.65206">
        <ele>61</ele>
        <time>2021-04-18T09:12:12.000Z</time>
      </trkpt>
      <trkpt lat="47.12236" lon="-1.65224">
        <ele>59</ele>
        <time>2021-04-18T09:12:14.000Z</time>
      </trkpt>
      <trkpt lat="47.12235" lon="-1.65249">
        <ele>58</ele>
        <time>2021-04-18T09:12:18.000Z</time>
      </trkpt>
      <trkpt lat="47.12234" lon="-1.65266">
        <ele>57</ele>
        <time>2021-04-18T09:12:21.000Z</time>
      </trkpt>
      <trkpt lat="47.1223" lon="-1.6528">
        <ele>56</ele>
        <time>2021-04-18T09:12:24.000Z</time>
      </trkpt>
      <trkpt lat="47.12221" lon="-1.65286">
        <ele>56</ele>
        <time>2021-04-18T09:12:27.000Z</time>
      </trkpt>
      <trkpt lat="47.12212" lon="-1.65297">
        <ele>57</ele>
        <time>2021-04-18T09:12:30.000Z</time>
      </trkpt>
      <trkpt lat="47.12205" lon="-1.65315">
        <ele>61</ele>
        <time>2021-04-18T09:12:34.000Z</time>
      </trkpt>
      <trkpt lat="47.12194" lon="-1.65331">
        <ele>61</ele>
        <time>2021-04-18T09:12:37.000Z</time>
      </trkpt>
      <trkpt lat="47.12184" lon="-1.65342">
        <ele>64</ele>
        <time>2021-04-18T09:12:40.000Z</time>
      </trkpt>
      <trkpt lat="47.12171" lon="-1.65355">
        <ele>62</ele>
        <time>2021-04-18T09:12:44.000Z</time>
      </trkpt>
      <trkpt lat="47.12164" lon="-1.65368">
        <ele>64</ele>
        <time>2021-04-18T09:12:47.000Z</time>
      </trkpt>
      <trkpt lat="47.12155" lon="-1.65378">
        <ele>69</ele>
        <time>2021-04-18T09:12:50.000Z</time>
      </trkpt>
      <trkpt lat="47.12146" lon="-1.65389">
        <ele>75</ele>
        <time>2021-04-18T09:12:53.000Z</time>
      </trkpt>
      <trkpt lat="47.12136" lon="-1.654">
        <ele>80</ele>
        <time>2021-04-18T09:12:56.000Z</time>
      </trkpt>
      <trkpt lat="47.12127" lon="-1.65411">
        <ele>85</ele>
        <time>2021-04-18T09:12:59.000Z</time>
      </trkpt>
      <trkpt lat="47.12116" lon="-1.65422">
        <ele>92</ele>
        <time>2021-04-18T09:13:02.000Z</time>
      </trkpt>
      <trkpt lat="47.12107" lon="-1.65434">
        <ele>96</ele>
        <time>2021-04-18T09:13:05.000Z</time>
      </trkpt>
      <trkpt lat="47.12097" lon="-1.65449">
        <ele>96</ele>
        <time>2021-04-18T09:13:08.000Z</time>
      </trkpt>
      <trkpt lat="47.12084" lon="-1.6547">
        <ele>94</ele>
        <time>2021-04-18T09:13:12.000Z</time>
      </trkpt>
      <trkpt lat="47.12076" lon="-1.65482">
        <ele>93</ele>
        <time>2021-04-18T09:13:14.000Z</time>
      </trkpt>
      <trkpt lat="47.12067" lon="-1.65493">
        <ele>95</ele>
        <time>2021-04-18T09:13:16.000Z</time>
      </trkpt>
      <trkpt lat="47.12051" lon="-1.65506">
        <ele>96</ele>
        <time>2021-04-18T09:13:19.000Z</time>
      </trkpt>
      <trkpt lat="47.12039" lon="-1.65515">
        <ele>89</ele>
        <time>2021-04-18T09:13:21.000Z</time>
      </trkpt>
      <trkpt lat="47.12028" lon="-1.65523">
        <ele>80</ele>
        <time>2021-04-18T09:13:23.000Z</time>
      </trkpt>
      <trkpt lat="47.12017" lon="-1.65529">
        <ele>72</ele>
        <time>2021-04-18T09:13:25.000Z</time>
      </trkpt>
      <trkpt lat="47.12009" lon="-1.65534">
        <ele>67</ele>
        <time>2021-04-18T09:13:27.000Z</time>
      </trkpt>
      <trkpt lat="47.12" lon="-1.65544">
        <ele>63</ele>
        <time>2021-04-18T09:13:30.000Z</time>
      </trkpt>
      <trkpt lat="47.11993" lon="-1.65554">
        <ele>58</ele>
        <time>2021-04-18T09:13:33.000Z</time>
      </trkpt>
      <trkpt lat="47.11987" lon="-1.65566">
        <ele>56</ele>
        <time>2021-04-18T09:13:38.000Z</time>
      </trkpt>
      <trkpt lat="47.1198" lon="-1.65558">
        <ele>45</ele>
        <time>2021-04-18T09:15:19.000Z</time>
      </trkpt>
      <trkpt lat="47.11986" lon="-1.6557">
        <ele>49</ele>
        <time>2021-04-18T09:15:52.000Z</time>
      </trkpt>
      <trkpt lat="47.11995" lon="-1.65568">
        <ele>46</ele>
        <time>2021-04-18T09:19:08.000Z</time>
      </trkpt>
      <trkpt lat="47.12004" lon="-1.6556">
        <ele>49</ele>
        <time>2021-04-18T09:19:15.000Z</time>
      </trkpt>
      <trkpt lat="47.1201" lon="-1.65549">
        <ele>50</ele>
        <time>2021-04-18T09:19:18.000Z</time>
      </trkpt>
      <trkpt lat="47.12016" lon="-1.65538">
        <ele>50</ele>
        <time>2021-04-18T09:19:21.000Z</time>
      </trkpt>
      <trkpt lat="47.12026" lon="-1.65528">
        <ele>53</ele>
        <time>2021-04-18T09:19:25.000Z</time>
      </trkpt>
      <trkpt lat="47.12037" lon="-1.6552">
        <ele>54</ele>
        <time>2021-04-18T09:19:29.000Z</time>
      </trkpt>
      <trkpt lat="47.12046" lon="-1.65507">
        <ele>55</ele>
        <time>2021-04-18T09:19:36.000Z</time>
      </trkpt>
      <trkpt lat="47.12052" lon="-1.65497">
        <ele>53</ele>
        <time>2021-04-18T09:19:41.000Z</time>
      </trkpt>
      <trkpt lat="47.12061" lon="-1.65489">
        <ele>56</ele>
        <time>2021-04-18T09:19:44.000Z</time>
      </trkpt>
      <trkpt lat="47.1207" lon="-1.65482">
        <ele>56</ele>
        <time>2021-04-18T09:19:47.000Z</time>
      </trkpt>
      <trkpt lat="47.12081" lon="-1.65473">
        <ele>55</ele>
        <time>2021-04-18T09:19:51.000Z</time>
      </trkpt>
      <trkpt lat="47.1209" lon="-1.65464">
        <ele>56</ele>
        <time>2021-04-18T09:19:54.000Z</time>
      </trkpt>
      <trkpt lat="47.121" lon="-1.65453">
        <ele>57</ele>
        <time>2021-04-18T09:19:57.000Z</time>
      </trkpt>
      <trkpt lat="47.12109" lon="-1.65441">
        <ele>57</ele>
        <time>2021-04-18T09:20:00.000Z</time>
      </trkpt>
      <trkpt lat="47.12122" lon="-1.65425">
        <ele>58</ele>
        <time>2021-04-18T09:20:04.000Z</time>
      </trkpt>
      <trkpt lat="47.12132" lon="-1.65413">
        <ele>61</ele>
        <time>2021-04-18T09:20:07.000Z</time>
      </trkpt>
      <trkpt lat="47.1214" lon="-1.65402">
        <ele>65</ele>
        <time>2021-04-18T09:20:10.000Z</time>
      </trkpt>
      <trkpt lat="47.1215" lon="-1.65393">
        <ele>66</ele>
        <time>2021-04-18T09:20:13.000Z</time>
      </trkpt>
      <trkpt lat="47.12159" lon="-1.65384">
        <ele>66</ele>
        <time>2021-04-18T09:20:16.000Z</time>
      </trkpt>
      <trkpt lat="47.12167" lon="-1.65373">
        <ele>67</ele>
        <time>2021-04-18T09:20:19.000Z</time>
      </trkpt>
      <trkpt lat="47.12178" lon="-1.65359">
        <ele>70</ele>
        <time>2021-04-18T09:20:23.000Z</time>
      </trkpt>
      <trkpt lat="47.12188" lon="-1.65345">
        <ele>71</ele>
        <time>2021-04-18T09:20:26.000Z</time>
      </trkpt>
      <trkpt lat="47.12194" lon="-1.65334">
        <ele>74</ele>
        <time>2021-04-18T09:20:28.000Z</time>
      </trkpt>
      <trkpt lat="47.122" lon="-1.65322">
        <ele>76</ele>
        <time>2021-04-18T09:20:30.000Z</time>
      </trkpt>
      <trkpt lat="47.12206" lon="-1.6531">
        <ele>74</ele>
        <time>2021-04-18T09:20:32.000Z</time>
      </trkpt>
      <trkpt lat="47.12214" lon="-1.65297">
        <ele>74</ele>
        <time>2021-04-18T09:20:34.000Z</time>
      </trkpt>
      <trkpt lat="47.12226" lon="-1.65301">
        <ele>72</ele>
        <time>2021-04-18T09:20:37.000Z</time>
      </trkpt>
      <trkpt lat="47.12233" lon="-1.65313">
        <ele>72</ele>
        <time>2021-04-18T09:20:40.000Z</time>
      </trkpt>
      <trkpt lat="47.1224" lon="-1.65326">
        <ele>67</ele>
        <time>2021-04-18T09:20:42.000Z</time>
      </trkpt>
      <trkpt lat="47.12243" lon="-1.65343">
        <ele>64</ele>
        <time>2021-04-18T09:20:44.000Z</time>
      </trkpt>
      <trkpt lat="47.12248" lon="-1.65358">
        <ele>62</ele>
        <time>2021-04-18T09:20:46.000Z</time>
      </trkpt>
      <trkpt lat="47.12253" lon="-1.65369">
        <ele>60</ele>
        <time>2021-04-18T09:20:48.000Z</time>
      </trkpt>
      <trkpt lat="47.12261" lon="-1.65386">
        <ele>59</ele>
        <time>2021-04-18T09:20:51.000Z</time>
      </trkpt>
      <trkpt lat="47.12267" lon="-1.65399">
        <ele>60</ele>
        <time>2021-04-18T09:20:53.000Z</time>
      </trkpt>
      <trkpt lat="47.12273" lon="-1.65411">
        <ele>59</ele>
        <time>2021-04-18T09:20:55.000Z</time>
      </trkpt>
      <trkpt lat="47.1228" lon="-1.65424">
        <ele>58</ele>
        <time>2021-04-18T09:20:57.000Z</time>
      </trkpt>
      <trkpt lat="47.12286" lon="-1.65438">
        <ele>57</ele>
        <time>2021-04-18T09:20:59.000Z</time>
      </trkpt>
      <trkpt lat="47.12294" lon="-1.6545">
        <ele>56</ele>
        <time>2021-04-18T09:21:01.000Z</time>
      </trkpt>
      <trkpt lat="47.12301" lon="-1.6546">
        <ele>55</ele>
        <time>2021-04-18T09:21:03.000Z</time>
      </trkpt>
      <trkpt lat="47.12312" lon="-1.65477">
        <ele>53</ele>
        <time>2021-04-18T09:21:06.000Z</time>
      </trkpt>
      <trkpt lat="47.12324" lon="-1.65497">
        <ele>52</ele>
        <time>2021-04-18T09:21:09.000Z</time>
      </trkpt>
      <trkpt lat="47.12335" lon="-1.65513">
        <ele>51</ele>
        <time>2021-04-18T09:21:12.000Z</time>
      </trkpt>
      <trkpt lat="47.12343" lon="-1.65526">
        <ele>52</ele>
        <time>2021-04-18T09:21:14.000Z</time>
      </trkpt>
      <trkpt lat="47.1235" lon="-1.65538">
        <ele>51</ele>
        <time>2021-04-18T09:21:16.000Z</time>
      </trkpt>
      <trkpt lat="47.12358" lon="-1.65549">
        <ele>51</ele>
        <time>2021-04-18T09:21:18.000Z</time>
      </trkpt>
      <trkpt lat="47.12365" lon="-1.65561">
        <ele>52</ele>
        <time>2021-04-18T09:21:20.000Z</time>
      </trkpt>
      <trkpt lat="47.12374" lon="-1.65571">
        <ele>52</ele>
        <time>2021-04-18T09:21:22.000Z</time>
      </trkpt>
      <trkpt lat="47.12383" lon="-1.65579">
        <ele>52</ele>
        <time>2021-04-18T09:21:24.000Z</time>
      </trkpt>
      <trkpt lat="47.12392" lon="-1.65585">
        <ele>51</ele>
        <time>2021-04-18T09:21:26.000Z</time>
      </trkpt>
      <trkpt lat="47.12403" lon="-1.65587">
        <ele>53</ele>
        <time>2021-04-18T09:21:28.000Z</time>
      </trkpt>
      <trkpt lat="47.12413" lon="-1.6559">
        <ele>54</ele>
        <time>2021-04-18T09:21:30.000Z</time>
      </trkpt>
      <trkpt lat="47.12425" lon="-1.65591">
        <ele>56</ele>
        <time>2021-04-18T09:21:32.000Z</time>
      </trkpt>
      <trkpt lat="47.12435" lon="-1.65593">
        <ele>56</ele>
        <time>2021-04-18T09:21:34.000Z</time>
      </trkpt>
      <trkpt lat="47.12451" lon="-1.65596">
        <ele>56</ele>
        <time>2021-04-18T09:21:37.000Z</time>
      </trkpt>
      <trkpt lat="47.1246" lon="-1.656">
        <ele>54</ele>
        <time>2021-04-18T09:21:39.000Z</time>
      </trkpt>
      <trkpt lat="47.12473" lon="-1.65604">
        <ele>58</ele>
        <time>2021-04-18T09:21:42.000Z</time>
      </trkpt>
      <trkpt lat="47.12483" lon="-1.65605">
        <ele>61</ele>
        <time>2021-04-18T09:21:44.000Z</time>
      </trkpt>
      <trkpt lat="47.12497" lon="-1.65606">
        <ele>62</ele>
        <time>2021-04-18T09:21:46.000Z</time>
      </trkpt>
      <trkpt lat="47.12509" lon="-1.65611">
        <ele>62</ele>
        <time>2021-04-18T09:21:48.000Z</time>
      </trkpt>
      <trkpt lat="47.12525" lon="-1.65617">
        <ele>68</ele>
        <time>2021-04-18T09:21:51.000Z</time>
      </trkpt>
      <trkpt lat="47.12539" lon="-1.65624">
        <ele>69</ele>
        <time>2021-04-18T09:21:54.000Z</time>
      </trkpt>
      <trkpt lat="47.12549" lon="-1.65631">
        <ele>68</ele>
        <time>2021-04-18T09:21:56.000Z</time>
      </trkpt>
      <trkpt lat="47.12556" lon="-1.65642">
        <ele>75</ele>
        <time>2021-04-18T09:21:59.000Z</time>
      </trkpt>
      <trkpt lat="47.12566" lon="-1.65659">
        <ele>79</ele>
        <time>2021-04-18T09:22:02.000Z</time>
      </trkpt>
      <trkpt lat="47.12574" lon="-1.65673">
        <ele>82</ele>
        <time>2021-04-18T09:22:05.000Z</time>
      </trkpt>
      <trkpt lat="47.12582" lon="-1.65688">
        <ele>84</ele>
        <time>2021-04-18T09:22:08.000Z</time>
      </trkpt>
      <trkpt lat="47.12591" lon="-1.65706">
        <ele>84</ele>
        <time>2021-04-18T09:22:12.000Z</time>
      </trkpt>
      <trkpt lat="47.12599" lon="-1.65719">
        <ele>84</ele>
        <time>2021-04-18T09:22:15.000Z</time>
      </trkpt>
      <trkpt lat="47.12607" lon="-1.65734">
        <ele>83</ele>
        <time>2021-04-18T09:22:18.000Z</time>
      </trkpt>
      <trkpt lat="47.12615" lon="-1.65749">
        <ele>81</ele>
        <time>2021-04-18T09:22:20.000Z</time>
      </trkpt>
      <trkpt lat="47.1262" lon="-1.65763">
        <ele>81</ele>
        <time>2021-04-18T09:22:22.000Z</time>
      </trkpt>
      <trkpt lat="47.12625" lon="-1.65775">
        <ele>82</ele>
        <time>2021-04-18T09:22:24.000Z</time>
      </trkpt>
      <trkpt lat="47.1263" lon="-1.65788">
        <ele>82</ele>
        <time>2021-04-18T09:22:26.000Z</time>
      </trkpt>
      <trkpt lat="47.1264" lon="-1.65805">
        <ele>81</ele>
        <time>2021-04-18T09:22:28.000Z</time>
      </trkpt>
      <trkpt lat="47.12646" lon="-1.6582">
        <ele>81</ele>
        <time>2021-04-18T09:22:30.000Z</time>
      </trkpt>
      <trkpt lat="47.12654" lon="-1.65837">
        <ele>80</ele>
        <time>2021-04-18T09:22:32.000Z</time>
      </trkpt>
      <trkpt lat="47.12661" lon="-1.65849">
        <ele>77</ele>
        <time>2021-04-18T09:22:34.000Z</time>
      </trkpt>
      <trkpt lat="47.12664" lon="-1.65862">
        <ele>78</ele>
        <time>2021-04-18T09:22:36.000Z</time>
      </trkpt>
      <trkpt lat="47.12666" lon="-1.65876">
        <ele>78</ele>
        <time>2021-04-18T09:22:38.000Z</time>
      </trkpt>
      <trkpt lat="47.12666" lon="-1.65892">
        <ele>76</ele>
        <time>2021-04-18T09:22:40.000Z</time>
      </trkpt>
      <trkpt lat="47.12668" lon="-1.65911">
        <ele>76</ele>
        <time>2021-04-18T09:22:43.000Z</time>
      </trkpt>
      <trkpt lat="47.1267" lon="-1.65925">
        <ele>76</ele>
        <time>2021-04-18T09:22:45.000Z</time>
      </trkpt>
      <trkpt lat="47.12675" lon="-1.6594">
        <ele>76</ele>
        <time>2021-04-18T09:22:47.000Z</time>
      </trkpt>
      <trkpt lat="47.12678" lon="-1.65954">
        <ele>76</ele>
        <time>2021-04-18T09:22:49.000Z</time>
      </trkpt>
      <trkpt lat="47.12683" lon="-1.65968">
        <ele>76</ele>
        <time>2021-04-18T09:22:51.000Z</time>
      </trkpt>
      <trkpt lat="47.12687" lon="-1.65986">
        <ele>76</ele>
        <time>2021-04-18T09:22:53.000Z</time>
      </trkpt>
      <trkpt lat="47.12692" lon="-1.66004">
        <ele>77</ele>
        <time>2021-04-18T09:22:55.000Z</time>
      </trkpt>
      <trkpt lat="47.12697" lon="-1.66021">
        <ele>77</ele>
        <time>2021-04-18T09:22:57.000Z</time>
      </trkpt>
      <trkpt lat="47.12702" lon="-1.66037">
        <ele>74</ele>
        <time>2021-04-18T09:22:59.000Z</time>
      </trkpt>
      <trkpt lat="47.12705" lon="-1.66052">
        <ele>75</ele>
        <time>2021-04-18T09:23:01.000Z</time>
      </trkpt>
      <trkpt lat="47.12707" lon="-1.66067">
        <ele>75</ele>
        <time>2021-04-18T09:23:03.000Z</time>
      </trkpt>
      <trkpt lat="47.12707" lon="-1.66083">
        <ele>77</ele>
        <time>2021-04-18T09:23:05.000Z</time>
      </trkpt>
      <trkpt lat="47.12706" lon="-1.66105">
        <ele>76</ele>
        <time>2021-04-18T09:23:07.000Z</time>
      </trkpt>
      <trkpt lat="47.12708" lon="-1.66125">
        <ele>75</ele>
        <time>2021-04-18T09:23:09.000Z</time>
      </trkpt>
      <trkpt lat="47.12704" lon="-1.66142">
        <ele>76</ele>
        <time>2021-04-18T09:23:11.000Z</time>
      </trkpt>
      <trkpt lat="47.12697" lon="-1.66154">
        <ele>77</ele>
        <time>2021-04-18T09:23:13.000Z</time>
      </trkpt>
      <trkpt lat="47.12691" lon="-1.66167">
        <ele>76</ele>
        <time>2021-04-18T09:23:15.000Z</time>
      </trkpt>
      <trkpt lat="47.12685" lon="-1.66182">
        <ele>76</ele>
        <time>2021-04-18T09:23:17.000Z</time>
      </trkpt>
      <trkpt lat="47.12682" lon="-1.66198">
        <ele>75</ele>
        <time>2021-04-18T09:23:19.000Z</time>
      </trkpt>
      <trkpt lat="47.1268" lon="-1.66214">
        <ele>76</ele>
        <time>2021-04-18T09:23:21.000Z</time>
      </trkpt>
      <trkpt lat="47.1268" lon="-1.66232">
        <ele>77</ele>
        <time>2021-04-18T09:23:23.000Z</time>
      </trkpt>
      <trkpt lat="47.1268" lon="-1.6625">
        <ele>75</ele>
        <time>2021-04-18T09:23:25.000Z</time>
      </trkpt>
      <trkpt lat="47.1268" lon="-1.66268">
        <ele>75</ele>
        <time>2021-04-18T09:23:27.000Z</time>
      </trkpt>
      <trkpt lat="47.1268" lon="-1.66284">
        <ele>75</ele>
        <time>2021-04-18T09:23:29.000Z</time>
      </trkpt>
      <trkpt lat="47.1268" lon="-1.66297">
        <ele>77</ele>
        <time>2021-04-18T09:23:31.000Z</time>
      </trkpt>
      <trkpt lat="47.1268" lon="-1.66313">
        <ele>76</ele>
        <time>2021-04-18T09:23:33.000Z</time>
      </trkpt>
      <trkpt lat="47.1268" lon="-1.66329">
        <ele>77</ele>
        <time>2021-04-18T09:23:35.000Z</time>
      </trkpt>
      <trkpt lat="47.12682" lon="-1.66342">
        <ele>77</ele>
        <time>2021-04-18T09:23:37.000Z</time>
      </trkpt>
      <trkpt lat="47.12684" lon="-1.66356">
        <ele>77</ele>
        <time>2021-04-18T09:23:39.000Z</time>
      </trkpt>
      <trkpt lat="47.12688" lon="-1.66372">
        <ele>77</ele>
        <time>2021-04-18T09:23:41.000Z</time>
      </trkpt>
      <trkpt lat="47.12691" lon="-1.66396">
        <ele>78</ele>
        <time>2021-04-18T09:23:43.000Z</time>
      </trkpt>
      <trkpt lat="47.12694" lon="-1.6641">
        <ele>79</ele>
        <time>2021-04-18T09:23:45.000Z</time>
      </trkpt>
      <trkpt lat="47.12697" lon="-1.66424">
        <ele>78</ele>
        <time>2021-04-18T09:23:48.000Z</time>
      </trkpt>
      <trkpt lat="47.12702" lon="-1.66444">
        <ele>77</ele>
        <time>2021-04-18T09:23:51.000Z</time>
      </trkpt>
      <trkpt lat="47.12704" lon="-1.66462">
        <ele>78</ele>
        <time>2021-04-18T09:23:53.000Z</time>
      </trkpt>
      <trkpt lat="47.12708" lon="-1.66479">
        <ele>77</ele>
        <time>2021-04-18T09:23:54.000Z</time>
      </trkpt>
      <trkpt lat="47.12713" lon="-1.66501">
        <ele>75</ele>
        <time>2021-04-18T09:23:56.000Z</time>
      </trkpt>
      <trkpt lat="47.12719" lon="-1.66518">
        <ele>74</ele>
        <time>2021-04-18T09:23:58.000Z</time>
      </trkpt>
      <trkpt lat="47.12724" lon="-1.66533">
        <ele>73</ele>
        <time>2021-04-18T09:24:00.000Z</time>
      </trkpt>
      <trkpt lat="47.1273" lon="-1.66546">
        <ele>72</ele>
        <time>2021-04-18T09:24:02.000Z</time>
      </trkpt>
      <trkpt lat="47.12736" lon="-1.66558">
        <ele>71</ele>
        <time>2021-04-18T09:24:04.000Z</time>
      </trkpt>
      <trkpt lat="47.12746" lon="-1.66569">
        <ele>73</ele>
        <time>2021-04-18T09:24:07.000Z</time>
      </trkpt>
      <trkpt lat="47.12753" lon="-1.66576">
        <ele>74</ele>
        <time>2021-04-18T09:24:09.000Z</time>
      </trkpt>
      <trkpt lat="47.12765" lon="-1.66587">
        <ele>75</ele>
        <time>2021-04-18T09:24:12.000Z</time>
      </trkpt>
      <trkpt lat="47.12776" lon="-1.66599">
        <ele>73</ele>
        <time>2021-04-18T09:24:14.000Z</time>
      </trkpt>
      <trkpt lat="47.12792" lon="-1.6661">
        <ele>71</ele>
        <time>2021-04-18T09:24:16.000Z</time>
      </trkpt>
      <trkpt lat="47.12805" lon="-1.66618">
        <ele>68</ele>
        <time>2021-04-18T09:24:18.000Z</time>
      </trkpt>
      <trkpt lat="47.1282" lon="-1.66627">
        <ele>63</ele>
        <time>2021-04-18T09:24:21.000Z</time>
      </trkpt>
      <trkpt lat="47.12834" lon="-1.66634">
        <ele>63</ele>
        <time>2021-04-18T09:24:23.000Z</time>
      </trkpt>
      <trkpt lat="47.12846" lon="-1.66641">
        <ele>61</ele>
        <time>2021-04-18T09:24:25.000Z</time>
      </trkpt>
      <trkpt lat="47.12858" lon="-1.66648">
        <ele>61</ele>
        <time>2021-04-18T09:24:28.000Z</time>
      </trkpt>
      <trkpt lat="47.12873" lon="-1.66656">
        <ele>64</ele>
        <time>2021-04-18T09:24:31.000Z</time>
      </trkpt>
      <trkpt lat="47.12893" lon="-1.66666">
        <ele>61</ele>
        <time>2021-04-18T09:24:34.000Z</time>
      </trkpt>
      <trkpt lat="47.12904" lon="-1.66672">
        <ele>58</ele>
        <time>2021-04-18T09:24:36.000Z</time>
      </trkpt>
      <trkpt lat="47.12914" lon="-1.66677">
        <ele>57</ele>
        <time>2021-04-18T09:24:38.000Z</time>
      </trkpt>
      <trkpt lat="47.12924" lon="-1.66683">
        <ele>56</ele>
        <time>2021-04-18T09:24:40.000Z</time>
      </trkpt>
      <trkpt lat="47.12934" lon="-1.66688">
        <ele>55</ele>
        <time>2021-04-18T09:24:42.000Z</time>
      </trkpt>
      <trkpt lat="47.12943" lon="-1.66693">
        <ele>54</ele>
        <time>2021-04-18T09:24:44.000Z</time>
      </trkpt>
      <trkpt lat="47.12952" lon="-1.66698">
        <ele>54</ele>
        <time>2021-04-18T09:24:46.000Z</time>
      </trkpt>
      <trkpt lat="47.12963" lon="-1.66703">
        <ele>54</ele>
        <time>2021-04-18T09:24:48.000Z</time>
      </trkpt>
      <trkpt lat="47.12973" lon="-1.66708">
        <ele>54</ele>
        <time>2021-04-18T09:24:50.000Z</time>
      </trkpt>
      <trkpt lat="47.12982" lon="-1.66713">
        <ele>55</ele>
        <time>2021-04-18T09:24:52.000Z</time>
      </trkpt>
      <trkpt lat="47.12998" lon="-1.66723">
        <ele>53</ele>
        <time>2021-04-18T09:24:55.000Z</time>
      </trkpt>
      <trkpt lat="47.13007" lon="-1.66731">
        <ele>52</ele>
        <time>2021-04-18T09:24:57.000Z</time>
      </trkpt>
      <trkpt lat="47.13023" lon="-1.66747">
        <ele>58</ele>
        <time>2021-04-18T09:25:01.000Z</time>
      </trkpt>
      <trkpt lat="47.13036" lon="-1.66761">
        <ele>59</ele>
        <time>2021-04-18T09:25:04.000Z</time>
      </trkpt>
      <trkpt lat="47.13047" lon="-1.66779">
        <ele>58</ele>
        <time>2021-04-18T09:25:07.000Z</time>
      </trkpt>
      <trkpt lat="47.13058" lon="-1.66788">
        <ele>58</ele>
        <time>2021-04-18T09:25:09.000Z</time>
      </trkpt>
      <trkpt lat="47.13068" lon="-1.66797">
        <ele>57</ele>
        <time>2021-04-18T09:25:11.000Z</time>
      </trkpt>
      <trkpt lat="47.13079" lon="-1.66806">
        <ele>57</ele>
        <time>2021-04-18T09:25:13.000Z</time>
      </trkpt>
      <trkpt lat="47.13089" lon="-1.66815">
        <ele>56</ele>
        <time>2021-04-18T09:25:15.000Z</time>
      </trkpt>
      <trkpt lat="47.13102" lon="-1.66829">
        <ele>54</ele>
        <time>2021-04-18T09:25:18.000Z</time>
      </trkpt>
      <trkpt lat="47.13109" lon="-1.66839">
        <ele>55</ele>
        <time>2021-04-18T09:25:21.000Z</time>
      </trkpt>
      <trkpt lat="47.13117" lon="-1.66845">
        <ele>57</ele>
        <time>2021-04-18T09:25:24.000Z</time>
      </trkpt>
      <trkpt lat="47.13132" lon="-1.6686">
        <ele>60</ele>
        <time>2021-04-18T09:25:27.000Z</time>
      </trkpt>
      <trkpt lat="47.13144" lon="-1.66869">
        <ele>61</ele>
        <time>2021-04-18T09:25:29.000Z</time>
      </trkpt>
      <trkpt lat="47.13154" lon="-1.66875">
        <ele>61</ele>
        <time>2021-04-18T09:25:31.000Z</time>
      </trkpt>
      <trkpt lat="47.13167" lon="-1.66887">
        <ele>63</ele>
        <time>2021-04-18T09:25:34.000Z</time>
      </trkpt>
      <trkpt lat="47.13178" lon="-1.66898">
        <ele>68</ele>
        <time>2021-04-18T09:25:36.000Z</time>
      </trkpt>
      <trkpt lat="47.13193" lon="-1.66915">
        <ele>69</ele>
        <time>2021-04-18T09:25:39.000Z</time>
      </trkpt>
      <trkpt lat="47.13202" lon="-1.66927">
        <ele>67</ele>
        <time>2021-04-18T09:25:41.000Z</time>
      </trkpt>
      <trkpt lat="47.13209" lon="-1.66935">
        <ele>68</ele>
        <time>2021-04-18T09:25:43.000Z</time>
      </trkpt>
      <trkpt lat="47.13227" lon="-1.66954">
        <ele>71</ele>
        <time>2021-04-18T09:25:46.000Z</time>
      </trkpt>
      <trkpt lat="47.13241" lon="-1.66973">
        <ele>74</ele>
        <time>2021-04-18T09:25:49.000Z</time>
      </trkpt>
      <trkpt lat="47.13254" lon="-1.66986">
        <ele>73</ele>
        <time>2021-04-18T09:25:51.000Z</time>
      </trkpt>
      <trkpt lat="47.13267" lon="-1.66998">
        <ele>73</ele>
        <time>2021-04-18T09:25:53.000Z</time>
      </trkpt>
      <trkpt lat="47.13279" lon="-1.67009">
        <ele>71</ele>
        <time>2021-04-18T09:25:55.000Z</time>
      </trkpt>
      <trkpt lat="47.13289" lon="-1.67019">
        <ele>68</ele>
        <time>2021-04-18T09:25:57.000Z</time>
      </trkpt>
      <trkpt lat="47.13298" lon="-1.67027">
        <ele>68</ele>
        <time>2021-04-18T09:25:59.000Z</time>
      </trkpt>
      <trkpt lat="47.13309" lon="-1.67036">
        <ele>69</ele>
        <time>2021-04-18T09:26:01.000Z</time>
      </trkpt>
      <trkpt lat="47.13325" lon="-1.67052">
        <ele>67</ele>
        <time>2021-04-18T09:26:04.000Z</time>
      </trkpt>
      <trkpt lat="47.13334" lon="-1.67064">
        <ele>67</ele>
        <time>2021-04-18T09:26:06.000Z</time>
      </trkpt>
      <trkpt lat="47.13349" lon="-1.67075">
        <ele>68</ele>
        <time>2021-04-18T09:26:09.000Z</time>
      </trkpt>
      <trkpt lat="47.13363" lon="-1.67091">
        <ele>66</ele>
        <time>2021-04-18T09:26:12.000Z</time>
      </trkpt>
      <trkpt lat="47.13374" lon="-1.67106">
        <ele>70</ele>
        <time>2021-04-18T09:26:15.000Z</time>
      </trkpt>
      <trkpt lat="47.13384" lon="-1.67114">
        <ele>71</ele>
        <time>2021-04-18T09:26:17.000Z</time>
      </trkpt>
      <trkpt lat="47.13397" lon="-1.67119">
        <ele>72</ele>
        <time>2021-04-18T09:26:20.000Z</time>
      </trkpt>
      <trkpt lat="47.13406" lon="-1.67126">
        <ele>72</ele>
        <time>2021-04-18T09:26:22.000Z</time>
      </trkpt>
      <trkpt lat="47.13421" lon="-1.67139">
        <ele>72</ele>
        <time>2021-04-18T09:26:25.000Z</time>
      </trkpt>
      <trkpt lat="47.13431" lon="-1.6715">
        <ele>75</ele>
        <time>2021-04-18T09:26:27.000Z</time>
      </trkpt>
      <trkpt lat="47.13439" lon="-1.67159">
        <ele>76</ele>
        <time>2021-04-18T09:26:29.000Z</time>
      </trkpt>
      <trkpt lat="47.13447" lon="-1.67168">
        <ele>79</ele>
        <time>2021-04-18T09:26:31.000Z</time>
      </trkpt>
      <trkpt lat="47.13455" lon="-1.67178">
        <ele>79</ele>
        <time>2021-04-18T09:26:33.000Z</time>
      </trkpt>
      <trkpt lat="47.13467" lon="-1.67189">
        <ele>79</ele>
        <time>2021-04-18T09:26:35.000Z</time>
      </trkpt>
      <trkpt lat="47.13479" lon="-1.67204">
        <ele>79</ele>
        <time>2021-04-18T09:26:37.000Z</time>
      </trkpt>
      <trkpt lat="47.13489" lon="-1.67219">
        <ele>74</ele>
        <time>2021-04-18T09:26:39.000Z</time>
      </trkpt>
      <trkpt lat="47.13497" lon="-1.67231">
        <ele>71</ele>
        <time>2021-04-18T09:26:41.000Z</time>
      </trkpt>
      <trkpt lat="47.13506" lon="-1.6724">
        <ele>68</ele>
        <time>2021-04-18T09:26:43.000Z</time>
      </trkpt>
      <trkpt lat="47.13521" lon="-1.67253">
        <ele>66</ele>
        <time>2021-04-18T09:26:46.000Z</time>
      </trkpt>
      <trkpt lat="47.13533" lon="-1.67258">
        <ele>64</ele>
        <time>2021-04-18T09:26:48.000Z</time>
      </trkpt>
      <trkpt lat="47.13543" lon="-1.67265">
        <ele>63</ele>
        <time>2021-04-18T09:26:50.000Z</time>
      </trkpt>
      <trkpt lat="47.13553" lon="-1.67269">
        <ele>62</ele>
        <time>2021-04-18T09:26:52.000Z</time>
      </trkpt>
      <trkpt lat="47.13562" lon="-1.67273">
        <ele>61</ele>
        <time>2021-04-18T09:26:54.000Z</time>
      </trkpt>
      <trkpt lat="47.13573" lon="-1.67278">
        <ele>61</ele>
        <time>2021-04-18T09:26:56.000Z</time>
      </trkpt>
      <trkpt lat="47.13585" lon="-1.67284">
        <ele>60</ele>
        <time>2021-04-18T09:26:58.000Z</time>
      </trkpt>
      <trkpt lat="47.13598" lon="-1.67287">
        <ele>59</ele>
        <time>2021-04-18T09:27:00.000Z</time>
      </trkpt>
      <trkpt lat="47.13608" lon="-1.6729">
        <ele>58</ele>
        <time>2021-04-18T09:27:02.000Z</time>
      </trkpt>
      <trkpt lat="47.13618" lon="-1.67295">
        <ele>58</ele>
        <time>2021-04-18T09:27:04.000Z</time>
      </trkpt>
      <trkpt lat="47.13628" lon="-1.67299">
        <ele>57</ele>
        <time>2021-04-18T09:27:06.000Z</time>
      </trkpt>
      <trkpt lat="47.13638" lon="-1.67304">
        <ele>58</ele>
        <time>2021-04-18T09:27:08.000Z</time>
      </trkpt>
      <trkpt lat="47.13649" lon="-1.67308">
        <ele>57</ele>
        <time>2021-04-18T09:27:10.000Z</time>
      </trkpt>
      <trkpt lat="47.13659" lon="-1.67312">
        <ele>57</ele>
        <time>2021-04-18T09:27:12.000Z</time>
      </trkpt>
      <trkpt lat="47.1367" lon="-1.67317">
        <ele>56</ele>
        <time>2021-04-18T09:27:14.000Z</time>
      </trkpt>
      <trkpt lat="47.13681" lon="-1.67321">
        <ele>56</ele>
        <time>2021-04-18T09:27:16.000Z</time>
      </trkpt>
      <trkpt lat="47.13692" lon="-1.67325">
        <ele>56</ele>
        <time>2021-04-18T09:27:18.000Z</time>
      </trkpt>
      <trkpt lat="47.13703" lon="-1.67329">
        <ele>57</ele>
        <time>2021-04-18T09:27:20.000Z</time>
      </trkpt>
      <trkpt lat="47.13712" lon="-1.67332">
        <ele>58</ele>
        <time>2021-04-18T09:27:22.000Z</time>
      </trkpt>
      <trkpt lat="47.13723" lon="-1.6733">
        <ele>58</ele>
        <time>2021-04-18T09:27:24.000Z</time>
      </trkpt>
      <trkpt lat="47.13733" lon="-1.67328">
        <ele>56</ele>
        <time>2021-04-18T09:27:27.000Z</time>
      </trkpt>
      <trkpt lat="47.13741" lon="-1.6732">
        <ele>54</ele>
        <time>2021-04-18T09:27:31.000Z</time>
      </trkpt>
      <trkpt lat="47.13752" lon="-1.67333">
        <ele>54</ele>
        <time>2021-04-18T09:27:37.000Z</time>
      </trkpt>
      <trkpt lat="47.13757" lon="-1.67353">
        <ele>55</ele>
        <time>2021-04-18T09:27:40.000Z</time>
      </trkpt>
      <trkpt lat="47.13758" lon="-1.67368">
        <ele>55</ele>
        <time>2021-04-18T09:27:42.000Z</time>
      </trkpt>
      <trkpt lat="47.13759" lon="-1.67383">
        <ele>56</ele>
        <time>2021-04-18T09:27:44.000Z</time>
      </trkpt>
      <trkpt lat="47.1376" lon="-1.674">
        <ele>55</ele>
        <time>2021-04-18T09:27:46.000Z</time>
      </trkpt>
      <trkpt lat="47.13759" lon="-1.67416">
        <ele>50</ele>
        <time>2021-04-18T09:27:48.000Z</time>
      </trkpt>
      <trkpt lat="47.13758" lon="-1.67429">
        <ele>53</ele>
        <time>2021-04-18T09:27:50.000Z</time>
      </trkpt>
      <trkpt lat="47.13757" lon="-1.67446">
        <ele>54</ele>
        <time>2021-04-18T09:27:52.000Z</time>
      </trkpt>
      <trkpt lat="47.13756" lon="-1.67465">
        <ele>54</ele>
        <time>2021-04-18T09:27:54.000Z</time>
      </trkpt>
      <trkpt lat="47.13751" lon="-1.67481">
        <ele>53</ele>
        <time>2021-04-18T09:27:56.000Z</time>
      </trkpt>
      <trkpt lat="47.13749" lon="-1.67497">
        <ele>53</ele>
        <time>2021-04-18T09:27:58.000Z</time>
      </trkpt>
      <trkpt lat="47.13746" lon="-1.67514">
        <ele>53</ele>
        <time>2021-04-18T09:28:00.000Z</time>
      </trkpt>
      <trkpt lat="47.13742" lon="-1.67539">
        <ele>53</ele>
        <time>2021-04-18T09:28:03.000Z</time>
      </trkpt>
      <trkpt lat="47.13741" lon="-1.67554">
        <ele>53</ele>
        <time>2021-04-18T09:28:05.000Z</time>
      </trkpt>
      <trkpt lat="47.13741" lon="-1.67571">
        <ele>53</ele>
        <time>2021-04-18T09:28:07.000Z</time>
      </trkpt>
      <trkpt lat="47.13742" lon="-1.67588">
        <ele>54</ele>
        <time>2021-04-18T09:28:09.000Z</time>
      </trkpt>
      <trkpt lat="47.13743" lon="-1.67604">
        <ele>54</ele>
        <time>2021-04-18T09:28:11.000Z</time>
      </trkpt>
      <trkpt lat="47.13745" lon="-1.67621">
        <ele>54</ele>
        <time>2021-04-18T09:28:13.000Z</time>
      </trkpt>
      <trkpt lat="47.13748" lon="-1.67638">
        <ele>54</ele>
        <time>2021-04-18T09:28:15.000Z</time>
      </trkpt>
      <trkpt lat="47.13749" lon="-1.67656">
        <ele>55</ele>
        <time>2021-04-18T09:28:17.000Z</time>
      </trkpt>
      <trkpt lat="47.13751" lon="-1.67672">
        <ele>55</ele>
        <time>2021-04-18T09:28:19.000Z</time>
      </trkpt>
      <trkpt lat="47.13753" lon="-1.67689">
        <ele>55</ele>
        <time>2021-04-18T09:28:21.000Z</time>
      </trkpt>
      <trkpt lat="47.13756" lon="-1.67715">
        <ele>56</ele>
        <time>2021-04-18T09:28:24.000Z</time>
      </trkpt>
      <trkpt lat="47.13758" lon="-1.67732">
        <ele>54</ele>
        <time>2021-04-18T09:28:26.000Z</time>
      </trkpt>
      <trkpt lat="47.1376" lon="-1.67748">
        <ele>56</ele>
        <time>2021-04-18T09:28:28.000Z</time>
      </trkpt>
      <trkpt lat="47.13762" lon="-1.67764">
        <ele>57</ele>
        <time>2021-04-18T09:28:30.000Z</time>
      </trkpt>
      <trkpt lat="47.13764" lon="-1.67781">
        <ele>57</ele>
        <time>2021-04-18T09:28:32.000Z</time>
      </trkpt>
      <trkpt lat="47.13767" lon="-1.67797">
        <ele>56</ele>
        <time>2021-04-18T09:28:34.000Z</time>
      </trkpt>
      <trkpt lat="47.13769" lon="-1.67813">
        <ele>55</ele>
        <time>2021-04-18T09:28:36.000Z</time>
      </trkpt>
      <trkpt lat="47.13772" lon="-1.67828">
        <ele>58</ele>
        <time>2021-04-18T09:28:38.000Z</time>
      </trkpt>
      <trkpt lat="47.13774" lon="-1.67844">
        <ele>57</ele>
        <time>2021-04-18T09:28:40.000Z</time>
      </trkpt>
      <trkpt lat="47.13775" lon="-1.67869">
        <ele>55</ele>
        <time>2021-04-18T09:28:43.000Z</time>
      </trkpt>
      <trkpt lat="47.13776" lon="-1.67885">
        <ele>53</ele>
        <time>2021-04-18T09:28:45.000Z</time>
      </trkpt>
      <trkpt lat="47.13778" lon="-1.67907">
        <ele>53</ele>
        <time>2021-04-18T09:28:48.000Z</time>
      </trkpt>
      <trkpt lat="47.13779" lon="-1.67921">
        <ele>54</ele>
        <time>2021-04-18T09:28:50.000Z</time>
      </trkpt>
      <trkpt lat="47.13785" lon="-1.67945">
        <ele>56</ele>
        <time>2021-04-18T09:28:54.000Z</time>
      </trkpt>
      <trkpt lat="47.13787" lon="-1.67962">
        <ele>56</ele>
        <time>2021-04-18T09:28:57.000Z</time>
      </trkpt>
      <trkpt lat="47.13788" lon="-1.67979">
        <ele>56</ele>
        <time>2021-04-18T09:28:59.000Z</time>
      </trkpt>
      <trkpt lat="47.13789" lon="-1.67996">
        <ele>55</ele>
        <time>2021-04-18T09:29:01.000Z</time>
      </trkpt>
      <trkpt lat="47.13789" lon="-1.68013">
        <ele>55</ele>
        <time>2021-04-18T09:29:03.000Z</time>
      </trkpt>
      <trkpt lat="47.1379" lon="-1.6803">
        <ele>55</ele>
        <time>2021-04-18T09:29:05.000Z</time>
      </trkpt>
      <trkpt lat="47.13791" lon="-1.68047">
        <ele>55</ele>
        <time>2021-04-18T09:29:07.000Z</time>
      </trkpt>
      <trkpt lat="47.13793" lon="-1.68065">
        <ele>55</ele>
        <time>2021-04-18T09:29:09.000Z</time>
      </trkpt>
      <trkpt lat="47.13794" lon="-1.68082">
        <ele>56</ele>
        <time>2021-04-18T09:29:11.000Z</time>
      </trkpt>
      <trkpt lat="47.13796" lon="-1.681">
        <ele>55</ele>
        <time>2021-04-18T09:29:13.000Z</time>
      </trkpt>
      <trkpt lat="47.13797" lon="-1.68118">
        <ele>54</ele>
        <time>2021-04-18T09:29:15.000Z</time>
      </trkpt>
      <trkpt lat="47.13798" lon="-1.68144">
        <ele>55</ele>
        <time>2021-04-18T09:29:18.000Z</time>
      </trkpt>
      <trkpt lat="47.13801" lon="-1.68165">
        <ele>56</ele>
        <time>2021-04-18T09:29:21.000Z</time>
      </trkpt>
      <trkpt lat="47.13802" lon="-1.68193">
        <ele>53</ele>
        <time>2021-04-18T09:29:24.000Z</time>
      </trkpt>
      <trkpt lat="47.13804" lon="-1.68217">
        <ele>55</ele>
        <time>2021-04-18T09:29:27.000Z</time>
      </trkpt>
      <trkpt lat="47.13805" lon="-1.6824">
        <ele>55</ele>
        <time>2021-04-18T09:29:30.000Z</time>
      </trkpt>
      <trkpt lat="47.13807" lon="-1.68258">
        <ele>51</ele>
        <time>2021-04-18T09:29:32.000Z</time>
      </trkpt>
      <trkpt lat="47.13807" lon="-1.68274">
        <ele>51</ele>
        <time>2021-04-18T09:29:34.000Z</time>
      </trkpt>
      <trkpt lat="47.13808" lon="-1.68291">
        <ele>51</ele>
        <time>2021-04-18T09:29:36.000Z</time>
      </trkpt>
      <trkpt lat="47.13809" lon="-1.68307">
        <ele>52</ele>
        <time>2021-04-18T09:29:38.000Z</time>
      </trkpt>
      <trkpt lat="47.1381" lon="-1.68324">
        <ele>52</ele>
        <time>2021-04-18T09:29:40.000Z</time>
      </trkpt>
      <trkpt lat="47.13812" lon="-1.68341">
        <ele>52</ele>
        <time>2021-04-18T09:29:42.000Z</time>
      </trkpt>
      <trkpt lat="47.13813" lon="-1.68357">
        <ele>52</ele>
        <time>2021-04-18T09:29:44.000Z</time>
      </trkpt>
      <trkpt lat="47.13813" lon="-1.68374">
        <ele>53</ele>
        <time>2021-04-18T09:29:46.000Z</time>
      </trkpt>
      <trkpt lat="47.13815" lon="-1.68399">
        <ele>52</ele>
        <time>2021-04-18T09:29:49.000Z</time>
      </trkpt>
      <trkpt lat="47.13816" lon="-1.68417">
        <ele>52</ele>
        <time>2021-04-18T09:29:51.000Z</time>
      </trkpt>
      <trkpt lat="47.13816" lon="-1.68434">
        <ele>52</ele>
        <time>2021-04-18T09:29:53.000Z</time>
      </trkpt>
      <trkpt lat="47.13817" lon="-1.68451">
        <ele>52</ele>
        <time>2021-04-18T09:29:55.000Z</time>
      </trkpt>
      <trkpt lat="47.13818" lon="-1.68477">
        <ele>51</ele>
        <time>2021-04-18T09:29:58.000Z</time>
      </trkpt>
      <trkpt lat="47.1382" lon="-1.68513">
        <ele>51</ele>
        <time>2021-04-18T09:30:02.000Z</time>
      </trkpt>
      <trkpt lat="47.13821" lon="-1.68529">
        <ele>51</ele>
        <time>2021-04-18T09:30:04.000Z</time>
      </trkpt>
      <trkpt lat="47.13822" lon="-1.68543">
        <ele>51</ele>
        <time>2021-04-18T09:30:06.000Z</time>
      </trkpt>
      <trkpt lat="47.13824" lon="-1.68567">
        <ele>53</ele>
        <time>2021-04-18T09:30:09.000Z</time>
      </trkpt>
      <trkpt lat="47.13825" lon="-1.68581">
        <ele>53</ele>
        <time>2021-04-18T09:30:11.000Z</time>
      </trkpt>
      <trkpt lat="47.13825" lon="-1.68595">
        <ele>53</ele>
        <time>2021-04-18T09:30:15.000Z</time>
      </trkpt>
      <trkpt lat="47.13829" lon="-1.68608">
        <ele>52</ele>
        <time>2021-04-18T09:30:34.000Z</time>
      </trkpt>
      <trkpt lat="47.13837" lon="-1.686">
        <ele>52</ele>
        <time>2021-04-18T09:30:37.000Z</time>
      </trkpt>
      <trkpt lat="47.1385" lon="-1.686">
        <ele>54</ele>
        <time>2021-04-18T09:30:41.000Z</time>
      </trkpt>
      <trkpt lat="47.13862" lon="-1.68593">
        <ele>53</ele>
        <time>2021-04-18T09:30:45.000Z</time>
      </trkpt>
      <trkpt lat="47.1387" lon="-1.68583">
        <ele>54</ele>
        <time>2021-04-18T09:30:47.000Z</time>
      </trkpt>
      <trkpt lat="47.13878" lon="-1.6857">
        <ele>54</ele>
        <time>2021-04-18T09:30:49.000Z</time>
      </trkpt>
      <trkpt lat="47.13885" lon="-1.68561">
        <ele>54</ele>
        <time>2021-04-18T09:30:51.000Z</time>
      </trkpt>
      <trkpt lat="47.13894" lon="-1.68556">
        <ele>52</ele>
        <time>2021-04-18T09:30:53.000Z</time>
      </trkpt>
      <trkpt lat="47.13903" lon="-1.68545">
        <ele>53</ele>
        <time>2021-04-18T09:30:55.000Z</time>
      </trkpt>
      <trkpt lat="47.1391" lon="-1.68532">
        <ele>53</ele>
        <time>2021-04-18T09:30:57.000Z</time>
      </trkpt>
      <trkpt lat="47.13917" lon="-1.68521">
        <ele>54</ele>
        <time>2021-04-18T09:30:59.000Z</time>
      </trkpt>
      <trkpt lat="47.13925" lon="-1.68509">
        <ele>55</ele>
        <time>2021-04-18T09:31:01.000Z</time>
      </trkpt>
      <trkpt lat="47.13932" lon="-1.68496">
        <ele>55</ele>
        <time>2021-04-18T09:31:03.000Z</time>
      </trkpt>
      <trkpt lat="47.13938" lon="-1.68482">
        <ele>55</ele>
        <time>2021-04-18T09:31:05.000Z</time>
      </trkpt>
      <trkpt lat="47.13945" lon="-1.6847">
        <ele>55</ele>
        <time>2021-04-18T09:31:07.000Z</time>
      </trkpt>
      <trkpt lat="47.13951" lon="-1.68459">
        <ele>55</ele>
        <time>2021-04-18T09:31:09.000Z</time>
      </trkpt>
      <trkpt lat="47.1396" lon="-1.68442">
        <ele>56</ele>
        <time>2021-04-18T09:31:12.000Z</time>
      </trkpt>
      <trkpt lat="47.13965" lon="-1.68431">
        <ele>56</ele>
        <time>2021-04-18T09:31:14.000Z</time>
      </trkpt>
      <trkpt lat="47.13971" lon="-1.6842">
        <ele>56</ele>
        <time>2021-04-18T09:31:17.000Z</time>
      </trkpt>
      <trkpt lat="47.1398" lon="-1.68414">
        <ele>57</ele>
        <time>2021-04-18T09:31:23.000Z</time>
      </trkpt>
      <trkpt lat="47.13994" lon="-1.68428">
        <ele>59</ele>
        <time>2021-04-18T09:31:27.000Z</time>
      </trkpt>
      <trkpt lat="47.14001" lon="-1.68439">
        <ele>58</ele>
        <time>2021-04-18T09:31:29.000Z</time>
      </trkpt>
      <trkpt lat="47.14007" lon="-1.68449">
        <ele>57</ele>
        <time>2021-04-18T09:31:31.000Z</time>
      </trkpt>
      <trkpt lat="47.14017" lon="-1.68464">
        <ele>57</ele>
        <time>2021-04-18T09:31:34.000Z</time>
      </trkpt>
      <trkpt lat="47.14024" lon="-1.68476">
        <ele>56</ele>
        <time>2021-04-18T09:31:36.000Z</time>
      </trkpt>
      <trkpt lat="47.14031" lon="-1.68486">
        <ele>56</ele>
        <time>2021-04-18T09:31:38.000Z</time>
      </trkpt>
      <trkpt lat="47.1404" lon="-1.68495">
        <ele>57</ele>
        <time>2021-04-18T09:31:40.000Z</time>
      </trkpt>
      <trkpt lat="47.14049" lon="-1.68514">
        <ele>57</ele>
        <time>2021-04-18T09:31:43.000Z</time>
      </trkpt>
      <trkpt lat="47.14057" lon="-1.68526">
        <ele>57</ele>
        <time>2021-04-18T09:31:45.000Z</time>
      </trkpt>
      <trkpt lat="47.14065" lon="-1.68539">
        <ele>57</ele>
        <time>2021-04-18T09:31:47.000Z</time>
      </trkpt>
      <trkpt lat="47.14073" lon="-1.68551">
        <ele>56</ele>
        <time>2021-04-18T09:31:49.000Z</time>
      </trkpt>
      <trkpt lat="47.1408" lon="-1.68565">
        <ele>55</ele>
        <time>2021-04-18T09:31:51.000Z</time>
      </trkpt>
      <trkpt lat="47.1409" lon="-1.68577">
        <ele>55</ele>
        <time>2021-04-18T09:31:53.000Z</time>
      </trkpt>
      <trkpt lat="47.14103" lon="-1.68596">
        <ele>55</ele>
        <time>2021-04-18T09:31:56.000Z</time>
      </trkpt>
      <trkpt lat="47.14113" lon="-1.6861">
        <ele>55</ele>
        <time>2021-04-18T09:31:58.000Z</time>
      </trkpt>
      <trkpt lat="47.14125" lon="-1.68628">
        <ele>55</ele>
        <time>2021-04-18T09:32:01.000Z</time>
      </trkpt>
      <trkpt lat="47.14132" lon="-1.68642">
        <ele>57</ele>
        <time>2021-04-18T09:32:03.000Z</time>
      </trkpt>
      <trkpt lat="47.14142" lon="-1.68659">
        <ele>56</ele>
        <time>2021-04-18T09:32:06.000Z</time>
      </trkpt>
      <trkpt lat="47.14151" lon="-1.6867">
        <ele>56</ele>
        <time>2021-04-18T09:32:08.000Z</time>
      </trkpt>
      <trkpt lat="47.14158" lon="-1.68681">
        <ele>56</ele>
        <time>2021-04-18T09:32:10.000Z</time>
      </trkpt>
      <trkpt lat="47.14166" lon="-1.68697">
        <ele>57</ele>
        <time>2021-04-18T09:32:13.000Z</time>
      </trkpt>
      <trkpt lat="47.14172" lon="-1.68708">
        <ele>57</ele>
        <time>2021-04-18T09:32:15.000Z</time>
      </trkpt>
      <trkpt lat="47.14178" lon="-1.68721">
        <ele>57</ele>
        <time>2021-04-18T09:32:17.000Z</time>
      </trkpt>
      <trkpt lat="47.14183" lon="-1.68735">
        <ele>57</ele>
        <time>2021-04-18T09:32:19.000Z</time>
      </trkpt>
      <trkpt lat="47.14188" lon="-1.68749">
        <ele>57</ele>
        <time>2021-04-18T09:32:21.000Z</time>
      </trkpt>
      <trkpt lat="47.14193" lon="-1.68764">
        <ele>56</ele>
        <time>2021-04-18T09:32:23.000Z</time>
      </trkpt>
      <trkpt lat="47.14198" lon="-1.6878">
        <ele>56</ele>
        <time>2021-04-18T09:32:25.000Z</time>
      </trkpt>
      <trkpt lat="47.14205" lon="-1.68805">
        <ele>57</ele>
        <time>2021-04-18T09:32:28.000Z</time>
      </trkpt>
      <trkpt lat="47.14207" lon="-1.68822">
        <ele>57</ele>
        <time>2021-04-18T09:32:30.000Z</time>
      </trkpt>
      <trkpt lat="47.1421" lon="-1.68838">
        <ele>57</ele>
        <time>2021-04-18T09:32:32.000Z</time>
      </trkpt>
      <trkpt lat="47.14213" lon="-1.68854">
        <ele>57</ele>
        <time>2021-04-18T09:32:34.000Z</time>
      </trkpt>
      <trkpt lat="47.14215" lon="-1.68869">
        <ele>59</ele>
        <time>2021-04-18T09:32:36.000Z</time>
      </trkpt>
      <trkpt lat="47.14221" lon="-1.68893">
        <ele>58</ele>
        <time>2021-04-18T09:32:39.000Z</time>
      </trkpt>
      <trkpt lat="47.14223" lon="-1.6891">
        <ele>58</ele>
        <time>2021-04-18T09:32:41.000Z</time>
      </trkpt>
      <trkpt lat="47.14228" lon="-1.68926">
        <ele>56</ele>
        <time>2021-04-18T09:32:43.000Z</time>
      </trkpt>
      <trkpt lat="47.14231" lon="-1.68943">
        <ele>55</ele>
        <time>2021-04-18T09:32:45.000Z</time>
      </trkpt>
      <trkpt lat="47.14237" lon="-1.68964">
        <ele>59</ele>
        <time>2021-04-18T09:32:48.000Z</time>
      </trkpt>
      <trkpt lat="47.14248" lon="-1.68986">
        <ele>59</ele>
        <time>2021-04-18T09:32:51.000Z</time>
      </trkpt>
      <trkpt lat="47.14259" lon="-1.69006">
        <ele>57</ele>
        <time>2021-04-18T09:32:54.000Z</time>
      </trkpt>
      <trkpt lat="47.14265" lon="-1.69019">
        <ele>59</ele>
        <time>2021-04-18T09:32:56.000Z</time>
      </trkpt>
      <trkpt lat="47.14271" lon="-1.69032">
        <ele>58</ele>
        <time>2021-04-18T09:32:58.000Z</time>
      </trkpt>
      <trkpt lat="47.14277" lon="-1.69045">
        <ele>59</ele>
        <time>2021-04-18T09:33:00.000Z</time>
      </trkpt>
      <trkpt lat="47.14282" lon="-1.69058">
        <ele>60</ele>
        <time>2021-04-18T09:33:02.000Z</time>
      </trkpt>
      <trkpt lat="47.14288" lon="-1.69068">
        <ele>61</ele>
        <time>2021-04-18T09:33:04.000Z</time>
      </trkpt>
      <trkpt lat="47.14295" lon="-1.69084">
        <ele>63</ele>
        <time>2021-04-18T09:33:07.000Z</time>
      </trkpt>
      <trkpt lat="47.14302" lon="-1.69097">
        <ele>65</ele>
        <time>2021-04-18T09:33:09.000Z</time>
      </trkpt>
      <trkpt lat="47.14312" lon="-1.69125">
        <ele>65</ele>
        <time>2021-04-18T09:33:13.000Z</time>
      </trkpt>
      <trkpt lat="47.1432" lon="-1.69144">
        <ele>66</ele>
        <time>2021-04-18T09:33:16.000Z</time>
      </trkpt>
      <trkpt lat="47.14324" lon="-1.69158">
        <ele>66</ele>
        <time>2021-04-18T09:33:18.000Z</time>
      </trkpt>
      <trkpt lat="47.14333" lon="-1.69174">
        <ele>69</ele>
        <time>2021-04-18T09:33:21.000Z</time>
      </trkpt>
      <trkpt lat="47.14342" lon="-1.69193">
        <ele>69</ele>
        <time>2021-04-18T09:33:24.000Z</time>
      </trkpt>
      <trkpt lat="47.14354" lon="-1.69208">
        <ele>70</ele>
        <time>2021-04-18T09:33:27.000Z</time>
      </trkpt>
      <trkpt lat="47.14362" lon="-1.69218">
        <ele>69</ele>
        <time>2021-04-18T09:33:29.000Z</time>
      </trkpt>
      <trkpt lat="47.14369" lon="-1.69227">
        <ele>69</ele>
        <time>2021-04-18T09:33:31.000Z</time>
      </trkpt>
      <trkpt lat="47.14375" lon="-1.6924">
        <ele>70</ele>
        <time>2021-04-18T09:33:34.000Z</time>
      </trkpt>
      <trkpt lat="47.14385" lon="-1.69244">
        <ele>71</ele>
        <time>2021-04-18T09:33:39.000Z</time>
      </trkpt>
      <trkpt lat="47.14392" lon="-1.69257">
        <ele>72</ele>
        <time>2021-04-18T09:33:44.000Z</time>
      </trkpt>
      <trkpt lat="47.14395" lon="-1.69271">
        <ele>71</ele>
        <time>2021-04-18T09:33:47.000Z</time>
      </trkpt>
      <trkpt lat="47.14395" lon="-1.69284">
        <ele>72</ele>
        <time>2021-04-18T09:33:55.000Z</time>
      </trkpt>
      <trkpt lat="47.14395" lon="-1.69302">
        <ele>73</ele>
        <time>2021-04-18T09:34:00.000Z</time>
      </trkpt>
      <trkpt lat="47.14395" lon="-1.69318">
        <ele>67</ele>
        <time>2021-04-18T09:34:03.000Z</time>
      </trkpt>
      <trkpt lat="47.14397" lon="-1.69339">
        <ele>67</ele>
        <time>2021-04-18T09:34:06.000Z</time>
      </trkpt>
      <trkpt lat="47.14398" lon="-1.69355">
        <ele>69</ele>
        <time>2021-04-18T09:34:09.000Z</time>
      </trkpt>
      <trkpt lat="47.14409" lon="-1.69366">
        <ele>68</ele>
        <time>2021-04-18T09:34:12.000Z</time>
      </trkpt>
      <trkpt lat="47.14424" lon="-1.69377">
        <ele>71</ele>
        <time>2021-04-18T09:34:16.000Z</time>
      </trkpt>
      <trkpt lat="47.14438" lon="-1.69387">
        <ele>70</ele>
        <time>2021-04-18T09:34:19.000Z</time>
      </trkpt>
      <trkpt lat="47.14448" lon="-1.69394">
        <ele>69</ele>
        <time>2021-04-18T09:34:21.000Z</time>
      </trkpt>
      <trkpt lat="47.14461" lon="-1.69399">
        <ele>70</ele>
        <time>2021-04-18T09:34:24.000Z</time>
      </trkpt>
      <trkpt lat="47.14472" lon="-1.69407">
        <ele>69</ele>
        <time>2021-04-18T09:34:27.000Z</time>
      </trkpt>
      <trkpt lat="47.14484" lon="-1.69417">
        <ele>69</ele>
        <time>2021-04-18T09:34:30.000Z</time>
      </trkpt>
      <trkpt lat="47.14495" lon="-1.69422">
        <ele>70</ele>
        <time>2021-04-18T09:34:32.000Z</time>
      </trkpt>
      <trkpt lat="47.14505" lon="-1.69427">
        <ele>70</ele>
        <time>2021-04-18T09:34:34.000Z</time>
      </trkpt>
      <trkpt lat="47.14515" lon="-1.69431">
        <ele>69</ele>
        <time>2021-04-18T09:34:36.000Z</time>
      </trkpt>
      <trkpt lat="47.14525" lon="-1.69436">
        <ele>67</ele>
        <time>2021-04-18T09:34:38.000Z</time>
      </trkpt>
      <trkpt lat="47.14534" lon="-1.69445">
        <ele>68</ele>
        <time>2021-04-18T09:34:40.000Z</time>
      </trkpt>
      <trkpt lat="47.14543" lon="-1.69458">
        <ele>67</ele>
        <time>2021-04-18T09:34:42.000Z</time>
      </trkpt>
      <trkpt lat="47.14555" lon="-1.69476">
        <ele>67</ele>
        <time>2021-04-18T09:34:45.000Z</time>
      </trkpt>
      <trkpt lat="47.14563" lon="-1.69489">
        <ele>67</ele>
        <time>2021-04-18T09:34:47.000Z</time>
      </trkpt>
      <trkpt lat="47.14573" lon="-1.69503">
        <ele>65</ele>
        <time>2021-04-18T09:34:49.000Z</time>
      </trkpt>
      <trkpt lat="47.14583" lon="-1.69518">
        <ele>63</ele>
        <time>2021-04-18T09:34:51.000Z</time>
      </trkpt>
      <trkpt lat="47.14591" lon="-1.69532">
        <ele>64</ele>
        <time>2021-04-18T09:34:53.000Z</time>
      </trkpt>
      <trkpt lat="47.14598" lon="-1.69543">
        <ele>65</ele>
        <time>2021-04-18T09:34:55.000Z</time>
      </trkpt>
      <trkpt lat="47.14608" lon="-1.69555">
        <ele>66</ele>
        <time>2021-04-18T09:34:57.000Z</time>
      </trkpt>
      <trkpt lat="47.14615" lon="-1.69567">
        <ele>67</ele>
        <time>2021-04-18T09:34:59.000Z</time>
      </trkpt>
      <trkpt lat="47.14623" lon="-1.69579">
        <ele>69</ele>
        <time>2021-04-18T09:35:01.000Z</time>
      </trkpt>
      <trkpt lat="47.14629" lon="-1.6959">
        <ele>70</ele>
        <time>2021-04-18T09:35:03.000Z</time>
      </trkpt>
      <trkpt lat="47.14639" lon="-1.69605">
        <ele>71</ele>
        <time>2021-04-18T09:35:06.000Z</time>
      </trkpt>
      <trkpt lat="47.14647" lon="-1.69619">
        <ele>73</ele>
        <time>2021-04-18T09:35:09.000Z</time>
      </trkpt>
      <trkpt lat="47.14657" lon="-1.69632">
        <ele>74</ele>
        <time>2021-04-18T09:35:13.000Z</time>
      </trkpt>
      <trkpt lat="47.14666" lon="-1.69639">
        <ele>73</ele>
        <time>2021-04-18T09:35:21.000Z</time>
      </trkpt>
      <trkpt lat="47.1466" lon="-1.69655">
        <ele>74</ele>
        <time>2021-04-18T09:35:27.000Z</time>
      </trkpt>
      <trkpt lat="47.14655" lon="-1.69673">
        <ele>72</ele>
        <time>2021-04-18T09:35:30.000Z</time>
      </trkpt>
      <trkpt lat="47.14649" lon="-1.69689">
        <ele>72</ele>
        <time>2021-04-18T09:35:33.000Z</time>
      </trkpt>
      <trkpt lat="47.14638" lon="-1.69706">
        <ele>69</ele>
        <time>2021-04-18T09:35:36.000Z</time>
      </trkpt>
      <trkpt lat="47.14631" lon="-1.69717">
        <ele>68</ele>
        <time>2021-04-18T09:35:38.000Z</time>
      </trkpt>
      <trkpt lat="47.14622" lon="-1.69726">
        <ele>68</ele>
        <time>2021-04-18T09:35:40.000Z</time>
      </trkpt>
      <trkpt lat="47.14612" lon="-1.69731">
        <ele>67</ele>
        <time>2021-04-18T09:35:42.000Z</time>
      </trkpt>
      <trkpt lat="47.14599" lon="-1.69729">
        <ele>67</ele>
        <time>2021-04-18T09:35:44.000Z</time>
      </trkpt>
      <trkpt lat="47.14587" lon="-1.69726">
        <ele>66</ele>
        <time>2021-04-18T09:35:46.000Z</time>
      </trkpt>
      <trkpt lat="47.14575" lon="-1.69725">
        <ele>66</ele>
        <time>2021-04-18T09:35:48.000Z</time>
      </trkpt>
      <trkpt lat="47.14567" lon="-1.69748">
        <ele>65</ele>
        <time>2021-04-18T09:35:51.000Z</time>
      </trkpt>
      <trkpt lat="47.14566" lon="-1.69764">
        <ele>66</ele>
        <time>2021-04-18T09:35:53.000Z</time>
      </trkpt>
      <trkpt lat="47.14568" lon="-1.69782">
        <ele>67</ele>
        <time>2021-04-18T09:35:55.000Z</time>
      </trkpt>
      <trkpt lat="47.14568" lon="-1.69795">
        <ele>66</ele>
        <time>2021-04-18T09:35:57.000Z</time>
      </trkpt>
      <trkpt lat="47.14575" lon="-1.69817">
        <ele>67</ele>
        <time>2021-04-18T09:36:00.000Z</time>
      </trkpt>
      <trkpt lat="47.1458" lon="-1.69835">
        <ele>69</ele>
        <time>2021-04-18T09:36:02.000Z</time>
      </trkpt>
      <trkpt lat="47.14585" lon="-1.69854">
        <ele>69</ele>
        <time>2021-04-18T09:36:04.000Z</time>
      </trkpt>
      <trkpt lat="47.14588" lon="-1.69871">
        <ele>69</ele>
        <time>2021-04-18T09:36:06.000Z</time>
      </trkpt>
      <trkpt lat="47.14594" lon="-1.69892">
        <ele>69</ele>
        <time>2021-04-18T09:36:09.000Z</time>
      </trkpt>
      <trkpt lat="47.14601" lon="-1.69907">
        <ele>68</ele>
        <time>2021-04-18T09:36:11.000Z</time>
      </trkpt>
      <trkpt lat="47.14607" lon="-1.69926">
        <ele>68</ele>
        <time>2021-04-18T09:36:13.000Z</time>
      </trkpt>
      <trkpt lat="47.14615" lon="-1.69943">
        <ele>67</ele>
        <time>2021-04-18T09:36:15.000Z</time>
      </trkpt>
      <trkpt lat="47.14628" lon="-1.69975">
        <ele>66</ele>
        <time>2021-04-18T09:36:19.000Z</time>
      </trkpt>
      <trkpt lat="47.14635" lon="-1.69993">
        <ele>65</ele>
        <time>2021-04-18T09:36:21.000Z</time>
      </trkpt>
      <trkpt lat="47.14642" lon="-1.70009">
        <ele>65</ele>
        <time>2021-04-18T09:36:23.000Z</time>
      </trkpt>
      <trkpt lat="47.14648" lon="-1.70023">
        <ele>65</ele>
        <time>2021-04-18T09:36:25.000Z</time>
      </trkpt>
      <trkpt lat="47.14657" lon="-1.70047">
        <ele>64</ele>
        <time>2021-04-18T09:36:28.000Z</time>
      </trkpt>
      <trkpt lat="47.14663" lon="-1.70065">
        <ele>65</ele>
        <time>2021-04-18T09:36:30.000Z</time>
      </trkpt>
      <trkpt lat="47.14668" lon="-1.70081">
        <ele>65</ele>
        <time>2021-04-18T09:36:32.000Z</time>
      </trkpt>
      <trkpt lat="47.14674" lon="-1.70096">
        <ele>66</ele>
        <time>2021-04-18T09:36:34.000Z</time>
      </trkpt>
      <trkpt lat="47.14683" lon="-1.70118">
        <ele>68</ele>
        <time>2021-04-18T09:36:37.000Z</time>
      </trkpt>
      <trkpt lat="47.14689" lon="-1.70133">
        <ele>68</ele>
        <time>2021-04-18T09:36:39.000Z</time>
      </trkpt>
      <trkpt lat="47.14694" lon="-1.70148">
        <ele>69</ele>
        <time>2021-04-18T09:36:41.000Z</time>
      </trkpt>
      <trkpt lat="47.14701" lon="-1.70163">
        <ele>68</ele>
        <time>2021-04-18T09:36:43.000Z</time>
      </trkpt>
      <trkpt lat="47.14708" lon="-1.70177">
        <ele>65</ele>
        <time>2021-04-18T09:36:45.000Z</time>
      </trkpt>
      <trkpt lat="47.14717" lon="-1.70196">
        <ele>66</ele>
        <time>2021-04-18T09:36:48.000Z</time>
      </trkpt>
      <trkpt lat="47.14725" lon="-1.70206">
        <ele>67</ele>
        <time>2021-04-18T09:36:50.000Z</time>
      </trkpt>
      <trkpt lat="47.14733" lon="-1.70217">
        <ele>67</ele>
        <time>2021-04-18T09:36:52.000Z</time>
      </trkpt>
      <trkpt lat="47.1474" lon="-1.70229">
        <ele>69</ele>
        <time>2021-04-18T09:36:54.000Z</time>
      </trkpt>
      <trkpt lat="47.14748" lon="-1.70242">
        <ele>67</ele>
        <time>2021-04-18T09:36:56.000Z</time>
      </trkpt>
      <trkpt lat="47.14755" lon="-1.70252">
        <ele>68</ele>
        <time>2021-04-18T09:36:58.000Z</time>
      </trkpt>
      <trkpt lat="47.14762" lon="-1.70263">
        <ele>70</ele>
        <time>2021-04-18T09:37:00.000Z</time>
      </trkpt>
      <trkpt lat="47.1477" lon="-1.70275">
        <ele>71</ele>
        <time>2021-04-18T09:37:02.000Z</time>
      </trkpt>
      <trkpt lat="47.14777" lon="-1.70286">
        <ele>72</ele>
        <time>2021-04-18T09:37:04.000Z</time>
      </trkpt>
      <trkpt lat="47.14786" lon="-1.70298">
        <ele>73</ele>
        <time>2021-04-18T09:37:06.000Z</time>
      </trkpt>
      <trkpt lat="47.14794" lon="-1.7031">
        <ele>73</ele>
        <time>2021-04-18T09:37:08.000Z</time>
      </trkpt>
      <trkpt lat="47.14805" lon="-1.7032">
        <ele>73</ele>
        <time>2021-04-18T09:37:10.000Z</time>
      </trkpt>
      <trkpt lat="47.14816" lon="-1.7033">
        <ele>73</ele>
        <time>2021-04-18T09:37:12.000Z</time>
      </trkpt>
      <trkpt lat="47.14831" lon="-1.70341">
        <ele>71</ele>
        <time>2021-04-18T09:37:15.000Z</time>
      </trkpt>
      <trkpt lat="47.14851" lon="-1.70353">
        <ele>72</ele>
        <time>2021-04-18T09:37:18.000Z</time>
      </trkpt>
      <trkpt lat="47.14864" lon="-1.70361">
        <ele>70</ele>
        <time>2021-04-18T09:37:20.000Z</time>
      </trkpt>
      <trkpt lat="47.14877" lon="-1.70371">
        <ele>68</ele>
        <time>2021-04-18T09:37:22.000Z</time>
      </trkpt>
      <trkpt lat="47.1489" lon="-1.70381">
        <ele>68</ele>
        <time>2021-04-18T09:37:24.000Z</time>
      </trkpt>
      <trkpt lat="47.14908" lon="-1.70394">
        <ele>70</ele>
        <time>2021-04-18T09:37:27.000Z</time>
      </trkpt>
      <trkpt lat="47.1492" lon="-1.70403">
        <ele>70</ele>
        <time>2021-04-18T09:37:29.000Z</time>
      </trkpt>
      <trkpt lat="47.14931" lon="-1.70414">
        <ele>70</ele>
        <time>2021-04-18T09:37:31.000Z</time>
      </trkpt>
      <trkpt lat="47.14942" lon="-1.70424">
        <ele>69</ele>
        <time>2021-04-18T09:37:33.000Z</time>
      </trkpt>
      <trkpt lat="47.14952" lon="-1.70439">
        <ele>70</ele>
        <time>2021-04-18T09:37:35.000Z</time>
      </trkpt>
      <trkpt lat="47.14961" lon="-1.7045">
        <ele>70</ele>
        <time>2021-04-18T09:37:37.000Z</time>
      </trkpt>
      <trkpt lat="47.14972" lon="-1.70462">
        <ele>69</ele>
        <time>2021-04-18T09:37:39.000Z</time>
      </trkpt>
      <trkpt lat="47.14981" lon="-1.70473">
        <ele>69</ele>
        <time>2021-04-18T09:37:41.000Z</time>
      </trkpt>
      <trkpt lat="47.14991" lon="-1.70484">
        <ele>69</ele>
        <time>2021-04-18T09:37:43.000Z</time>
      </trkpt>
      <trkpt lat="47.15" lon="-1.70495">
        <ele>70</ele>
        <time>2021-04-18T09:37:45.000Z</time>
      </trkpt>
      <trkpt lat="47.15008" lon="-1.70506">
        <ele>70</ele>
        <time>2021-04-18T09:37:47.000Z</time>
      </trkpt>
      <trkpt lat="47.15017" lon="-1.70517">
        <ele>70</ele>
        <time>2021-04-18T09:37:49.000Z</time>
      </trkpt>
      <trkpt lat="47.15033" lon="-1.70528">
        <ele>69</ele>
        <time>2021-04-18T09:37:52.000Z</time>
      </trkpt>
      <trkpt lat="47.15045" lon="-1.70534">
        <ele>69</ele>
        <time>2021-04-18T09:37:54.000Z</time>
      </trkpt>
      <trkpt lat="47.15063" lon="-1.70539">
        <ele>68</ele>
        <time>2021-04-18T09:37:57.000Z</time>
      </trkpt>
      <trkpt lat="47.15082" lon="-1.70549">
        <ele>67</ele>
        <time>2021-04-18T09:38:00.000Z</time>
      </trkpt>
      <trkpt lat="47.15102" lon="-1.70562">
        <ele>66</ele>
        <time>2021-04-18T09:38:03.000Z</time>
      </trkpt>
      <trkpt lat="47.15121" lon="-1.70571">
        <ele>68</ele>
        <time>2021-04-18T09:38:06.000Z</time>
      </trkpt>
      <trkpt lat="47.15138" lon="-1.70581">
        <ele>73</ele>
        <time>2021-04-18T09:38:09.000Z</time>
      </trkpt>
      <trkpt lat="47.15149" lon="-1.70593">
        <ele>68</ele>
        <time>2021-04-18T09:38:11.000Z</time>
      </trkpt>
      <trkpt lat="47.15161" lon="-1.706">
        <ele>69</ele>
        <time>2021-04-18T09:38:13.000Z</time>
      </trkpt>
      <trkpt lat="47.15175" lon="-1.70607">
        <ele>71</ele>
        <time>2021-04-18T09:38:15.000Z</time>
      </trkpt>
      <trkpt lat="47.15187" lon="-1.70614">
        <ele>76</ele>
        <time>2021-04-18T09:38:17.000Z</time>
      </trkpt>
      <trkpt lat="47.15199" lon="-1.70621">
        <ele>78</ele>
        <time>2021-04-18T09:38:19.000Z</time>
      </trkpt>
      <trkpt lat="47.15211" lon="-1.70627">
        <ele>75</ele>
        <time>2021-04-18T09:38:21.000Z</time>
      </trkpt>
      <trkpt lat="47.15228" lon="-1.70636">
        <ele>73</ele>
        <time>2021-04-18T09:38:23.000Z</time>
      </trkpt>
      <trkpt lat="47.15242" lon="-1.70645">
        <ele>72</ele>
        <time>2021-04-18T09:38:25.000Z</time>
      </trkpt>
      <trkpt lat="47.15256" lon="-1.70653">
        <ele>72</ele>
        <time>2021-04-18T09:38:27.000Z</time>
      </trkpt>
      <trkpt lat="47.15273" lon="-1.7067">
        <ele>70</ele>
        <time>2021-04-18T09:38:30.000Z</time>
      </trkpt>
      <trkpt lat="47.15293" lon="-1.70679">
        <ele>75</ele>
        <time>2021-04-18T09:38:33.000Z</time>
      </trkpt>
      <trkpt lat="47.15306" lon="-1.70684">
        <ele>74</ele>
        <time>2021-04-18T09:38:35.000Z</time>
      </trkpt>
      <trkpt lat="47.1532" lon="-1.70692">
        <ele>74</ele>
        <time>2021-04-18T09:38:37.000Z</time>
      </trkpt>
      <trkpt lat="47.15333" lon="-1.707">
        <ele>73</ele>
        <time>2021-04-18T09:38:39.000Z</time>
      </trkpt>
      <trkpt lat="47.15353" lon="-1.7071">
        <ele>71</ele>
        <time>2021-04-18T09:38:42.000Z</time>
      </trkpt>
      <trkpt lat="47.15366" lon="-1.70719">
        <ele>72</ele>
        <time>2021-04-18T09:38:44.000Z</time>
      </trkpt>
      <trkpt lat="47.15377" lon="-1.70727">
        <ele>71</ele>
        <time>2021-04-18T09:38:46.000Z</time>
      </trkpt>
      <trkpt lat="47.15402" lon="-1.70743">
        <ele>69</ele>
        <time>2021-04-18T09:38:50.000Z</time>
      </trkpt>
      <trkpt lat="47.15414" lon="-1.70752">
        <ele>69</ele>
        <time>2021-04-18T09:38:52.000Z</time>
      </trkpt>
      <trkpt lat="47.15425" lon="-1.70761">
        <ele>70</ele>
        <time>2021-04-18T09:38:54.000Z</time>
      </trkpt>
      <trkpt lat="47.15436" lon="-1.70772">
        <ele>71</ele>
        <time>2021-04-18T09:38:56.000Z</time>
      </trkpt>
      <trkpt lat="47.15447" lon="-1.70783">
        <ele>71</ele>
        <time>2021-04-18T09:38:58.000Z</time>
      </trkpt>
      <trkpt lat="47.15458" lon="-1.70795">
        <ele>71</ele>
        <time>2021-04-18T09:39:00.000Z</time>
      </trkpt>
      <trkpt lat="47.15468" lon="-1.70808">
        <ele>71</ele>
        <time>2021-04-18T09:39:02.000Z</time>
      </trkpt>
      <trkpt lat="47.15478" lon="-1.70822">
        <ele>71</ele>
        <time>2021-04-18T09:39:04.000Z</time>
      </trkpt>
      <trkpt lat="47.15488" lon="-1.70836">
        <ele>71</ele>
        <time>2021-04-18T09:39:06.000Z</time>
      </trkpt>
      <trkpt lat="47.15498" lon="-1.7085">
        <ele>71</ele>
        <time>2021-04-18T09:39:08.000Z</time>
      </trkpt>
      <trkpt lat="47.15509" lon="-1.70865">
        <ele>71</ele>
        <time>2021-04-18T09:39:10.000Z</time>
      </trkpt>
      <trkpt lat="47.15519" lon="-1.70881">
        <ele>72</ele>
        <time>2021-04-18T09:39:12.000Z</time>
      </trkpt>
      <trkpt lat="47.15526" lon="-1.70894">
        <ele>73</ele>
        <time>2021-04-18T09:39:14.000Z</time>
      </trkpt>
      <trkpt lat="47.15538" lon="-1.70909">
        <ele>73</ele>
        <time>2021-04-18T09:39:16.000Z</time>
      </trkpt>
      <trkpt lat="47.15548" lon="-1.70921">
        <ele>73</ele>
        <time>2021-04-18T09:39:18.000Z</time>
      </trkpt>
      <trkpt lat="47.15556" lon="-1.70935">
        <ele>73</ele>
        <time>2021-04-18T09:39:20.000Z</time>
      </trkpt>
      <trkpt lat="47.15569" lon="-1.70956">
        <ele>73</ele>
        <time>2021-04-18T09:39:23.000Z</time>
      </trkpt>
      <trkpt lat="47.15579" lon="-1.70971">
        <ele>72</ele>
        <time>2021-04-18T09:39:25.000Z</time>
      </trkpt>
      <trkpt lat="47.15589" lon="-1.70986">
        <ele>73</ele>
        <time>2021-04-18T09:39:27.000Z</time>
      </trkpt>
      <trkpt lat="47.15599" lon="-1.71002">
        <ele>72</ele>
        <time>2021-04-18T09:39:29.000Z</time>
      </trkpt>
      <trkpt lat="47.15608" lon="-1.71017">
        <ele>73</ele>
        <time>2021-04-18T09:39:31.000Z</time>
      </trkpt>
      <trkpt lat="47.15619" lon="-1.71031">
        <ele>73</ele>
        <time>2021-04-18T09:39:33.000Z</time>
      </trkpt>
      <trkpt lat="47.1563" lon="-1.71045">
        <ele>74</ele>
        <time>2021-04-18T09:39:35.000Z</time>
      </trkpt>
      <trkpt lat="47.15641" lon="-1.71058">
        <ele>74</ele>
        <time>2021-04-18T09:39:37.000Z</time>
      </trkpt>
      <trkpt lat="47.15652" lon="-1.7107">
        <ele>73</ele>
        <time>2021-04-18T09:39:39.000Z</time>
      </trkpt>
      <trkpt lat="47.15663" lon="-1.71081">
        <ele>74</ele>
        <time>2021-04-18T09:39:41.000Z</time>
      </trkpt>
      <trkpt lat="47.15674" lon="-1.71093">
        <ele>73</ele>
        <time>2021-04-18T09:39:43.000Z</time>
      </trkpt>
      <trkpt lat="47.15685" lon="-1.71105">
        <ele>73</ele>
        <time>2021-04-18T09:39:45.000Z</time>
      </trkpt>
      <trkpt lat="47.15695" lon="-1.71116">
        <ele>73</ele>
        <time>2021-04-18T09:39:47.000Z</time>
      </trkpt>
      <trkpt lat="47.15706" lon="-1.71128">
        <ele>73</ele>
        <time>2021-04-18T09:39:49.000Z</time>
      </trkpt>
      <trkpt lat="47.15717" lon="-1.71142">
        <ele>73</ele>
        <time>2021-04-18T09:39:51.000Z</time>
      </trkpt>
      <trkpt lat="47.15727" lon="-1.71155">
        <ele>73</ele>
        <time>2021-04-18T09:39:53.000Z</time>
      </trkpt>
      <trkpt lat="47.15739" lon="-1.71168">
        <ele>72</ele>
        <time>2021-04-18T09:39:55.000Z</time>
      </trkpt>
      <trkpt lat="47.15749" lon="-1.71182">
        <ele>72</ele>
        <time>2021-04-18T09:39:57.000Z</time>
      </trkpt>
      <trkpt lat="47.15761" lon="-1.71205">
        <ele>73</ele>
        <time>2021-04-18T09:40:00.000Z</time>
      </trkpt>
      <trkpt lat="47.15775" lon="-1.71227">
        <ele>71</ele>
        <time>2021-04-18T09:40:03.000Z</time>
      </trkpt>
      <trkpt lat="47.15787" lon="-1.71241">
        <ele>70</ele>
        <time>2021-04-18T09:40:05.000Z</time>
      </trkpt>
      <trkpt lat="47.15793" lon="-1.71258">
        <ele>71</ele>
        <time>2021-04-18T09:40:07.000Z</time>
      </trkpt>
      <trkpt lat="47.15806" lon="-1.71282">
        <ele>72</ele>
        <time>2021-04-18T09:40:10.000Z</time>
      </trkpt>
      <trkpt lat="47.15813" lon="-1.71299">
        <ele>71</ele>
        <time>2021-04-18T09:40:12.000Z</time>
      </trkpt>
      <trkpt lat="47.1582" lon="-1.71318">
        <ele>70</ele>
        <time>2021-04-18T09:40:14.000Z</time>
      </trkpt>
      <trkpt lat="47.1583" lon="-1.71335">
        <ele>70</ele>
        <time>2021-04-18T09:40:16.000Z</time>
      </trkpt>
      <trkpt lat="47.15839" lon="-1.71352">
        <ele>70</ele>
        <time>2021-04-18T09:40:18.000Z</time>
      </trkpt>
      <trkpt lat="47.15855" lon="-1.71377">
        <ele>70</ele>
        <time>2021-04-18T09:40:21.000Z</time>
      </trkpt>
      <trkpt lat="47.15865" lon="-1.7139">
        <ele>70</ele>
        <time>2021-04-18T09:40:23.000Z</time>
      </trkpt>
      <trkpt lat="47.15875" lon="-1.71405">
        <ele>70</ele>
        <time>2021-04-18T09:40:25.000Z</time>
      </trkpt>
      <trkpt lat="47.15885" lon="-1.71419">
        <ele>70</ele>
        <time>2021-04-18T09:40:27.000Z</time>
      </trkpt>
      <trkpt lat="47.15897" lon="-1.71434">
        <ele>70</ele>
        <time>2021-04-18T09:40:29.000Z</time>
      </trkpt>
      <trkpt lat="47.15907" lon="-1.71448">
        <ele>70</ele>
        <time>2021-04-18T09:40:31.000Z</time>
      </trkpt>
      <trkpt lat="47.15918" lon="-1.71463">
        <ele>70</ele>
        <time>2021-04-18T09:40:33.000Z</time>
      </trkpt>
      <trkpt lat="47.15928" lon="-1.71479">
        <ele>70</ele>
        <time>2021-04-18T09:40:35.000Z</time>
      </trkpt>
      <trkpt lat="47.15937" lon="-1.71495">
        <ele>69</ele>
        <time>2021-04-18T09:40:37.000Z</time>
      </trkpt>
      <trkpt lat="47.1595" lon="-1.71507">
        <ele>69</ele>
        <time>2021-04-18T09:40:39.000Z</time>
      </trkpt>
      <trkpt lat="47.15967" lon="-1.71522">
        <ele>66</ele>
        <time>2021-04-18T09:40:42.000Z</time>
      </trkpt>
      <trkpt lat="47.1598" lon="-1.71535">
        <ele>67</ele>
        <time>2021-04-18T09:40:44.000Z</time>
      </trkpt>
      <trkpt lat="47.15994" lon="-1.71548">
        <ele>68</ele>
        <time>2021-04-18T09:40:46.000Z</time>
      </trkpt>
      <trkpt lat="47.16012" lon="-1.71567">
        <ele>69</ele>
        <time>2021-04-18T09:40:49.000Z</time>
      </trkpt>
      <trkpt lat="47.16023" lon="-1.71581">
        <ele>69</ele>
        <time>2021-04-18T09:40:51.000Z</time>
      </trkpt>
      <trkpt lat="47.16033" lon="-1.71597">
        <ele>69</ele>
        <time>2021-04-18T09:40:53.000Z</time>
      </trkpt>
      <trkpt lat="47.16042" lon="-1.71613">
        <ele>69</ele>
        <time>2021-04-18T09:40:55.000Z</time>
      </trkpt>
      <trkpt lat="47.16052" lon="-1.7163">
        <ele>68</ele>
        <time>2021-04-18T09:40:57.000Z</time>
      </trkpt>
      <trkpt lat="47.16066" lon="-1.71654">
        <ele>68</ele>
        <time>2021-04-18T09:41:00.000Z</time>
      </trkpt>
      <trkpt lat="47.16075" lon="-1.71669">
        <ele>67</ele>
        <time>2021-04-18T09:41:02.000Z</time>
      </trkpt>
      <trkpt lat="47.16087" lon="-1.71684">
        <ele>68</ele>
        <time>2021-04-18T09:41:04.000Z</time>
      </trkpt>
      <trkpt lat="47.16104" lon="-1.71702">
        <ele>66</ele>
        <time>2021-04-18T09:41:07.000Z</time>
      </trkpt>
      <trkpt lat="47.16117" lon="-1.71714">
        <ele>67</ele>
        <time>2021-04-18T09:41:09.000Z</time>
      </trkpt>
      <trkpt lat="47.16131" lon="-1.71724">
        <ele>67</ele>
        <time>2021-04-18T09:41:11.000Z</time>
      </trkpt>
      <trkpt lat="47.16143" lon="-1.71734">
        <ele>67</ele>
        <time>2021-04-18T09:41:13.000Z</time>
      </trkpt>
      <trkpt lat="47.16155" lon="-1.71744">
        <ele>65</ele>
        <time>2021-04-18T09:41:15.000Z</time>
      </trkpt>
      <trkpt lat="47.16175" lon="-1.71756">
        <ele>61</ele>
        <time>2021-04-18T09:41:18.000Z</time>
      </trkpt>
      <trkpt lat="47.16189" lon="-1.71767">
        <ele>62</ele>
        <time>2021-04-18T09:41:20.000Z</time>
      </trkpt>
      <trkpt lat="47.16202" lon="-1.71778">
        <ele>63</ele>
        <time>2021-04-18T09:41:22.000Z</time>
      </trkpt>
      <trkpt lat="47.16214" lon="-1.71789">
        <ele>64</ele>
        <time>2021-04-18T09:41:24.000Z</time>
      </trkpt>
      <trkpt lat="47.16234" lon="-1.71804">
        <ele>64</ele>
        <time>2021-04-18T09:41:27.000Z</time>
      </trkpt>
      <trkpt lat="47.16248" lon="-1.71815">
        <ele>61</ele>
        <time>2021-04-18T09:41:29.000Z</time>
      </trkpt>
      <trkpt lat="47.16261" lon="-1.71825">
        <ele>62</ele>
        <time>2021-04-18T09:41:31.000Z</time>
      </trkpt>
      <trkpt lat="47.16273" lon="-1.71835">
        <ele>62</ele>
        <time>2021-04-18T09:41:33.000Z</time>
      </trkpt>
      <trkpt lat="47.16286" lon="-1.71844">
        <ele>63</ele>
        <time>2021-04-18T09:41:35.000Z</time>
      </trkpt>
      <trkpt lat="47.16302" lon="-1.71863">
        <ele>63</ele>
        <time>2021-04-18T09:41:38.000Z</time>
      </trkpt>
      <trkpt lat="47.16317" lon="-1.71869">
        <ele>64</ele>
        <time>2021-04-18T09:41:40.000Z</time>
      </trkpt>
      <trkpt lat="47.16336" lon="-1.71886">
        <ele>65</ele>
        <time>2021-04-18T09:41:43.000Z</time>
      </trkpt>
      <trkpt lat="47.16352" lon="-1.71903">
        <ele>62</ele>
        <time>2021-04-18T09:41:46.000Z</time>
      </trkpt>
      <trkpt lat="47.16361" lon="-1.71913">
        <ele>66</ele>
        <time>2021-04-18T09:41:48.000Z</time>
      </trkpt>
      <trkpt lat="47.16371" lon="-1.71921">
        <ele>68</ele>
        <time>2021-04-18T09:41:50.000Z</time>
      </trkpt>
      <trkpt lat="47.16384" lon="-1.71932">
        <ele>70</ele>
        <time>2021-04-18T09:41:52.000Z</time>
      </trkpt>
      <trkpt lat="47.16402" lon="-1.71947">
        <ele>69</ele>
        <time>2021-04-18T09:41:55.000Z</time>
      </trkpt>
      <trkpt lat="47.16413" lon="-1.71957">
        <ele>71</ele>
        <time>2021-04-18T09:41:57.000Z</time>
      </trkpt>
      <trkpt lat="47.16422" lon="-1.71963">
        <ele>71</ele>
        <time>2021-04-18T09:41:58.000Z</time>
      </trkpt>
      <trkpt lat="47.16435" lon="-1.71976">
        <ele>69</ele>
        <time>2021-04-18T09:42:00.000Z</time>
      </trkpt>
      <trkpt lat="47.16456" lon="-1.71992">
        <ele>67</ele>
        <time>2021-04-18T09:42:03.000Z</time>
      </trkpt>
      <trkpt lat="47.1648" lon="-1.72001">
        <ele>65</ele>
        <time>2021-04-18T09:42:06.000Z</time>
      </trkpt>
      <trkpt lat="47.16497" lon="-1.72005">
        <ele>65</ele>
        <time>2021-04-18T09:42:08.000Z</time>
      </trkpt>
      <trkpt lat="47.16514" lon="-1.72009">
        <ele>63</ele>
        <time>2021-04-18T09:42:10.000Z</time>
      </trkpt>
      <trkpt lat="47.1653" lon="-1.72014">
        <ele>61</ele>
        <time>2021-04-18T09:42:12.000Z</time>
      </trkpt>
      <trkpt lat="47.16552" lon="-1.72015">
        <ele>61</ele>
        <time>2021-04-18T09:42:15.000Z</time>
      </trkpt>
      <trkpt lat="47.16566" lon="-1.72015">
        <ele>60</ele>
        <time>2021-04-18T09:42:17.000Z</time>
      </trkpt>
      <trkpt lat="47.1658" lon="-1.72013">
        <ele>59</ele>
        <time>2021-04-18T09:42:19.000Z</time>
      </trkpt>
      <trkpt lat="47.166" lon="-1.72011">
        <ele>57</ele>
        <time>2021-04-18T09:42:22.000Z</time>
      </trkpt>
      <trkpt lat="47.16618" lon="-1.72011">
        <ele>57</ele>
        <time>2021-04-18T09:42:25.000Z</time>
      </trkpt>
      <trkpt lat="47.16629" lon="-1.72011">
        <ele>57</ele>
        <time>2021-04-18T09:42:27.000Z</time>
      </trkpt>
      <trkpt lat="47.16641" lon="-1.7201">
        <ele>57</ele>
        <time>2021-04-18T09:42:29.000Z</time>
      </trkpt>
      <trkpt lat="47.16652" lon="-1.7201">
        <ele>58</ele>
        <time>2021-04-18T09:42:31.000Z</time>
      </trkpt>
      <trkpt lat="47.16663" lon="-1.72012">
        <ele>59</ele>
        <time>2021-04-18T09:42:33.000Z</time>
      </trkpt>
      <trkpt lat="47.16673" lon="-1.72013">
        <ele>59</ele>
        <time>2021-04-18T09:42:35.000Z</time>
      </trkpt>
      <trkpt lat="47.16684" lon="-1.72011">
        <ele>59</ele>
        <time>2021-04-18T09:42:37.000Z</time>
      </trkpt>
      <trkpt lat="47.16696" lon="-1.7201">
        <ele>59</ele>
        <time>2021-04-18T09:42:39.000Z</time>
      </trkpt>
      <trkpt lat="47.16707" lon="-1.72012">
        <ele>59</ele>
        <time>2021-04-18T09:42:41.000Z</time>
      </trkpt>
      <trkpt lat="47.16719" lon="-1.72014">
        <ele>59</ele>
        <time>2021-04-18T09:42:43.000Z</time>
      </trkpt>
      <trkpt lat="47.16731" lon="-1.72012">
        <ele>59</ele>
        <time>2021-04-18T09:42:45.000Z</time>
      </trkpt>
      <trkpt lat="47.16742" lon="-1.7201">
        <ele>60</ele>
        <time>2021-04-18T09:42:47.000Z</time>
      </trkpt>
      <trkpt lat="47.16753" lon="-1.72009">
        <ele>60</ele>
        <time>2021-04-18T09:42:49.000Z</time>
      </trkpt>
      <trkpt lat="47.16763" lon="-1.7201">
        <ele>61</ele>
        <time>2021-04-18T09:42:51.000Z</time>
      </trkpt>
      <trkpt lat="47.16774" lon="-1.72008">
        <ele>61</ele>
        <time>2021-04-18T09:42:53.000Z</time>
      </trkpt>
      <trkpt lat="47.16785" lon="-1.72007">
        <ele>63</ele>
        <time>2021-04-18T09:42:55.000Z</time>
      </trkpt>
      <trkpt lat="47.16796" lon="-1.72007">
        <ele>64</ele>
        <time>2021-04-18T09:42:57.000Z</time>
      </trkpt>
      <trkpt lat="47.16807" lon="-1.72008">
        <ele>65</ele>
        <time>2021-04-18T09:42:59.000Z</time>
      </trkpt>
      <trkpt lat="47.16818" lon="-1.72009">
        <ele>66</ele>
        <time>2021-04-18T09:43:01.000Z</time>
      </trkpt>
      <trkpt lat="47.16834" lon="-1.72011">
        <ele>67</ele>
        <time>2021-04-18T09:43:04.000Z</time>
      </trkpt>
      <trkpt lat="47.16845" lon="-1.72013">
        <ele>67</ele>
        <time>2021-04-18T09:43:06.000Z</time>
      </trkpt>
      <trkpt lat="47.16856" lon="-1.72015">
        <ele>67</ele>
        <time>2021-04-18T09:43:08.000Z</time>
      </trkpt>
      <trkpt lat="47.16867" lon="-1.72018">
        <ele>68</ele>
        <time>2021-04-18T09:43:10.000Z</time>
      </trkpt>
      <trkpt lat="47.16883" lon="-1.72027">
        <ele>66</ele>
        <time>2021-04-18T09:43:13.000Z</time>
      </trkpt>
      <trkpt lat="47.16892" lon="-1.72025">
        <ele>68</ele>
        <time>2021-04-18T09:43:15.000Z</time>
      </trkpt>
      <trkpt lat="47.16906" lon="-1.72022">
        <ele>69</ele>
        <time>2021-04-18T09:43:18.000Z</time>
      </trkpt>
      <trkpt lat="47.1692" lon="-1.72024">
        <ele>69</ele>
        <time>2021-04-18T09:43:21.000Z</time>
      </trkpt>
      <trkpt lat="47.16925" lon="-1.72037">
        <ele>72</ele>
        <time>2021-04-18T09:43:23.000Z</time>
      </trkpt>
      <trkpt lat="47.16929" lon="-1.72054">
        <ele>73</ele>
        <time>2021-04-18T09:43:25.000Z</time>
      </trkpt>
      <trkpt lat="47.16937" lon="-1.72076">
        <ele>73</ele>
        <time>2021-04-18T09:43:28.000Z</time>
      </trkpt>
      <trkpt lat="47.16942" lon="-1.721">
        <ele>75</ele>
        <time>2021-04-18T09:43:31.000Z</time>
      </trkpt>
      <trkpt lat="47.16946" lon="-1.72116">
        <ele>75</ele>
        <time>2021-04-18T09:43:33.000Z</time>
      </trkpt>
      <trkpt lat="47.1695" lon="-1.7213">
        <ele>76</ele>
        <time>2021-04-18T09:43:35.000Z</time>
      </trkpt>
      <trkpt lat="47.16954" lon="-1.72145">
        <ele>76</ele>
        <time>2021-04-18T09:43:37.000Z</time>
      </trkpt>
      <trkpt lat="47.1696" lon="-1.72168">
        <ele>77</ele>
        <time>2021-04-18T09:43:40.000Z</time>
      </trkpt>
      <trkpt lat="47.16964" lon="-1.72184">
        <ele>77</ele>
        <time>2021-04-18T09:43:42.000Z</time>
      </trkpt>
      <trkpt lat="47.16968" lon="-1.72199">
        <ele>78</ele>
        <time>2021-04-18T09:43:44.000Z</time>
      </trkpt>
      <trkpt lat="47.1697" lon="-1.72216">
        <ele>77</ele>
        <time>2021-04-18T09:43:46.000Z</time>
      </trkpt>
      <trkpt lat="47.16971" lon="-1.72232">
        <ele>76</ele>
        <time>2021-04-18T09:43:48.000Z</time>
      </trkpt>
      <trkpt lat="47.16973" lon="-1.72248">
        <ele>77</ele>
        <time>2021-04-18T09:43:50.000Z</time>
      </trkpt>
      <trkpt lat="47.16974" lon="-1.72265">
        <ele>78</ele>
        <time>2021-04-18T09:43:52.000Z</time>
      </trkpt>
      <trkpt lat="47.16976" lon="-1.72282">
        <ele>77</ele>
        <time>2021-04-18T09:43:54.000Z</time>
      </trkpt>
      <trkpt lat="47.16978" lon="-1.723">
        <ele>75</ele>
        <time>2021-04-18T09:43:56.000Z</time>
      </trkpt>
      <trkpt lat="47.1698" lon="-1.72318">
        <ele>74</ele>
        <time>2021-04-18T09:43:58.000Z</time>
      </trkpt>
      <trkpt lat="47.16982" lon="-1.72337">
        <ele>73</ele>
        <time>2021-04-18T09:44:00.000Z</time>
      </trkpt>
      <trkpt lat="47.16984" lon="-1.72355">
        <ele>72</ele>
        <time>2021-04-18T09:44:02.000Z</time>
      </trkpt>
      <trkpt lat="47.16985" lon="-1.72373">
        <ele>73</ele>
        <time>2021-04-18T09:44:04.000Z</time>
      </trkpt>
      <trkpt lat="47.16987" lon="-1.72403">
        <ele>73</ele>
        <time>2021-04-18T09:44:07.000Z</time>
      </trkpt>
      <trkpt lat="47.16989" lon="-1.72434">
        <ele>73</ele>
        <time>2021-04-18T09:44:10.000Z</time>
      </trkpt>
      <trkpt lat="47.16994" lon="-1.72466">
        <ele>73</ele>
        <time>2021-04-18T09:44:13.000Z</time>
      </trkpt>
      <trkpt lat="47.17002" lon="-1.72494">
        <ele>72</ele>
        <time>2021-04-18T09:44:16.000Z</time>
      </trkpt>
      <trkpt lat="47.17011" lon="-1.72512">
        <ele>70</ele>
        <time>2021-04-18T09:44:19.000Z</time>
      </trkpt>
      <trkpt lat="47.17016" lon="-1.72525">
        <ele>71</ele>
        <time>2021-04-18T09:44:21.000Z</time>
      </trkpt>
      <trkpt lat="47.17019" lon="-1.7254">
        <ele>71</ele>
        <time>2021-04-18T09:44:24.000Z</time>
      </trkpt>
      <trkpt lat="47.17017" lon="-1.72556">
        <ele>71</ele>
        <time>2021-04-18T09:44:28.000Z</time>
      </trkpt>
      <trkpt lat="47.17011" lon="-1.72583">
        <ele>69</ele>
        <time>2021-04-18T09:44:32.000Z</time>
      </trkpt>
      <trkpt lat="47.17007" lon="-1.72603">
        <ele>70</ele>
        <time>2021-04-18T09:44:35.000Z</time>
      </trkpt>
      <trkpt lat="47.17007" lon="-1.72623">
        <ele>71</ele>
        <time>2021-04-18T09:44:37.000Z</time>
      </trkpt>
      <trkpt lat="47.17005" lon="-1.72643">
        <ele>70</ele>
        <time>2021-04-18T09:44:39.000Z</time>
      </trkpt>
      <trkpt lat="47.17003" lon="-1.72662">
        <ele>69</ele>
        <time>2021-04-18T09:44:41.000Z</time>
      </trkpt>
      <trkpt lat="47.16999" lon="-1.72693">
        <ele>69</ele>
        <time>2021-04-18T09:44:44.000Z</time>
      </trkpt>
      <trkpt lat="47.16998" lon="-1.72711">
        <ele>68</ele>
        <time>2021-04-18T09:44:46.000Z</time>
      </trkpt>
      <trkpt lat="47.16995" lon="-1.7273">
        <ele>68</ele>
        <time>2021-04-18T09:44:48.000Z</time>
      </trkpt>
      <trkpt lat="47.16992" lon="-1.72749">
        <ele>68</ele>
        <time>2021-04-18T09:44:50.000Z</time>
      </trkpt>
      <trkpt lat="47.1699" lon="-1.72769">
        <ele>68</ele>
        <time>2021-04-18T09:44:52.000Z</time>
      </trkpt>
      <trkpt lat="47.16983" lon="-1.72797">
        <ele>66</ele>
        <time>2021-04-18T09:44:55.000Z</time>
      </trkpt>
      <trkpt lat="47.16979" lon="-1.72819">
        <ele>66</ele>
        <time>2021-04-18T09:44:57.000Z</time>
      </trkpt>
      <trkpt lat="47.16976" lon="-1.72841">
        <ele>65</ele>
        <time>2021-04-18T09:44:59.000Z</time>
      </trkpt>
      <trkpt lat="47.16973" lon="-1.72863">
        <ele>63</ele>
        <time>2021-04-18T09:45:01.000Z</time>
      </trkpt>
      <trkpt lat="47.1697" lon="-1.72885">
        <ele>63</ele>
        <time>2021-04-18T09:45:03.000Z</time>
      </trkpt>
      <trkpt lat="47.16966" lon="-1.72904">
        <ele>63</ele>
        <time>2021-04-18T09:45:05.000Z</time>
      </trkpt>
      <trkpt lat="47.16965" lon="-1.72928">
        <ele>62</ele>
        <time>2021-04-18T09:45:07.000Z</time>
      </trkpt>
      <trkpt lat="47.16963" lon="-1.72951">
        <ele>61</ele>
        <time>2021-04-18T09:45:09.000Z</time>
      </trkpt>
      <trkpt lat="47.16959" lon="-1.72976">
        <ele>60</ele>
        <time>2021-04-18T09:45:11.000Z</time>
      </trkpt>
      <trkpt lat="47.16954" lon="-1.73">
        <ele>58</ele>
        <time>2021-04-18T09:45:13.000Z</time>
      </trkpt>
      <trkpt lat="47.1695" lon="-1.73025">
        <ele>57</ele>
        <time>2021-04-18T09:45:15.000Z</time>
      </trkpt>
      <trkpt lat="47.16946" lon="-1.7305">
        <ele>56</ele>
        <time>2021-04-18T09:45:17.000Z</time>
      </trkpt>
      <trkpt lat="47.16939" lon="-1.73088">
        <ele>54</ele>
        <time>2021-04-18T09:45:20.000Z</time>
      </trkpt>
      <trkpt lat="47.16934" lon="-1.7311">
        <ele>53</ele>
        <time>2021-04-18T09:45:22.000Z</time>
      </trkpt>
      <trkpt lat="47.16929" lon="-1.73133">
        <ele>54</ele>
        <time>2021-04-18T09:45:24.000Z</time>
      </trkpt>
      <trkpt lat="47.16921" lon="-1.73168">
        <ele>55</ele>
        <time>2021-04-18T09:45:27.000Z</time>
      </trkpt>
      <trkpt lat="47.16918" lon="-1.7319">
        <ele>56</ele>
        <time>2021-04-18T09:45:29.000Z</time>
      </trkpt>
      <trkpt lat="47.16915" lon="-1.7321">
        <ele>55</ele>
        <time>2021-04-18T09:45:31.000Z</time>
      </trkpt>
      <trkpt lat="47.16915" lon="-1.73236">
        <ele>53</ele>
        <time>2021-04-18T09:45:33.000Z</time>
      </trkpt>
      <trkpt lat="47.16915" lon="-1.7325">
        <ele>55</ele>
        <time>2021-04-18T09:45:34.000Z</time>
      </trkpt>
      <trkpt lat="47.16916" lon="-1.73264">
        <ele>55</ele>
        <time>2021-04-18T09:45:35.000Z</time>
      </trkpt>
      <trkpt lat="47.16916" lon="-1.73278">
        <ele>56</ele>
        <time>2021-04-18T09:45:36.000Z</time>
      </trkpt>
      <trkpt lat="47.16916" lon="-1.73303">
        <ele>58</ele>
        <time>2021-04-18T09:45:38.000Z</time>
      </trkpt>
      <trkpt lat="47.16917" lon="-1.73329">
        <ele>59</ele>
        <time>2021-04-18T09:45:40.000Z</time>
      </trkpt>
      <trkpt lat="47.16917" lon="-1.73353">
        <ele>59</ele>
        <time>2021-04-18T09:45:42.000Z</time>
      </trkpt>
      <trkpt lat="47.16919" lon="-1.73375">
        <ele>61</ele>
        <time>2021-04-18T09:45:44.000Z</time>
      </trkpt>
      <trkpt lat="47.16922" lon="-1.73399">
        <ele>61</ele>
        <time>2021-04-18T09:45:46.000Z</time>
      </trkpt>
      <trkpt lat="47.16923" lon="-1.73421">
        <ele>62</ele>
        <time>2021-04-18T09:45:48.000Z</time>
      </trkpt>
      <trkpt lat="47.16925" lon="-1.73442">
        <ele>63</ele>
        <time>2021-04-18T09:45:50.000Z</time>
      </trkpt>
      <trkpt lat="47.16927" lon="-1.73464">
        <ele>64</ele>
        <time>2021-04-18T09:45:52.000Z</time>
      </trkpt>
      <trkpt lat="47.16929" lon="-1.73484">
        <ele>64</ele>
        <time>2021-04-18T09:45:54.000Z</time>
      </trkpt>
      <trkpt lat="47.16931" lon="-1.73503">
        <ele>65</ele>
        <time>2021-04-18T09:45:56.000Z</time>
      </trkpt>
      <trkpt lat="47.16933" lon="-1.73521">
        <ele>65</ele>
        <time>2021-04-18T09:45:58.000Z</time>
      </trkpt>
      <trkpt lat="47.16935" lon="-1.7354">
        <ele>66</ele>
        <time>2021-04-18T09:46:00.000Z</time>
      </trkpt>
      <trkpt lat="47.16937" lon="-1.73557">
        <ele>67</ele>
        <time>2021-04-18T09:46:02.000Z</time>
      </trkpt>
      <trkpt lat="47.16939" lon="-1.73577">
        <ele>67</ele>
        <time>2021-04-18T09:46:04.000Z</time>
      </trkpt>
      <trkpt lat="47.16942" lon="-1.73597">
        <ele>68</ele>
        <time>2021-04-18T09:46:06.000Z</time>
      </trkpt>
      <trkpt lat="47.16944" lon="-1.73616">
        <ele>68</ele>
        <time>2021-04-18T09:46:08.000Z</time>
      </trkpt>
      <trkpt lat="47.16949" lon="-1.73633">
        <ele>68</ele>
        <time>2021-04-18T09:46:10.000Z</time>
      </trkpt>
      <trkpt lat="47.16961" lon="-1.73655">
        <ele>68</ele>
        <time>2021-04-18T09:46:13.000Z</time>
      </trkpt>
      <trkpt lat="47.16969" lon="-1.73671">
        <ele>68</ele>
        <time>2021-04-18T09:46:15.000Z</time>
      </trkpt>
      <trkpt lat="47.16976" lon="-1.73687">
        <ele>68</ele>
        <time>2021-04-18T09:46:17.000Z</time>
      </trkpt>
      <trkpt lat="47.16983" lon="-1.73699">
        <ele>68</ele>
        <time>2021-04-18T09:46:19.000Z</time>
      </trkpt>
      <trkpt lat="47.1699" lon="-1.73711">
        <ele>67</ele>
        <time>2021-04-18T09:46:21.000Z</time>
      </trkpt>
      <trkpt lat="47.16994" lon="-1.73727">
        <ele>67</ele>
        <time>2021-04-18T09:46:23.000Z</time>
      </trkpt>
      <trkpt lat="47.16995" lon="-1.73744">
        <ele>65</ele>
        <time>2021-04-18T09:46:25.000Z</time>
      </trkpt>
      <trkpt lat="47.16998" lon="-1.73773">
        <ele>64</ele>
        <time>2021-04-18T09:46:28.000Z</time>
      </trkpt>
      <trkpt lat="47.17" lon="-1.73795">
        <ele>63</ele>
        <time>2021-04-18T09:46:30.000Z</time>
      </trkpt>
      <trkpt lat="47.17001" lon="-1.73818">
        <ele>63</ele>
        <time>2021-04-18T09:46:32.000Z</time>
      </trkpt>
      <trkpt lat="47.17004" lon="-1.73842">
        <ele>62</ele>
        <time>2021-04-18T09:46:34.000Z</time>
      </trkpt>
      <trkpt lat="47.17006" lon="-1.73855">
        <ele>62</ele>
        <time>2021-04-18T09:46:35.000Z</time>
      </trkpt>
      <trkpt lat="47.17007" lon="-1.73882">
        <ele>62</ele>
        <time>2021-04-18T09:46:37.000Z</time>
      </trkpt>
      <trkpt lat="47.17009" lon="-1.73895">
        <ele>61</ele>
        <time>2021-04-18T09:46:38.000Z</time>
      </trkpt>
      <trkpt lat="47.17013" lon="-1.7392">
        <ele>59</ele>
        <time>2021-04-18T09:46:40.000Z</time>
      </trkpt>
      <trkpt lat="47.17016" lon="-1.73946">
        <ele>57</ele>
        <time>2021-04-18T09:46:42.000Z</time>
      </trkpt>
      <trkpt lat="47.17022" lon="-1.73985">
        <ele>55</ele>
        <time>2021-04-18T09:46:45.000Z</time>
      </trkpt>
      <trkpt lat="47.17023" lon="-1.73998">
        <ele>54</ele>
        <time>2021-04-18T09:46:46.000Z</time>
      </trkpt>
      <trkpt lat="47.17025" lon="-1.74011">
        <ele>53</ele>
        <time>2021-04-18T09:46:47.000Z</time>
      </trkpt>
      <trkpt lat="47.17027" lon="-1.74037">
        <ele>52</ele>
        <time>2021-04-18T09:46:49.000Z</time>
      </trkpt>
      <trkpt lat="47.17031" lon="-1.74068">
        <ele>52</ele>
        <time>2021-04-18T09:46:52.000Z</time>
      </trkpt>
      <trkpt lat="47.17035" lon="-1.74081">
        <ele>52</ele>
        <time>2021-04-18T09:46:54.000Z</time>
      </trkpt>
      <trkpt lat="47.17037" lon="-1.74095">
        <ele>51</ele>
        <time>2021-04-18T09:46:56.000Z</time>
      </trkpt>
      <trkpt lat="47.1704" lon="-1.74108">
        <ele>51</ele>
        <time>2021-04-18T09:47:01.000Z</time>
      </trkpt>
      <trkpt lat="47.17034" lon="-1.74097">
        <ele>51</ele>
        <time>2021-04-18T09:48:00.000Z</time>
      </trkpt>
      <trkpt lat="47.17033" lon="-1.74079">
        <ele>50</ele>
        <time>2021-04-18T09:48:03.000Z</time>
      </trkpt>
      <trkpt lat="47.17031" lon="-1.74059">
        <ele>51</ele>
        <time>2021-04-18T09:48:07.000Z</time>
      </trkpt>
      <trkpt lat="47.17036" lon="-1.74048">
        <ele>51</ele>
        <time>2021-04-18T09:48:11.000Z</time>
      </trkpt>
      <trkpt lat="47.17046" lon="-1.74039">
        <ele>52</ele>
        <time>2021-04-18T09:48:15.000Z</time>
      </trkpt>
      <trkpt lat="47.17057" lon="-1.7403">
        <ele>52</ele>
        <time>2021-04-18T09:48:18.000Z</time>
      </trkpt>
      <trkpt lat="47.17066" lon="-1.74023">
        <ele>52</ele>
        <time>2021-04-18T09:48:21.000Z</time>
      </trkpt>
      <trkpt lat="47.17075" lon="-1.74014">
        <ele>53</ele>
        <time>2021-04-18T09:48:25.000Z</time>
      </trkpt>
      <trkpt lat="47.17086" lon="-1.74001">
        <ele>58</ele>
        <time>2021-04-18T09:48:30.000Z</time>
      </trkpt>
      <trkpt lat="47.17093" lon="-1.73983">
        <ele>60</ele>
        <time>2021-04-18T09:48:33.000Z</time>
      </trkpt>
      <trkpt lat="47.17102" lon="-1.7397">
        <ele>61</ele>
        <time>2021-04-18T09:48:35.000Z</time>
      </trkpt>
      <trkpt lat="47.17112" lon="-1.73958">
        <ele>64</ele>
        <time>2021-04-18T09:48:38.000Z</time>
      </trkpt>
      <trkpt lat="47.17121" lon="-1.73949">
        <ele>68</ele>
        <time>2021-04-18T09:48:40.000Z</time>
      </trkpt>
      <trkpt lat="47.17128" lon="-1.7394">
        <ele>69</ele>
        <time>2021-04-18T09:48:42.000Z</time>
      </trkpt>
      <trkpt lat="47.1714" lon="-1.73926">
        <ele>67</ele>
        <time>2021-04-18T09:48:44.000Z</time>
      </trkpt>
      <trkpt lat="47.17149" lon="-1.73919">
        <ele>67</ele>
        <time>2021-04-18T09:48:45.000Z</time>
      </trkpt>
      <trkpt lat="47.17158" lon="-1.73912">
        <ele>68</ele>
        <time>2021-04-18T09:48:47.000Z</time>
      </trkpt>
      <trkpt lat="47.17166" lon="-1.73904">
        <ele>68</ele>
        <time>2021-04-18T09:48:49.000Z</time>
      </trkpt>
      <trkpt lat="47.17174" lon="-1.73897">
        <ele>68</ele>
        <time>2021-04-18T09:48:51.000Z</time>
      </trkpt>
      <trkpt lat="47.17183" lon="-1.7389">
        <ele>67</ele>
        <time>2021-04-18T09:48:54.000Z</time>
      </trkpt>
      <trkpt lat="47.17194" lon="-1.73877">
        <ele>66</ele>
        <time>2021-04-18T09:48:57.000Z</time>
      </trkpt>
      <trkpt lat="47.17207" lon="-1.73864">
        <ele>66</ele>
        <time>2021-04-18T09:49:00.000Z</time>
      </trkpt>
      <trkpt lat="47.17225" lon="-1.73854">
        <ele>65</ele>
        <time>2021-04-18T09:49:03.000Z</time>
      </trkpt>
      <trkpt lat="47.17242" lon="-1.73848">
        <ele>63</ele>
        <time>2021-04-18T09:49:06.000Z</time>
      </trkpt>
      <trkpt lat="47.17253" lon="-1.73844">
        <ele>61</ele>
        <time>2021-04-18T09:49:08.000Z</time>
      </trkpt>
      <trkpt lat="47.17269" lon="-1.7384">
        <ele>61</ele>
        <time>2021-04-18T09:49:11.000Z</time>
      </trkpt>
      <trkpt lat="47.1728" lon="-1.73841">
        <ele>61</ele>
        <time>2021-04-18T09:49:13.000Z</time>
      </trkpt>
      <trkpt lat="47.17292" lon="-1.73843">
        <ele>59</ele>
        <time>2021-04-18T09:49:15.000Z</time>
      </trkpt>
      <trkpt lat="47.17303" lon="-1.73843">
        <ele>57</ele>
        <time>2021-04-18T09:49:18.000Z</time>
      </trkpt>
      <trkpt lat="47.17313" lon="-1.73847">
        <ele>59</ele>
        <time>2021-04-18T09:49:21.000Z</time>
      </trkpt>
      <trkpt lat="47.17323" lon="-1.73851">
        <ele>61</ele>
        <time>2021-04-18T09:49:23.000Z</time>
      </trkpt>
      <trkpt lat="47.17341" lon="-1.73851">
        <ele>63</ele>
        <time>2021-04-18T09:49:25.000Z</time>
      </trkpt>
      <trkpt lat="47.17358" lon="-1.73849">
        <ele>63</ele>
        <time>2021-04-18T09:49:27.000Z</time>
      </trkpt>
      <trkpt lat="47.17372" lon="-1.7385">
        <ele>63</ele>
        <time>2021-04-18T09:49:29.000Z</time>
      </trkpt>
      <trkpt lat="47.17384" lon="-1.73851">
        <ele>60</ele>
        <time>2021-04-18T09:49:31.000Z</time>
      </trkpt>
      <trkpt lat="47.17395" lon="-1.73854">
        <ele>56</ele>
        <time>2021-04-18T09:49:33.000Z</time>
      </trkpt>
      <trkpt lat="47.17409" lon="-1.73856">
        <ele>56</ele>
        <time>2021-04-18T09:49:35.000Z</time>
      </trkpt>
      <trkpt lat="47.17423" lon="-1.73855">
        <ele>57</ele>
        <time>2021-04-18T09:49:37.000Z</time>
      </trkpt>
      <trkpt lat="47.17437" lon="-1.73856">
        <ele>55</ele>
        <time>2021-04-18T09:49:39.000Z</time>
      </trkpt>
      <trkpt lat="47.17452" lon="-1.73858">
        <ele>51</ele>
        <time>2021-04-18T09:49:41.000Z</time>
      </trkpt>
      <trkpt lat="47.17463" lon="-1.73858">
        <ele>53</ele>
        <time>2021-04-18T09:49:43.000Z</time>
      </trkpt>
      <trkpt lat="47.17475" lon="-1.73859">
        <ele>54</ele>
        <time>2021-04-18T09:49:45.000Z</time>
      </trkpt>
      <trkpt lat="47.17491" lon="-1.7386">
        <ele>56</ele>
        <time>2021-04-18T09:49:48.000Z</time>
      </trkpt>
      <trkpt lat="47.17502" lon="-1.73859">
        <ele>59</ele>
        <time>2021-04-18T09:49:50.000Z</time>
      </trkpt>
      <trkpt lat="47.17515" lon="-1.73859">
        <ele>61</ele>
        <time>2021-04-18T09:49:52.000Z</time>
      </trkpt>
      <trkpt lat="47.17527" lon="-1.73859">
        <ele>61</ele>
        <time>2021-04-18T09:49:54.000Z</time>
      </trkpt>
      <trkpt lat="47.17536" lon="-1.73853">
        <ele>65</ele>
        <time>2021-04-18T09:49:56.000Z</time>
      </trkpt>
      <trkpt lat="47.17546" lon="-1.73853">
        <ele>68</ele>
        <time>2021-04-18T09:49:58.000Z</time>
      </trkpt>
      <trkpt lat="47.17562" lon="-1.73851">
        <ele>66</ele>
        <time>2021-04-18T09:50:00.000Z</time>
      </trkpt>
      <trkpt lat="47.17576" lon="-1.7385">
        <ele>63</ele>
        <time>2021-04-18T09:50:02.000Z</time>
      </trkpt>
      <trkpt lat="47.17585" lon="-1.73849">
        <ele>59</ele>
        <time>2021-04-18T09:50:04.000Z</time>
      </trkpt>
      <trkpt lat="47.17593" lon="-1.73856">
        <ele>56</ele>
        <time>2021-04-18T09:50:25.000Z</time>
      </trkpt>
      <trkpt lat="47.17595" lon="-1.73875">
        <ele>56</ele>
        <time>2021-04-18T09:50:31.000Z</time>
      </trkpt>
      <trkpt lat="47.17596" lon="-1.73889">
        <ele>56</ele>
        <time>2021-04-18T09:50:34.000Z</time>
      </trkpt>
      <trkpt lat="47.17598" lon="-1.73905">
        <ele>56</ele>
        <time>2021-04-18T09:50:37.000Z</time>
      </trkpt>
      <trkpt lat="47.17596" lon="-1.73928">
        <ele>58</ele>
        <time>2021-04-18T09:50:42.000Z</time>
      </trkpt>
      <trkpt lat="47.17588" lon="-1.73949">
        <ele>58</ele>
        <time>2021-04-18T09:50:46.000Z</time>
      </trkpt>
      <trkpt lat="47.17576" lon="-1.73957">
        <ele>59</ele>
        <time>2021-04-18T09:50:49.000Z</time>
      </trkpt>
      <trkpt lat="47.17565" lon="-1.73967">
        <ele>58</ele>
        <time>2021-04-18T09:50:52.000Z</time>
      </trkpt>
      <trkpt lat="47.17554" lon="-1.73978">
        <ele>58</ele>
        <time>2021-04-18T09:50:55.000Z</time>
      </trkpt>
      <trkpt lat="47.17549" lon="-1.7399">
        <ele>58</ele>
        <time>2021-04-18T09:50:57.000Z</time>
      </trkpt>
      <trkpt lat="47.17543" lon="-1.74">
        <ele>58</ele>
        <time>2021-04-18T09:50:59.000Z</time>
      </trkpt>
      <trkpt lat="47.17537" lon="-1.74012">
        <ele>58</ele>
        <time>2021-04-18T09:51:01.000Z</time>
      </trkpt>
      <trkpt lat="47.17532" lon="-1.74024">
        <ele>58</ele>
        <time>2021-04-18T09:51:03.000Z</time>
      </trkpt>
      <trkpt lat="47.17531" lon="-1.74042">
        <ele>58</ele>
        <time>2021-04-18T09:51:06.000Z</time>
      </trkpt>
      <trkpt lat="47.17537" lon="-1.74053">
        <ele>59</ele>
        <time>2021-04-18T09:51:09.000Z</time>
      </trkpt>
      <trkpt lat="47.17545" lon="-1.74063">
        <ele>60</ele>
        <time>2021-04-18T09:51:13.000Z</time>
      </trkpt>
      <trkpt lat="47.1755" lon="-1.74078">
        <ele>63</ele>
        <time>2021-04-18T09:51:17.000Z</time>
      </trkpt>
      <trkpt lat="47.17552" lon="-1.74094">
        <ele>63</ele>
        <time>2021-04-18T09:51:20.000Z</time>
      </trkpt>
      <trkpt lat="47.17555" lon="-1.74109">
        <ele>62</ele>
        <time>2021-04-18T09:51:23.000Z</time>
      </trkpt>
      <trkpt lat="47.17559" lon="-1.74122">
        <ele>61</ele>
        <time>2021-04-18T09:51:25.000Z</time>
      </trkpt>
      <trkpt lat="47.17564" lon="-1.74134">
        <ele>61</ele>
        <time>2021-04-18T09:51:27.000Z</time>
      </trkpt>
      <trkpt lat="47.17573" lon="-1.74144">
        <ele>61</ele>
        <time>2021-04-18T09:51:31.000Z</time>
      </trkpt>
      <trkpt lat="47.17572" lon="-1.74164">
        <ele>62</ele>
        <time>2021-04-18T09:51:35.000Z</time>
      </trkpt>
      <trkpt lat="47.1757" lon="-1.74178">
        <ele>60</ele>
        <time>2021-04-18T09:51:37.000Z</time>
      </trkpt>
      <trkpt lat="47.1757" lon="-1.74196">
        <ele>56</ele>
        <time>2021-04-18T09:51:40.000Z</time>
      </trkpt>
      <trkpt lat="47.17576" lon="-1.74213">
        <ele>57</ele>
        <time>2021-04-18T09:51:43.000Z</time>
      </trkpt>
      <trkpt lat="47.17578" lon="-1.74228">
        <ele>59</ele>
        <time>2021-04-18T09:51:46.000Z</time>
      </trkpt>
      <trkpt lat="47.1758" lon="-1.74241">
        <ele>60</ele>
        <time>2021-04-18T09:51:49.000Z</time>
      </trkpt>
      <trkpt lat="47.17588" lon="-1.74253">
        <ele>60</ele>
        <time>2021-04-18T09:51:52.000Z</time>
      </trkpt>
      <trkpt lat="47.17596" lon="-1.74264">
        <ele>58</ele>
        <time>2021-04-18T09:51:55.000Z</time>
      </trkpt>
      <trkpt lat="47.17601" lon="-1.74276">
        <ele>65</ele>
        <time>2021-04-18T09:52:00.000Z</time>
      </trkpt>
      <trkpt lat="47.17603" lon="-1.74289">
        <ele>69</ele>
        <time>2021-04-18T09:52:05.000Z</time>
      </trkpt>
      <trkpt lat="47.17608" lon="-1.74304">
        <ele>73</ele>
        <time>2021-04-18T09:52:08.000Z</time>
      </trkpt>
      <trkpt lat="47.17615" lon="-1.74318">
        <ele>74</ele>
        <time>2021-04-18T09:52:12.000Z</time>
      </trkpt>
      <trkpt lat="47.17617" lon="-1.74333">
        <ele>72</ele>
        <time>2021-04-18T09:52:17.000Z</time>
      </trkpt>
      <trkpt lat="47.1762" lon="-1.74346">
        <ele>73</ele>
        <time>2021-04-18T09:52:20.000Z</time>
      </trkpt>
      <trkpt lat="47.17624" lon="-1.74362">
        <ele>73</ele>
        <time>2021-04-18T09:52:24.000Z</time>
      </trkpt>
      <trkpt lat="47.17629" lon="-1.74378">
        <ele>73</ele>
        <time>2021-04-18T09:52:27.000Z</time>
      </trkpt>
      <trkpt lat="47.17635" lon="-1.7439">
        <ele>72</ele>
        <time>2021-04-18T09:52:30.000Z</time>
      </trkpt>
      <trkpt lat="47.17644" lon="-1.74398">
        <ele>69</ele>
        <time>2021-04-18T09:52:37.000Z</time>
      </trkpt>
      <trkpt lat="47.17642" lon="-1.74411">
        <ele>57</ele>
        <time>2021-04-18T09:52:47.000Z</time>
      </trkpt>
      <trkpt lat="47.17651" lon="-1.74412">
        <ele>56</ele>
        <time>2021-04-18T09:52:51.000Z</time>
      </trkpt>
      <trkpt lat="47.17662" lon="-1.7441">
        <ele>58</ele>
        <time>2021-04-18T09:52:54.000Z</time>
      </trkpt>
      <trkpt lat="47.17668" lon="-1.74399">
        <ele>59</ele>
        <time>2021-04-18T09:52:57.000Z</time>
      </trkpt>
      <trkpt lat="47.17676" lon="-1.74388">
        <ele>59</ele>
        <time>2021-04-18T09:53:00.000Z</time>
      </trkpt>
      <trkpt lat="47.17685" lon="-1.74379">
        <ele>57</ele>
        <time>2021-04-18T09:53:05.000Z</time>
      </trkpt>
      <trkpt lat="47.17696" lon="-1.7437">
        <ele>59</ele>
        <time>2021-04-18T09:53:08.000Z</time>
      </trkpt>
      <trkpt lat="47.17706" lon="-1.74354">
        <ele>60</ele>
        <time>2021-04-18T09:53:11.000Z</time>
      </trkpt>
      <trkpt lat="47.17714" lon="-1.74344">
        <ele>60</ele>
        <time>2021-04-18T09:53:13.000Z</time>
      </trkpt>
      <trkpt lat="47.17724" lon="-1.74333">
        <ele>58</ele>
        <time>2021-04-18T09:53:15.000Z</time>
      </trkpt>
      <trkpt lat="47.17731" lon="-1.74325">
        <ele>57</ele>
        <time>2021-04-18T09:53:17.000Z</time>
      </trkpt>
      <trkpt lat="47.17739" lon="-1.74314">
        <ele>57</ele>
        <time>2021-04-18T09:53:20.000Z</time>
      </trkpt>
      <trkpt lat="47.17749" lon="-1.74306">
        <ele>55</ele>
        <time>2021-04-18T09:53:25.000Z</time>
      </trkpt>
      <trkpt lat="47.17755" lon="-1.74295">
        <ele>57</ele>
        <time>2021-04-18T09:53:28.000Z</time>
      </trkpt>
      <trkpt lat="47.17764" lon="-1.74284">
        <ele>58</ele>
        <time>2021-04-18T09:53:32.000Z</time>
      </trkpt>
      <trkpt lat="47.17771" lon="-1.74274">
        <ele>59</ele>
        <time>2021-04-18T09:53:35.000Z</time>
      </trkpt>
      <trkpt lat="47.17779" lon="-1.74263">
        <ele>58</ele>
        <time>2021-04-18T09:53:38.000Z</time>
      </trkpt>
      <trkpt lat="47.17788" lon="-1.7425">
        <ele>58</ele>
        <time>2021-04-18T09:53:41.000Z</time>
      </trkpt>
      <trkpt lat="47.17796" lon="-1.74239">
        <ele>59</ele>
        <time>2021-04-18T09:53:43.000Z</time>
      </trkpt>
      <trkpt lat="47.17804" lon="-1.74227">
        <ele>57</ele>
        <time>2021-04-18T09:53:45.000Z</time>
      </trkpt>
      <trkpt lat="47.17812" lon="-1.74216">
        <ele>57</ele>
        <time>2021-04-18T09:53:47.000Z</time>
      </trkpt>
      <trkpt lat="47.17819" lon="-1.74205">
        <ele>57</ele>
        <time>2021-04-18T09:53:50.000Z</time>
      </trkpt>
      <trkpt lat="47.17828" lon="-1.74204">
        <ele>55</ele>
        <time>2021-04-18T09:53:54.000Z</time>
      </trkpt>
      <trkpt lat="47.17835" lon="-1.74218">
        <ele>53</ele>
        <time>2021-04-18T09:53:58.000Z</time>
      </trkpt>
      <trkpt lat="47.1784" lon="-1.74231">
        <ele>53</ele>
        <time>2021-04-18T09:54:02.000Z</time>
      </trkpt>
      <trkpt lat="47.17843" lon="-1.74244">
        <ele>54</ele>
        <time>2021-04-18T09:54:04.000Z</time>
      </trkpt>
      <trkpt lat="47.17847" lon="-1.74262">
        <ele>54</ele>
        <time>2021-04-18T09:54:06.000Z</time>
      </trkpt>
      <trkpt lat="47.17852" lon="-1.74286">
        <ele>54</ele>
        <time>2021-04-18T09:54:09.000Z</time>
      </trkpt>
      <trkpt lat="47.17856" lon="-1.74303">
        <ele>55</ele>
        <time>2021-04-18T09:54:11.000Z</time>
      </trkpt>
      <trkpt lat="47.17859" lon="-1.74319">
        <ele>55</ele>
        <time>2021-04-18T09:54:13.000Z</time>
      </trkpt>
      <trkpt lat="47.17861" lon="-1.74336">
        <ele>55</ele>
        <time>2021-04-18T09:54:15.000Z</time>
      </trkpt>
      <trkpt lat="47.17863" lon="-1.74352">
        <ele>52</ele>
        <time>2021-04-18T09:54:18.000Z</time>
      </trkpt>
      <trkpt lat="47.17867" lon="-1.74366">
        <ele>53</ele>
        <time>2021-04-18T09:54:20.000Z</time>
      </trkpt>
      <trkpt lat="47.17871" lon="-1.7438">
        <ele>53</ele>
        <time>2021-04-18T09:54:22.000Z</time>
      </trkpt>
      <trkpt lat="47.17874" lon="-1.74403">
        <ele>53</ele>
        <time>2021-04-18T09:54:25.000Z</time>
      </trkpt>
      <trkpt lat="47.17874" lon="-1.74417">
        <ele>52</ele>
        <time>2021-04-18T09:54:27.000Z</time>
      </trkpt>
      <trkpt lat="47.17881" lon="-1.7444">
        <ele>55</ele>
        <time>2021-04-18T09:54:31.000Z</time>
      </trkpt>
      <trkpt lat="47.17887" lon="-1.7446">
        <ele>58</ele>
        <time>2021-04-18T09:54:34.000Z</time>
      </trkpt>
      <trkpt lat="47.1789" lon="-1.74479">
        <ele>58</ele>
        <time>2021-04-18T09:54:36.000Z</time>
      </trkpt>
      <trkpt lat="47.17894" lon="-1.74494">
        <ele>58</ele>
        <time>2021-04-18T09:54:38.000Z</time>
      </trkpt>
      <trkpt lat="47.179" lon="-1.74517">
        <ele>59</ele>
        <time>2021-04-18T09:54:41.000Z</time>
      </trkpt>
      <trkpt lat="47.17904" lon="-1.74532">
        <ele>58</ele>
        <time>2021-04-18T09:54:43.000Z</time>
      </trkpt>
      <trkpt lat="47.17908" lon="-1.74555">
        <ele>57</ele>
        <time>2021-04-18T09:54:46.000Z</time>
      </trkpt>
      <trkpt lat="47.17912" lon="-1.74573">
        <ele>57</ele>
        <time>2021-04-18T09:54:49.000Z</time>
      </trkpt>
      <trkpt lat="47.17915" lon="-1.74587">
        <ele>57</ele>
        <time>2021-04-18T09:54:52.000Z</time>
      </trkpt>
      <trkpt lat="47.17917" lon="-1.74602">
        <ele>56</ele>
        <time>2021-04-18T09:54:55.000Z</time>
      </trkpt>
      <trkpt lat="47.1792" lon="-1.74615">
        <ele>57</ele>
        <time>2021-04-18T09:55:07.000Z</time>
      </trkpt>
      <trkpt lat="47.17916" lon="-1.74627">
        <ele>57</ele>
        <time>2021-04-18T09:55:29.000Z</time>
      </trkpt>
      <trkpt lat="47.17925" lon="-1.74627">
        <ele>57</ele>
        <time>2021-04-18T09:56:07.000Z</time>
      </trkpt>
      <trkpt lat="47.17925" lon="-1.74613">
        <ele>56</ele>
        <time>2021-04-18T09:59:50.000Z</time>
      </trkpt>
      <trkpt lat="47.17929" lon="-1.74625">
        <ele>57</ele>
        <time>2021-04-18T10:00:38.000Z</time>
      </trkpt>
      <trkpt lat="47.17938" lon="-1.74623">
        <ele>56</ele>
        <time>2021-04-18T10:00:40.000Z</time>
      </trkpt>
      <trkpt lat="47.1795" lon="-1.74619">
        <ele>58</ele>
        <time>2021-04-18T10:00:44.000Z</time>
      </trkpt>
      <trkpt lat="47.1796" lon="-1.74615">
        <ele>58</ele>
        <time>2021-04-18T10:00:47.000Z</time>
      </trkpt>
      <trkpt lat="47.1797" lon="-1.74612">
        <ele>59</ele>
        <time>2021-04-18T10:00:50.000Z</time>
      </trkpt>
      <trkpt lat="47.1798" lon="-1.74608">
        <ele>59</ele>
        <time>2021-04-18T10:00:53.000Z</time>
      </trkpt>
      <trkpt lat="47.17996" lon="-1.74605">
        <ele>58</ele>
        <time>2021-04-18T10:00:57.000Z</time>
      </trkpt>
      <trkpt lat="47.18007" lon="-1.74601">
        <ele>59</ele>
        <time>2021-04-18T10:01:00.000Z</time>
      </trkpt>
      <trkpt lat="47.18018" lon="-1.74602">
        <ele>60</ele>
        <time>2021-04-18T10:01:03.000Z</time>
      </trkpt>
      <trkpt lat="47.18031" lon="-1.746">
        <ele>62</ele>
        <time>2021-04-18T10:01:06.000Z</time>
      </trkpt>
      <trkpt lat="47.18046" lon="-1.74612">
        <ele>60</ele>
        <time>2021-04-18T10:01:10.000Z</time>
      </trkpt>
      <trkpt lat="47.18053" lon="-1.74622">
        <ele>59</ele>
        <time>2021-04-18T10:01:12.000Z</time>
      </trkpt>
      <trkpt lat="47.18061" lon="-1.74636">
        <ele>60</ele>
        <time>2021-04-18T10:01:15.000Z</time>
      </trkpt>
      <trkpt lat="47.18068" lon="-1.74646">
        <ele>59</ele>
        <time>2021-04-18T10:01:17.000Z</time>
      </trkpt>
      <trkpt lat="47.18077" lon="-1.74658">
        <ele>59</ele>
        <time>2021-04-18T10:01:20.000Z</time>
      </trkpt>
      <trkpt lat="47.18082" lon="-1.7467">
        <ele>59</ele>
        <time>2021-04-18T10:01:23.000Z</time>
      </trkpt>
      <trkpt lat="47.18091" lon="-1.7469">
        <ele>59</ele>
        <time>2021-04-18T10:01:27.000Z</time>
      </trkpt>
      <trkpt lat="47.18095" lon="-1.74702">
        <ele>59</ele>
        <time>2021-04-18T10:01:29.000Z</time>
      </trkpt>
      <trkpt lat="47.18099" lon="-1.74714">
        <ele>59</ele>
        <time>2021-04-18T10:01:31.000Z</time>
      </trkpt>
      <trkpt lat="47.18104" lon="-1.7473">
        <ele>60</ele>
        <time>2021-04-18T10:01:34.000Z</time>
      </trkpt>
      <trkpt lat="47.18109" lon="-1.74748">
        <ele>61</ele>
        <time>2021-04-18T10:01:37.000Z</time>
      </trkpt>
      <trkpt lat="47.18112" lon="-1.7476">
        <ele>61</ele>
        <time>2021-04-18T10:01:39.000Z</time>
      </trkpt>
      <trkpt lat="47.18119" lon="-1.74779">
        <ele>61</ele>
        <time>2021-04-18T10:01:42.000Z</time>
      </trkpt>
      <trkpt lat="47.18124" lon="-1.74798">
        <ele>62</ele>
        <time>2021-04-18T10:01:45.000Z</time>
      </trkpt>
      <trkpt lat="47.18127" lon="-1.74811">
        <ele>63</ele>
        <time>2021-04-18T10:01:47.000Z</time>
      </trkpt>
      <trkpt lat="47.1813" lon="-1.74824">
        <ele>63</ele>
        <time>2021-04-18T10:01:49.000Z</time>
      </trkpt>
      <trkpt lat="47.18133" lon="-1.74838">
        <ele>62</ele>
        <time>2021-04-18T10:01:51.000Z</time>
      </trkpt>
      <trkpt lat="47.18137" lon="-1.74853">
        <ele>62</ele>
        <time>2021-04-18T10:01:53.000Z</time>
      </trkpt>
      <trkpt lat="47.1814" lon="-1.74868">
        <ele>60</ele>
        <time>2021-04-18T10:01:55.000Z</time>
      </trkpt>
      <trkpt lat="47.18143" lon="-1.74886">
        <ele>59</ele>
        <time>2021-04-18T10:01:58.000Z</time>
      </trkpt>
      <trkpt lat="47.18148" lon="-1.74902">
        <ele>59</ele>
        <time>2021-04-18T10:02:01.000Z</time>
      </trkpt>
      <trkpt lat="47.18156" lon="-1.74909">
        <ele>59</ele>
        <time>2021-04-18T10:02:06.000Z</time>
      </trkpt>
      <trkpt lat="47.18147" lon="-1.74906">
        <ele>63</ele>
        <time>2021-04-18T10:02:35.000Z</time>
      </trkpt>
      <trkpt lat="47.18136" lon="-1.74911">
        <ele>63</ele>
        <time>2021-04-18T10:02:38.000Z</time>
      </trkpt>
      <trkpt lat="47.18125" lon="-1.74919">
        <ele>61</ele>
        <time>2021-04-18T10:02:41.000Z</time>
      </trkpt>
      <trkpt lat="47.18115" lon="-1.74926">
        <ele>61</ele>
        <time>2021-04-18T10:02:44.000Z</time>
      </trkpt>
      <trkpt lat="47.18106" lon="-1.74932">
        <ele>61</ele>
        <time>2021-04-18T10:02:46.000Z</time>
      </trkpt>
      <trkpt lat="47.18095" lon="-1.74941">
        <ele>62</ele>
        <time>2021-04-18T10:02:49.000Z</time>
      </trkpt>
      <trkpt lat="47.18083" lon="-1.74949">
        <ele>62</ele>
        <time>2021-04-18T10:02:52.000Z</time>
      </trkpt>
      <trkpt lat="47.18073" lon="-1.74958">
        <ele>63</ele>
        <time>2021-04-18T10:02:55.000Z</time>
      </trkpt>
      <trkpt lat="47.18061" lon="-1.74964">
        <ele>64</ele>
        <time>2021-04-18T10:02:58.000Z</time>
      </trkpt>
      <trkpt lat="47.18051" lon="-1.74968">
        <ele>64</ele>
        <time>2021-04-18T10:03:01.000Z</time>
      </trkpt>
      <trkpt lat="47.18041" lon="-1.74974">
        <ele>67</ele>
        <time>2021-04-18T10:03:04.000Z</time>
      </trkpt>
      <trkpt lat="47.1803" lon="-1.74986">
        <ele>73</ele>
        <time>2021-04-18T10:03:08.000Z</time>
      </trkpt>
      <trkpt lat="47.1802" lon="-1.74989">
        <ele>76</ele>
        <time>2021-04-18T10:03:11.000Z</time>
      </trkpt>
      <trkpt lat="47.18009" lon="-1.75005">
        <ele>79</ele>
        <time>2021-04-18T10:03:15.000Z</time>
      </trkpt>
      <trkpt lat="47.1801" lon="-1.75024">
        <ele>76</ele>
        <time>2021-04-18T10:03:18.000Z</time>
      </trkpt>
      <trkpt lat="47.18014" lon="-1.75038">
        <ele>76</ele>
        <time>2021-04-18T10:03:20.000Z</time>
      </trkpt>
      <trkpt lat="47.18021" lon="-1.75058">
        <ele>72</ele>
        <time>2021-04-18T10:03:22.000Z</time>
      </trkpt>
      <trkpt lat="47.18024" lon="-1.75074">
        <ele>70</ele>
        <time>2021-04-18T10:03:24.000Z</time>
      </trkpt>
      <trkpt lat="47.18029" lon="-1.75097">
        <ele>68</ele>
        <time>2021-04-18T10:03:27.000Z</time>
      </trkpt>
      <trkpt lat="47.18033" lon="-1.75112">
        <ele>66</ele>
        <time>2021-04-18T10:03:29.000Z</time>
      </trkpt>
      <trkpt lat="47.18036" lon="-1.75126">
        <ele>65</ele>
        <time>2021-04-18T10:03:31.000Z</time>
      </trkpt>
      <trkpt lat="47.1804" lon="-1.7514">
        <ele>66</ele>
        <time>2021-04-18T10:03:33.000Z</time>
      </trkpt>
      <trkpt lat="47.18047" lon="-1.75163">
        <ele>65</ele>
        <time>2021-04-18T10:03:36.000Z</time>
      </trkpt>
      <trkpt lat="47.18051" lon="-1.75177">
        <ele>65</ele>
        <time>2021-04-18T10:03:38.000Z</time>
      </trkpt>
      <trkpt lat="47.18055" lon="-1.75192">
        <ele>65</ele>
        <time>2021-04-18T10:03:40.000Z</time>
      </trkpt>
      <trkpt lat="47.18059" lon="-1.75206">
        <ele>65</ele>
        <time>2021-04-18T10:03:42.000Z</time>
      </trkpt>
      <trkpt lat="47.18064" lon="-1.75221">
        <ele>64</ele>
        <time>2021-04-18T10:03:44.000Z</time>
      </trkpt>
      <trkpt lat="47.18069" lon="-1.75236">
        <ele>64</ele>
        <time>2021-04-18T10:03:46.000Z</time>
      </trkpt>
      <trkpt lat="47.18074" lon="-1.75256">
        <ele>65</ele>
        <time>2021-04-18T10:03:49.000Z</time>
      </trkpt>
      <trkpt lat="47.18078" lon="-1.7527">
        <ele>65</ele>
        <time>2021-04-18T10:03:51.000Z</time>
      </trkpt>
      <trkpt lat="47.18086" lon="-1.75296">
        <ele>65</ele>
        <time>2021-04-18T10:03:55.000Z</time>
      </trkpt>
      <trkpt lat="47.18089" lon="-1.75312">
        <ele>66</ele>
        <time>2021-04-18T10:03:57.000Z</time>
      </trkpt>
      <trkpt lat="47.18093" lon="-1.75326">
        <ele>67</ele>
        <time>2021-04-18T10:03:59.000Z</time>
      </trkpt>
      <trkpt lat="47.18098" lon="-1.75342">
        <ele>66</ele>
        <time>2021-04-18T10:04:01.000Z</time>
      </trkpt>
      <trkpt lat="47.18102" lon="-1.75357">
        <ele>65</ele>
        <time>2021-04-18T10:04:03.000Z</time>
      </trkpt>
      <trkpt lat="47.18106" lon="-1.75374">
        <ele>66</ele>
        <time>2021-04-18T10:04:05.000Z</time>
      </trkpt>
      <trkpt lat="47.18109" lon="-1.7539">
        <ele>66</ele>
        <time>2021-04-18T10:04:07.000Z</time>
      </trkpt>
      <trkpt lat="47.18111" lon="-1.75406">
        <ele>66</ele>
        <time>2021-04-18T10:04:09.000Z</time>
      </trkpt>
      <trkpt lat="47.18114" lon="-1.75421">
        <ele>66</ele>
        <time>2021-04-18T10:04:11.000Z</time>
      </trkpt>
      <trkpt lat="47.18116" lon="-1.75437">
        <ele>65</ele>
        <time>2021-04-18T10:04:13.000Z</time>
      </trkpt>
      <trkpt lat="47.18119" lon="-1.75453">
        <ele>65</ele>
        <time>2021-04-18T10:04:15.000Z</time>
      </trkpt>
      <trkpt lat="47.18122" lon="-1.75467">
        <ele>66</ele>
        <time>2021-04-18T10:04:17.000Z</time>
      </trkpt>
      <trkpt lat="47.18125" lon="-1.75487">
        <ele>66</ele>
        <time>2021-04-18T10:04:20.000Z</time>
      </trkpt>
      <trkpt lat="47.18128" lon="-1.75503">
        <ele>65</ele>
        <time>2021-04-18T10:04:24.000Z</time>
      </trkpt>
      <trkpt lat="47.18131" lon="-1.75517">
        <ele>65</ele>
        <time>2021-04-18T10:05:41.000Z</time>
      </trkpt>
      <trkpt lat="47.18133" lon="-1.75503">
        <ele>70</ele>
        <time>2021-04-18T10:09:47.000Z</time>
      </trkpt>
      <trkpt lat="47.18149" lon="-1.75495">
        <ele>70</ele>
        <time>2021-04-18T10:09:51.000Z</time>
      </trkpt>
      <trkpt lat="47.18159" lon="-1.75492">
        <ele>69</ele>
        <time>2021-04-18T10:09:53.000Z</time>
      </trkpt>
      <trkpt lat="47.18169" lon="-1.75489">
        <ele>69</ele>
        <time>2021-04-18T10:09:55.000Z</time>
      </trkpt>
      <trkpt lat="47.1818" lon="-1.75485">
        <ele>68</ele>
        <time>2021-04-18T10:09:57.000Z</time>
      </trkpt>
      <trkpt lat="47.18191" lon="-1.75481">
        <ele>67</ele>
        <time>2021-04-18T10:09:59.000Z</time>
      </trkpt>
      <trkpt lat="47.18202" lon="-1.75477">
        <ele>67</ele>
        <time>2021-04-18T10:10:01.000Z</time>
      </trkpt>
      <trkpt lat="47.18219" lon="-1.75471">
        <ele>67</ele>
        <time>2021-04-18T10:10:04.000Z</time>
      </trkpt>
      <trkpt lat="47.18229" lon="-1.75468">
        <ele>67</ele>
        <time>2021-04-18T10:10:06.000Z</time>
      </trkpt>
      <trkpt lat="47.18246" lon="-1.75462">
        <ele>67</ele>
        <time>2021-04-18T10:10:09.000Z</time>
      </trkpt>
      <trkpt lat="47.18257" lon="-1.75458">
        <ele>67</ele>
        <time>2021-04-18T10:10:11.000Z</time>
      </trkpt>
      <trkpt lat="47.18268" lon="-1.75453">
        <ele>67</ele>
        <time>2021-04-18T10:10:13.000Z</time>
      </trkpt>
      <trkpt lat="47.18279" lon="-1.7545">
        <ele>67</ele>
        <time>2021-04-18T10:10:15.000Z</time>
      </trkpt>
      <trkpt lat="47.18296" lon="-1.75445">
        <ele>67</ele>
        <time>2021-04-18T10:10:18.000Z</time>
      </trkpt>
      <trkpt lat="47.18306" lon="-1.75441">
        <ele>67</ele>
        <time>2021-04-18T10:10:20.000Z</time>
      </trkpt>
      <trkpt lat="47.18317" lon="-1.75437">
        <ele>68</ele>
        <time>2021-04-18T10:10:22.000Z</time>
      </trkpt>
      <trkpt lat="47.18328" lon="-1.75432">
        <ele>67</ele>
        <time>2021-04-18T10:10:24.000Z</time>
      </trkpt>
      <trkpt lat="47.18339" lon="-1.75429">
        <ele>68</ele>
        <time>2021-04-18T10:10:26.000Z</time>
      </trkpt>
      <trkpt lat="47.1835" lon="-1.75425">
        <ele>67</ele>
        <time>2021-04-18T10:10:28.000Z</time>
      </trkpt>
      <trkpt lat="47.18366" lon="-1.75418">
        <ele>66</ele>
        <time>2021-04-18T10:10:31.000Z</time>
      </trkpt>
      <trkpt lat="47.18377" lon="-1.7541">
        <ele>66</ele>
        <time>2021-04-18T10:10:33.000Z</time>
      </trkpt>
      <trkpt lat="47.18387" lon="-1.75403">
        <ele>65</ele>
        <time>2021-04-18T10:10:35.000Z</time>
      </trkpt>
      <trkpt lat="47.18397" lon="-1.75402">
        <ele>65</ele>
        <time>2021-04-18T10:10:37.000Z</time>
      </trkpt>
      <trkpt lat="47.18407" lon="-1.75405">
        <ele>65</ele>
        <time>2021-04-18T10:10:39.000Z</time>
      </trkpt>
      <trkpt lat="47.18418" lon="-1.75407">
        <ele>65</ele>
        <time>2021-04-18T10:10:41.000Z</time>
      </trkpt>
      <trkpt lat="47.18428" lon="-1.75407">
        <ele>65</ele>
        <time>2021-04-18T10:10:43.000Z</time>
      </trkpt>
      <trkpt lat="47.1844" lon="-1.75408">
        <ele>65</ele>
        <time>2021-04-18T10:10:45.000Z</time>
      </trkpt>
      <trkpt lat="47.18451" lon="-1.75409">
        <ele>64</ele>
        <time>2021-04-18T10:10:47.000Z</time>
      </trkpt>
      <trkpt lat="47.18463" lon="-1.75408">
        <ele>64</ele>
        <time>2021-04-18T10:10:49.000Z</time>
      </trkpt>
      <trkpt lat="47.18475" lon="-1.75407">
        <ele>64</ele>
        <time>2021-04-18T10:10:51.000Z</time>
      </trkpt>
      <trkpt lat="47.18485" lon="-1.75406">
        <ele>64</ele>
        <time>2021-04-18T10:10:53.000Z</time>
      </trkpt>
      <trkpt lat="47.18496" lon="-1.75403">
        <ele>64</ele>
        <time>2021-04-18T10:10:55.000Z</time>
      </trkpt>
      <trkpt lat="47.18515" lon="-1.75403">
        <ele>65</ele>
        <time>2021-04-18T10:10:58.000Z</time>
      </trkpt>
      <trkpt lat="47.18526" lon="-1.75402">
        <ele>65</ele>
        <time>2021-04-18T10:11:00.000Z</time>
      </trkpt>
      <trkpt lat="47.18538" lon="-1.75402">
        <ele>65</ele>
        <time>2021-04-18T10:11:02.000Z</time>
      </trkpt>
      <trkpt lat="47.18549" lon="-1.75402">
        <ele>65</ele>
        <time>2021-04-18T10:11:04.000Z</time>
      </trkpt>
      <trkpt lat="47.18564" lon="-1.75402">
        <ele>66</ele>
        <time>2021-04-18T10:11:07.000Z</time>
      </trkpt>
      <trkpt lat="47.18574" lon="-1.75401">
        <ele>67</ele>
        <time>2021-04-18T10:11:09.000Z</time>
      </trkpt>
      <trkpt lat="47.18583" lon="-1.754">
        <ele>67</ele>
        <time>2021-04-18T10:11:11.000Z</time>
      </trkpt>
      <trkpt lat="47.18601" lon="-1.754">
        <ele>69</ele>
        <time>2021-04-18T10:11:15.000Z</time>
      </trkpt>
      <trkpt lat="47.18615" lon="-1.75399">
        <ele>70</ele>
        <time>2021-04-18T10:11:18.000Z</time>
      </trkpt>
      <trkpt lat="47.18628" lon="-1.75399">
        <ele>71</ele>
        <time>2021-04-18T10:11:21.000Z</time>
      </trkpt>
      <trkpt lat="47.18641" lon="-1.75399">
        <ele>72</ele>
        <time>2021-04-18T10:11:24.000Z</time>
      </trkpt>
      <trkpt lat="47.1865" lon="-1.75398">
        <ele>73</ele>
        <time>2021-04-18T10:11:26.000Z</time>
      </trkpt>
      <trkpt lat="47.1866" lon="-1.75397">
        <ele>73</ele>
        <time>2021-04-18T10:11:28.000Z</time>
      </trkpt>
      <trkpt lat="47.1867" lon="-1.75396">
        <ele>73</ele>
        <time>2021-04-18T10:11:30.000Z</time>
      </trkpt>
      <trkpt lat="47.1868" lon="-1.75396">
        <ele>73</ele>
        <time>2021-04-18T10:11:32.000Z</time>
      </trkpt>
      <trkpt lat="47.18691" lon="-1.75395">
        <ele>73</ele>
        <time>2021-04-18T10:11:34.000Z</time>
      </trkpt>
      <trkpt lat="47.18702" lon="-1.75395">
        <ele>73</ele>
        <time>2021-04-18T10:11:36.000Z</time>
      </trkpt>
      <trkpt lat="47.18714" lon="-1.75394">
        <ele>73</ele>
        <time>2021-04-18T10:11:38.000Z</time>
      </trkpt>
      <trkpt lat="47.18725" lon="-1.75394">
        <ele>73</ele>
        <time>2021-04-18T10:11:40.000Z</time>
      </trkpt>
      <trkpt lat="47.18736" lon="-1.75393">
        <ele>73</ele>
        <time>2021-04-18T10:11:42.000Z</time>
      </trkpt>
      <trkpt lat="47.18752" lon="-1.75393">
        <ele>73</ele>
        <time>2021-04-18T10:11:45.000Z</time>
      </trkpt>
      <trkpt lat="47.18764" lon="-1.75393">
        <ele>73</ele>
        <time>2021-04-18T10:11:47.000Z</time>
      </trkpt>
      <trkpt lat="47.18775" lon="-1.75393">
        <ele>73</ele>
        <time>2021-04-18T10:11:49.000Z</time>
      </trkpt>
      <trkpt lat="47.18786" lon="-1.75393">
        <ele>73</ele>
        <time>2021-04-18T10:11:51.000Z</time>
      </trkpt>
      <trkpt lat="47.18802" lon="-1.75394">
        <ele>72</ele>
        <time>2021-04-18T10:11:54.000Z</time>
      </trkpt>
      <trkpt lat="47.1882" lon="-1.75395">
        <ele>74</ele>
        <time>2021-04-18T10:11:57.000Z</time>
      </trkpt>
      <trkpt lat="47.18837" lon="-1.75395">
        <ele>74</ele>
        <time>2021-04-18T10:12:00.000Z</time>
      </trkpt>
      <trkpt lat="47.18853" lon="-1.75396">
        <ele>69</ele>
        <time>2021-04-18T10:12:03.000Z</time>
      </trkpt>
      <trkpt lat="47.18867" lon="-1.75398">
        <ele>70</ele>
        <time>2021-04-18T10:12:06.000Z</time>
      </trkpt>
      <trkpt lat="47.18875" lon="-1.75405">
        <ele>70</ele>
        <time>2021-04-18T10:12:10.000Z</time>
      </trkpt>
      <trkpt lat="47.18873" lon="-1.75424">
        <ele>75</ele>
        <time>2021-04-18T10:12:15.000Z</time>
      </trkpt>
      <trkpt lat="47.18873" lon="-1.75441">
        <ele>78</ele>
        <time>2021-04-18T10:12:18.000Z</time>
      </trkpt>
      <trkpt lat="47.18871" lon="-1.75467">
        <ele>79</ele>
        <time>2021-04-18T10:12:22.000Z</time>
      </trkpt>
      <trkpt lat="47.1887" lon="-1.7548">
        <ele>82</ele>
        <time>2021-04-18T10:12:24.000Z</time>
      </trkpt>
      <trkpt lat="47.18869" lon="-1.755">
        <ele>84</ele>
        <time>2021-04-18T10:12:27.000Z</time>
      </trkpt>
      <trkpt lat="47.18868" lon="-1.75514">
        <ele>85</ele>
        <time>2021-04-18T10:12:29.000Z</time>
      </trkpt>
      <trkpt lat="47.18867" lon="-1.75528">
        <ele>87</ele>
        <time>2021-04-18T10:12:31.000Z</time>
      </trkpt>
      <trkpt lat="47.18866" lon="-1.75544">
        <ele>87</ele>
        <time>2021-04-18T10:12:33.000Z</time>
      </trkpt>
      <trkpt lat="47.18864" lon="-1.7556">
        <ele>87</ele>
        <time>2021-04-18T10:12:35.000Z</time>
      </trkpt>
      <trkpt lat="47.18861" lon="-1.75574">
        <ele>86</ele>
        <time>2021-04-18T10:12:37.000Z</time>
      </trkpt>
      <trkpt lat="47.18855" lon="-1.75591">
        <ele>87</ele>
        <time>2021-04-18T10:12:39.000Z</time>
      </trkpt>
      <trkpt lat="47.18853" lon="-1.75606">
        <ele>88</ele>
        <time>2021-04-18T10:12:41.000Z</time>
      </trkpt>
      <trkpt lat="47.1885" lon="-1.7562">
        <ele>87</ele>
        <time>2021-04-18T10:12:43.000Z</time>
      </trkpt>
      <trkpt lat="47.18848" lon="-1.75634">
        <ele>85</ele>
        <time>2021-04-18T10:12:45.000Z</time>
      </trkpt>
      <trkpt lat="47.18846" lon="-1.75649">
        <ele>86</ele>
        <time>2021-04-18T10:12:47.000Z</time>
      </trkpt>
      <trkpt lat="47.18844" lon="-1.75663">
        <ele>86</ele>
        <time>2021-04-18T10:12:49.000Z</time>
      </trkpt>
      <trkpt lat="47.18842" lon="-1.75678">
        <ele>85</ele>
        <time>2021-04-18T10:12:51.000Z</time>
      </trkpt>
      <trkpt lat="47.1884" lon="-1.75693">
        <ele>86</ele>
        <time>2021-04-18T10:12:53.000Z</time>
      </trkpt>
      <trkpt lat="47.18839" lon="-1.75707">
        <ele>86</ele>
        <time>2021-04-18T10:12:55.000Z</time>
      </trkpt>
      <trkpt lat="47.18837" lon="-1.75724">
        <ele>86</ele>
        <time>2021-04-18T10:12:57.000Z</time>
      </trkpt>
      <trkpt lat="47.18833" lon="-1.75741">
        <ele>86</ele>
        <time>2021-04-18T10:12:59.000Z</time>
      </trkpt>
      <trkpt lat="47.18829" lon="-1.75756">
        <ele>85</ele>
        <time>2021-04-18T10:13:01.000Z</time>
      </trkpt>
      <trkpt lat="47.1882" lon="-1.75783">
        <ele>83</ele>
        <time>2021-04-18T10:13:04.000Z</time>
      </trkpt>
      <trkpt lat="47.18817" lon="-1.75799">
        <ele>82</ele>
        <time>2021-04-18T10:13:06.000Z</time>
      </trkpt>
      <trkpt lat="47.18815" lon="-1.75816">
        <ele>81</ele>
        <time>2021-04-18T10:13:08.000Z</time>
      </trkpt>
      <trkpt lat="47.18813" lon="-1.75833">
        <ele>79</ele>
        <time>2021-04-18T10:13:10.000Z</time>
      </trkpt>
      <trkpt lat="47.18813" lon="-1.75848">
        <ele>79</ele>
        <time>2021-04-18T10:13:12.000Z</time>
      </trkpt>
      <trkpt lat="47.18811" lon="-1.75864">
        <ele>77</ele>
        <time>2021-04-18T10:13:14.000Z</time>
      </trkpt>
      <trkpt lat="47.1881" lon="-1.7588">
        <ele>77</ele>
        <time>2021-04-18T10:13:17.000Z</time>
      </trkpt>
      <trkpt lat="47.18802" lon="-1.75895">
        <ele>77</ele>
        <time>2021-04-18T10:13:20.000Z</time>
      </trkpt>
      <trkpt lat="47.18793" lon="-1.75915">
        <ele>76</ele>
        <time>2021-04-18T10:13:23.000Z</time>
      </trkpt>
      <trkpt lat="47.18786" lon="-1.75929">
        <ele>76</ele>
        <time>2021-04-18T10:13:25.000Z</time>
      </trkpt>
      <trkpt lat="47.18779" lon="-1.75946">
        <ele>76</ele>
        <time>2021-04-18T10:13:27.000Z</time>
      </trkpt>
      <trkpt lat="47.18772" lon="-1.75963">
        <ele>75</ele>
        <time>2021-04-18T10:13:29.000Z</time>
      </trkpt>
      <trkpt lat="47.18765" lon="-1.7598">
        <ele>74</ele>
        <time>2021-04-18T10:13:31.000Z</time>
      </trkpt>
      <trkpt lat="47.18757" lon="-1.75994">
        <ele>74</ele>
        <time>2021-04-18T10:13:33.000Z</time>
      </trkpt>
      <trkpt lat="47.18751" lon="-1.76009">
        <ele>75</ele>
        <time>2021-04-18T10:13:35.000Z</time>
      </trkpt>
      <trkpt lat="47.18743" lon="-1.76027">
        <ele>75</ele>
        <time>2021-04-18T10:13:37.000Z</time>
      </trkpt>
      <trkpt lat="47.18732" lon="-1.76055">
        <ele>73</ele>
        <time>2021-04-18T10:13:40.000Z</time>
      </trkpt>
      <trkpt lat="47.18722" lon="-1.76072">
        <ele>70</ele>
        <time>2021-04-18T10:13:42.000Z</time>
      </trkpt>
      <trkpt lat="47.18715" lon="-1.76089">
        <ele>70</ele>
        <time>2021-04-18T10:13:44.000Z</time>
      </trkpt>
      <trkpt lat="47.18708" lon="-1.76109">
        <ele>69</ele>
        <time>2021-04-18T10:13:46.000Z</time>
      </trkpt>
      <trkpt lat="47.18701" lon="-1.76128">
        <ele>69</ele>
        <time>2021-04-18T10:13:48.000Z</time>
      </trkpt>
      <trkpt lat="47.18693" lon="-1.76147">
        <ele>69</ele>
        <time>2021-04-18T10:13:50.000Z</time>
      </trkpt>
      <trkpt lat="47.18686" lon="-1.76165">
        <ele>69</ele>
        <time>2021-04-18T10:13:52.000Z</time>
      </trkpt>
      <trkpt lat="47.18673" lon="-1.76201">
        <ele>68</ele>
        <time>2021-04-18T10:13:56.000Z</time>
      </trkpt>
      <trkpt lat="47.18665" lon="-1.76219">
        <ele>66</ele>
        <time>2021-04-18T10:13:58.000Z</time>
      </trkpt>
      <trkpt lat="47.1866" lon="-1.76237">
        <ele>67</ele>
        <time>2021-04-18T10:14:00.000Z</time>
      </trkpt>
      <trkpt lat="47.18651" lon="-1.76252">
        <ele>68</ele>
        <time>2021-04-18T10:14:02.000Z</time>
      </trkpt>
      <trkpt lat="47.18643" lon="-1.76267">
        <ele>67</ele>
        <time>2021-04-18T10:14:04.000Z</time>
      </trkpt>
      <trkpt lat="47.1864" lon="-1.7628">
        <ele>67</ele>
        <time>2021-04-18T10:14:06.000Z</time>
      </trkpt>
      <trkpt lat="47.18634" lon="-1.76294">
        <ele>70</ele>
        <time>2021-04-18T10:14:08.000Z</time>
      </trkpt>
      <trkpt lat="47.18629" lon="-1.76309">
        <ele>72</ele>
        <time>2021-04-18T10:14:10.000Z</time>
      </trkpt>
      <trkpt lat="47.18622" lon="-1.76327">
        <ele>71</ele>
        <time>2021-04-18T10:14:12.000Z</time>
      </trkpt>
      <trkpt lat="47.18616" lon="-1.76342">
        <ele>72</ele>
        <time>2021-04-18T10:14:14.000Z</time>
      </trkpt>
      <trkpt lat="47.18605" lon="-1.7636">
        <ele>74</ele>
        <time>2021-04-18T10:14:17.000Z</time>
      </trkpt>
      <trkpt lat="47.18599" lon="-1.76371">
        <ele>75</ele>
        <time>2021-04-18T10:14:19.000Z</time>
      </trkpt>
      <trkpt lat="47.18592" lon="-1.7638">
        <ele>75</ele>
        <time>2021-04-18T10:14:21.000Z</time>
      </trkpt>
      <trkpt lat="47.18585" lon="-1.7639">
        <ele>75</ele>
        <time>2021-04-18T10:14:25.000Z</time>
      </trkpt>
      <trkpt lat="47.1858" lon="-1.76403">
        <ele>74</ele>
        <time>2021-04-18T10:14:28.000Z</time>
      </trkpt>
      <trkpt lat="47.1858" lon="-1.76419">
        <ele>75</ele>
        <time>2021-04-18T10:14:34.000Z</time>
      </trkpt>
      <trkpt lat="47.18573" lon="-1.7641">
        <ele>65</ele>
        <time>2021-04-18T10:14:55.000Z</time>
      </trkpt>
      <trkpt lat="47.18581" lon="-1.76415">
        <ele>67</ele>
        <time>2021-04-18T10:15:39.000Z</time>
      </trkpt>
      <trkpt lat="47.18575" lon="-1.76406">
        <ele>67</ele>
        <time>2021-04-18T10:16:16.000Z</time>
      </trkpt>
      <trkpt lat="47.18573" lon="-1.76421">
        <ele>67</ele>
        <time>2021-04-18T10:19:22.000Z</time>
      </trkpt>
      <trkpt lat="47.18564" lon="-1.76424">
        <ele>67</ele>
        <time>2021-04-18T10:19:35.000Z</time>
      </trkpt>
      <trkpt lat="47.18555" lon="-1.76426">
        <ele>66</ele>
        <time>2021-04-18T10:19:53.000Z</time>
      </trkpt>
      <trkpt lat="47.18547" lon="-1.7642">
        <ele>66</ele>
        <time>2021-04-18T10:20:51.000Z</time>
      </trkpt>
      <trkpt lat="47.18542" lon="-1.76408">
        <ele>62</ele>
        <time>2021-04-18T10:23:52.000Z</time>
      </trkpt>
      <trkpt lat="47.18549" lon="-1.76417">
        <ele>60</ele>
        <time>2021-04-18T10:25:25.000Z</time>
      </trkpt>
      <trkpt lat="47.18539" lon="-1.76419">
        <ele>62</ele>
        <time>2021-04-18T10:25:54.000Z</time>
      </trkpt>
      <trkpt lat="47.1855" lon="-1.7642">
        <ele>58</ele>
        <time>2021-04-18T10:27:57.000Z</time>
      </trkpt>
      <trkpt lat="47.18559" lon="-1.76426">
        <ele>61</ele>
        <time>2021-04-18T10:30:12.000Z</time>
      </trkpt>
      <trkpt lat="47.18569" lon="-1.76421">
        <ele>60</ele>
        <time>2021-04-18T10:30:29.000Z</time>
      </trkpt>
      <trkpt lat="47.18573" lon="-1.76407">
        <ele>65</ele>
        <time>2021-04-18T10:33:58.000Z</time>
      </trkpt>
      <trkpt lat="47.18579" lon="-1.76396">
        <ele>67</ele>
        <time>2021-04-18T10:34:03.000Z</time>
      </trkpt>
      <trkpt lat="47.18588" lon="-1.76387">
        <ele>70</ele>
        <time>2021-04-18T10:34:09.000Z</time>
      </trkpt>
      <trkpt lat="47.18596" lon="-1.76398">
        <ele>70</ele>
        <time>2021-04-18T10:34:13.000Z</time>
      </trkpt>
      <trkpt lat="47.18606" lon="-1.76401">
        <ele>71</ele>
        <time>2021-04-18T10:34:17.000Z</time>
      </trkpt>
      <trkpt lat="47.18617" lon="-1.764">
        <ele>73</ele>
        <time>2021-04-18T10:34:21.000Z</time>
      </trkpt>
      <trkpt lat="47.18626" lon="-1.76405">
        <ele>73</ele>
        <time>2021-04-18T10:34:24.000Z</time>
      </trkpt>
      <trkpt lat="47.18635" lon="-1.76411">
        <ele>74</ele>
        <time>2021-04-18T10:34:27.000Z</time>
      </trkpt>
      <trkpt lat="47.18644" lon="-1.76418">
        <ele>75</ele>
        <time>2021-04-18T10:34:31.000Z</time>
      </trkpt>
      <trkpt lat="47.18655" lon="-1.76425">
        <ele>75</ele>
        <time>2021-04-18T10:34:34.000Z</time>
      </trkpt>
      <trkpt lat="47.18666" lon="-1.76431">
        <ele>76</ele>
        <time>2021-04-18T10:34:37.000Z</time>
      </trkpt>
      <trkpt lat="47.18677" lon="-1.76437">
        <ele>77</ele>
        <time>2021-04-18T10:34:40.000Z</time>
      </trkpt>
      <trkpt lat="47.18687" lon="-1.76443">
        <ele>78</ele>
        <time>2021-04-18T10:34:43.000Z</time>
      </trkpt>
      <trkpt lat="47.18698" lon="-1.76449">
        <ele>78</ele>
        <time>2021-04-18T10:34:46.000Z</time>
      </trkpt>
      <trkpt lat="47.18708" lon="-1.76452">
        <ele>79</ele>
        <time>2021-04-18T10:34:49.000Z</time>
      </trkpt>
      <trkpt lat="47.18719" lon="-1.76457">
        <ele>79</ele>
        <time>2021-04-18T10:34:52.000Z</time>
      </trkpt>
      <trkpt lat="47.18733" lon="-1.76466">
        <ele>78</ele>
        <time>2021-04-18T10:34:56.000Z</time>
      </trkpt>
      <trkpt lat="47.18744" lon="-1.76473">
        <ele>76</ele>
        <time>2021-04-18T10:34:59.000Z</time>
      </trkpt>
      <trkpt lat="47.18759" lon="-1.76481">
        <ele>73</ele>
        <time>2021-04-18T10:35:03.000Z</time>
      </trkpt>
      <trkpt lat="47.1877" lon="-1.76489">
        <ele>72</ele>
        <time>2021-04-18T10:35:06.000Z</time>
      </trkpt>
      <trkpt lat="47.1878" lon="-1.76495">
        <ele>72</ele>
        <time>2021-04-18T10:35:09.000Z</time>
      </trkpt>
      <trkpt lat="47.1879" lon="-1.76499">
        <ele>73</ele>
        <time>2021-04-18T10:35:12.000Z</time>
      </trkpt>
      <trkpt lat="47.188" lon="-1.76504">
        <ele>72</ele>
        <time>2021-04-18T10:35:16.000Z</time>
      </trkpt>
      <trkpt lat="47.18807" lon="-1.76512">
        <ele>72</ele>
        <time>2021-04-18T10:35:19.000Z</time>
      </trkpt>
      <trkpt lat="47.18813" lon="-1.7653">
        <ele>70</ele>
        <time>2021-04-18T10:35:22.000Z</time>
      </trkpt>
      <trkpt lat="47.18819" lon="-1.76547">
        <ele>69</ele>
        <time>2021-04-18T10:35:25.000Z</time>
      </trkpt>
      <trkpt lat="47.18824" lon="-1.76563">
        <ele>70</ele>
        <time>2021-04-18T10:35:28.000Z</time>
      </trkpt>
      <trkpt lat="47.18829" lon="-1.76579">
        <ele>70</ele>
        <time>2021-04-18T10:35:31.000Z</time>
      </trkpt>
      <trkpt lat="47.18832" lon="-1.76593">
        <ele>69</ele>
        <time>2021-04-18T10:35:33.000Z</time>
      </trkpt>
      <trkpt lat="47.18837" lon="-1.7661">
        <ele>69</ele>
        <time>2021-04-18T10:35:36.000Z</time>
      </trkpt>
      <trkpt lat="47.18845" lon="-1.76625">
        <ele>69</ele>
        <time>2021-04-18T10:35:39.000Z</time>
      </trkpt>
      <trkpt lat="47.18852" lon="-1.76637">
        <ele>71</ele>
        <time>2021-04-18T10:35:42.000Z</time>
      </trkpt>
      <trkpt lat="47.18857" lon="-1.76649">
        <ele>72</ele>
        <time>2021-04-18T10:35:45.000Z</time>
      </trkpt>
      <trkpt lat="47.18864" lon="-1.76664">
        <ele>73</ele>
        <time>2021-04-18T10:35:48.000Z</time>
      </trkpt>
      <trkpt lat="47.18875" lon="-1.76673">
        <ele>83</ele>
        <time>2021-04-18T10:35:52.000Z</time>
      </trkpt>
      <trkpt lat="47.18884" lon="-1.76682">
        <ele>89</ele>
        <time>2021-04-18T10:35:55.000Z</time>
      </trkpt>
      <trkpt lat="47.18893" lon="-1.76692">
        <ele>91</ele>
        <time>2021-04-18T10:35:58.000Z</time>
      </trkpt>
      <trkpt lat="47.18901" lon="-1.76702">
        <ele>94</ele>
        <time>2021-04-18T10:36:01.000Z</time>
      </trkpt>
      <trkpt lat="47.18908" lon="-1.76711">
        <ele>95</ele>
        <time>2021-04-18T10:36:03.000Z</time>
      </trkpt>
      <trkpt lat="47.18919" lon="-1.76728">
        <ele>91</ele>
        <time>2021-04-18T10:36:06.000Z</time>
      </trkpt>
      <trkpt lat="47.18931" lon="-1.76743">
        <ele>87</ele>
        <time>2021-04-18T10:36:09.000Z</time>
      </trkpt>
      <trkpt lat="47.18942" lon="-1.76755">
        <ele>83</ele>
        <time>2021-04-18T10:36:12.000Z</time>
      </trkpt>
      <trkpt lat="47.18953" lon="-1.76769">
        <ele>83</ele>
        <time>2021-04-18T10:36:15.000Z</time>
      </trkpt>
      <trkpt lat="47.18965" lon="-1.76784">
        <ele>81</ele>
        <time>2021-04-18T10:36:18.000Z</time>
      </trkpt>
      <trkpt lat="47.18987" lon="-1.7679">
        <ele>79</ele>
        <time>2021-04-18T10:36:22.000Z</time>
      </trkpt>
      <trkpt lat="47.18996" lon="-1.76795">
        <ele>79</ele>
        <time>2021-04-18T10:36:24.000Z</time>
      </trkpt>
      <trkpt lat="47.19007" lon="-1.768">
        <ele>77</ele>
        <time>2021-04-18T10:36:27.000Z</time>
      </trkpt>
      <trkpt lat="47.19018" lon="-1.76806">
        <ele>78</ele>
        <time>2021-04-18T10:36:30.000Z</time>
      </trkpt>
      <trkpt lat="47.19027" lon="-1.76814">
        <ele>80</ele>
        <time>2021-04-18T10:36:32.000Z</time>
      </trkpt>
      <trkpt lat="47.19035" lon="-1.76821">
        <ele>81</ele>
        <time>2021-04-18T10:36:34.000Z</time>
      </trkpt>
      <trkpt lat="47.19047" lon="-1.76826">
        <ele>83</ele>
        <time>2021-04-18T10:36:37.000Z</time>
      </trkpt>
      <trkpt lat="47.19056" lon="-1.7683">
        <ele>80</ele>
        <time>2021-04-18T10:36:43.000Z</time>
      </trkpt>
      <trkpt lat="47.19067" lon="-1.76834">
        <ele>71</ele>
        <time>2021-04-18T10:36:55.000Z</time>
      </trkpt>
      <trkpt lat="47.19078" lon="-1.76841">
        <ele>71</ele>
        <time>2021-04-18T10:36:58.000Z</time>
      </trkpt>
      <trkpt lat="47.19086" lon="-1.7685">
        <ele>71</ele>
        <time>2021-04-18T10:37:01.000Z</time>
      </trkpt>
      <trkpt lat="47.19096" lon="-1.76861">
        <ele>70</ele>
        <time>2021-04-18T10:37:04.000Z</time>
      </trkpt>
      <trkpt lat="47.19105" lon="-1.7687">
        <ele>70</ele>
        <time>2021-04-18T10:37:06.000Z</time>
      </trkpt>
      <trkpt lat="47.19116" lon="-1.7688">
        <ele>69</ele>
        <time>2021-04-18T10:37:09.000Z</time>
      </trkpt>
      <trkpt lat="47.19126" lon="-1.76892">
        <ele>70</ele>
        <time>2021-04-18T10:37:15.000Z</time>
      </trkpt>
      <trkpt lat="47.1913" lon="-1.76906">
        <ele>70</ele>
        <time>2021-04-18T10:37:18.000Z</time>
      </trkpt>
      <trkpt lat="47.19135" lon="-1.76922">
        <ele>69</ele>
        <time>2021-04-18T10:37:21.000Z</time>
      </trkpt>
      <trkpt lat="47.19139" lon="-1.76941">
        <ele>65</ele>
        <time>2021-04-18T10:37:24.000Z</time>
      </trkpt>
      <trkpt lat="47.19145" lon="-1.76952">
        <ele>64</ele>
        <time>2021-04-18T10:37:26.000Z</time>
      </trkpt>
      <trkpt lat="47.19157" lon="-1.76971">
        <ele>65</ele>
        <time>2021-04-18T10:37:30.000Z</time>
      </trkpt>
      <trkpt lat="47.19162" lon="-1.76992">
        <ele>67</ele>
        <time>2021-04-18T10:37:33.000Z</time>
      </trkpt>
      <trkpt lat="47.19159" lon="-1.77011">
        <ele>70</ele>
        <time>2021-04-18T10:37:36.000Z</time>
      </trkpt>
      <trkpt lat="47.19171" lon="-1.77022">
        <ele>68</ele>
        <time>2021-04-18T10:37:39.000Z</time>
      </trkpt>
      <trkpt lat="47.19179" lon="-1.77031">
        <ele>68</ele>
        <time>2021-04-18T10:37:40.000Z</time>
      </trkpt>
      <trkpt lat="47.19186" lon="-1.7704">
        <ele>68</ele>
        <time>2021-04-18T10:37:41.000Z</time>
      </trkpt>
      <trkpt lat="47.19194" lon="-1.77056">
        <ele>69</ele>
        <time>2021-04-18T10:37:43.000Z</time>
      </trkpt>
      <trkpt lat="47.19197" lon="-1.77071">
        <ele>67</ele>
        <time>2021-04-18T10:37:45.000Z</time>
      </trkpt>
      <trkpt lat="47.19201" lon="-1.77088">
        <ele>65</ele>
        <time>2021-04-18T10:37:47.000Z</time>
      </trkpt>
      <trkpt lat="47.19206" lon="-1.77102">
        <ele>64</ele>
        <time>2021-04-18T10:37:49.000Z</time>
      </trkpt>
      <trkpt lat="47.19212" lon="-1.77117">
        <ele>63</ele>
        <time>2021-04-18T10:37:51.000Z</time>
      </trkpt>
      <trkpt lat="47.1922" lon="-1.77139">
        <ele>63</ele>
        <time>2021-04-18T10:37:54.000Z</time>
      </trkpt>
      <trkpt lat="47.19226" lon="-1.77153">
        <ele>62</ele>
        <time>2021-04-18T10:37:56.000Z</time>
      </trkpt>
      <trkpt lat="47.19233" lon="-1.77168">
        <ele>62</ele>
        <time>2021-04-18T10:37:58.000Z</time>
      </trkpt>
      <trkpt lat="47.19239" lon="-1.77182">
        <ele>62</ele>
        <time>2021-04-18T10:38:00.000Z</time>
      </trkpt>
      <trkpt lat="47.19245" lon="-1.77211">
        <ele>60</ele>
        <time>2021-04-18T10:38:03.000Z</time>
      </trkpt>
      <trkpt lat="47.19251" lon="-1.77227">
        <ele>61</ele>
        <time>2021-04-18T10:38:05.000Z</time>
      </trkpt>
      <trkpt lat="47.19258" lon="-1.77241">
        <ele>63</ele>
        <time>2021-04-18T10:38:07.000Z</time>
      </trkpt>
      <trkpt lat="47.19269" lon="-1.77251">
        <ele>65</ele>
        <time>2021-04-18T10:38:09.000Z</time>
      </trkpt>
      <trkpt lat="47.19288" lon="-1.7726">
        <ele>64</ele>
        <time>2021-04-18T10:38:12.000Z</time>
      </trkpt>
      <trkpt lat="47.19299" lon="-1.77264">
        <ele>65</ele>
        <time>2021-04-18T10:38:14.000Z</time>
      </trkpt>
      <trkpt lat="47.1931" lon="-1.77271">
        <ele>66</ele>
        <time>2021-04-18T10:38:16.000Z</time>
      </trkpt>
      <trkpt lat="47.19319" lon="-1.77281">
        <ele>70</ele>
        <time>2021-04-18T10:38:18.000Z</time>
      </trkpt>
      <trkpt lat="47.19333" lon="-1.77306">
        <ele>68</ele>
        <time>2021-04-18T10:38:21.000Z</time>
      </trkpt>
      <trkpt lat="47.1934" lon="-1.77324">
        <ele>65</ele>
        <time>2021-04-18T10:38:23.000Z</time>
      </trkpt>
      <trkpt lat="47.19349" lon="-1.7734">
        <ele>64</ele>
        <time>2021-04-18T10:38:25.000Z</time>
      </trkpt>
      <trkpt lat="47.19358" lon="-1.77356">
        <ele>64</ele>
        <time>2021-04-18T10:38:27.000Z</time>
      </trkpt>
      <trkpt lat="47.19371" lon="-1.7738">
        <ele>62</ele>
        <time>2021-04-18T10:38:30.000Z</time>
      </trkpt>
      <trkpt lat="47.1938" lon="-1.77396">
        <ele>61</ele>
        <time>2021-04-18T10:38:32.000Z</time>
      </trkpt>
      <trkpt lat="47.19389" lon="-1.77412">
        <ele>60</ele>
        <time>2021-04-18T10:38:34.000Z</time>
      </trkpt>
      <trkpt lat="47.19398" lon="-1.77427">
        <ele>60</ele>
        <time>2021-04-18T10:38:36.000Z</time>
      </trkpt>
      <trkpt lat="47.19411" lon="-1.7745">
        <ele>60</ele>
        <time>2021-04-18T10:38:39.000Z</time>
      </trkpt>
      <trkpt lat="47.19425" lon="-1.77473">
        <ele>59</ele>
        <time>2021-04-18T10:38:42.000Z</time>
      </trkpt>
      <trkpt lat="47.19437" lon="-1.77493">
        <ele>59</ele>
        <time>2021-04-18T10:38:45.000Z</time>
      </trkpt>
      <trkpt lat="47.1945" lon="-1.77516">
        <ele>59</ele>
        <time>2021-04-18T10:38:48.000Z</time>
      </trkpt>
      <trkpt lat="47.19459" lon="-1.77533">
        <ele>59</ele>
        <time>2021-04-18T10:38:50.000Z</time>
      </trkpt>
      <trkpt lat="47.19469" lon="-1.7755">
        <ele>58</ele>
        <time>2021-04-18T10:38:52.000Z</time>
      </trkpt>
      <trkpt lat="47.19478" lon="-1.77563">
        <ele>59</ele>
        <time>2021-04-18T10:38:54.000Z</time>
      </trkpt>
      <trkpt lat="47.19491" lon="-1.77587">
        <ele>60</ele>
        <time>2021-04-18T10:38:57.000Z</time>
      </trkpt>
      <trkpt lat="47.19508" lon="-1.77612">
        <ele>58</ele>
        <time>2021-04-18T10:39:00.000Z</time>
      </trkpt>
      <trkpt lat="47.19521" lon="-1.77625">
        <ele>58</ele>
        <time>2021-04-18T10:39:02.000Z</time>
      </trkpt>
      <trkpt lat="47.19534" lon="-1.77635">
        <ele>57</ele>
        <time>2021-04-18T10:39:04.000Z</time>
      </trkpt>
      <trkpt lat="47.19546" lon="-1.77642">
        <ele>57</ele>
        <time>2021-04-18T10:39:06.000Z</time>
      </trkpt>
      <trkpt lat="47.19559" lon="-1.77645">
        <ele>57</ele>
        <time>2021-04-18T10:39:08.000Z</time>
      </trkpt>
      <trkpt lat="47.19571" lon="-1.77647">
        <ele>57</ele>
        <time>2021-04-18T10:39:10.000Z</time>
      </trkpt>
      <trkpt lat="47.19582" lon="-1.7765">
        <ele>57</ele>
        <time>2021-04-18T10:39:12.000Z</time>
      </trkpt>
      <trkpt lat="47.19594" lon="-1.77654">
        <ele>56</ele>
        <time>2021-04-18T10:39:14.000Z</time>
      </trkpt>
      <trkpt lat="47.19603" lon="-1.77657">
        <ele>55</ele>
        <time>2021-04-18T10:39:16.000Z</time>
      </trkpt>
      <trkpt lat="47.19616" lon="-1.77673">
        <ele>55</ele>
        <time>2021-04-18T10:39:19.000Z</time>
      </trkpt>
      <trkpt lat="47.19625" lon="-1.77692">
        <ele>55</ele>
        <time>2021-04-18T10:39:22.000Z</time>
      </trkpt>
      <trkpt lat="47.19632" lon="-1.77713">
        <ele>55</ele>
        <time>2021-04-18T10:39:25.000Z</time>
      </trkpt>
      <trkpt lat="47.19638" lon="-1.77732">
        <ele>52</ele>
        <time>2021-04-18T10:39:28.000Z</time>
      </trkpt>
      <trkpt lat="47.19643" lon="-1.77748">
        <ele>53</ele>
        <time>2021-04-18T10:39:30.000Z</time>
      </trkpt>
      <trkpt lat="47.19648" lon="-1.77767">
        <ele>53</ele>
        <time>2021-04-18T10:39:33.000Z</time>
      </trkpt>
      <trkpt lat="47.19656" lon="-1.77779">
        <ele>54</ele>
        <time>2021-04-18T10:39:35.000Z</time>
      </trkpt>
      <trkpt lat="47.19659" lon="-1.77793">
        <ele>54</ele>
        <time>2021-04-18T10:39:37.000Z</time>
      </trkpt>
      <trkpt lat="47.1966" lon="-1.77812">
        <ele>54</ele>
        <time>2021-04-18T10:39:40.000Z</time>
      </trkpt>
      <trkpt lat="47.19662" lon="-1.77826">
        <ele>55</ele>
        <time>2021-04-18T10:39:42.000Z</time>
      </trkpt>
      <trkpt lat="47.19665" lon="-1.77845">
        <ele>56</ele>
        <time>2021-04-18T10:39:45.000Z</time>
      </trkpt>
      <trkpt lat="47.19669" lon="-1.77862">
        <ele>57</ele>
        <time>2021-04-18T10:39:48.000Z</time>
      </trkpt>
      <trkpt lat="47.19675" lon="-1.77882">
        <ele>57</ele>
        <time>2021-04-18T10:39:51.000Z</time>
      </trkpt>
      <trkpt lat="47.19682" lon="-1.77898">
        <ele>58</ele>
        <time>2021-04-18T10:39:54.000Z</time>
      </trkpt>
      <trkpt lat="47.19689" lon="-1.77916">
        <ele>59</ele>
        <time>2021-04-18T10:39:57.000Z</time>
      </trkpt>
      <trkpt lat="47.19698" lon="-1.77934">
        <ele>59</ele>
        <time>2021-04-18T10:40:00.000Z</time>
      </trkpt>
      <trkpt lat="47.19706" lon="-1.77951">
        <ele>59</ele>
        <time>2021-04-18T10:40:03.000Z</time>
      </trkpt>
      <trkpt lat="47.19714" lon="-1.77969">
        <ele>59</ele>
        <time>2021-04-18T10:40:06.000Z</time>
      </trkpt>
      <trkpt lat="47.19723" lon="-1.77986">
        <ele>58</ele>
        <time>2021-04-18T10:40:09.000Z</time>
      </trkpt>
      <trkpt lat="47.19731" lon="-1.78005">
        <ele>59</ele>
        <time>2021-04-18T10:40:12.000Z</time>
      </trkpt>
      <trkpt lat="47.19736" lon="-1.78016">
        <ele>59</ele>
        <time>2021-04-18T10:40:14.000Z</time>
      </trkpt>
      <trkpt lat="47.19743" lon="-1.78029">
        <ele>59</ele>
        <time>2021-04-18T10:40:16.000Z</time>
      </trkpt>
      <trkpt lat="47.19746" lon="-1.78044">
        <ele>60</ele>
        <time>2021-04-18T10:40:18.000Z</time>
      </trkpt>
      <trkpt lat="47.19751" lon="-1.78062">
        <ele>59</ele>
        <time>2021-04-18T10:40:21.000Z</time>
      </trkpt>
      <trkpt lat="47.19756" lon="-1.78077">
        <ele>59</ele>
        <time>2021-04-18T10:40:24.000Z</time>
      </trkpt>
      <trkpt lat="47.19763" lon="-1.78087">
        <ele>60</ele>
        <time>2021-04-18T10:40:28.000Z</time>
      </trkpt>
      <trkpt lat="47.19771" lon="-1.7808">
        <ele>55</ele>
        <time>2021-04-18T10:40:55.000Z</time>
      </trkpt>
      <trkpt lat="47.19777" lon="-1.78069">
        <ele>56</ele>
        <time>2021-04-18T10:40:59.000Z</time>
      </trkpt>
      <trkpt lat="47.19784" lon="-1.78057">
        <ele>57</ele>
        <time>2021-04-18T10:41:02.000Z</time>
      </trkpt>
      <trkpt lat="47.1979" lon="-1.78041">
        <ele>57</ele>
        <time>2021-04-18T10:41:05.000Z</time>
      </trkpt>
      <trkpt lat="47.19798" lon="-1.78031">
        <ele>56</ele>
        <time>2021-04-18T10:41:07.000Z</time>
      </trkpt>
      <trkpt lat="47.19805" lon="-1.78021">
        <ele>56</ele>
        <time>2021-04-18T10:41:09.000Z</time>
      </trkpt>
      <trkpt lat="47.19816" lon="-1.77996">
        <ele>57</ele>
        <time>2021-04-18T10:41:13.000Z</time>
      </trkpt>
      <trkpt lat="47.19825" lon="-1.77985">
        <ele>57</ele>
        <time>2021-04-18T10:41:15.000Z</time>
      </trkpt>
      <trkpt lat="47.19832" lon="-1.77975">
        <ele>57</ele>
        <time>2021-04-18T10:41:17.000Z</time>
      </trkpt>
      <trkpt lat="47.1984" lon="-1.77964">
        <ele>56</ele>
        <time>2021-04-18T10:41:19.000Z</time>
      </trkpt>
      <trkpt lat="47.1985" lon="-1.77947">
        <ele>57</ele>
        <time>2021-04-18T10:41:22.000Z</time>
      </trkpt>
      <trkpt lat="47.19857" lon="-1.77936">
        <ele>57</ele>
        <time>2021-04-18T10:41:24.000Z</time>
      </trkpt>
      <trkpt lat="47.19864" lon="-1.77925">
        <ele>57</ele>
        <time>2021-04-18T10:41:26.000Z</time>
      </trkpt>
      <trkpt lat="47.19871" lon="-1.77915">
        <ele>55</ele>
        <time>2021-04-18T10:41:28.000Z</time>
      </trkpt>
      <trkpt lat="47.1988" lon="-1.77903">
        <ele>55</ele>
        <time>2021-04-18T10:41:30.000Z</time>
      </trkpt>
      <trkpt lat="47.19889" lon="-1.77892">
        <ele>55</ele>
        <time>2021-04-18T10:41:32.000Z</time>
      </trkpt>
      <trkpt lat="47.19898" lon="-1.7788">
        <ele>55</ele>
        <time>2021-04-18T10:41:34.000Z</time>
      </trkpt>
      <trkpt lat="47.19908" lon="-1.7787">
        <ele>55</ele>
        <time>2021-04-18T10:41:36.000Z</time>
      </trkpt>
      <trkpt lat="47.19924" lon="-1.77853">
        <ele>55</ele>
        <time>2021-04-18T10:41:39.000Z</time>
      </trkpt>
      <trkpt lat="47.19935" lon="-1.77842">
        <ele>55</ele>
        <time>2021-04-18T10:41:41.000Z</time>
      </trkpt>
      <trkpt lat="47.19946" lon="-1.77831">
        <ele>55</ele>
        <time>2021-04-18T10:41:43.000Z</time>
      </trkpt>
      <trkpt lat="47.19957" lon="-1.7782">
        <ele>56</ele>
        <time>2021-04-18T10:41:45.000Z</time>
      </trkpt>
      <trkpt lat="47.19968" lon="-1.77809">
        <ele>55</ele>
        <time>2021-04-18T10:41:47.000Z</time>
      </trkpt>
      <trkpt lat="47.1998" lon="-1.77799">
        <ele>56</ele>
        <time>2021-04-18T10:41:49.000Z</time>
      </trkpt>
      <trkpt lat="47.19989" lon="-1.77787">
        <ele>57</ele>
        <time>2021-04-18T10:41:51.000Z</time>
      </trkpt>
      <trkpt lat="47.19999" lon="-1.77776">
        <ele>57</ele>
        <time>2021-04-18T10:41:53.000Z</time>
      </trkpt>
      <trkpt lat="47.20006" lon="-1.77764">
        <ele>58</ele>
        <time>2021-04-18T10:41:55.000Z</time>
      </trkpt>
      <trkpt lat="47.20014" lon="-1.77753">
        <ele>58</ele>
        <time>2021-04-18T10:41:57.000Z</time>
      </trkpt>
      <trkpt lat="47.2003" lon="-1.77759">
        <ele>58</ele>
        <time>2021-04-18T10:42:00.000Z</time>
      </trkpt>
      <trkpt lat="47.20042" lon="-1.77769">
        <ele>56</ele>
        <time>2021-04-18T10:42:02.000Z</time>
      </trkpt>
      <trkpt lat="47.20054" lon="-1.77771">
        <ele>56</ele>
        <time>2021-04-18T10:42:04.000Z</time>
      </trkpt>
      <trkpt lat="47.20066" lon="-1.77771">
        <ele>56</ele>
        <time>2021-04-18T10:42:07.000Z</time>
      </trkpt>
      <trkpt lat="47.20079" lon="-1.77771">
        <ele>56</ele>
        <time>2021-04-18T10:42:09.000Z</time>
      </trkpt>
      <trkpt lat="47.20089" lon="-1.77771">
        <ele>57</ele>
        <time>2021-04-18T10:42:11.000Z</time>
      </trkpt>
      <trkpt lat="47.20099" lon="-1.77771">
        <ele>58</ele>
        <time>2021-04-18T10:42:13.000Z</time>
      </trkpt>
      <trkpt lat="47.2011" lon="-1.77772">
        <ele>58</ele>
        <time>2021-04-18T10:42:15.000Z</time>
      </trkpt>
      <trkpt lat="47.20119" lon="-1.77777">
        <ele>58</ele>
        <time>2021-04-18T10:42:17.000Z</time>
      </trkpt>
      <trkpt lat="47.20126" lon="-1.77788">
        <ele>58</ele>
        <time>2021-04-18T10:42:19.000Z</time>
      </trkpt>
      <trkpt lat="47.20131" lon="-1.77801">
        <ele>58</ele>
        <time>2021-04-18T10:42:21.000Z</time>
      </trkpt>
      <trkpt lat="47.20135" lon="-1.77814">
        <ele>58</ele>
        <time>2021-04-18T10:42:23.000Z</time>
      </trkpt>
      <trkpt lat="47.20139" lon="-1.77826">
        <ele>58</ele>
        <time>2021-04-18T10:42:25.000Z</time>
      </trkpt>
      <trkpt lat="47.20147" lon="-1.77845">
        <ele>59</ele>
        <time>2021-04-18T10:42:28.000Z</time>
      </trkpt>
      <trkpt lat="47.20151" lon="-1.77858">
        <ele>59</ele>
        <time>2021-04-18T10:42:30.000Z</time>
      </trkpt>
      <trkpt lat="47.20154" lon="-1.77871">
        <ele>60</ele>
        <time>2021-04-18T10:42:32.000Z</time>
      </trkpt>
      <trkpt lat="47.20158" lon="-1.77883">
        <ele>60</ele>
        <time>2021-04-18T10:42:34.000Z</time>
      </trkpt>
      <trkpt lat="47.20163" lon="-1.77897">
        <ele>61</ele>
        <time>2021-04-18T10:42:36.000Z</time>
      </trkpt>
      <trkpt lat="47.20166" lon="-1.77911">
        <ele>61</ele>
        <time>2021-04-18T10:42:38.000Z</time>
      </trkpt>
      <trkpt lat="47.20171" lon="-1.77927">
        <ele>60</ele>
        <time>2021-04-18T10:42:40.000Z</time>
      </trkpt>
      <trkpt lat="47.20177" lon="-1.77943">
        <ele>60</ele>
        <time>2021-04-18T10:42:42.000Z</time>
      </trkpt>
      <trkpt lat="47.20185" lon="-1.77968">
        <ele>59</ele>
        <time>2021-04-18T10:42:45.000Z</time>
      </trkpt>
      <trkpt lat="47.20194" lon="-1.77993">
        <ele>58</ele>
        <time>2021-04-18T10:42:48.000Z</time>
      </trkpt>
      <trkpt lat="47.20203" lon="-1.78016">
        <ele>57</ele>
        <time>2021-04-18T10:42:51.000Z</time>
      </trkpt>
      <trkpt lat="47.20215" lon="-1.7804">
        <ele>57</ele>
        <time>2021-04-18T10:42:54.000Z</time>
      </trkpt>
      <trkpt lat="47.20222" lon="-1.78056">
        <ele>57</ele>
        <time>2021-04-18T10:42:56.000Z</time>
      </trkpt>
      <trkpt lat="47.2023" lon="-1.78073">
        <ele>57</ele>
        <time>2021-04-18T10:42:58.000Z</time>
      </trkpt>
      <trkpt lat="47.20239" lon="-1.7809">
        <ele>56</ele>
        <time>2021-04-18T10:43:00.000Z</time>
      </trkpt>
      <trkpt lat="47.20247" lon="-1.78106">
        <ele>56</ele>
        <time>2021-04-18T10:43:02.000Z</time>
      </trkpt>
      <trkpt lat="47.20257" lon="-1.78123">
        <ele>56</ele>
        <time>2021-04-18T10:43:04.000Z</time>
      </trkpt>
      <trkpt lat="47.20267" lon="-1.7814">
        <ele>55</ele>
        <time>2021-04-18T10:43:06.000Z</time>
      </trkpt>
      <trkpt lat="47.20276" lon="-1.78157">
        <ele>54</ele>
        <time>2021-04-18T10:43:08.000Z</time>
      </trkpt>
      <trkpt lat="47.20286" lon="-1.78173">
        <ele>54</ele>
        <time>2021-04-18T10:43:10.000Z</time>
      </trkpt>
      <trkpt lat="47.20297" lon="-1.78189">
        <ele>53</ele>
        <time>2021-04-18T10:43:12.000Z</time>
      </trkpt>
      <trkpt lat="47.20308" lon="-1.78205">
        <ele>53</ele>
        <time>2021-04-18T10:43:14.000Z</time>
      </trkpt>
      <trkpt lat="47.20318" lon="-1.78221">
        <ele>50</ele>
        <time>2021-04-18T10:43:16.000Z</time>
      </trkpt>
      <trkpt lat="47.20333" lon="-1.78245">
        <ele>48</ele>
        <time>2021-04-18T10:43:19.000Z</time>
      </trkpt>
      <trkpt lat="47.2034" lon="-1.78268">
        <ele>48</ele>
        <time>2021-04-18T10:43:21.000Z</time>
      </trkpt>
      <trkpt lat="47.20349" lon="-1.78284">
        <ele>49</ele>
        <time>2021-04-18T10:43:23.000Z</time>
      </trkpt>
      <trkpt lat="47.2036" lon="-1.78299">
        <ele>50</ele>
        <time>2021-04-18T10:43:25.000Z</time>
      </trkpt>
      <trkpt lat="47.2037" lon="-1.78313">
        <ele>50</ele>
        <time>2021-04-18T10:43:27.000Z</time>
      </trkpt>
      <trkpt lat="47.2038" lon="-1.78327">
        <ele>50</ele>
        <time>2021-04-18T10:43:29.000Z</time>
      </trkpt>
      <trkpt lat="47.20389" lon="-1.78343">
        <ele>50</ele>
        <time>2021-04-18T10:43:31.000Z</time>
      </trkpt>
      <trkpt lat="47.20396" lon="-1.78354">
        <ele>49</ele>
        <time>2021-04-18T10:43:33.000Z</time>
      </trkpt>
      <trkpt lat="47.20404" lon="-1.78368">
        <ele>51</ele>
        <time>2021-04-18T10:43:35.000Z</time>
      </trkpt>
      <trkpt lat="47.20413" lon="-1.78386">
        <ele>52</ele>
        <time>2021-04-18T10:43:37.000Z</time>
      </trkpt>
      <trkpt lat="47.20423" lon="-1.78405">
        <ele>51</ele>
        <time>2021-04-18T10:43:39.000Z</time>
      </trkpt>
      <trkpt lat="47.20432" lon="-1.78423">
        <ele>52</ele>
        <time>2021-04-18T10:43:41.000Z</time>
      </trkpt>
      <trkpt lat="47.20442" lon="-1.78439">
        <ele>50</ele>
        <time>2021-04-18T10:43:43.000Z</time>
      </trkpt>
      <trkpt lat="47.20452" lon="-1.78451">
        <ele>50</ele>
        <time>2021-04-18T10:43:45.000Z</time>
      </trkpt>
      <trkpt lat="47.20461" lon="-1.78462">
        <ele>50</ele>
        <time>2021-04-18T10:43:47.000Z</time>
      </trkpt>
      <trkpt lat="47.20472" lon="-1.78476">
        <ele>51</ele>
        <time>2021-04-18T10:43:49.000Z</time>
      </trkpt>
      <trkpt lat="47.20485" lon="-1.78491">
        <ele>52</ele>
        <time>2021-04-18T10:43:52.000Z</time>
      </trkpt>
      <trkpt lat="47.20495" lon="-1.78497">
        <ele>52</ele>
        <time>2021-04-18T10:43:54.000Z</time>
      </trkpt>
      <trkpt lat="47.2051" lon="-1.78505">
        <ele>49</ele>
        <time>2021-04-18T10:43:57.000Z</time>
      </trkpt>
      <trkpt lat="47.20521" lon="-1.78504">
        <ele>50</ele>
        <time>2021-04-18T10:43:59.000Z</time>
      </trkpt>
      <trkpt lat="47.20535" lon="-1.78506">
        <ele>52</ele>
        <time>2021-04-18T10:44:01.000Z</time>
      </trkpt>
      <trkpt lat="47.20549" lon="-1.78507">
        <ele>52</ele>
        <time>2021-04-18T10:44:03.000Z</time>
      </trkpt>
      <trkpt lat="47.20568" lon="-1.78507">
        <ele>52</ele>
        <time>2021-04-18T10:44:06.000Z</time>
      </trkpt>
      <trkpt lat="47.20581" lon="-1.78507">
        <ele>52</ele>
        <time>2021-04-18T10:44:08.000Z</time>
      </trkpt>
      <trkpt lat="47.20593" lon="-1.78507">
        <ele>52</ele>
        <time>2021-04-18T10:44:10.000Z</time>
      </trkpt>
      <trkpt lat="47.20605" lon="-1.78508">
        <ele>52</ele>
        <time>2021-04-18T10:44:12.000Z</time>
      </trkpt>
      <trkpt lat="47.20614" lon="-1.7851">
        <ele>52</ele>
        <time>2021-04-18T10:44:14.000Z</time>
      </trkpt>
      <trkpt lat="47.20623" lon="-1.78516">
        <ele>53</ele>
        <time>2021-04-18T10:44:16.000Z</time>
      </trkpt>
      <trkpt lat="47.20637" lon="-1.78527">
        <ele>54</ele>
        <time>2021-04-18T10:44:19.000Z</time>
      </trkpt>
      <trkpt lat="47.20644" lon="-1.78535">
        <ele>55</ele>
        <time>2021-04-18T10:44:21.000Z</time>
      </trkpt>
      <trkpt lat="47.20654" lon="-1.7854">
        <ele>56</ele>
        <time>2021-04-18T10:44:23.000Z</time>
      </trkpt>
      <trkpt lat="47.20664" lon="-1.78541">
        <ele>56</ele>
        <time>2021-04-18T10:44:26.000Z</time>
      </trkpt>
      <trkpt lat="47.20673" lon="-1.78542">
        <ele>56</ele>
        <time>2021-04-18T10:44:28.000Z</time>
      </trkpt>
      <trkpt lat="47.20685" lon="-1.78541">
        <ele>58</ele>
        <time>2021-04-18T10:44:31.000Z</time>
      </trkpt>
      <trkpt lat="47.20695" lon="-1.78542">
        <ele>57</ele>
        <time>2021-04-18T10:44:34.000Z</time>
      </trkpt>
      <trkpt lat="47.20704" lon="-1.78543">
        <ele>58</ele>
        <time>2021-04-18T10:44:37.000Z</time>
      </trkpt>
      <trkpt lat="47.20715" lon="-1.78548">
        <ele>60</ele>
        <time>2021-04-18T10:44:40.000Z</time>
      </trkpt>
      <trkpt lat="47.20727" lon="-1.78551">
        <ele>62</ele>
        <time>2021-04-18T10:44:42.000Z</time>
      </trkpt>
      <trkpt lat="47.20739" lon="-1.78548">
        <ele>61</ele>
        <time>2021-04-18T10:44:45.000Z</time>
      </trkpt>
      <trkpt lat="47.20747" lon="-1.78536">
        <ele>62</ele>
        <time>2021-04-18T10:44:48.000Z</time>
      </trkpt>
      <trkpt lat="47.20752" lon="-1.78519">
        <ele>62</ele>
        <time>2021-04-18T10:44:50.000Z</time>
      </trkpt>
      <trkpt lat="47.20757" lon="-1.78504">
        <ele>61</ele>
        <time>2021-04-18T10:44:52.000Z</time>
      </trkpt>
      <trkpt lat="47.20759" lon="-1.7849">
        <ele>61</ele>
        <time>2021-04-18T10:44:54.000Z</time>
      </trkpt>
      <trkpt lat="47.2076" lon="-1.78471">
        <ele>60</ele>
        <time>2021-04-18T10:44:57.000Z</time>
      </trkpt>
      <trkpt lat="47.20766" lon="-1.78459">
        <ele>60</ele>
        <time>2021-04-18T10:44:59.000Z</time>
      </trkpt>
      <trkpt lat="47.20769" lon="-1.78445">
        <ele>59</ele>
        <time>2021-04-18T10:45:01.000Z</time>
      </trkpt>
      <trkpt lat="47.20773" lon="-1.78433">
        <ele>59</ele>
        <time>2021-04-18T10:45:03.000Z</time>
      </trkpt>
      <trkpt lat="47.20775" lon="-1.78414">
        <ele>56</ele>
        <time>2021-04-18T10:45:06.000Z</time>
      </trkpt>
      <trkpt lat="47.20779" lon="-1.78398">
        <ele>55</ele>
        <time>2021-04-18T10:45:09.000Z</time>
      </trkpt>
      <trkpt lat="47.20783" lon="-1.78386">
        <ele>55</ele>
        <time>2021-04-18T10:45:12.000Z</time>
      </trkpt>
      <trkpt lat="47.20791" lon="-1.78365">
        <ele>54</ele>
        <time>2021-04-18T10:45:17.000Z</time>
      </trkpt>
      <trkpt lat="47.20791" lon="-1.78351">
        <ele>42</ele>
        <time>2021-04-18T10:51:21.000Z</time>
      </trkpt>
      <trkpt lat="47.20787" lon="-1.78363">
        <ele>41</ele>
        <time>2021-04-18T10:51:55.000Z</time>
      </trkpt>
      <trkpt lat="47.20794" lon="-1.78373">
        <ele>45</ele>
        <time>2021-04-18T10:54:54.000Z</time>
      </trkpt>
      <trkpt lat="47.2079" lon="-1.78387">
        <ele>46</ele>
        <time>2021-04-18T10:55:30.000Z</time>
      </trkpt>
      <trkpt lat="47.20786" lon="-1.78402">
        <ele>47</ele>
        <time>2021-04-18T10:55:34.000Z</time>
      </trkpt>
      <trkpt lat="47.20783" lon="-1.78415">
        <ele>47</ele>
        <time>2021-04-18T10:55:37.000Z</time>
      </trkpt>
      <trkpt lat="47.20781" lon="-1.78431">
        <ele>48</ele>
        <time>2021-04-18T10:55:41.000Z</time>
      </trkpt>
      <trkpt lat="47.20775" lon="-1.78448">
        <ele>46</ele>
        <time>2021-04-18T10:55:45.000Z</time>
      </trkpt>
      <trkpt lat="47.20772" lon="-1.78463">
        <ele>47</ele>
        <time>2021-04-18T10:55:48.000Z</time>
      </trkpt>
      <trkpt lat="47.20762" lon="-1.78486">
        <ele>48</ele>
        <time>2021-04-18T10:55:53.000Z</time>
      </trkpt>
      <trkpt lat="47.20753" lon="-1.78495">
        <ele>49</ele>
        <time>2021-04-18T10:55:56.000Z</time>
      </trkpt>
      <trkpt lat="47.20742" lon="-1.785">
        <ele>47</ele>
        <time>2021-04-18T10:56:00.000Z</time>
      </trkpt>
      <trkpt lat="47.20732" lon="-1.78509">
        <ele>47</ele>
        <time>2021-04-18T10:56:05.000Z</time>
      </trkpt>
      <trkpt lat="47.20719" lon="-1.78521">
        <ele>51</ele>
        <time>2021-04-18T10:56:08.000Z</time>
      </trkpt>
      <trkpt lat="47.20708" lon="-1.78533">
        <ele>53</ele>
        <time>2021-04-18T10:56:11.000Z</time>
      </trkpt>
      <trkpt lat="47.20694" lon="-1.7854">
        <ele>50</ele>
        <time>2021-04-18T10:56:14.000Z</time>
      </trkpt>
      <trkpt lat="47.20685" lon="-1.78547">
        <ele>53</ele>
        <time>2021-04-18T10:56:16.000Z</time>
      </trkpt>
      <trkpt lat="47.20673" lon="-1.78553">
        <ele>55</ele>
        <time>2021-04-18T10:56:19.000Z</time>
      </trkpt>
      <trkpt lat="47.2066" lon="-1.78552">
        <ele>57</ele>
        <time>2021-04-18T10:56:22.000Z</time>
      </trkpt>
      <trkpt lat="47.20647" lon="-1.78547">
        <ele>58</ele>
        <time>2021-04-18T10:56:25.000Z</time>
      </trkpt>
      <trkpt lat="47.20636" lon="-1.78541">
        <ele>59</ele>
        <time>2021-04-18T10:56:29.000Z</time>
      </trkpt>
      <trkpt lat="47.20629" lon="-1.78531">
        <ele>59</ele>
        <time>2021-04-18T10:56:33.000Z</time>
      </trkpt>
      <trkpt lat="47.20625" lon="-1.78517">
        <ele>61</ele>
        <time>2021-04-18T10:56:36.000Z</time>
      </trkpt>
      <trkpt lat="47.20621" lon="-1.785">
        <ele>61</ele>
        <time>2021-04-18T10:56:39.000Z</time>
      </trkpt>
      <trkpt lat="47.20619" lon="-1.78485">
        <ele>61</ele>
        <time>2021-04-18T10:56:42.000Z</time>
      </trkpt>
      <trkpt lat="47.20623" lon="-1.7846">
        <ele>60</ele>
        <time>2021-04-18T10:56:45.000Z</time>
      </trkpt>
      <trkpt lat="47.20627" lon="-1.78439">
        <ele>65</ele>
        <time>2021-04-18T10:56:48.000Z</time>
      </trkpt>
      <trkpt lat="47.20629" lon="-1.78424">
        <ele>66</ele>
        <time>2021-04-18T10:56:50.000Z</time>
      </trkpt>
      <trkpt lat="47.20626" lon="-1.78404">
        <ele>61</ele>
        <time>2021-04-18T10:56:53.000Z</time>
      </trkpt>
      <trkpt lat="47.20625" lon="-1.78384">
        <ele>60</ele>
        <time>2021-04-18T10:56:56.000Z</time>
      </trkpt>
      <trkpt lat="47.20624" lon="-1.78366">
        <ele>59</ele>
        <time>2021-04-18T10:56:59.000Z</time>
      </trkpt>
      <trkpt lat="47.20622" lon="-1.78352">
        <ele>58</ele>
        <time>2021-04-18T10:57:01.000Z</time>
      </trkpt>
      <trkpt lat="47.2062" lon="-1.78339">
        <ele>58</ele>
        <time>2021-04-18T10:57:03.000Z</time>
      </trkpt>
      <trkpt lat="47.20617" lon="-1.78318">
        <ele>58</ele>
        <time>2021-04-18T10:57:06.000Z</time>
      </trkpt>
      <trkpt lat="47.20617" lon="-1.78304">
        <ele>59</ele>
        <time>2021-04-18T10:57:08.000Z</time>
      </trkpt>
      <trkpt lat="47.20612" lon="-1.78292">
        <ele>58</ele>
        <time>2021-04-18T10:57:10.000Z</time>
      </trkpt>
      <trkpt lat="47.2061" lon="-1.78278">
        <ele>58</ele>
        <time>2021-04-18T10:57:12.000Z</time>
      </trkpt>
      <trkpt lat="47.20607" lon="-1.78257">
        <ele>56</ele>
        <time>2021-04-18T10:57:15.000Z</time>
      </trkpt>
      <trkpt lat="47.20604" lon="-1.78235">
        <ele>55</ele>
        <time>2021-04-18T10:57:18.000Z</time>
      </trkpt>
      <trkpt lat="47.206" lon="-1.78222">
        <ele>56</ele>
        <time>2021-04-18T10:57:20.000Z</time>
      </trkpt>
      <trkpt lat="47.20597" lon="-1.78207">
        <ele>56</ele>
        <time>2021-04-18T10:57:22.000Z</time>
      </trkpt>
      <trkpt lat="47.20595" lon="-1.78193">
        <ele>54</ele>
        <time>2021-04-18T10:57:24.000Z</time>
      </trkpt>
      <trkpt lat="47.20591" lon="-1.78174">
        <ele>53</ele>
        <time>2021-04-18T10:57:27.000Z</time>
      </trkpt>
      <trkpt lat="47.2059" lon="-1.78154">
        <ele>55</ele>
        <time>2021-04-18T10:57:30.000Z</time>
      </trkpt>
      <trkpt lat="47.20589" lon="-1.78139">
        <ele>55</ele>
        <time>2021-04-18T10:57:32.000Z</time>
      </trkpt>
      <trkpt lat="47.20588" lon="-1.78123">
        <ele>55</ele>
        <time>2021-04-18T10:57:34.000Z</time>
      </trkpt>
      <trkpt lat="47.20588" lon="-1.78108">
        <ele>54</ele>
        <time>2021-04-18T10:57:36.000Z</time>
      </trkpt>
      <trkpt lat="47.20587" lon="-1.78089">
        <ele>56</ele>
        <time>2021-04-18T10:57:39.000Z</time>
      </trkpt>
      <trkpt lat="47.20587" lon="-1.78075">
        <ele>57</ele>
        <time>2021-04-18T10:57:41.000Z</time>
      </trkpt>
      <trkpt lat="47.20587" lon="-1.78062">
        <ele>58</ele>
        <time>2021-04-18T10:57:43.000Z</time>
      </trkpt>
      <trkpt lat="47.20587" lon="-1.78041">
        <ele>59</ele>
        <time>2021-04-18T10:57:46.000Z</time>
      </trkpt>
      <trkpt lat="47.20586" lon="-1.78027">
        <ele>59</ele>
        <time>2021-04-18T10:57:48.000Z</time>
      </trkpt>
      <trkpt lat="47.20586" lon="-1.78014">
        <ele>59</ele>
        <time>2021-04-18T10:57:50.000Z</time>
      </trkpt>
      <trkpt lat="47.20586" lon="-1.77997">
        <ele>60</ele>
        <time>2021-04-18T10:57:53.000Z</time>
      </trkpt>
      <trkpt lat="47.20584" lon="-1.77978">
        <ele>60</ele>
        <time>2021-04-18T10:57:56.000Z</time>
      </trkpt>
      <trkpt lat="47.20582" lon="-1.77965">
        <ele>61</ele>
        <time>2021-04-18T10:57:59.000Z</time>
      </trkpt>
      <trkpt lat="47.2058" lon="-1.77946">
        <ele>61</ele>
        <time>2021-04-18T10:58:02.000Z</time>
      </trkpt>
      <trkpt lat="47.2058" lon="-1.77933">
        <ele>60</ele>
        <time>2021-04-18T10:58:04.000Z</time>
      </trkpt>
      <trkpt lat="47.20582" lon="-1.77918">
        <ele>60</ele>
        <time>2021-04-18T10:58:06.000Z</time>
      </trkpt>
      <trkpt lat="47.20584" lon="-1.77903">
        <ele>59</ele>
        <time>2021-04-18T10:58:08.000Z</time>
      </trkpt>
      <trkpt lat="47.20585" lon="-1.77887">
        <ele>59</ele>
        <time>2021-04-18T10:58:10.000Z</time>
      </trkpt>
      <trkpt lat="47.20587" lon="-1.77871">
        <ele>60</ele>
        <time>2021-04-18T10:58:12.000Z</time>
      </trkpt>
      <trkpt lat="47.2059" lon="-1.77856">
        <ele>60</ele>
        <time>2021-04-18T10:58:14.000Z</time>
      </trkpt>
      <trkpt lat="47.20592" lon="-1.7784">
        <ele>61</ele>
        <time>2021-04-18T10:58:16.000Z</time>
      </trkpt>
      <trkpt lat="47.20595" lon="-1.77826">
        <ele>62</ele>
        <time>2021-04-18T10:58:18.000Z</time>
      </trkpt>
      <trkpt lat="47.20597" lon="-1.77811">
        <ele>62</ele>
        <time>2021-04-18T10:58:20.000Z</time>
      </trkpt>
      <trkpt lat="47.20599" lon="-1.77798">
        <ele>62</ele>
        <time>2021-04-18T10:58:22.000Z</time>
      </trkpt>
      <trkpt lat="47.206" lon="-1.77778">
        <ele>62</ele>
        <time>2021-04-18T10:58:25.000Z</time>
      </trkpt>
      <trkpt lat="47.206" lon="-1.77759">
        <ele>63</ele>
        <time>2021-04-18T10:58:28.000Z</time>
      </trkpt>
      <trkpt lat="47.20601" lon="-1.77746">
        <ele>63</ele>
        <time>2021-04-18T10:58:30.000Z</time>
      </trkpt>
      <trkpt lat="47.20601" lon="-1.77726">
        <ele>64</ele>
        <time>2021-04-18T10:58:33.000Z</time>
      </trkpt>
      <trkpt lat="47.20599" lon="-1.77712">
        <ele>64</ele>
        <time>2021-04-18T10:58:35.000Z</time>
      </trkpt>
      <trkpt lat="47.20599" lon="-1.77696">
        <ele>63</ele>
        <time>2021-04-18T10:58:37.000Z</time>
      </trkpt>
      <trkpt lat="47.20602" lon="-1.77681">
        <ele>63</ele>
        <time>2021-04-18T10:58:39.000Z</time>
      </trkpt>
      <trkpt lat="47.20605" lon="-1.77665">
        <ele>63</ele>
        <time>2021-04-18T10:58:41.000Z</time>
      </trkpt>
      <trkpt lat="47.20609" lon="-1.77648">
        <ele>63</ele>
        <time>2021-04-18T10:58:43.000Z</time>
      </trkpt>
      <trkpt lat="47.20611" lon="-1.77627">
        <ele>62</ele>
        <time>2021-04-18T10:58:45.000Z</time>
      </trkpt>
      <trkpt lat="47.20613" lon="-1.77604">
        <ele>61</ele>
        <time>2021-04-18T10:58:47.000Z</time>
      </trkpt>
      <trkpt lat="47.20613" lon="-1.77581">
        <ele>61</ele>
        <time>2021-04-18T10:58:49.000Z</time>
      </trkpt>
      <trkpt lat="47.20612" lon="-1.77551">
        <ele>61</ele>
        <time>2021-04-18T10:58:52.000Z</time>
      </trkpt>
      <trkpt lat="47.2061" lon="-1.77534">
        <ele>61</ele>
        <time>2021-04-18T10:58:54.000Z</time>
      </trkpt>
      <trkpt lat="47.20609" lon="-1.77517">
        <ele>59</ele>
        <time>2021-04-18T10:58:56.000Z</time>
      </trkpt>
      <trkpt lat="47.20605" lon="-1.77493">
        <ele>59</ele>
        <time>2021-04-18T10:58:59.000Z</time>
      </trkpt>
      <trkpt lat="47.206" lon="-1.77478">
        <ele>59</ele>
        <time>2021-04-18T10:59:01.000Z</time>
      </trkpt>
      <trkpt lat="47.20595" lon="-1.77464">
        <ele>59</ele>
        <time>2021-04-18T10:59:03.000Z</time>
      </trkpt>
      <trkpt lat="47.20591" lon="-1.77452">
        <ele>59</ele>
        <time>2021-04-18T10:59:05.000Z</time>
      </trkpt>
      <trkpt lat="47.20586" lon="-1.77439">
        <ele>58</ele>
        <time>2021-04-18T10:59:07.000Z</time>
      </trkpt>
      <trkpt lat="47.20581" lon="-1.77425">
        <ele>56</ele>
        <time>2021-04-18T10:59:09.000Z</time>
      </trkpt>
      <trkpt lat="47.20582" lon="-1.7741">
        <ele>58</ele>
        <time>2021-04-18T10:59:11.000Z</time>
      </trkpt>
      <trkpt lat="47.20581" lon="-1.77396">
        <ele>58</ele>
        <time>2021-04-18T10:59:13.000Z</time>
      </trkpt>
      <trkpt lat="47.20577" lon="-1.77378">
        <ele>59</ele>
        <time>2021-04-18T10:59:15.000Z</time>
      </trkpt>
      <trkpt lat="47.20573" lon="-1.77359">
        <ele>60</ele>
        <time>2021-04-18T10:59:17.000Z</time>
      </trkpt>
      <trkpt lat="47.2057" lon="-1.7734">
        <ele>61</ele>
        <time>2021-04-18T10:59:19.000Z</time>
      </trkpt>
      <trkpt lat="47.20568" lon="-1.77315">
        <ele>62</ele>
        <time>2021-04-18T10:59:22.000Z</time>
      </trkpt>
      <trkpt lat="47.2057" lon="-1.77299">
        <ele>62</ele>
        <time>2021-04-18T10:59:25.000Z</time>
      </trkpt>
      <trkpt lat="47.20572" lon="-1.77285">
        <ele>62</ele>
        <time>2021-04-18T10:59:32.000Z</time>
      </trkpt>
      <trkpt lat="47.20572" lon="-1.7727">
        <ele>61</ele>
        <time>2021-04-18T10:59:35.000Z</time>
      </trkpt>
      <trkpt lat="47.20572" lon="-1.77257">
        <ele>61</ele>
        <time>2021-04-18T10:59:37.000Z</time>
      </trkpt>
      <trkpt lat="47.20573" lon="-1.77241">
        <ele>60</ele>
        <time>2021-04-18T10:59:39.000Z</time>
      </trkpt>
      <trkpt lat="47.20573" lon="-1.77224">
        <ele>61</ele>
        <time>2021-04-18T10:59:41.000Z</time>
      </trkpt>
      <trkpt lat="47.20571" lon="-1.77199">
        <ele>59</ele>
        <time>2021-04-18T10:59:44.000Z</time>
      </trkpt>
      <trkpt lat="47.20568" lon="-1.77181">
        <ele>61</ele>
        <time>2021-04-18T10:59:47.000Z</time>
      </trkpt>
      <trkpt lat="47.20567" lon="-1.77164">
        <ele>63</ele>
        <time>2021-04-18T10:59:49.000Z</time>
      </trkpt>
      <trkpt lat="47.20566" lon="-1.77148">
        <ele>64</ele>
        <time>2021-04-18T10:59:51.000Z</time>
      </trkpt>
      <trkpt lat="47.20566" lon="-1.77132">
        <ele>64</ele>
        <time>2021-04-18T10:59:53.000Z</time>
      </trkpt>
      <trkpt lat="47.20566" lon="-1.77109">
        <ele>64</ele>
        <time>2021-04-18T10:59:56.000Z</time>
      </trkpt>
      <trkpt lat="47.20565" lon="-1.77093">
        <ele>64</ele>
        <time>2021-04-18T10:59:58.000Z</time>
      </trkpt>
      <trkpt lat="47.20563" lon="-1.77074">
        <ele>63</ele>
        <time>2021-04-18T11:00:00.000Z</time>
      </trkpt>
      <trkpt lat="47.20559" lon="-1.77056">
        <ele>62</ele>
        <time>2021-04-18T11:00:02.000Z</time>
      </trkpt>
      <trkpt lat="47.20558" lon="-1.77037">
        <ele>62</ele>
        <time>2021-04-18T11:00:04.000Z</time>
      </trkpt>
      <trkpt lat="47.20555" lon="-1.77008">
        <ele>62</ele>
        <time>2021-04-18T11:00:07.000Z</time>
      </trkpt>
      <trkpt lat="47.20553" lon="-1.76992">
        <ele>62</ele>
        <time>2021-04-18T11:00:09.000Z</time>
      </trkpt>
      <trkpt lat="47.20551" lon="-1.76975">
        <ele>62</ele>
        <time>2021-04-18T11:00:11.000Z</time>
      </trkpt>
      <trkpt lat="47.20545" lon="-1.7695">
        <ele>58</ele>
        <time>2021-04-18T11:00:14.000Z</time>
      </trkpt>
      <trkpt lat="47.20543" lon="-1.76932">
        <ele>59</ele>
        <time>2021-04-18T11:00:16.000Z</time>
      </trkpt>
      <trkpt lat="47.20543" lon="-1.76913">
        <ele>58</ele>
        <time>2021-04-18T11:00:18.000Z</time>
      </trkpt>
      <trkpt lat="47.2054" lon="-1.76898">
        <ele>59</ele>
        <time>2021-04-18T11:00:20.000Z</time>
      </trkpt>
      <trkpt lat="47.20537" lon="-1.76884">
        <ele>59</ele>
        <time>2021-04-18T11:00:22.000Z</time>
      </trkpt>
      <trkpt lat="47.20533" lon="-1.7687">
        <ele>58</ele>
        <time>2021-04-18T11:00:24.000Z</time>
      </trkpt>
      <trkpt lat="47.20529" lon="-1.76856">
        <ele>58</ele>
        <time>2021-04-18T11:00:26.000Z</time>
      </trkpt>
      <trkpt lat="47.20525" lon="-1.76843">
        <ele>58</ele>
        <time>2021-04-18T11:00:28.000Z</time>
      </trkpt>
      <trkpt lat="47.20522" lon="-1.76828">
        <ele>58</ele>
        <time>2021-04-18T11:00:30.000Z</time>
      </trkpt>
      <trkpt lat="47.20517" lon="-1.76795">
        <ele>58</ele>
        <time>2021-04-18T11:00:35.000Z</time>
      </trkpt>
      <trkpt lat="47.20512" lon="-1.76779">
        <ele>58</ele>
        <time>2021-04-18T11:00:37.000Z</time>
      </trkpt>
      <trkpt lat="47.20507" lon="-1.76756">
        <ele>57</ele>
        <time>2021-04-18T11:00:40.000Z</time>
      </trkpt>
      <trkpt lat="47.20505" lon="-1.76739">
        <ele>57</ele>
        <time>2021-04-18T11:00:42.000Z</time>
      </trkpt>
      <trkpt lat="47.20502" lon="-1.76715">
        <ele>57</ele>
        <time>2021-04-18T11:00:45.000Z</time>
      </trkpt>
      <trkpt lat="47.20503" lon="-1.76694">
        <ele>56</ele>
        <time>2021-04-18T11:00:47.000Z</time>
      </trkpt>
      <trkpt lat="47.20498" lon="-1.76672">
        <ele>56</ele>
        <time>2021-04-18T11:00:49.000Z</time>
      </trkpt>
      <trkpt lat="47.20493" lon="-1.76652">
        <ele>55</ele>
        <time>2021-04-18T11:00:51.000Z</time>
      </trkpt>
      <trkpt lat="47.20489" lon="-1.76633">
        <ele>54</ele>
        <time>2021-04-18T11:00:53.000Z</time>
      </trkpt>
      <trkpt lat="47.20486" lon="-1.76615">
        <ele>53</ele>
        <time>2021-04-18T11:00:55.000Z</time>
      </trkpt>
      <trkpt lat="47.20483" lon="-1.76597">
        <ele>52</ele>
        <time>2021-04-18T11:00:57.000Z</time>
      </trkpt>
      <trkpt lat="47.20479" lon="-1.76578">
        <ele>53</ele>
        <time>2021-04-18T11:00:59.000Z</time>
      </trkpt>
      <trkpt lat="47.20474" lon="-1.76561">
        <ele>53</ele>
        <time>2021-04-18T11:01:01.000Z</time>
      </trkpt>
      <trkpt lat="47.20469" lon="-1.76545">
        <ele>54</ele>
        <time>2021-04-18T11:01:03.000Z</time>
      </trkpt>
      <trkpt lat="47.20466" lon="-1.76528">
        <ele>54</ele>
        <time>2021-04-18T11:01:05.000Z</time>
      </trkpt>
      <trkpt lat="47.20466" lon="-1.7651">
        <ele>54</ele>
        <time>2021-04-18T11:01:07.000Z</time>
      </trkpt>
      <trkpt lat="47.20465" lon="-1.76492">
        <ele>54</ele>
        <time>2021-04-18T11:01:09.000Z</time>
      </trkpt>
      <trkpt lat="47.20464" lon="-1.76473">
        <ele>53</ele>
        <time>2021-04-18T11:01:11.000Z</time>
      </trkpt>
      <trkpt lat="47.20462" lon="-1.76455">
        <ele>53</ele>
        <time>2021-04-18T11:01:13.000Z</time>
      </trkpt>
      <trkpt lat="47.20458" lon="-1.76428">
        <ele>52</ele>
        <time>2021-04-18T11:01:16.000Z</time>
      </trkpt>
      <trkpt lat="47.20455" lon="-1.7641">
        <ele>52</ele>
        <time>2021-04-18T11:01:18.000Z</time>
      </trkpt>
      <trkpt lat="47.20451" lon="-1.76392">
        <ele>52</ele>
        <time>2021-04-18T11:01:20.000Z</time>
      </trkpt>
      <trkpt lat="47.20447" lon="-1.76374">
        <ele>53</ele>
        <time>2021-04-18T11:01:22.000Z</time>
      </trkpt>
      <trkpt lat="47.20446" lon="-1.76356">
        <ele>53</ele>
        <time>2021-04-18T11:01:24.000Z</time>
      </trkpt>
      <trkpt lat="47.20443" lon="-1.76339">
        <ele>54</ele>
        <time>2021-04-18T11:01:26.000Z</time>
      </trkpt>
      <trkpt lat="47.20441" lon="-1.76319">
        <ele>54</ele>
        <time>2021-04-18T11:01:28.000Z</time>
      </trkpt>
      <trkpt lat="47.2044" lon="-1.76301">
        <ele>53</ele>
        <time>2021-04-18T11:01:30.000Z</time>
      </trkpt>
      <trkpt lat="47.20438" lon="-1.76283">
        <ele>52</ele>
        <time>2021-04-18T11:01:32.000Z</time>
      </trkpt>
      <trkpt lat="47.20435" lon="-1.76267">
        <ele>51</ele>
        <time>2021-04-18T11:01:34.000Z</time>
      </trkpt>
      <trkpt lat="47.20433" lon="-1.76254">
        <ele>52</ele>
        <time>2021-04-18T11:01:36.000Z</time>
      </trkpt>
      <trkpt lat="47.20431" lon="-1.76239">
        <ele>53</ele>
        <time>2021-04-18T11:01:38.000Z</time>
      </trkpt>
      <trkpt lat="47.20427" lon="-1.76224">
        <ele>53</ele>
        <time>2021-04-18T11:01:40.000Z</time>
      </trkpt>
      <trkpt lat="47.20422" lon="-1.76209">
        <ele>54</ele>
        <time>2021-04-18T11:01:42.000Z</time>
      </trkpt>
      <trkpt lat="47.20419" lon="-1.76193">
        <ele>54</ele>
        <time>2021-04-18T11:01:44.000Z</time>
      </trkpt>
      <trkpt lat="47.20415" lon="-1.76167">
        <ele>54</ele>
        <time>2021-04-18T11:01:47.000Z</time>
      </trkpt>
      <trkpt lat="47.20411" lon="-1.76141">
        <ele>53</ele>
        <time>2021-04-18T11:01:50.000Z</time>
      </trkpt>
      <trkpt lat="47.20408" lon="-1.76127">
        <ele>55</ele>
        <time>2021-04-18T11:01:52.000Z</time>
      </trkpt>
      <trkpt lat="47.20407" lon="-1.76112">
        <ele>57</ele>
        <time>2021-04-18T11:01:54.000Z</time>
      </trkpt>
      <trkpt lat="47.20406" lon="-1.76097">
        <ele>57</ele>
        <time>2021-04-18T11:01:56.000Z</time>
      </trkpt>
      <trkpt lat="47.20402" lon="-1.76082">
        <ele>58</ele>
        <time>2021-04-18T11:01:58.000Z</time>
      </trkpt>
      <trkpt lat="47.20399" lon="-1.76058">
        <ele>59</ele>
        <time>2021-04-18T11:02:01.000Z</time>
      </trkpt>
      <trkpt lat="47.20399" lon="-1.7604">
        <ele>59</ele>
        <time>2021-04-18T11:02:03.000Z</time>
      </trkpt>
      <trkpt lat="47.20393" lon="-1.76022">
        <ele>59</ele>
        <time>2021-04-18T11:02:05.000Z</time>
      </trkpt>
      <trkpt lat="47.20391" lon="-1.76003">
        <ele>58</ele>
        <time>2021-04-18T11:02:07.000Z</time>
      </trkpt>
      <trkpt lat="47.20393" lon="-1.75986">
        <ele>56</ele>
        <time>2021-04-18T11:02:09.000Z</time>
      </trkpt>
      <trkpt lat="47.20393" lon="-1.75966">
        <ele>54</ele>
        <time>2021-04-18T11:02:11.000Z</time>
      </trkpt>
      <trkpt lat="47.2039" lon="-1.75949">
        <ele>53</ele>
        <time>2021-04-18T11:02:13.000Z</time>
      </trkpt>
      <trkpt lat="47.20385" lon="-1.75916">
        <ele>53</ele>
        <time>2021-04-18T11:02:17.000Z</time>
      </trkpt>
      <trkpt lat="47.20381" lon="-1.759">
        <ele>53</ele>
        <time>2021-04-18T11:02:19.000Z</time>
      </trkpt>
      <trkpt lat="47.20379" lon="-1.75884">
        <ele>52</ele>
        <time>2021-04-18T11:02:21.000Z</time>
      </trkpt>
      <trkpt lat="47.20375" lon="-1.75868">
        <ele>52</ele>
        <time>2021-04-18T11:02:23.000Z</time>
      </trkpt>
      <trkpt lat="47.20372" lon="-1.75852">
        <ele>52</ele>
        <time>2021-04-18T11:02:25.000Z</time>
      </trkpt>
      <trkpt lat="47.20368" lon="-1.75836">
        <ele>52</ele>
        <time>2021-04-18T11:02:27.000Z</time>
      </trkpt>
      <trkpt lat="47.20364" lon="-1.7582">
        <ele>52</ele>
        <time>2021-04-18T11:02:29.000Z</time>
      </trkpt>
      <trkpt lat="47.2036" lon="-1.75804">
        <ele>52</ele>
        <time>2021-04-18T11:02:31.000Z</time>
      </trkpt>
      <trkpt lat="47.20356" lon="-1.75789">
        <ele>52</ele>
        <time>2021-04-18T11:02:33.000Z</time>
      </trkpt>
      <trkpt lat="47.20353" lon="-1.75773">
        <ele>52</ele>
        <time>2021-04-18T11:02:35.000Z</time>
      </trkpt>
      <trkpt lat="47.20351" lon="-1.75757">
        <ele>52</ele>
        <time>2021-04-18T11:02:37.000Z</time>
      </trkpt>
      <trkpt lat="47.20348" lon="-1.75735">
        <ele>52</ele>
        <time>2021-04-18T11:02:40.000Z</time>
      </trkpt>
      <trkpt lat="47.20342" lon="-1.75718">
        <ele>52</ele>
        <time>2021-04-18T11:02:42.000Z</time>
      </trkpt>
      <trkpt lat="47.2034" lon="-1.75702">
        <ele>52</ele>
        <time>2021-04-18T11:02:44.000Z</time>
      </trkpt>
      <trkpt lat="47.20338" lon="-1.75686">
        <ele>52</ele>
        <time>2021-04-18T11:02:46.000Z</time>
      </trkpt>
      <trkpt lat="47.20334" lon="-1.75672">
        <ele>52</ele>
        <time>2021-04-18T11:02:48.000Z</time>
      </trkpt>
      <trkpt lat="47.20329" lon="-1.75655">
        <ele>52</ele>
        <time>2021-04-18T11:02:50.000Z</time>
      </trkpt>
      <trkpt lat="47.20326" lon="-1.7564">
        <ele>52</ele>
        <time>2021-04-18T11:02:52.000Z</time>
      </trkpt>
      <trkpt lat="47.20322" lon="-1.75627">
        <ele>52</ele>
        <time>2021-04-18T11:02:54.000Z</time>
      </trkpt>
      <trkpt lat="47.20318" lon="-1.75612">
        <ele>52</ele>
        <time>2021-04-18T11:02:56.000Z</time>
      </trkpt>
      <trkpt lat="47.20316" lon="-1.75598">
        <ele>52</ele>
        <time>2021-04-18T11:02:59.000Z</time>
      </trkpt>
      <trkpt lat="47.20311" lon="-1.75584">
        <ele>50</ele>
        <time>2021-04-18T11:03:02.000Z</time>
      </trkpt>
      <trkpt lat="47.20309" lon="-1.75568">
        <ele>50</ele>
        <time>2021-04-18T11:03:05.000Z</time>
      </trkpt>
      <trkpt lat="47.20305" lon="-1.7555">
        <ele>51</ele>
        <time>2021-04-18T11:03:08.000Z</time>
      </trkpt>
      <trkpt lat="47.20301" lon="-1.75538">
        <ele>50</ele>
        <time>2021-04-18T11:03:10.000Z</time>
      </trkpt>
      <trkpt lat="47.20298" lon="-1.75524">
        <ele>50</ele>
        <time>2021-04-18T11:03:12.000Z</time>
      </trkpt>
      <trkpt lat="47.20294" lon="-1.7551">
        <ele>50</ele>
        <time>2021-04-18T11:03:14.000Z</time>
      </trkpt>
      <trkpt lat="47.2029" lon="-1.75496">
        <ele>51</ele>
        <time>2021-04-18T11:03:16.000Z</time>
      </trkpt>
      <trkpt lat="47.20287" lon="-1.75483">
        <ele>51</ele>
        <time>2021-04-18T11:03:18.000Z</time>
      </trkpt>
      <trkpt lat="47.20284" lon="-1.7547">
        <ele>51</ele>
        <time>2021-04-18T11:03:20.000Z</time>
      </trkpt>
      <trkpt lat="47.20279" lon="-1.75455">
        <ele>52</ele>
        <time>2021-04-18T11:03:22.000Z</time>
      </trkpt>
      <trkpt lat="47.20276" lon="-1.75441">
        <ele>51</ele>
        <time>2021-04-18T11:03:24.000Z</time>
      </trkpt>
      <trkpt lat="47.20272" lon="-1.75425">
        <ele>50</ele>
        <time>2021-04-18T11:03:26.000Z</time>
      </trkpt>
      <trkpt lat="47.20268" lon="-1.75409">
        <ele>51</ele>
        <time>2021-04-18T11:03:28.000Z</time>
      </trkpt>
      <trkpt lat="47.20264" lon="-1.75395">
        <ele>52</ele>
        <time>2021-04-18T11:03:30.000Z</time>
      </trkpt>
      <trkpt lat="47.2026" lon="-1.7538">
        <ele>51</ele>
        <time>2021-04-18T11:03:32.000Z</time>
      </trkpt>
      <trkpt lat="47.20256" lon="-1.75366">
        <ele>51</ele>
        <time>2021-04-18T11:03:34.000Z</time>
      </trkpt>
      <trkpt lat="47.20252" lon="-1.75352">
        <ele>50</ele>
        <time>2021-04-18T11:03:36.000Z</time>
      </trkpt>
      <trkpt lat="47.20246" lon="-1.7533">
        <ele>50</ele>
        <time>2021-04-18T11:03:39.000Z</time>
      </trkpt>
      <trkpt lat="47.20242" lon="-1.75315">
        <ele>50</ele>
        <time>2021-04-18T11:03:41.000Z</time>
      </trkpt>
      <trkpt lat="47.20234" lon="-1.75301">
        <ele>48</ele>
        <time>2021-04-18T11:03:44.000Z</time>
      </trkpt>
      <trkpt lat="47.20229" lon="-1.75274">
        <ele>51</ele>
        <time>2021-04-18T11:03:47.000Z</time>
      </trkpt>
      <trkpt lat="47.20226" lon="-1.75259">
        <ele>52</ele>
        <time>2021-04-18T11:03:49.000Z</time>
      </trkpt>
      <trkpt lat="47.20222" lon="-1.75243">
        <ele>51</ele>
        <time>2021-04-18T11:03:51.000Z</time>
      </trkpt>
      <trkpt lat="47.20219" lon="-1.75227">
        <ele>51</ele>
        <time>2021-04-18T11:03:53.000Z</time>
      </trkpt>
      <trkpt lat="47.20214" lon="-1.75212">
        <ele>52</ele>
        <time>2021-04-18T11:03:55.000Z</time>
      </trkpt>
      <trkpt lat="47.20209" lon="-1.75198">
        <ele>52</ele>
        <time>2021-04-18T11:03:57.000Z</time>
      </trkpt>
      <trkpt lat="47.20201" lon="-1.75176">
        <ele>51</ele>
        <time>2021-04-18T11:04:00.000Z</time>
      </trkpt>
      <trkpt lat="47.20196" lon="-1.75161">
        <ele>51</ele>
        <time>2021-04-18T11:04:02.000Z</time>
      </trkpt>
      <trkpt lat="47.20192" lon="-1.75144">
        <ele>50</ele>
        <time>2021-04-18T11:04:04.000Z</time>
      </trkpt>
      <trkpt lat="47.20188" lon="-1.75127">
        <ele>50</ele>
        <time>2021-04-18T11:04:06.000Z</time>
      </trkpt>
      <trkpt lat="47.20184" lon="-1.75109">
        <ele>50</ele>
        <time>2021-04-18T11:04:08.000Z</time>
      </trkpt>
      <trkpt lat="47.20181" lon="-1.75092">
        <ele>51</ele>
        <time>2021-04-18T11:04:10.000Z</time>
      </trkpt>
      <trkpt lat="47.20178" lon="-1.75075">
        <ele>51</ele>
        <time>2021-04-18T11:04:12.000Z</time>
      </trkpt>
      <trkpt lat="47.20173" lon="-1.75059">
        <ele>51</ele>
        <time>2021-04-18T11:04:14.000Z</time>
      </trkpt>
      <trkpt lat="47.2017" lon="-1.75043">
        <ele>51</ele>
        <time>2021-04-18T11:04:16.000Z</time>
      </trkpt>
      <trkpt lat="47.20166" lon="-1.75026">
        <ele>51</ele>
        <time>2021-04-18T11:04:18.000Z</time>
      </trkpt>
      <trkpt lat="47.20163" lon="-1.7501">
        <ele>51</ele>
        <time>2021-04-18T11:04:20.000Z</time>
      </trkpt>
      <trkpt lat="47.20158" lon="-1.74998">
        <ele>51</ele>
        <time>2021-04-18T11:04:22.000Z</time>
      </trkpt>
      <trkpt lat="47.20154" lon="-1.74982">
        <ele>51</ele>
        <time>2021-04-18T11:04:24.000Z</time>
      </trkpt>
      <trkpt lat="47.20152" lon="-1.74965">
        <ele>51</ele>
        <time>2021-04-18T11:04:26.000Z</time>
      </trkpt>
      <trkpt lat="47.20149" lon="-1.74948">
        <ele>52</ele>
        <time>2021-04-18T11:04:28.000Z</time>
      </trkpt>
      <trkpt lat="47.20146" lon="-1.74932">
        <ele>51</ele>
        <time>2021-04-18T11:04:30.000Z</time>
      </trkpt>
      <trkpt lat="47.20145" lon="-1.74918">
        <ele>51</ele>
        <time>2021-04-18T11:04:32.000Z</time>
      </trkpt>
      <trkpt lat="47.20139" lon="-1.74902">
        <ele>51</ele>
        <time>2021-04-18T11:04:35.000Z</time>
      </trkpt>
      <trkpt lat="47.20128" lon="-1.74896">
        <ele>51</ele>
        <time>2021-04-18T11:04:39.000Z</time>
      </trkpt>
      <trkpt lat="47.20118" lon="-1.74903">
        <ele>52</ele>
        <time>2021-04-18T11:04:41.000Z</time>
      </trkpt>
      <trkpt lat="47.20105" lon="-1.74908">
        <ele>52</ele>
        <time>2021-04-18T11:04:44.000Z</time>
      </trkpt>
      <trkpt lat="47.20096" lon="-1.74907">
        <ele>52</ele>
        <time>2021-04-18T11:04:46.000Z</time>
      </trkpt>
      <trkpt lat="47.20087" lon="-1.74897">
        <ele>53</ele>
        <time>2021-04-18T11:04:48.000Z</time>
      </trkpt>
      <trkpt lat="47.20078" lon="-1.74887">
        <ele>52</ele>
        <time>2021-04-18T11:04:50.000Z</time>
      </trkpt>
      <trkpt lat="47.20069" lon="-1.74877">
        <ele>52</ele>
        <time>2021-04-18T11:04:52.000Z</time>
      </trkpt>
      <trkpt lat="47.20054" lon="-1.74862">
        <ele>52</ele>
        <time>2021-04-18T11:04:55.000Z</time>
      </trkpt>
      <trkpt lat="47.20045" lon="-1.74854">
        <ele>52</ele>
        <time>2021-04-18T11:04:57.000Z</time>
      </trkpt>
      <trkpt lat="47.20038" lon="-1.74844">
        <ele>52</ele>
        <time>2021-04-18T11:04:59.000Z</time>
      </trkpt>
      <trkpt lat="47.20032" lon="-1.74829">
        <ele>53</ele>
        <time>2021-04-18T11:05:01.000Z</time>
      </trkpt>
      <trkpt lat="47.20028" lon="-1.7481">
        <ele>53</ele>
        <time>2021-04-18T11:05:04.000Z</time>
      </trkpt>
      <trkpt lat="47.20025" lon="-1.74797">
        <ele>54</ele>
        <time>2021-04-18T11:05:06.000Z</time>
      </trkpt>
      <trkpt lat="47.20021" lon="-1.74781">
        <ele>51</ele>
        <time>2021-04-18T11:05:08.000Z</time>
      </trkpt>
      <trkpt lat="47.20019" lon="-1.74763">
        <ele>51</ele>
        <time>2021-04-18T11:05:11.000Z</time>
      </trkpt>
      <trkpt lat="47.20016" lon="-1.74749">
        <ele>55</ele>
        <time>2021-04-18T11:05:13.000Z</time>
      </trkpt>
      <trkpt lat="47.2001" lon="-1.74731">
        <ele>57</ele>
        <time>2021-04-18T11:05:16.000Z</time>
      </trkpt>
      <trkpt lat="47.20004" lon="-1.74718">
        <ele>57</ele>
        <time>2021-04-18T11:05:18.000Z</time>
      </trkpt>
      <trkpt lat="47.19998" lon="-1.74706">
        <ele>57</ele>
        <time>2021-04-18T11:05:20.000Z</time>
      </trkpt>
      <trkpt lat="47.19992" lon="-1.74694">
        <ele>56</ele>
        <time>2021-04-18T11:05:22.000Z</time>
      </trkpt>
      <trkpt lat="47.19988" lon="-1.74681">
        <ele>54</ele>
        <time>2021-04-18T11:05:24.000Z</time>
      </trkpt>
      <trkpt lat="47.19984" lon="-1.74666">
        <ele>55</ele>
        <time>2021-04-18T11:05:26.000Z</time>
      </trkpt>
      <trkpt lat="47.19978" lon="-1.74653">
        <ele>57</ele>
        <time>2021-04-18T11:05:28.000Z</time>
      </trkpt>
      <trkpt lat="47.19966" lon="-1.74646">
        <ele>60</ele>
        <time>2021-04-18T11:05:31.000Z</time>
      </trkpt>
      <trkpt lat="47.19954" lon="-1.74644">
        <ele>58</ele>
        <time>2021-04-18T11:05:33.000Z</time>
      </trkpt>
      <trkpt lat="47.19944" lon="-1.74637">
        <ele>58</ele>
        <time>2021-04-18T11:05:35.000Z</time>
      </trkpt>
      <trkpt lat="47.19939" lon="-1.74622">
        <ele>58</ele>
        <time>2021-04-18T11:05:37.000Z</time>
      </trkpt>
      <trkpt lat="47.19941" lon="-1.74606">
        <ele>58</ele>
        <time>2021-04-18T11:05:39.000Z</time>
      </trkpt>
      <trkpt lat="47.19943" lon="-1.74585">
        <ele>59</ele>
        <time>2021-04-18T11:05:43.000Z</time>
      </trkpt>
      <trkpt lat="47.19954" lon="-1.74575">
        <ele>62</ele>
        <time>2021-04-18T11:05:46.000Z</time>
      </trkpt>
      <trkpt lat="47.19965" lon="-1.74564">
        <ele>64</ele>
        <time>2021-04-18T11:05:49.000Z</time>
      </trkpt>
      <trkpt lat="47.1997" lon="-1.74553">
        <ele>64</ele>
        <time>2021-04-18T11:05:51.000Z</time>
      </trkpt>
      <trkpt lat="47.19973" lon="-1.74534">
        <ele>66</ele>
        <time>2021-04-18T11:05:54.000Z</time>
      </trkpt>
      <trkpt lat="47.19974" lon="-1.7452">
        <ele>66</ele>
        <time>2021-04-18T11:05:56.000Z</time>
      </trkpt>
      <trkpt lat="47.19974" lon="-1.745">
        <ele>67</ele>
        <time>2021-04-18T11:05:59.000Z</time>
      </trkpt>
      <trkpt lat="47.19973" lon="-1.74483">
        <ele>68</ele>
        <time>2021-04-18T11:06:02.000Z</time>
      </trkpt>
      <trkpt lat="47.19974" lon="-1.74463">
        <ele>69</ele>
        <time>2021-04-18T11:06:04.000Z</time>
      </trkpt>
      <trkpt lat="47.19974" lon="-1.74446">
        <ele>66</ele>
        <time>2021-04-18T11:06:06.000Z</time>
      </trkpt>
      <trkpt lat="47.19972" lon="-1.74432">
        <ele>65</ele>
        <time>2021-04-18T11:06:08.000Z</time>
      </trkpt>
      <trkpt lat="47.19965" lon="-1.74385">
        <ele>63</ele>
        <time>2021-04-18T11:06:13.000Z</time>
      </trkpt>
      <trkpt lat="47.19969" lon="-1.74371">
        <ele>61</ele>
        <time>2021-04-18T11:06:15.000Z</time>
      </trkpt>
      <trkpt lat="47.1997" lon="-1.74354">
        <ele>62</ele>
        <time>2021-04-18T11:06:17.000Z</time>
      </trkpt>
      <trkpt lat="47.19972" lon="-1.7434">
        <ele>66</ele>
        <time>2021-04-18T11:06:19.000Z</time>
      </trkpt>
      <trkpt lat="47.19975" lon="-1.74323">
        <ele>66</ele>
        <time>2021-04-18T11:06:21.000Z</time>
      </trkpt>
      <trkpt lat="47.19982" lon="-1.74303">
        <ele>65</ele>
        <time>2021-04-18T11:06:23.000Z</time>
      </trkpt>
      <trkpt lat="47.19987" lon="-1.74286">
        <ele>61</ele>
        <time>2021-04-18T11:06:25.000Z</time>
      </trkpt>
      <trkpt lat="47.1999" lon="-1.7426">
        <ele>52</ele>
        <time>2021-04-18T11:06:28.000Z</time>
      </trkpt>
      <trkpt lat="47.19991" lon="-1.74245">
        <ele>50</ele>
        <time>2021-04-18T11:06:30.000Z</time>
      </trkpt>
      <trkpt lat="47.1999" lon="-1.7423">
        <ele>54</ele>
        <time>2021-04-18T11:06:33.000Z</time>
      </trkpt>
      <trkpt lat="47.19988" lon="-1.74217">
        <ele>55</ele>
        <time>2021-04-18T11:06:35.000Z</time>
      </trkpt>
      <trkpt lat="47.19986" lon="-1.74204">
        <ele>55</ele>
        <time>2021-04-18T11:06:37.000Z</time>
      </trkpt>
      <trkpt lat="47.19984" lon="-1.74186">
        <ele>58</ele>
        <time>2021-04-18T11:06:40.000Z</time>
      </trkpt>
      <trkpt lat="47.19982" lon="-1.74168">
        <ele>58</ele>
        <time>2021-04-18T11:06:43.000Z</time>
      </trkpt>
      <trkpt lat="47.19981" lon="-1.74155">
        <ele>58</ele>
        <time>2021-04-18T11:06:45.000Z</time>
      </trkpt>
      <trkpt lat="47.19976" lon="-1.74135">
        <ele>57</ele>
        <time>2021-04-18T11:06:48.000Z</time>
      </trkpt>
      <trkpt lat="47.19975" lon="-1.74115">
        <ele>58</ele>
        <time>2021-04-18T11:06:51.000Z</time>
      </trkpt>
      <trkpt lat="47.19973" lon="-1.74096">
        <ele>59</ele>
        <time>2021-04-18T11:06:54.000Z</time>
      </trkpt>
      <trkpt lat="47.19972" lon="-1.74082">
        <ele>60</ele>
        <time>2021-04-18T11:06:56.000Z</time>
      </trkpt>
      <trkpt lat="47.1997" lon="-1.74064">
        <ele>60</ele>
        <time>2021-04-18T11:06:59.000Z</time>
      </trkpt>
      <trkpt lat="47.19963" lon="-1.74047">
        <ele>59</ele>
        <time>2021-04-18T11:07:02.000Z</time>
      </trkpt>
      <trkpt lat="47.19962" lon="-1.74033">
        <ele>60</ele>
        <time>2021-04-18T11:07:04.000Z</time>
      </trkpt>
      <trkpt lat="47.19962" lon="-1.74015">
        <ele>62</ele>
        <time>2021-04-18T11:07:07.000Z</time>
      </trkpt>
      <trkpt lat="47.19957" lon="-1.73988">
        <ele>63</ele>
        <time>2021-04-18T11:07:11.000Z</time>
      </trkpt>
      <trkpt lat="47.19955" lon="-1.73974">
        <ele>63</ele>
        <time>2021-04-18T11:07:14.000Z</time>
      </trkpt>
      <trkpt lat="47.19965" lon="-1.73961">
        <ele>64</ele>
        <time>2021-04-18T11:07:18.000Z</time>
      </trkpt>
      <trkpt lat="47.19976" lon="-1.7395">
        <ele>62</ele>
        <time>2021-04-18T11:07:21.000Z</time>
      </trkpt>
      <trkpt lat="47.19985" lon="-1.73941">
        <ele>62</ele>
        <time>2021-04-18T11:07:23.000Z</time>
      </trkpt>
      <trkpt lat="47.19991" lon="-1.73929">
        <ele>62</ele>
        <time>2021-04-18T11:07:25.000Z</time>
      </trkpt>
      <trkpt lat="47.19997" lon="-1.73914">
        <ele>62</ele>
        <time>2021-04-18T11:07:27.000Z</time>
      </trkpt>
      <trkpt lat="47.20002" lon="-1.73899">
        <ele>64</ele>
        <time>2021-04-18T11:07:29.000Z</time>
      </trkpt>
      <trkpt lat="47.20006" lon="-1.73882">
        <ele>64</ele>
        <time>2021-04-18T11:07:31.000Z</time>
      </trkpt>
      <trkpt lat="47.20008" lon="-1.73868">
        <ele>64</ele>
        <time>2021-04-18T11:07:33.000Z</time>
      </trkpt>
      <trkpt lat="47.20017" lon="-1.73848">
        <ele>65</ele>
        <time>2021-04-18T11:07:37.000Z</time>
      </trkpt>
      <trkpt lat="47.2002" lon="-1.73835">
        <ele>64</ele>
        <time>2021-04-18T11:07:39.000Z</time>
      </trkpt>
      <trkpt lat="47.20025" lon="-1.7382">
        <ele>63</ele>
        <time>2021-04-18T11:07:41.000Z</time>
      </trkpt>
      <trkpt lat="47.20027" lon="-1.73805">
        <ele>64</ele>
        <time>2021-04-18T11:07:43.000Z</time>
      </trkpt>
      <trkpt lat="47.20034" lon="-1.73789">
        <ele>64</ele>
        <time>2021-04-18T11:07:45.000Z</time>
      </trkpt>
      <trkpt lat="47.20039" lon="-1.73771">
        <ele>64</ele>
        <time>2021-04-18T11:07:47.000Z</time>
      </trkpt>
      <trkpt lat="47.20042" lon="-1.73749">
        <ele>64</ele>
        <time>2021-04-18T11:07:49.000Z</time>
      </trkpt>
      <trkpt lat="47.20043" lon="-1.73727">
        <ele>63</ele>
        <time>2021-04-18T11:07:51.000Z</time>
      </trkpt>
      <trkpt lat="47.20043" lon="-1.73709">
        <ele>64</ele>
        <time>2021-04-18T11:07:53.000Z</time>
      </trkpt>
      <trkpt lat="47.20046" lon="-1.7369">
        <ele>63</ele>
        <time>2021-04-18T11:07:55.000Z</time>
      </trkpt>
      <trkpt lat="47.20048" lon="-1.73672">
        <ele>61</ele>
        <time>2021-04-18T11:07:57.000Z</time>
      </trkpt>
      <trkpt lat="47.2005" lon="-1.73653">
        <ele>60</ele>
        <time>2021-04-18T11:07:59.000Z</time>
      </trkpt>
      <trkpt lat="47.20051" lon="-1.73634">
        <ele>60</ele>
        <time>2021-04-18T11:08:01.000Z</time>
      </trkpt>
      <trkpt lat="47.20052" lon="-1.73615">
        <ele>59</ele>
        <time>2021-04-18T11:08:03.000Z</time>
      </trkpt>
      <trkpt lat="47.20051" lon="-1.73596">
        <ele>58</ele>
        <time>2021-04-18T11:08:05.000Z</time>
      </trkpt>
      <trkpt lat="47.20049" lon="-1.73578">
        <ele>58</ele>
        <time>2021-04-18T11:08:07.000Z</time>
      </trkpt>
      <trkpt lat="47.20052" lon="-1.73564">
        <ele>58</ele>
        <time>2021-04-18T11:08:10.000Z</time>
      </trkpt>
      <trkpt lat="47.20063" lon="-1.73553">
        <ele>58</ele>
        <time>2021-04-18T11:08:13.000Z</time>
      </trkpt>
      <trkpt lat="47.20071" lon="-1.73545">
        <ele>58</ele>
        <time>2021-04-18T11:08:15.000Z</time>
      </trkpt>
      <trkpt lat="47.20079" lon="-1.7353">
        <ele>58</ele>
        <time>2021-04-18T11:08:18.000Z</time>
      </trkpt>
      <trkpt lat="47.20082" lon="-1.73514">
        <ele>57</ele>
        <time>2021-04-18T11:08:20.000Z</time>
      </trkpt>
      <trkpt lat="47.20083" lon="-1.73497">
        <ele>57</ele>
        <time>2021-04-18T11:08:22.000Z</time>
      </trkpt>
      <trkpt lat="47.20078" lon="-1.7348">
        <ele>57</ele>
        <time>2021-04-18T11:08:24.000Z</time>
      </trkpt>
      <trkpt lat="47.20075" lon="-1.7346">
        <ele>56</ele>
        <time>2021-04-18T11:08:26.000Z</time>
      </trkpt>
      <trkpt lat="47.20073" lon="-1.73439">
        <ele>56</ele>
        <time>2021-04-18T11:08:28.000Z</time>
      </trkpt>
      <trkpt lat="47.20073" lon="-1.7342">
        <ele>57</ele>
        <time>2021-04-18T11:08:30.000Z</time>
      </trkpt>
      <trkpt lat="47.20071" lon="-1.734">
        <ele>56</ele>
        <time>2021-04-18T11:08:32.000Z</time>
      </trkpt>
      <trkpt lat="47.20068" lon="-1.7338">
        <ele>55</ele>
        <time>2021-04-18T11:08:34.000Z</time>
      </trkpt>
      <trkpt lat="47.20066" lon="-1.7336">
        <ele>54</ele>
        <time>2021-04-18T11:08:36.000Z</time>
      </trkpt>
      <trkpt lat="47.20066" lon="-1.73344">
        <ele>55</ele>
        <time>2021-04-18T11:08:38.000Z</time>
      </trkpt>
      <trkpt lat="47.20067" lon="-1.73327">
        <ele>55</ele>
        <time>2021-04-18T11:08:40.000Z</time>
      </trkpt>
      <trkpt lat="47.20065" lon="-1.73309">
        <ele>55</ele>
        <time>2021-04-18T11:08:42.000Z</time>
      </trkpt>
      <trkpt lat="47.20062" lon="-1.73292">
        <ele>55</ele>
        <time>2021-04-18T11:08:44.000Z</time>
      </trkpt>
      <trkpt lat="47.20061" lon="-1.73274">
        <ele>55</ele>
        <time>2021-04-18T11:08:46.000Z</time>
      </trkpt>
      <trkpt lat="47.20064" lon="-1.73254">
        <ele>56</ele>
        <time>2021-04-18T11:08:48.000Z</time>
      </trkpt>
      <trkpt lat="47.20067" lon="-1.73235">
        <ele>57</ele>
        <time>2021-04-18T11:08:50.000Z</time>
      </trkpt>
      <trkpt lat="47.20068" lon="-1.73215">
        <ele>57</ele>
        <time>2021-04-18T11:08:52.000Z</time>
      </trkpt>
      <trkpt lat="47.20064" lon="-1.73189">
        <ele>55</ele>
        <time>2021-04-18T11:08:55.000Z</time>
      </trkpt>
      <trkpt lat="47.20062" lon="-1.73171">
        <ele>55</ele>
        <time>2021-04-18T11:08:57.000Z</time>
      </trkpt>
      <trkpt lat="47.2006" lon="-1.73153">
        <ele>55</ele>
        <time>2021-04-18T11:08:59.000Z</time>
      </trkpt>
      <trkpt lat="47.20059" lon="-1.73134">
        <ele>55</ele>
        <time>2021-04-18T11:09:01.000Z</time>
      </trkpt>
      <trkpt lat="47.20056" lon="-1.73116">
        <ele>56</ele>
        <time>2021-04-18T11:09:03.000Z</time>
      </trkpt>
      <trkpt lat="47.20054" lon="-1.73098">
        <ele>56</ele>
        <time>2021-04-18T11:09:05.000Z</time>
      </trkpt>
      <trkpt lat="47.20052" lon="-1.73079">
        <ele>56</ele>
        <time>2021-04-18T11:09:07.000Z</time>
      </trkpt>
      <trkpt lat="47.20052" lon="-1.7306">
        <ele>56</ele>
        <time>2021-04-18T11:09:09.000Z</time>
      </trkpt>
      <trkpt lat="47.2005" lon="-1.7304">
        <ele>55</ele>
        <time>2021-04-18T11:09:11.000Z</time>
      </trkpt>
      <trkpt lat="47.20047" lon="-1.73021">
        <ele>54</ele>
        <time>2021-04-18T11:09:13.000Z</time>
      </trkpt>
      <trkpt lat="47.20044" lon="-1.73003">
        <ele>54</ele>
        <time>2021-04-18T11:09:15.000Z</time>
      </trkpt>
      <trkpt lat="47.20038" lon="-1.72978">
        <ele>54</ele>
        <time>2021-04-18T11:09:18.000Z</time>
      </trkpt>
      <trkpt lat="47.20031" lon="-1.72965">
        <ele>54</ele>
        <time>2021-04-18T11:09:20.000Z</time>
      </trkpt>
      <trkpt lat="47.2002" lon="-1.72956">
        <ele>55</ele>
        <time>2021-04-18T11:09:22.000Z</time>
      </trkpt>
      <trkpt lat="47.20015" lon="-1.72943">
        <ele>55</ele>
        <time>2021-04-18T11:09:24.000Z</time>
      </trkpt>
      <trkpt lat="47.20013" lon="-1.72927">
        <ele>54</ele>
        <time>2021-04-18T11:09:26.000Z</time>
      </trkpt>
      <trkpt lat="47.20011" lon="-1.7291">
        <ele>53</ele>
        <time>2021-04-18T11:09:28.000Z</time>
      </trkpt>
      <trkpt lat="47.20009" lon="-1.72892">
        <ele>55</ele>
        <time>2021-04-18T11:09:30.000Z</time>
      </trkpt>
      <trkpt lat="47.20007" lon="-1.72874">
        <ele>54</ele>
        <time>2021-04-18T11:09:32.000Z</time>
      </trkpt>
      <trkpt lat="47.20004" lon="-1.72855">
        <ele>55</ele>
        <time>2021-04-18T11:09:34.000Z</time>
      </trkpt>
      <trkpt lat="47.19996" lon="-1.72833">
        <ele>53</ele>
        <time>2021-04-18T11:09:37.000Z</time>
      </trkpt>
      <trkpt lat="47.19991" lon="-1.72817">
        <ele>54</ele>
        <time>2021-04-18T11:09:39.000Z</time>
      </trkpt>
      <trkpt lat="47.19986" lon="-1.728">
        <ele>55</ele>
        <time>2021-04-18T11:09:41.000Z</time>
      </trkpt>
      <trkpt lat="47.1998" lon="-1.72785">
        <ele>55</ele>
        <time>2021-04-18T11:09:43.000Z</time>
      </trkpt>
      <trkpt lat="47.19976" lon="-1.72769">
        <ele>56</ele>
        <time>2021-04-18T11:09:45.000Z</time>
      </trkpt>
      <trkpt lat="47.19973" lon="-1.72751">
        <ele>57</ele>
        <time>2021-04-18T11:09:47.000Z</time>
      </trkpt>
      <trkpt lat="47.19972" lon="-1.72732">
        <ele>58</ele>
        <time>2021-04-18T11:09:49.000Z</time>
      </trkpt>
      <trkpt lat="47.1997" lon="-1.72715">
        <ele>58</ele>
        <time>2021-04-18T11:09:51.000Z</time>
      </trkpt>
      <trkpt lat="47.19969" lon="-1.72696">
        <ele>58</ele>
        <time>2021-04-18T11:09:53.000Z</time>
      </trkpt>
      <trkpt lat="47.19967" lon="-1.72669">
        <ele>59</ele>
        <time>2021-04-18T11:09:56.000Z</time>
      </trkpt>
      <trkpt lat="47.19963" lon="-1.72652">
        <ele>59</ele>
        <time>2021-04-18T11:09:58.000Z</time>
      </trkpt>
      <trkpt lat="47.19959" lon="-1.72636">
        <ele>59</ele>
        <time>2021-04-18T11:10:00.000Z</time>
      </trkpt>
      <trkpt lat="47.19956" lon="-1.72619">
        <ele>59</ele>
        <time>2021-04-18T11:10:02.000Z</time>
      </trkpt>
      <trkpt lat="47.19952" lon="-1.72603">
        <ele>59</ele>
        <time>2021-04-18T11:10:04.000Z</time>
      </trkpt>
      <trkpt lat="47.19945" lon="-1.72586">
        <ele>58</ele>
        <time>2021-04-18T11:10:06.000Z</time>
      </trkpt>
      <trkpt lat="47.19936" lon="-1.7257">
        <ele>57</ele>
        <time>2021-04-18T11:10:08.000Z</time>
      </trkpt>
      <trkpt lat="47.19929" lon="-1.72555">
        <ele>56</ele>
        <time>2021-04-18T11:10:10.000Z</time>
      </trkpt>
      <trkpt lat="47.19923" lon="-1.7254">
        <ele>55</ele>
        <time>2021-04-18T11:10:12.000Z</time>
      </trkpt>
      <trkpt lat="47.19915" lon="-1.72528">
        <ele>54</ele>
        <time>2021-04-18T11:10:14.000Z</time>
      </trkpt>
      <trkpt lat="47.19908" lon="-1.72513">
        <ele>54</ele>
        <time>2021-04-18T11:10:16.000Z</time>
      </trkpt>
      <trkpt lat="47.19902" lon="-1.72498">
        <ele>55</ele>
        <time>2021-04-18T11:10:18.000Z</time>
      </trkpt>
      <trkpt lat="47.19894" lon="-1.72485">
        <ele>55</ele>
        <time>2021-04-18T11:10:20.000Z</time>
      </trkpt>
      <trkpt lat="47.19886" lon="-1.72472">
        <ele>55</ele>
        <time>2021-04-18T11:10:22.000Z</time>
      </trkpt>
      <trkpt lat="47.1988" lon="-1.72455">
        <ele>55</ele>
        <time>2021-04-18T11:10:25.000Z</time>
      </trkpt>
      <trkpt lat="47.1989" lon="-1.72453">
        <ele>56</ele>
        <time>2021-04-18T11:10:27.000Z</time>
      </trkpt>
      <trkpt lat="47.19905" lon="-1.72454">
        <ele>56</ele>
        <time>2021-04-18T11:10:29.000Z</time>
      </trkpt>
      <trkpt lat="47.19924" lon="-1.72453">
        <ele>54</ele>
        <time>2021-04-18T11:10:32.000Z</time>
      </trkpt>
      <trkpt lat="47.19941" lon="-1.72449">
        <ele>53</ele>
        <time>2021-04-18T11:10:35.000Z</time>
      </trkpt>
      <trkpt lat="47.1995" lon="-1.72446">
        <ele>52</ele>
        <time>2021-04-18T11:10:37.000Z</time>
      </trkpt>
      <trkpt lat="47.19962" lon="-1.72436">
        <ele>51</ele>
        <time>2021-04-18T11:10:40.000Z</time>
      </trkpt>
      <trkpt lat="47.19968" lon="-1.72413">
        <ele>51</ele>
        <time>2021-04-18T11:10:44.000Z</time>
      </trkpt>
      <trkpt lat="47.1997" lon="-1.72399">
        <ele>51</ele>
        <time>2021-04-18T11:10:46.000Z</time>
      </trkpt>
      <trkpt lat="47.19971" lon="-1.72385">
        <ele>51</ele>
        <time>2021-04-18T11:10:48.000Z</time>
      </trkpt>
      <trkpt lat="47.19966" lon="-1.72368">
        <ele>51</ele>
        <time>2021-04-18T11:10:51.000Z</time>
      </trkpt>
      <trkpt lat="47.19953" lon="-1.72358">
        <ele>52</ele>
        <time>2021-04-18T11:10:54.000Z</time>
      </trkpt>
      <trkpt lat="47.19943" lon="-1.72352">
        <ele>52</ele>
        <time>2021-04-18T11:10:56.000Z</time>
      </trkpt>
      <trkpt lat="47.19939" lon="-1.72335">
        <ele>52</ele>
        <time>2021-04-18T11:10:58.000Z</time>
      </trkpt>
      <trkpt lat="47.19938" lon="-1.72319">
        <ele>54</ele>
        <time>2021-04-18T11:11:00.000Z</time>
      </trkpt>
      <trkpt lat="47.19936" lon="-1.72303">
        <ele>54</ele>
        <time>2021-04-18T11:11:02.000Z</time>
      </trkpt>
      <trkpt lat="47.19935" lon="-1.72286">
        <ele>54</ele>
        <time>2021-04-18T11:11:04.000Z</time>
      </trkpt>
      <trkpt lat="47.19937" lon="-1.7227">
        <ele>53</ele>
        <time>2021-04-18T11:11:06.000Z</time>
      </trkpt>
      <trkpt lat="47.19928" lon="-1.72249">
        <ele>54</ele>
        <time>2021-04-18T11:11:10.000Z</time>
      </trkpt>
      <trkpt lat="47.19917" lon="-1.72241">
        <ele>52</ele>
        <time>2021-04-18T11:11:12.000Z</time>
      </trkpt>
      <trkpt lat="47.19908" lon="-1.72232">
        <ele>53</ele>
        <time>2021-04-18T11:11:14.000Z</time>
      </trkpt>
      <trkpt lat="47.19903" lon="-1.7222">
        <ele>55</ele>
        <time>2021-04-18T11:11:17.000Z</time>
      </trkpt>
      <trkpt lat="47.19897" lon="-1.72207">
        <ele>56</ele>
        <time>2021-04-18T11:11:21.000Z</time>
      </trkpt>
      <trkpt lat="47.19889" lon="-1.72194">
        <ele>58</ele>
        <time>2021-04-18T11:11:25.000Z</time>
      </trkpt>
      <trkpt lat="47.19882" lon="-1.72185">
        <ele>59</ele>
        <time>2021-04-18T11:11:28.000Z</time>
      </trkpt>
      <trkpt lat="47.19872" lon="-1.72171">
        <ele>62</ele>
        <time>2021-04-18T11:11:31.000Z</time>
      </trkpt>
      <trkpt lat="47.19866" lon="-1.72157">
        <ele>64</ele>
        <time>2021-04-18T11:11:34.000Z</time>
      </trkpt>
      <trkpt lat="47.1986" lon="-1.72144">
        <ele>66</ele>
        <time>2021-04-18T11:11:37.000Z</time>
      </trkpt>
      <trkpt lat="47.1986" lon="-1.72127">
        <ele>66</ele>
        <time>2021-04-18T11:11:41.000Z</time>
      </trkpt>
      <trkpt lat="47.1986" lon="-1.72113">
        <ele>66</ele>
        <time>2021-04-18T11:11:46.000Z</time>
      </trkpt>
      <trkpt lat="47.19867" lon="-1.72105">
        <ele>56</ele>
        <time>2021-04-18T11:12:08.000Z</time>
      </trkpt>
      <trkpt lat="47.19858" lon="-1.72105">
        <ele>56</ele>
        <time>2021-04-18T11:13:05.000Z</time>
      </trkpt>
      <trkpt lat="47.19846" lon="-1.72103">
        <ele>58</ele>
        <time>2021-04-18T11:13:34.000Z</time>
      </trkpt>
      <trkpt lat="47.19839" lon="-1.72116">
        <ele>56</ele>
        <time>2021-04-18T11:13:37.000Z</time>
      </trkpt>
      <trkpt lat="47.19832" lon="-1.72132">
        <ele>55</ele>
        <time>2021-04-18T11:13:39.000Z</time>
      </trkpt>
      <trkpt lat="47.19831" lon="-1.72147">
        <ele>53</ele>
        <time>2021-04-18T11:13:41.000Z</time>
      </trkpt>
      <trkpt lat="47.19835" lon="-1.7216">
        <ele>52</ele>
        <time>2021-04-18T11:13:43.000Z</time>
      </trkpt>
      <trkpt lat="47.19832" lon="-1.72178">
        <ele>50</ele>
        <time>2021-04-18T11:13:46.000Z</time>
      </trkpt>
      <trkpt lat="47.19824" lon="-1.72189">
        <ele>50</ele>
        <time>2021-04-18T11:13:48.000Z</time>
      </trkpt>
      <trkpt lat="47.19812" lon="-1.72193">
        <ele>50</ele>
        <time>2021-04-18T11:13:51.000Z</time>
      </trkpt>
      <trkpt lat="47.19802" lon="-1.72197">
        <ele>51</ele>
        <time>2021-04-18T11:13:53.000Z</time>
      </trkpt>
      <trkpt lat="47.19791" lon="-1.72195">
        <ele>51</ele>
        <time>2021-04-18T11:13:56.000Z</time>
      </trkpt>
      <trkpt lat="47.19784" lon="-1.72178">
        <ele>53</ele>
        <time>2021-04-18T11:13:59.000Z</time>
      </trkpt>
      <trkpt lat="47.19778" lon="-1.72166">
        <ele>54</ele>
        <time>2021-04-18T11:14:02.000Z</time>
      </trkpt>
      <trkpt lat="47.19773" lon="-1.72155">
        <ele>54</ele>
        <time>2021-04-18T11:14:06.000Z</time>
      </trkpt>
      <trkpt lat="47.19782" lon="-1.7215">
        <ele>37</ele>
        <time>2021-04-18T11:21:09.000Z</time>
      </trkpt>
      <trkpt lat="47.19773" lon="-1.72153">
        <ele>46</ele>
        <time>2021-04-18T11:22:18.000Z</time>
      </trkpt>
      <trkpt lat="47.19772" lon="-1.72136">
        <ele>47</ele>
        <time>2021-04-18T11:24:10.000Z</time>
      </trkpt>
      <trkpt lat="47.19772" lon="-1.7212">
        <ele>48</ele>
        <time>2021-04-18T11:24:13.000Z</time>
      </trkpt>
      <trkpt lat="47.19773" lon="-1.72103">
        <ele>46</ele>
        <time>2021-04-18T11:24:16.000Z</time>
      </trkpt>
      <trkpt lat="47.1978" lon="-1.7209">
        <ele>45</ele>
        <time>2021-04-18T11:24:20.000Z</time>
      </trkpt>
      <trkpt lat="47.19791" lon="-1.72087">
        <ele>45</ele>
        <time>2021-04-18T11:24:23.000Z</time>
      </trkpt>
      <trkpt lat="47.198" lon="-1.72087">
        <ele>47</ele>
        <time>2021-04-18T11:24:26.000Z</time>
      </trkpt>
      <trkpt lat="47.19809" lon="-1.72087">
        <ele>48</ele>
        <time>2021-04-18T11:24:29.000Z</time>
      </trkpt>
      <trkpt lat="47.1981" lon="-1.72071">
        <ele>49</ele>
        <time>2021-04-18T11:24:33.000Z</time>
      </trkpt>
      <trkpt lat="47.19805" lon="-1.72058">
        <ele>50</ele>
        <time>2021-04-18T11:24:36.000Z</time>
      </trkpt>
      <trkpt lat="47.198" lon="-1.72039">
        <ele>54</ele>
        <time>2021-04-18T11:24:42.000Z</time>
      </trkpt>
      <trkpt lat="47.19794" lon="-1.72029">
        <ele>54</ele>
        <time>2021-04-18T11:24:45.000Z</time>
      </trkpt>
      <trkpt lat="47.19785" lon="-1.72016">
        <ele>56</ele>
        <time>2021-04-18T11:24:49.000Z</time>
      </trkpt>
      <trkpt lat="47.19776" lon="-1.72005">
        <ele>56</ele>
        <time>2021-04-18T11:24:53.000Z</time>
      </trkpt>
      <trkpt lat="47.19766" lon="-1.71998">
        <ele>57</ele>
        <time>2021-04-18T11:24:56.000Z</time>
      </trkpt>
      <trkpt lat="47.19754" lon="-1.71991">
        <ele>58</ele>
        <time>2021-04-18T11:24:59.000Z</time>
      </trkpt>
      <trkpt lat="47.19743" lon="-1.71984">
        <ele>58</ele>
        <time>2021-04-18T11:25:02.000Z</time>
      </trkpt>
      <trkpt lat="47.19732" lon="-1.71977">
        <ele>58</ele>
        <time>2021-04-18T11:25:05.000Z</time>
      </trkpt>
      <trkpt lat="47.19721" lon="-1.71969">
        <ele>60</ele>
        <time>2021-04-18T11:25:09.000Z</time>
      </trkpt>
      <trkpt lat="47.19712" lon="-1.71964">
        <ele>62</ele>
        <time>2021-04-18T11:25:12.000Z</time>
      </trkpt>
      <trkpt lat="47.19702" lon="-1.71958">
        <ele>64</ele>
        <time>2021-04-18T11:25:15.000Z</time>
      </trkpt>
      <trkpt lat="47.19692" lon="-1.71952">
        <ele>65</ele>
        <time>2021-04-18T11:25:18.000Z</time>
      </trkpt>
      <trkpt lat="47.19682" lon="-1.71946">
        <ele>66</ele>
        <time>2021-04-18T11:25:21.000Z</time>
      </trkpt>
      <trkpt lat="47.19672" lon="-1.7194">
        <ele>66</ele>
        <time>2021-04-18T11:25:24.000Z</time>
      </trkpt>
      <trkpt lat="47.19662" lon="-1.71936">
        <ele>67</ele>
        <time>2021-04-18T11:25:27.000Z</time>
      </trkpt>
      <trkpt lat="47.19654" lon="-1.71942">
        <ele>66</ele>
        <time>2021-04-18T11:25:30.000Z</time>
      </trkpt>
      <trkpt lat="47.1965" lon="-1.71955">
        <ele>67</ele>
        <time>2021-04-18T11:25:33.000Z</time>
      </trkpt>
      <trkpt lat="47.19643" lon="-1.71968">
        <ele>66</ele>
        <time>2021-04-18T11:25:36.000Z</time>
      </trkpt>
      <trkpt lat="47.19631" lon="-1.71977">
        <ele>63</ele>
        <time>2021-04-18T11:25:39.000Z</time>
      </trkpt>
      <trkpt lat="47.19621" lon="-1.71983">
        <ele>61</ele>
        <time>2021-04-18T11:25:42.000Z</time>
      </trkpt>
      <trkpt lat="47.19614" lon="-1.7197">
        <ele>59</ele>
        <time>2021-04-18T11:25:45.000Z</time>
      </trkpt>
      <trkpt lat="47.1961" lon="-1.71953">
        <ele>60</ele>
        <time>2021-04-18T11:25:48.000Z</time>
      </trkpt>
      <trkpt lat="47.19606" lon="-1.71932">
        <ele>59</ele>
        <time>2021-04-18T11:25:51.000Z</time>
      </trkpt>
      <trkpt lat="47.19604" lon="-1.71919">
        <ele>58</ele>
        <time>2021-04-18T11:25:53.000Z</time>
      </trkpt>
      <trkpt lat="47.196" lon="-1.71899">
        <ele>57</ele>
        <time>2021-04-18T11:25:56.000Z</time>
      </trkpt>
      <trkpt lat="47.19598" lon="-1.71885">
        <ele>57</ele>
        <time>2021-04-18T11:25:58.000Z</time>
      </trkpt>
      <trkpt lat="47.19595" lon="-1.71872">
        <ele>57</ele>
        <time>2021-04-18T11:26:00.000Z</time>
      </trkpt>
      <trkpt lat="47.1959" lon="-1.71852">
        <ele>56</ele>
        <time>2021-04-18T11:26:03.000Z</time>
      </trkpt>
      <trkpt lat="47.19587" lon="-1.71839">
        <ele>56</ele>
        <time>2021-04-18T11:26:05.000Z</time>
      </trkpt>
      <trkpt lat="47.19584" lon="-1.71824">
        <ele>56</ele>
        <time>2021-04-18T11:26:07.000Z</time>
      </trkpt>
      <trkpt lat="47.19581" lon="-1.71811">
        <ele>55</ele>
        <time>2021-04-18T11:26:09.000Z</time>
      </trkpt>
      <trkpt lat="47.1958" lon="-1.71797">
        <ele>55</ele>
        <time>2021-04-18T11:26:11.000Z</time>
      </trkpt>
      <trkpt lat="47.19578" lon="-1.71782">
        <ele>55</ele>
        <time>2021-04-18T11:26:13.000Z</time>
      </trkpt>
      <trkpt lat="47.19576" lon="-1.71768">
        <ele>54</ele>
        <time>2021-04-18T11:26:15.000Z</time>
      </trkpt>
      <trkpt lat="47.19574" lon="-1.71755">
        <ele>54</ele>
        <time>2021-04-18T11:26:17.000Z</time>
      </trkpt>
      <trkpt lat="47.19571" lon="-1.71735">
        <ele>54</ele>
        <time>2021-04-18T11:26:20.000Z</time>
      </trkpt>
      <trkpt lat="47.19569" lon="-1.71722">
        <ele>54</ele>
        <time>2021-04-18T11:26:22.000Z</time>
      </trkpt>
      <trkpt lat="47.19565" lon="-1.71695">
        <ele>55</ele>
        <time>2021-04-18T11:26:26.000Z</time>
      </trkpt>
      <trkpt lat="47.19563" lon="-1.71682">
        <ele>55</ele>
        <time>2021-04-18T11:26:28.000Z</time>
      </trkpt>
      <trkpt lat="47.19559" lon="-1.71661">
        <ele>55</ele>
        <time>2021-04-18T11:26:31.000Z</time>
      </trkpt>
      <trkpt lat="47.19556" lon="-1.71647">
        <ele>55</ele>
        <time>2021-04-18T11:26:33.000Z</time>
      </trkpt>
      <trkpt lat="47.19554" lon="-1.71633">
        <ele>56</ele>
        <time>2021-04-18T11:26:35.000Z</time>
      </trkpt>
      <trkpt lat="47.1955" lon="-1.71613">
        <ele>56</ele>
        <time>2021-04-18T11:26:38.000Z</time>
      </trkpt>
      <trkpt lat="47.19547" lon="-1.71599">
        <ele>57</ele>
        <time>2021-04-18T11:26:40.000Z</time>
      </trkpt>
      <trkpt lat="47.19542" lon="-1.7158">
        <ele>57</ele>
        <time>2021-04-18T11:26:43.000Z</time>
      </trkpt>
      <trkpt lat="47.19539" lon="-1.71568">
        <ele>58</ele>
        <time>2021-04-18T11:26:45.000Z</time>
      </trkpt>
      <trkpt lat="47.19534" lon="-1.71549">
        <ele>58</ele>
        <time>2021-04-18T11:26:48.000Z</time>
      </trkpt>
      <trkpt lat="47.19531" lon="-1.71536">
        <ele>59</ele>
        <time>2021-04-18T11:26:50.000Z</time>
      </trkpt>
      <trkpt lat="47.19528" lon="-1.71523">
        <ele>59</ele>
        <time>2021-04-18T11:26:52.000Z</time>
      </trkpt>
      <trkpt lat="47.19525" lon="-1.71511">
        <ele>60</ele>
        <time>2021-04-18T11:26:54.000Z</time>
      </trkpt>
      <trkpt lat="47.19522" lon="-1.71498">
        <ele>60</ele>
        <time>2021-04-18T11:26:56.000Z</time>
      </trkpt>
      <trkpt lat="47.19517" lon="-1.71479">
        <ele>61</ele>
        <time>2021-04-18T11:26:59.000Z</time>
      </trkpt>
      <trkpt lat="47.19512" lon="-1.71456">
        <ele>61</ele>
        <time>2021-04-18T11:27:03.000Z</time>
      </trkpt>
      <trkpt lat="47.1951" lon="-1.71443">
        <ele>61</ele>
        <time>2021-04-18T11:27:07.000Z</time>
      </trkpt>
      <trkpt lat="47.19501" lon="-1.71436">
        <ele>61</ele>
        <time>2021-04-18T11:27:13.000Z</time>
      </trkpt>
      <trkpt lat="47.19494" lon="-1.71426">
        <ele>62</ele>
        <time>2021-04-18T11:27:17.000Z</time>
      </trkpt>
      <trkpt lat="47.19491" lon="-1.71409">
        <ele>62</ele>
        <time>2021-04-18T11:27:20.000Z</time>
      </trkpt>
      <trkpt lat="47.19487" lon="-1.7139">
        <ele>62</ele>
        <time>2021-04-18T11:27:23.000Z</time>
      </trkpt>
      <trkpt lat="47.19482" lon="-1.71372">
        <ele>63</ele>
        <time>2021-04-18T11:27:26.000Z</time>
      </trkpt>
      <trkpt lat="47.19479" lon="-1.71359">
        <ele>64</ele>
        <time>2021-04-18T11:27:28.000Z</time>
      </trkpt>
      <trkpt lat="47.19475" lon="-1.71341">
        <ele>64</ele>
        <time>2021-04-18T11:27:31.000Z</time>
      </trkpt>
      <trkpt lat="47.19471" lon="-1.71325">
        <ele>65</ele>
        <time>2021-04-18T11:27:34.000Z</time>
      </trkpt>
      <trkpt lat="47.19469" lon="-1.7131">
        <ele>65</ele>
        <time>2021-04-18T11:27:37.000Z</time>
      </trkpt>
      <trkpt lat="47.19463" lon="-1.71296">
        <ele>65</ele>
        <time>2021-04-18T11:27:40.000Z</time>
      </trkpt>
      <trkpt lat="47.19458" lon="-1.71282">
        <ele>66</ele>
        <time>2021-04-18T11:27:43.000Z</time>
      </trkpt>
      <trkpt lat="47.19458" lon="-1.71265">
        <ele>67</ele>
        <time>2021-04-18T11:27:46.000Z</time>
      </trkpt>
      <trkpt lat="47.19457" lon="-1.71248">
        <ele>68</ele>
        <time>2021-04-18T11:27:49.000Z</time>
      </trkpt>
      <trkpt lat="47.19457" lon="-1.71234">
        <ele>68</ele>
        <time>2021-04-18T11:27:53.000Z</time>
      </trkpt>
      <trkpt lat="47.19456" lon="-1.71219">
        <ele>67</ele>
        <time>2021-04-18T11:27:56.000Z</time>
      </trkpt>
      <trkpt lat="47.19448" lon="-1.7121">
        <ele>69</ele>
        <time>2021-04-18T11:27:59.000Z</time>
      </trkpt>
      <trkpt lat="47.19439" lon="-1.71201">
        <ele>69</ele>
        <time>2021-04-18T11:28:02.000Z</time>
      </trkpt>
      <trkpt lat="47.1943" lon="-1.71194">
        <ele>68</ele>
        <time>2021-04-18T11:28:05.000Z</time>
      </trkpt>
      <trkpt lat="47.19422" lon="-1.71184">
        <ele>69</ele>
        <time>2021-04-18T11:28:08.000Z</time>
      </trkpt>
      <trkpt lat="47.19424" lon="-1.71169">
        <ele>68</ele>
        <time>2021-04-18T11:28:12.000Z</time>
      </trkpt>
      <trkpt lat="47.19435" lon="-1.71155">
        <ele>69</ele>
        <time>2021-04-18T11:28:16.000Z</time>
      </trkpt>
      <trkpt lat="47.19443" lon="-1.71143">
        <ele>69</ele>
        <time>2021-04-18T11:28:19.000Z</time>
      </trkpt>
      <trkpt lat="47.19451" lon="-1.7113">
        <ele>69</ele>
        <time>2021-04-18T11:28:22.000Z</time>
      </trkpt>
      <trkpt lat="47.19458" lon="-1.71119">
        <ele>69</ele>
        <time>2021-04-18T11:28:25.000Z</time>
      </trkpt>
      <trkpt lat="47.19469" lon="-1.71105">
        <ele>70</ele>
        <time>2021-04-18T11:28:28.000Z</time>
      </trkpt>
      <trkpt lat="47.19476" lon="-1.71096">
        <ele>70</ele>
        <time>2021-04-18T11:28:30.000Z</time>
      </trkpt>
      <trkpt lat="47.19489" lon="-1.71078">
        <ele>71</ele>
        <time>2021-04-18T11:28:34.000Z</time>
      </trkpt>
      <trkpt lat="47.19497" lon="-1.71065">
        <ele>73</ele>
        <time>2021-04-18T11:28:37.000Z</time>
      </trkpt>
      <trkpt lat="47.19506" lon="-1.71055">
        <ele>75</ele>
        <time>2021-04-18T11:28:40.000Z</time>
      </trkpt>
      <trkpt lat="47.19517" lon="-1.71049">
        <ele>76</ele>
        <time>2021-04-18T11:28:43.000Z</time>
      </trkpt>
      <trkpt lat="47.19529" lon="-1.71044">
        <ele>76</ele>
        <time>2021-04-18T11:28:46.000Z</time>
      </trkpt>
      <trkpt lat="47.19545" lon="-1.71035">
        <ele>74</ele>
        <time>2021-04-18T11:28:50.000Z</time>
      </trkpt>
      <trkpt lat="47.19558" lon="-1.71032">
        <ele>74</ele>
        <time>2021-04-18T11:28:53.000Z</time>
      </trkpt>
      <trkpt lat="47.19572" lon="-1.71023">
        <ele>70</ele>
        <time>2021-04-18T11:28:56.000Z</time>
      </trkpt>
      <trkpt lat="47.19581" lon="-1.71019">
        <ele>72</ele>
        <time>2021-04-18T11:28:59.000Z</time>
      </trkpt>
      <trkpt lat="47.19591" lon="-1.71016">
        <ele>72</ele>
        <time>2021-04-18T11:29:01.000Z</time>
      </trkpt>
      <trkpt lat="47.196" lon="-1.7101">
        <ele>72</ele>
        <time>2021-04-18T11:29:03.000Z</time>
      </trkpt>
      <trkpt lat="47.19609" lon="-1.71004">
        <ele>72</ele>
        <time>2021-04-18T11:29:05.000Z</time>
      </trkpt>
      <trkpt lat="47.19621" lon="-1.70996">
        <ele>72</ele>
        <time>2021-04-18T11:29:08.000Z</time>
      </trkpt>
      <trkpt lat="47.19629" lon="-1.70991">
        <ele>72</ele>
        <time>2021-04-18T11:29:10.000Z</time>
      </trkpt>
      <trkpt lat="47.19641" lon="-1.70985">
        <ele>72</ele>
        <time>2021-04-18T11:29:13.000Z</time>
      </trkpt>
      <trkpt lat="47.1965" lon="-1.7098">
        <ele>72</ele>
        <time>2021-04-18T11:29:15.000Z</time>
      </trkpt>
      <trkpt lat="47.19661" lon="-1.70971">
        <ele>72</ele>
        <time>2021-04-18T11:29:18.000Z</time>
      </trkpt>
      <trkpt lat="47.19672" lon="-1.70963">
        <ele>73</ele>
        <time>2021-04-18T11:29:21.000Z</time>
      </trkpt>
      <trkpt lat="47.19681" lon="-1.70953">
        <ele>73</ele>
        <time>2021-04-18T11:29:24.000Z</time>
      </trkpt>
      <trkpt lat="47.1969" lon="-1.70942">
        <ele>73</ele>
        <time>2021-04-18T11:29:27.000Z</time>
      </trkpt>
      <trkpt lat="47.19696" lon="-1.70932">
        <ele>74</ele>
        <time>2021-04-18T11:29:29.000Z</time>
      </trkpt>
      <trkpt lat="47.19701" lon="-1.7092">
        <ele>75</ele>
        <time>2021-04-18T11:29:31.000Z</time>
      </trkpt>
      <trkpt lat="47.19704" lon="-1.70906">
        <ele>76</ele>
        <time>2021-04-18T11:29:33.000Z</time>
      </trkpt>
      <trkpt lat="47.19705" lon="-1.70886">
        <ele>77</ele>
        <time>2021-04-18T11:29:36.000Z</time>
      </trkpt>
      <trkpt lat="47.19706" lon="-1.70866">
        <ele>77</ele>
        <time>2021-04-18T11:29:39.000Z</time>
      </trkpt>
      <trkpt lat="47.1971" lon="-1.7085">
        <ele>77</ele>
        <time>2021-04-18T11:29:41.000Z</time>
      </trkpt>
      <trkpt lat="47.19714" lon="-1.70834">
        <ele>77</ele>
        <time>2021-04-18T11:29:43.000Z</time>
      </trkpt>
      <trkpt lat="47.19714" lon="-1.70819">
        <ele>70</ele>
        <time>2021-04-18T11:29:45.000Z</time>
      </trkpt>
      <trkpt lat="47.19715" lon="-1.70802">
        <ele>69</ele>
        <time>2021-04-18T11:29:47.000Z</time>
      </trkpt>
      <trkpt lat="47.19716" lon="-1.70786">
        <ele>70</ele>
        <time>2021-04-18T11:29:49.000Z</time>
      </trkpt>
      <trkpt lat="47.19719" lon="-1.70772">
        <ele>71</ele>
        <time>2021-04-18T11:29:51.000Z</time>
      </trkpt>
      <trkpt lat="47.19722" lon="-1.70756">
        <ele>72</ele>
        <time>2021-04-18T11:29:53.000Z</time>
      </trkpt>
      <trkpt lat="47.19724" lon="-1.70739">
        <ele>72</ele>
        <time>2021-04-18T11:29:55.000Z</time>
      </trkpt>
      <trkpt lat="47.19722" lon="-1.70723">
        <ele>72</ele>
        <time>2021-04-18T11:29:57.000Z</time>
      </trkpt>
      <trkpt lat="47.19719" lon="-1.70705">
        <ele>71</ele>
        <time>2021-04-18T11:29:59.000Z</time>
      </trkpt>
      <trkpt lat="47.19715" lon="-1.70686">
        <ele>73</ele>
        <time>2021-04-18T11:30:01.000Z</time>
      </trkpt>
      <trkpt lat="47.19706" lon="-1.70662">
        <ele>74</ele>
        <time>2021-04-18T11:30:04.000Z</time>
      </trkpt>
      <trkpt lat="47.197" lon="-1.70647">
        <ele>74</ele>
        <time>2021-04-18T11:30:07.000Z</time>
      </trkpt>
      <trkpt lat="47.19695" lon="-1.7063">
        <ele>73</ele>
        <time>2021-04-18T11:30:10.000Z</time>
      </trkpt>
      <trkpt lat="47.19688" lon="-1.70608">
        <ele>75</ele>
        <time>2021-04-18T11:30:13.000Z</time>
      </trkpt>
      <trkpt lat="47.19689" lon="-1.70594">
        <ele>71</ele>
        <time>2021-04-18T11:30:22.000Z</time>
      </trkpt>
      <trkpt lat="47.19698" lon="-1.70589">
        <ele>71</ele>
        <time>2021-04-18T11:30:27.000Z</time>
      </trkpt>
      <trkpt lat="47.19704" lon="-1.70575">
        <ele>70</ele>
        <time>2021-04-18T11:30:31.000Z</time>
      </trkpt>
      <trkpt lat="47.19705" lon="-1.70559">
        <ele>68</ele>
        <time>2021-04-18T11:30:35.000Z</time>
      </trkpt>
      <trkpt lat="47.1971" lon="-1.70545">
        <ele>67</ele>
        <time>2021-04-18T11:30:38.000Z</time>
      </trkpt>
      <trkpt lat="47.19714" lon="-1.70531">
        <ele>67</ele>
        <time>2021-04-18T11:30:41.000Z</time>
      </trkpt>
      <trkpt lat="47.19712" lon="-1.70516">
        <ele>65</ele>
        <time>2021-04-18T11:30:44.000Z</time>
      </trkpt>
      <trkpt lat="47.19707" lon="-1.70503">
        <ele>66</ele>
        <time>2021-04-18T11:30:46.000Z</time>
      </trkpt>
      <trkpt lat="47.19705" lon="-1.70481">
        <ele>66</ele>
        <time>2021-04-18T11:30:49.000Z</time>
      </trkpt>
      <trkpt lat="47.19703" lon="-1.70466">
        <ele>66</ele>
        <time>2021-04-18T11:30:52.000Z</time>
      </trkpt>
      <trkpt lat="47.19704" lon="-1.70443">
        <ele>67</ele>
        <time>2021-04-18T11:30:54.000Z</time>
      </trkpt>
      <trkpt lat="47.19704" lon="-1.70422">
        <ele>66</ele>
        <time>2021-04-18T11:30:56.000Z</time>
      </trkpt>
      <trkpt lat="47.19702" lon="-1.70405">
        <ele>65</ele>
        <time>2021-04-18T11:30:58.000Z</time>
      </trkpt>
      <trkpt lat="47.19701" lon="-1.70391">
        <ele>64</ele>
        <time>2021-04-18T11:31:00.000Z</time>
      </trkpt>
      <trkpt lat="47.19701" lon="-1.70375">
        <ele>65</ele>
        <time>2021-04-18T11:31:02.000Z</time>
      </trkpt>
      <trkpt lat="47.197" lon="-1.70357">
        <ele>69</ele>
        <time>2021-04-18T11:31:05.000Z</time>
      </trkpt>
      <trkpt lat="47.19696" lon="-1.70343">
        <ele>70</ele>
        <time>2021-04-18T11:31:08.000Z</time>
      </trkpt>
      <trkpt lat="47.19695" lon="-1.70329">
        <ele>71</ele>
        <time>2021-04-18T11:31:10.000Z</time>
      </trkpt>
      <trkpt lat="47.19689" lon="-1.7031">
        <ele>72</ele>
        <time>2021-04-18T11:31:13.000Z</time>
      </trkpt>
      <trkpt lat="47.19687" lon="-1.70294">
        <ele>72</ele>
        <time>2021-04-18T11:31:15.000Z</time>
      </trkpt>
      <trkpt lat="47.19687" lon="-1.70277">
        <ele>71</ele>
        <time>2021-04-18T11:31:17.000Z</time>
      </trkpt>
      <trkpt lat="47.19688" lon="-1.7026">
        <ele>70</ele>
        <time>2021-04-18T11:31:20.000Z</time>
      </trkpt>
      <trkpt lat="47.19688" lon="-1.70244">
        <ele>69</ele>
        <time>2021-04-18T11:31:22.000Z</time>
      </trkpt>
      <trkpt lat="47.19684" lon="-1.70227">
        <ele>69</ele>
        <time>2021-04-18T11:31:24.000Z</time>
      </trkpt>
      <trkpt lat="47.19681" lon="-1.7021">
        <ele>67</ele>
        <time>2021-04-18T11:31:26.000Z</time>
      </trkpt>
      <trkpt lat="47.19678" lon="-1.70194">
        <ele>67</ele>
        <time>2021-04-18T11:31:28.000Z</time>
      </trkpt>
      <trkpt lat="47.19676" lon="-1.70181">
        <ele>64</ele>
        <time>2021-04-18T11:31:30.000Z</time>
      </trkpt>
      <trkpt lat="47.19675" lon="-1.70162">
        <ele>64</ele>
        <time>2021-04-18T11:31:33.000Z</time>
      </trkpt>
      <trkpt lat="47.19679" lon="-1.70141">
        <ele>64</ele>
        <time>2021-04-18T11:31:35.000Z</time>
      </trkpt>
      <trkpt lat="47.19682" lon="-1.70123">
        <ele>63</ele>
        <time>2021-04-18T11:31:37.000Z</time>
      </trkpt>
      <trkpt lat="47.19684" lon="-1.70099">
        <ele>59</ele>
        <time>2021-04-18T11:31:40.000Z</time>
      </trkpt>
      <trkpt lat="47.19688" lon="-1.70086">
        <ele>60</ele>
        <time>2021-04-18T11:31:42.000Z</time>
      </trkpt>
      <trkpt lat="47.1969" lon="-1.7007">
        <ele>60</ele>
        <time>2021-04-18T11:31:44.000Z</time>
      </trkpt>
      <trkpt lat="47.19692" lon="-1.70054">
        <ele>58</ele>
        <time>2021-04-18T11:31:46.000Z</time>
      </trkpt>
      <trkpt lat="47.19695" lon="-1.70041">
        <ele>58</ele>
        <time>2021-04-18T11:31:48.000Z</time>
      </trkpt>
      <trkpt lat="47.19691" lon="-1.70026">
        <ele>59</ele>
        <time>2021-04-18T11:31:50.000Z</time>
      </trkpt>
      <trkpt lat="47.1969" lon="-1.70013">
        <ele>62</ele>
        <time>2021-04-18T11:31:52.000Z</time>
      </trkpt>
      <trkpt lat="47.19691" lon="-1.69998">
        <ele>64</ele>
        <time>2021-04-18T11:31:54.000Z</time>
      </trkpt>
      <trkpt lat="47.19692" lon="-1.69982">
        <ele>64</ele>
        <time>2021-04-18T11:31:56.000Z</time>
      </trkpt>
      <trkpt lat="47.19692" lon="-1.69968">
        <ele>65</ele>
        <time>2021-04-18T11:31:58.000Z</time>
      </trkpt>
      <trkpt lat="47.19689" lon="-1.6995">
        <ele>64</ele>
        <time>2021-04-18T11:32:00.000Z</time>
      </trkpt>
      <trkpt lat="47.19686" lon="-1.69933">
        <ele>64</ele>
        <time>2021-04-18T11:32:02.000Z</time>
      </trkpt>
      <trkpt lat="47.19681" lon="-1.69916">
        <ele>63</ele>
        <time>2021-04-18T11:32:04.000Z</time>
      </trkpt>
      <trkpt lat="47.19677" lon="-1.699">
        <ele>63</ele>
        <time>2021-04-18T11:32:06.000Z</time>
      </trkpt>
      <trkpt lat="47.19677" lon="-1.69884">
        <ele>63</ele>
        <time>2021-04-18T11:32:08.000Z</time>
      </trkpt>
      <trkpt lat="47.19679" lon="-1.69869">
        <ele>62</ele>
        <time>2021-04-18T11:32:10.000Z</time>
      </trkpt>
      <trkpt lat="47.19681" lon="-1.69854">
        <ele>61</ele>
        <time>2021-04-18T11:32:12.000Z</time>
      </trkpt>
      <trkpt lat="47.19683" lon="-1.69841">
        <ele>60</ele>
        <time>2021-04-18T11:32:14.000Z</time>
      </trkpt>
      <trkpt lat="47.19685" lon="-1.69824">
        <ele>60</ele>
        <time>2021-04-18T11:32:17.000Z</time>
      </trkpt>
      <trkpt lat="47.19679" lon="-1.69809">
        <ele>61</ele>
        <time>2021-04-18T11:32:20.000Z</time>
      </trkpt>
      <trkpt lat="47.19669" lon="-1.698">
        <ele>60</ele>
        <time>2021-04-18T11:32:23.000Z</time>
      </trkpt>
      <trkpt lat="47.19658" lon="-1.69792">
        <ele>60</ele>
        <time>2021-04-18T11:32:26.000Z</time>
      </trkpt>
      <trkpt lat="47.19649" lon="-1.69795">
        <ele>61</ele>
        <time>2021-04-18T11:32:33.000Z</time>
      </trkpt>
      <trkpt lat="47.19649" lon="-1.69811">
        <ele>63</ele>
        <time>2021-04-18T11:32:37.000Z</time>
      </trkpt>
      <trkpt lat="47.19649" lon="-1.69827">
        <ele>63</ele>
        <time>2021-04-18T11:32:40.000Z</time>
      </trkpt>
      <trkpt lat="47.19643" lon="-1.6984">
        <ele>65</ele>
        <time>2021-04-18T11:32:43.000Z</time>
      </trkpt>
      <trkpt lat="47.19634" lon="-1.6985">
        <ele>66</ele>
        <time>2021-04-18T11:32:46.000Z</time>
      </trkpt>
      <trkpt lat="47.19625" lon="-1.69857">
        <ele>67</ele>
        <time>2021-04-18T11:32:49.000Z</time>
      </trkpt>
      <trkpt lat="47.19614" lon="-1.6986">
        <ele>65</ele>
        <time>2021-04-18T11:32:52.000Z</time>
      </trkpt>
      <trkpt lat="47.19603" lon="-1.69865">
        <ele>67</ele>
        <time>2021-04-18T11:32:56.000Z</time>
      </trkpt>
      <trkpt lat="47.19594" lon="-1.69865">
        <ele>67</ele>
        <time>2021-04-18T11:32:59.000Z</time>
      </trkpt>
      <trkpt lat="47.19585" lon="-1.69863">
        <ele>68</ele>
        <time>2021-04-18T11:33:02.000Z</time>
      </trkpt>
      <trkpt lat="47.19577" lon="-1.69855">
        <ele>68</ele>
        <time>2021-04-18T11:33:05.000Z</time>
      </trkpt>
      <trkpt lat="47.19566" lon="-1.69854">
        <ele>70</ele>
        <time>2021-04-18T11:33:10.000Z</time>
      </trkpt>
      <trkpt lat="47.19558" lon="-1.6986">
        <ele>70</ele>
        <time>2021-04-18T11:33:13.000Z</time>
      </trkpt>
      <trkpt lat="47.19549" lon="-1.69868">
        <ele>72</ele>
        <time>2021-04-18T11:33:16.000Z</time>
      </trkpt>
      <trkpt lat="47.19536" lon="-1.69876">
        <ele>73</ele>
        <time>2021-04-18T11:33:20.000Z</time>
      </trkpt>
      <trkpt lat="47.19527" lon="-1.69878">
        <ele>72</ele>
        <time>2021-04-18T11:33:23.000Z</time>
      </trkpt>
      <trkpt lat="47.19519" lon="-1.69886">
        <ele>74</ele>
        <time>2021-04-18T11:33:29.000Z</time>
      </trkpt>
      <trkpt lat="47.1951" lon="-1.69882">
        <ele>75</ele>
        <time>2021-04-18T11:33:38.000Z</time>
      </trkpt>
      <trkpt lat="47.19504" lon="-1.69868">
        <ele>75</ele>
        <time>2021-04-18T11:33:43.000Z</time>
      </trkpt>
      <trkpt lat="47.19499" lon="-1.69856">
        <ele>76</ele>
        <time>2021-04-18T11:33:47.000Z</time>
      </trkpt>
      <trkpt lat="47.19493" lon="-1.69843">
        <ele>76</ele>
        <time>2021-04-18T11:33:50.000Z</time>
      </trkpt>
      <trkpt lat="47.19486" lon="-1.6983">
        <ele>76</ele>
        <time>2021-04-18T11:33:53.000Z</time>
      </trkpt>
      <trkpt lat="47.19479" lon="-1.69816">
        <ele>72</ele>
        <time>2021-04-18T11:33:56.000Z</time>
      </trkpt>
      <trkpt lat="47.19473" lon="-1.69804">
        <ele>73</ele>
        <time>2021-04-18T11:33:59.000Z</time>
      </trkpt>
      <trkpt lat="47.19464" lon="-1.69796">
        <ele>73</ele>
        <time>2021-04-18T11:34:02.000Z</time>
      </trkpt>
      <trkpt lat="47.19455" lon="-1.69787">
        <ele>74</ele>
        <time>2021-04-18T11:34:06.000Z</time>
      </trkpt>
      <trkpt lat="47.19454" lon="-1.6977">
        <ele>74</ele>
        <time>2021-04-18T11:34:09.000Z</time>
      </trkpt>
      <trkpt lat="47.19453" lon="-1.69756">
        <ele>74</ele>
        <time>2021-04-18T11:34:11.000Z</time>
      </trkpt>
      <trkpt lat="47.19454" lon="-1.69742">
        <ele>74</ele>
        <time>2021-04-18T11:34:13.000Z</time>
      </trkpt>
      <trkpt lat="47.19454" lon="-1.69729">
        <ele>73</ele>
        <time>2021-04-18T11:34:15.000Z</time>
      </trkpt>
      <trkpt lat="47.19458" lon="-1.69715">
        <ele>73</ele>
        <time>2021-04-18T11:34:18.000Z</time>
      </trkpt>
      <trkpt lat="47.19466" lon="-1.69708">
        <ele>73</ele>
        <time>2021-04-18T11:34:21.000Z</time>
      </trkpt>
      <trkpt lat="47.19475" lon="-1.69698">
        <ele>73</ele>
        <time>2021-04-18T11:34:24.000Z</time>
      </trkpt>
      <trkpt lat="47.19482" lon="-1.69689">
        <ele>71</ele>
        <time>2021-04-18T11:34:26.000Z</time>
      </trkpt>
      <trkpt lat="47.19493" lon="-1.69679">
        <ele>70</ele>
        <time>2021-04-18T11:34:29.000Z</time>
      </trkpt>
      <trkpt lat="47.19504" lon="-1.69668">
        <ele>68</ele>
        <time>2021-04-18T11:34:32.000Z</time>
      </trkpt>
      <trkpt lat="47.19514" lon="-1.69658">
        <ele>68</ele>
        <time>2021-04-18T11:34:35.000Z</time>
      </trkpt>
      <trkpt lat="47.19522" lon="-1.69652">
        <ele>63</ele>
        <time>2021-04-18T11:36:07.000Z</time>
      </trkpt>
      <trkpt lat="47.19532" lon="-1.6964">
        <ele>63</ele>
        <time>2021-04-18T11:36:13.000Z</time>
      </trkpt>
      <trkpt lat="47.1954" lon="-1.69625">
        <ele>61</ele>
        <time>2021-04-18T11:36:16.000Z</time>
      </trkpt>
      <trkpt lat="47.19547" lon="-1.69614">
        <ele>59</ele>
        <time>2021-04-18T11:36:18.000Z</time>
      </trkpt>
      <trkpt lat="47.19554" lon="-1.69598">
        <ele>57</ele>
        <time>2021-04-18T11:36:20.000Z</time>
      </trkpt>
      <trkpt lat="47.19557" lon="-1.69582">
        <ele>57</ele>
        <time>2021-04-18T11:36:22.000Z</time>
      </trkpt>
      <trkpt lat="47.19555" lon="-1.69566">
        <ele>55</ele>
        <time>2021-04-18T11:36:24.000Z</time>
      </trkpt>
      <trkpt lat="47.19551" lon="-1.69552">
        <ele>54</ele>
        <time>2021-04-18T11:36:26.000Z</time>
      </trkpt>
      <trkpt lat="47.19546" lon="-1.69539">
        <ele>52</ele>
        <time>2021-04-18T11:36:28.000Z</time>
      </trkpt>
      <trkpt lat="47.1954" lon="-1.69527">
        <ele>52</ele>
        <time>2021-04-18T11:36:30.000Z</time>
      </trkpt>
      <trkpt lat="47.19529" lon="-1.6951">
        <ele>51</ele>
        <time>2021-04-18T11:36:34.000Z</time>
      </trkpt>
      <trkpt lat="47.19521" lon="-1.69495">
        <ele>51</ele>
        <time>2021-04-18T11:36:37.000Z</time>
      </trkpt>
      <trkpt lat="47.19517" lon="-1.69478">
        <ele>52</ele>
        <time>2021-04-18T11:36:39.000Z</time>
      </trkpt>
      <trkpt lat="47.19514" lon="-1.69464">
        <ele>52</ele>
        <time>2021-04-18T11:36:41.000Z</time>
      </trkpt>
      <trkpt lat="47.1951" lon="-1.69452">
        <ele>52</ele>
        <time>2021-04-18T11:36:43.000Z</time>
      </trkpt>
      <trkpt lat="47.19502" lon="-1.69436">
        <ele>52</ele>
        <time>2021-04-18T11:36:46.000Z</time>
      </trkpt>
      <trkpt lat="47.19496" lon="-1.69427">
        <ele>51</ele>
        <time>2021-04-18T11:36:49.000Z</time>
      </trkpt>
      <trkpt lat="47.19485" lon="-1.69413">
        <ele>52</ele>
        <time>2021-04-18T11:36:52.000Z</time>
      </trkpt>
      <trkpt lat="47.19477" lon="-1.69404">
        <ele>52</ele>
        <time>2021-04-18T11:36:54.000Z</time>
      </trkpt>
      <trkpt lat="47.19464" lon="-1.69396">
        <ele>52</ele>
        <time>2021-04-18T11:36:57.000Z</time>
      </trkpt>
      <trkpt lat="47.19454" lon="-1.69394">
        <ele>52</ele>
        <time>2021-04-18T11:36:59.000Z</time>
      </trkpt>
      <trkpt lat="47.19444" lon="-1.69392">
        <ele>50</ele>
        <time>2021-04-18T11:37:02.000Z</time>
      </trkpt>
      <trkpt lat="47.1943" lon="-1.69388">
        <ele>49</ele>
        <time>2021-04-18T11:37:06.000Z</time>
      </trkpt>
      <trkpt lat="47.1942" lon="-1.69391">
        <ele>49</ele>
        <time>2021-04-18T11:37:09.000Z</time>
      </trkpt>
      <trkpt lat="47.1941" lon="-1.69401">
        <ele>51</ele>
        <time>2021-04-18T11:37:12.000Z</time>
      </trkpt>
      <trkpt lat="47.19402" lon="-1.6941">
        <ele>52</ele>
        <time>2021-04-18T11:37:14.000Z</time>
      </trkpt>
      <trkpt lat="47.19389" lon="-1.69421">
        <ele>53</ele>
        <time>2021-04-18T11:37:17.000Z</time>
      </trkpt>
      <trkpt lat="47.19379" lon="-1.69428">
        <ele>53</ele>
        <time>2021-04-18T11:37:19.000Z</time>
      </trkpt>
      <trkpt lat="47.19368" lon="-1.69433">
        <ele>53</ele>
        <time>2021-04-18T11:37:21.000Z</time>
      </trkpt>
      <trkpt lat="47.19358" lon="-1.69436">
        <ele>54</ele>
        <time>2021-04-18T11:37:23.000Z</time>
      </trkpt>
      <trkpt lat="47.19347" lon="-1.69438">
        <ele>54</ele>
        <time>2021-04-18T11:37:25.000Z</time>
      </trkpt>
      <trkpt lat="47.19335" lon="-1.6944">
        <ele>54</ele>
        <time>2021-04-18T11:37:27.000Z</time>
      </trkpt>
      <trkpt lat="47.19325" lon="-1.69442">
        <ele>55</ele>
        <time>2021-04-18T11:37:29.000Z</time>
      </trkpt>
      <trkpt lat="47.19316" lon="-1.69447">
        <ele>54</ele>
        <time>2021-04-18T11:37:31.000Z</time>
      </trkpt>
      <trkpt lat="47.19308" lon="-1.69454">
        <ele>54</ele>
        <time>2021-04-18T11:37:33.000Z</time>
      </trkpt>
      <trkpt lat="47.193" lon="-1.69462">
        <ele>54</ele>
        <time>2021-04-18T11:37:35.000Z</time>
      </trkpt>
      <trkpt lat="47.1929" lon="-1.69466">
        <ele>53</ele>
        <time>2021-04-18T11:37:38.000Z</time>
      </trkpt>
      <trkpt lat="47.19283" lon="-1.69454">
        <ele>53</ele>
        <time>2021-04-18T11:37:41.000Z</time>
      </trkpt>
      <trkpt lat="47.19291" lon="-1.69441">
        <ele>53</ele>
        <time>2021-04-18T11:37:44.000Z</time>
      </trkpt>
      <trkpt lat="47.19302" lon="-1.6943">
        <ele>54</ele>
        <time>2021-04-18T11:37:47.000Z</time>
      </trkpt>
      <trkpt lat="47.1931" lon="-1.69423">
        <ele>54</ele>
        <time>2021-04-18T11:37:49.000Z</time>
      </trkpt>
      <trkpt lat="47.19319" lon="-1.69419">
        <ele>54</ele>
        <time>2021-04-18T11:37:51.000Z</time>
      </trkpt>
      <trkpt lat="47.19328" lon="-1.69414">
        <ele>54</ele>
        <time>2021-04-18T11:37:53.000Z</time>
      </trkpt>
      <trkpt lat="47.19337" lon="-1.6941">
        <ele>55</ele>
        <time>2021-04-18T11:37:55.000Z</time>
      </trkpt>
      <trkpt lat="47.19348" lon="-1.69406">
        <ele>55</ele>
        <time>2021-04-18T11:37:58.000Z</time>
      </trkpt>
      <trkpt lat="47.19359" lon="-1.69395">
        <ele>56</ele>
        <time>2021-04-18T11:38:01.000Z</time>
      </trkpt>
      <trkpt lat="47.19369" lon="-1.69385">
        <ele>57</ele>
        <time>2021-04-18T11:38:04.000Z</time>
      </trkpt>
      <trkpt lat="47.1938" lon="-1.69376">
        <ele>58</ele>
        <time>2021-04-18T11:38:07.000Z</time>
      </trkpt>
      <trkpt lat="47.19387" lon="-1.69365">
        <ele>59</ele>
        <time>2021-04-18T11:38:10.000Z</time>
      </trkpt>
      <trkpt lat="47.19394" lon="-1.69351">
        <ele>61</ele>
        <time>2021-04-18T11:38:13.000Z</time>
      </trkpt>
      <trkpt lat="47.19401" lon="-1.69338">
        <ele>62</ele>
        <time>2021-04-18T11:38:16.000Z</time>
      </trkpt>
      <trkpt lat="47.19406" lon="-1.6932">
        <ele>57</ele>
        <time>2021-04-18T11:38:20.000Z</time>
      </trkpt>
      <trkpt lat="47.19413" lon="-1.69304">
        <ele>56</ele>
        <time>2021-04-18T11:38:24.000Z</time>
      </trkpt>
      <trkpt lat="47.19416" lon="-1.6929">
        <ele>57</ele>
        <time>2021-04-18T11:38:27.000Z</time>
      </trkpt>
      <trkpt lat="47.19415" lon="-1.69277">
        <ele>56</ele>
        <time>2021-04-18T11:38:29.000Z</time>
      </trkpt>
      <trkpt lat="47.19407" lon="-1.69264">
        <ele>59</ele>
        <time>2021-04-18T11:38:32.000Z</time>
      </trkpt>
      <trkpt lat="47.19406" lon="-1.69247">
        <ele>64</ele>
        <time>2021-04-18T11:38:34.000Z</time>
      </trkpt>
      <trkpt lat="47.19402" lon="-1.69234">
        <ele>65</ele>
        <time>2021-04-18T11:38:36.000Z</time>
      </trkpt>
      <trkpt lat="47.19398" lon="-1.69216">
        <ele>66</ele>
        <time>2021-04-18T11:38:39.000Z</time>
      </trkpt>
      <trkpt lat="47.19394" lon="-1.69202">
        <ele>66</ele>
        <time>2021-04-18T11:38:41.000Z</time>
      </trkpt>
      <trkpt lat="47.1939" lon="-1.69189">
        <ele>66</ele>
        <time>2021-04-18T11:38:43.000Z</time>
      </trkpt>
      <trkpt lat="47.19386" lon="-1.69177">
        <ele>66</ele>
        <time>2021-04-18T11:38:45.000Z</time>
      </trkpt>
      <trkpt lat="47.19381" lon="-1.69164">
        <ele>67</ele>
        <time>2021-04-18T11:38:47.000Z</time>
      </trkpt>
      <trkpt lat="47.19376" lon="-1.69152">
        <ele>67</ele>
        <time>2021-04-18T11:38:49.000Z</time>
      </trkpt>
      <trkpt lat="47.19369" lon="-1.69133">
        <ele>66</ele>
        <time>2021-04-18T11:38:53.000Z</time>
      </trkpt>
      <trkpt lat="47.19362" lon="-1.69121">
        <ele>66</ele>
        <time>2021-04-18T11:38:55.000Z</time>
      </trkpt>
      <trkpt lat="47.19359" lon="-1.69107">
        <ele>67</ele>
        <time>2021-04-18T11:38:57.000Z</time>
      </trkpt>
      <trkpt lat="47.19356" lon="-1.69083">
        <ele>71</ele>
        <time>2021-04-18T11:39:01.000Z</time>
      </trkpt>
      <trkpt lat="47.19352" lon="-1.69064">
        <ele>72</ele>
        <time>2021-04-18T11:39:04.000Z</time>
      </trkpt>
      <trkpt lat="47.19347" lon="-1.69046">
        <ele>72</ele>
        <time>2021-04-18T11:39:07.000Z</time>
      </trkpt>
      <trkpt lat="47.19344" lon="-1.69025">
        <ele>75</ele>
        <time>2021-04-18T11:39:10.000Z</time>
      </trkpt>
      <trkpt lat="47.19337" lon="-1.69017">
        <ele>77</ele>
        <time>2021-04-18T11:39:12.000Z</time>
      </trkpt>
      <trkpt lat="47.19329" lon="-1.69006">
        <ele>77</ele>
        <time>2021-04-18T11:39:14.000Z</time>
      </trkpt>
      <trkpt lat="47.19323" lon="-1.68995">
        <ele>78</ele>
        <time>2021-04-18T11:39:16.000Z</time>
      </trkpt>
      <trkpt lat="47.19316" lon="-1.68978">
        <ele>79</ele>
        <time>2021-04-18T11:39:19.000Z</time>
      </trkpt>
      <trkpt lat="47.1931" lon="-1.68967">
        <ele>79</ele>
        <time>2021-04-18T11:39:21.000Z</time>
      </trkpt>
      <trkpt lat="47.19301" lon="-1.6895">
        <ele>79</ele>
        <time>2021-04-18T11:39:24.000Z</time>
      </trkpt>
      <trkpt lat="47.19295" lon="-1.6894">
        <ele>79</ele>
        <time>2021-04-18T11:39:26.000Z</time>
      </trkpt>
      <trkpt lat="47.19289" lon="-1.68927">
        <ele>80</ele>
        <time>2021-04-18T11:39:28.000Z</time>
      </trkpt>
      <trkpt lat="47.19282" lon="-1.68915">
        <ele>80</ele>
        <time>2021-04-18T11:39:30.000Z</time>
      </trkpt>
      <trkpt lat="47.19275" lon="-1.68902">
        <ele>80</ele>
        <time>2021-04-18T11:39:32.000Z</time>
      </trkpt>
      <trkpt lat="47.19269" lon="-1.6889">
        <ele>80</ele>
        <time>2021-04-18T11:39:34.000Z</time>
      </trkpt>
      <trkpt lat="47.19262" lon="-1.68873">
        <ele>81</ele>
        <time>2021-04-18T11:39:37.000Z</time>
      </trkpt>
      <trkpt lat="47.19254" lon="-1.68861">
        <ele>80</ele>
        <time>2021-04-18T11:39:39.000Z</time>
      </trkpt>
      <trkpt lat="47.19248" lon="-1.68847">
        <ele>79</ele>
        <time>2021-04-18T11:39:42.000Z</time>
      </trkpt>
      <trkpt lat="47.1924" lon="-1.68835">
        <ele>79</ele>
        <time>2021-04-18T11:39:45.000Z</time>
      </trkpt>
      <trkpt lat="47.19235" lon="-1.68823">
        <ele>78</ele>
        <time>2021-04-18T11:39:49.000Z</time>
      </trkpt>
      <trkpt lat="47.19238" lon="-1.68806">
        <ele>76</ele>
        <time>2021-04-18T11:39:53.000Z</time>
      </trkpt>
      <trkpt lat="47.1924" lon="-1.6879">
        <ele>77</ele>
        <time>2021-04-18T11:39:56.000Z</time>
      </trkpt>
      <trkpt lat="47.19238" lon="-1.68771">
        <ele>79</ele>
        <time>2021-04-18T11:39:59.000Z</time>
      </trkpt>
      <trkpt lat="47.19235" lon="-1.68758">
        <ele>79</ele>
        <time>2021-04-18T11:40:01.000Z</time>
      </trkpt>
      <trkpt lat="47.1923" lon="-1.6874">
        <ele>78</ele>
        <time>2021-04-18T11:40:04.000Z</time>
      </trkpt>
      <trkpt lat="47.19227" lon="-1.68722">
        <ele>78</ele>
        <time>2021-04-18T11:40:07.000Z</time>
      </trkpt>
      <trkpt lat="47.1923" lon="-1.68703">
        <ele>76</ele>
        <time>2021-04-18T11:40:10.000Z</time>
      </trkpt>
      <trkpt lat="47.19239" lon="-1.68682">
        <ele>76</ele>
        <time>2021-04-18T11:40:13.000Z</time>
      </trkpt>
      <trkpt lat="47.19244" lon="-1.68667">
        <ele>76</ele>
        <time>2021-04-18T11:40:15.000Z</time>
      </trkpt>
      <trkpt lat="47.19246" lon="-1.68649">
        <ele>76</ele>
        <time>2021-04-18T11:40:17.000Z</time>
      </trkpt>
      <trkpt lat="47.19246" lon="-1.68633">
        <ele>74</ele>
        <time>2021-04-18T11:40:19.000Z</time>
      </trkpt>
      <trkpt lat="47.19246" lon="-1.68612">
        <ele>74</ele>
        <time>2021-04-18T11:40:21.000Z</time>
      </trkpt>
      <trkpt lat="47.19243" lon="-1.68588">
        <ele>74</ele>
        <time>2021-04-18T11:40:23.000Z</time>
      </trkpt>
      <trkpt lat="47.1924" lon="-1.68564">
        <ele>73</ele>
        <time>2021-04-18T11:40:25.000Z</time>
      </trkpt>
      <trkpt lat="47.19236" lon="-1.6854">
        <ele>73</ele>
        <time>2021-04-18T11:40:27.000Z</time>
      </trkpt>
      <trkpt lat="47.19221" lon="-1.68522">
        <ele>72</ele>
        <time>2021-04-18T11:40:29.000Z</time>
      </trkpt>
      <trkpt lat="47.19214" lon="-1.68514">
        <ele>71</ele>
        <time>2021-04-18T11:40:30.000Z</time>
      </trkpt>
      <trkpt lat="47.19204" lon="-1.68493">
        <ele>71</ele>
        <time>2021-04-18T11:40:32.000Z</time>
      </trkpt>
      <trkpt lat="47.19202" lon="-1.68472">
        <ele>69</ele>
        <time>2021-04-18T11:40:34.000Z</time>
      </trkpt>
      <trkpt lat="47.19202" lon="-1.68458">
        <ele>67</ele>
        <time>2021-04-18T11:40:35.000Z</time>
      </trkpt>
      <trkpt lat="47.19201" lon="-1.68443">
        <ele>67</ele>
        <time>2021-04-18T11:40:36.000Z</time>
      </trkpt>
      <trkpt lat="47.19201" lon="-1.68428">
        <ele>67</ele>
        <time>2021-04-18T11:40:37.000Z</time>
      </trkpt>
      <trkpt lat="47.192" lon="-1.68413">
        <ele>67</ele>
        <time>2021-04-18T11:40:38.000Z</time>
      </trkpt>
      <trkpt lat="47.192" lon="-1.68398">
        <ele>67</ele>
        <time>2021-04-18T11:40:39.000Z</time>
      </trkpt>
      <trkpt lat="47.192" lon="-1.68383">
        <ele>66</ele>
        <time>2021-04-18T11:40:40.000Z</time>
      </trkpt>
      <trkpt lat="47.19199" lon="-1.68368">
        <ele>65</ele>
        <time>2021-04-18T11:40:41.000Z</time>
      </trkpt>
      <trkpt lat="47.19198" lon="-1.68355">
        <ele>64</ele>
        <time>2021-04-18T11:40:42.000Z</time>
      </trkpt>
      <trkpt lat="47.19197" lon="-1.68341">
        <ele>64</ele>
        <time>2021-04-18T11:40:43.000Z</time>
      </trkpt>
      <trkpt lat="47.19197" lon="-1.68327">
        <ele>64</ele>
        <time>2021-04-18T11:40:44.000Z</time>
      </trkpt>
      <trkpt lat="47.19197" lon="-1.68312">
        <ele>63</ele>
        <time>2021-04-18T11:40:45.000Z</time>
      </trkpt>
      <trkpt lat="47.19196" lon="-1.68299">
        <ele>62</ele>
        <time>2021-04-18T11:40:46.000Z</time>
      </trkpt>
      <trkpt lat="47.19194" lon="-1.68276">
        <ele>60</ele>
        <time>2021-04-18T11:40:48.000Z</time>
      </trkpt>
      <trkpt lat="47.1919" lon="-1.68261">
        <ele>59</ele>
        <time>2021-04-18T11:40:50.000Z</time>
      </trkpt>
      <trkpt lat="47.19187" lon="-1.68244">
        <ele>58</ele>
        <time>2021-04-18T11:40:53.000Z</time>
      </trkpt>
      <trkpt lat="47.19186" lon="-1.68228">
        <ele>57</ele>
        <time>2021-04-18T11:41:02.000Z</time>
      </trkpt>
      <trkpt lat="47.19197" lon="-1.68217">
        <ele>55</ele>
        <time>2021-04-18T11:41:06.000Z</time>
      </trkpt>
      <trkpt lat="47.19208" lon="-1.68211">
        <ele>55</ele>
        <time>2021-04-18T11:41:07.000Z</time>
      </trkpt>
      <trkpt lat="47.19221" lon="-1.68202">
        <ele>54</ele>
        <time>2021-04-18T11:41:09.000Z</time>
      </trkpt>
      <trkpt lat="47.19232" lon="-1.68195">
        <ele>52</ele>
        <time>2021-04-18T11:41:11.000Z</time>
      </trkpt>
      <trkpt lat="47.19242" lon="-1.68186">
        <ele>51</ele>
        <time>2021-04-18T11:41:13.000Z</time>
      </trkpt>
      <trkpt lat="47.19254" lon="-1.68177">
        <ele>51</ele>
        <time>2021-04-18T11:41:15.000Z</time>
      </trkpt>
      <trkpt lat="47.19266" lon="-1.6817">
        <ele>51</ele>
        <time>2021-04-18T11:41:17.000Z</time>
      </trkpt>
      <trkpt lat="47.19277" lon="-1.68164">
        <ele>50</ele>
        <time>2021-04-18T11:41:19.000Z</time>
      </trkpt>
      <trkpt lat="47.19287" lon="-1.68158">
        <ele>49</ele>
        <time>2021-04-18T11:41:21.000Z</time>
      </trkpt>
      <trkpt lat="47.19298" lon="-1.68148">
        <ele>49</ele>
        <time>2021-04-18T11:41:23.000Z</time>
      </trkpt>
      <trkpt lat="47.19309" lon="-1.6814">
        <ele>48</ele>
        <time>2021-04-18T11:41:25.000Z</time>
      </trkpt>
      <trkpt lat="47.19324" lon="-1.68131">
        <ele>48</ele>
        <time>2021-04-18T11:41:28.000Z</time>
      </trkpt>
      <trkpt lat="47.19341" lon="-1.68119">
        <ele>50</ele>
        <time>2021-04-18T11:41:31.000Z</time>
      </trkpt>
      <trkpt lat="47.19352" lon="-1.6811">
        <ele>52</ele>
        <time>2021-04-18T11:41:33.000Z</time>
      </trkpt>
      <trkpt lat="47.19363" lon="-1.68102">
        <ele>52</ele>
        <time>2021-04-18T11:41:35.000Z</time>
      </trkpt>
      <trkpt lat="47.19375" lon="-1.68097">
        <ele>51</ele>
        <time>2021-04-18T11:41:37.000Z</time>
      </trkpt>
      <trkpt lat="47.19387" lon="-1.68091">
        <ele>51</ele>
        <time>2021-04-18T11:41:39.000Z</time>
      </trkpt>
      <trkpt lat="47.19397" lon="-1.6808">
        <ele>50</ele>
        <time>2021-04-18T11:41:41.000Z</time>
      </trkpt>
      <trkpt lat="47.19405" lon="-1.68074">
        <ele>50</ele>
        <time>2021-04-18T11:41:43.000Z</time>
      </trkpt>
      <trkpt lat="47.19414" lon="-1.68075">
        <ele>48</ele>
        <time>2021-04-18T11:41:47.000Z</time>
      </trkpt>
      <trkpt lat="47.19418" lon="-1.68054">
        <ele>49</ele>
        <time>2021-04-18T11:41:49.000Z</time>
      </trkpt>
      <trkpt lat="47.19416" lon="-1.68032">
        <ele>52</ele>
        <time>2021-04-18T11:41:51.000Z</time>
      </trkpt>
      <trkpt lat="47.19411" lon="-1.68015">
        <ele>53</ele>
        <time>2021-04-18T11:41:53.000Z</time>
      </trkpt>
      <trkpt lat="47.19406" lon="-1.67998">
        <ele>52</ele>
        <time>2021-04-18T11:41:55.000Z</time>
      </trkpt>
      <trkpt lat="47.19402" lon="-1.67982">
        <ele>52</ele>
        <time>2021-04-18T11:41:57.000Z</time>
      </trkpt>
      <trkpt lat="47.19398" lon="-1.67965">
        <ele>53</ele>
        <time>2021-04-18T11:41:59.000Z</time>
      </trkpt>
      <trkpt lat="47.19394" lon="-1.67948">
        <ele>54</ele>
        <time>2021-04-18T11:42:01.000Z</time>
      </trkpt>
      <trkpt lat="47.19391" lon="-1.67931">
        <ele>54</ele>
        <time>2021-04-18T11:42:03.000Z</time>
      </trkpt>
      <trkpt lat="47.19387" lon="-1.67914">
        <ele>55</ele>
        <time>2021-04-18T11:42:05.000Z</time>
      </trkpt>
      <trkpt lat="47.19382" lon="-1.67897">
        <ele>55</ele>
        <time>2021-04-18T11:42:07.000Z</time>
      </trkpt>
      <trkpt lat="47.19377" lon="-1.67879">
        <ele>56</ele>
        <time>2021-04-18T11:42:09.000Z</time>
      </trkpt>
      <trkpt lat="47.19371" lon="-1.67854">
        <ele>56</ele>
        <time>2021-04-18T11:42:12.000Z</time>
      </trkpt>
      <trkpt lat="47.19368" lon="-1.67838">
        <ele>56</ele>
        <time>2021-04-18T11:42:14.000Z</time>
      </trkpt>
      <trkpt lat="47.19364" lon="-1.67822">
        <ele>54</ele>
        <time>2021-04-18T11:42:16.000Z</time>
      </trkpt>
      <trkpt lat="47.19361" lon="-1.67806">
        <ele>54</ele>
        <time>2021-04-18T11:42:18.000Z</time>
      </trkpt>
      <trkpt lat="47.19363" lon="-1.67774">
        <ele>55</ele>
        <time>2021-04-18T11:42:21.000Z</time>
      </trkpt>
      <trkpt lat="47.19365" lon="-1.67755">
        <ele>55</ele>
        <time>2021-04-18T11:42:23.000Z</time>
      </trkpt>
      <trkpt lat="47.1937" lon="-1.67734">
        <ele>50</ele>
        <time>2021-04-18T11:42:25.000Z</time>
      </trkpt>
      <trkpt lat="47.19375" lon="-1.67716">
        <ele>50</ele>
        <time>2021-04-18T11:42:27.000Z</time>
      </trkpt>
      <trkpt lat="47.19378" lon="-1.677">
        <ele>51</ele>
        <time>2021-04-18T11:42:29.000Z</time>
      </trkpt>
      <trkpt lat="47.19383" lon="-1.67683">
        <ele>50</ele>
        <time>2021-04-18T11:42:31.000Z</time>
      </trkpt>
      <trkpt lat="47.19388" lon="-1.67665">
        <ele>48</ele>
        <time>2021-04-18T11:42:33.000Z</time>
      </trkpt>
      <trkpt lat="47.19394" lon="-1.67647">
        <ele>48</ele>
        <time>2021-04-18T11:42:35.000Z</time>
      </trkpt>
      <trkpt lat="47.19401" lon="-1.67633">
        <ele>49</ele>
        <time>2021-04-18T11:42:37.000Z</time>
      </trkpt>
      <trkpt lat="47.19409" lon="-1.67619">
        <ele>49</ele>
        <time>2021-04-18T11:42:39.000Z</time>
      </trkpt>
      <trkpt lat="47.19417" lon="-1.67607">
        <ele>49</ele>
        <time>2021-04-18T11:42:41.000Z</time>
      </trkpt>
      <trkpt lat="47.19428" lon="-1.6759">
        <ele>50</ele>
        <time>2021-04-18T11:42:44.000Z</time>
      </trkpt>
      <trkpt lat="47.19436" lon="-1.6758">
        <ele>50</ele>
        <time>2021-04-18T11:42:46.000Z</time>
      </trkpt>
      <trkpt lat="47.19445" lon="-1.67572">
        <ele>50</ele>
        <time>2021-04-18T11:42:48.000Z</time>
      </trkpt>
      <trkpt lat="47.19456" lon="-1.67562">
        <ele>50</ele>
        <time>2021-04-18T11:42:51.000Z</time>
      </trkpt>
      <trkpt lat="47.19465" lon="-1.67556">
        <ele>50</ele>
        <time>2021-04-18T11:42:53.000Z</time>
      </trkpt>
      <trkpt lat="47.19475" lon="-1.67546">
        <ele>49</ele>
        <time>2021-04-18T11:42:56.000Z</time>
      </trkpt>
      <trkpt lat="47.19484" lon="-1.67538">
        <ele>49</ele>
        <time>2021-04-18T11:42:59.000Z</time>
      </trkpt>
      <trkpt lat="47.19491" lon="-1.67528">
        <ele>51</ele>
        <time>2021-04-18T11:43:02.000Z</time>
      </trkpt>
      <trkpt lat="47.19497" lon="-1.67516">
        <ele>51</ele>
        <time>2021-04-18T11:43:05.000Z</time>
      </trkpt>
      <trkpt lat="47.19505" lon="-1.67505">
        <ele>52</ele>
        <time>2021-04-18T11:43:09.000Z</time>
      </trkpt>
      <trkpt lat="47.19515" lon="-1.67508">
        <ele>53</ele>
        <time>2021-04-18T11:43:12.000Z</time>
      </trkpt>
      <trkpt lat="47.19526" lon="-1.67512">
        <ele>52</ele>
        <time>2021-04-18T11:43:15.000Z</time>
      </trkpt>
      <trkpt lat="47.19536" lon="-1.67516">
        <ele>52</ele>
        <time>2021-04-18T11:43:19.000Z</time>
      </trkpt>
      <trkpt lat="47.19538" lon="-1.6753">
        <ele>45</ele>
        <time>2021-04-18T11:45:45.000Z</time>
      </trkpt>
      <trkpt lat="47.19546" lon="-1.6752">
        <ele>45</ele>
        <time>2021-04-18T11:46:31.000Z</time>
      </trkpt>
      <trkpt lat="47.19547" lon="-1.67505">
        <ele>46</ele>
        <time>2021-04-18T11:49:03.000Z</time>
      </trkpt>
      <trkpt lat="47.1954" lon="-1.67515">
        <ele>47</ele>
        <time>2021-04-18T11:49:12.000Z</time>
      </trkpt>
      <trkpt lat="47.19531" lon="-1.67522">
        <ele>45</ele>
        <time>2021-04-18T11:49:16.000Z</time>
      </trkpt>
      <trkpt lat="47.19541" lon="-1.67516">
        <ele>44</ele>
        <time>2021-04-18T11:49:40.000Z</time>
      </trkpt>
      <trkpt lat="47.19534" lon="-1.67528">
        <ele>50</ele>
        <time>2021-04-18T11:52:25.000Z</time>
      </trkpt>
      <trkpt lat="47.19524" lon="-1.67536">
        <ele>50</ele>
        <time>2021-04-18T11:52:29.000Z</time>
      </trkpt>
      <trkpt lat="47.19524" lon="-1.67553">
        <ele>49</ele>
        <time>2021-04-18T11:52:35.000Z</time>
      </trkpt>
      <trkpt lat="47.19527" lon="-1.67566">
        <ele>55</ele>
        <time>2021-04-18T11:52:39.000Z</time>
      </trkpt>
      <trkpt lat="47.19532" lon="-1.67587">
        <ele>55</ele>
        <time>2021-04-18T11:52:43.000Z</time>
      </trkpt>
      <trkpt lat="47.19539" lon="-1.67608">
        <ele>55</ele>
        <time>2021-04-18T11:52:48.000Z</time>
      </trkpt>
      <trkpt lat="47.19543" lon="-1.67623">
        <ele>49</ele>
        <time>2021-04-18T11:52:52.000Z</time>
      </trkpt>
      <trkpt lat="47.19547" lon="-1.67635">
        <ele>51</ele>
        <time>2021-04-18T11:52:55.000Z</time>
      </trkpt>
      <trkpt lat="47.19539" lon="-1.67648">
        <ele>55</ele>
        <time>2021-04-18T11:52:59.000Z</time>
      </trkpt>
      <trkpt lat="47.19531" lon="-1.67659">
        <ele>57</ele>
        <time>2021-04-18T11:53:02.000Z</time>
      </trkpt>
      <trkpt lat="47.19522" lon="-1.67664">
        <ele>57</ele>
        <time>2021-04-18T11:53:04.000Z</time>
      </trkpt>
      <trkpt lat="47.19509" lon="-1.6767">
        <ele>58</ele>
        <time>2021-04-18T11:53:07.000Z</time>
      </trkpt>
      <trkpt lat="47.195" lon="-1.67674">
        <ele>57</ele>
        <time>2021-04-18T11:53:11.000Z</time>
      </trkpt>
      <trkpt lat="47.1949" lon="-1.6768">
        <ele>57</ele>
        <time>2021-04-18T11:53:13.000Z</time>
      </trkpt>
      <trkpt lat="47.19478" lon="-1.67691">
        <ele>58</ele>
        <time>2021-04-18T11:53:16.000Z</time>
      </trkpt>
      <trkpt lat="47.19465" lon="-1.67698">
        <ele>61</ele>
        <time>2021-04-18T11:53:19.000Z</time>
      </trkpt>
      <trkpt lat="47.19453" lon="-1.67703">
        <ele>57</ele>
        <time>2021-04-18T11:53:22.000Z</time>
      </trkpt>
      <trkpt lat="47.19447" lon="-1.67712">
        <ele>57</ele>
        <time>2021-04-18T11:53:24.000Z</time>
      </trkpt>
      <trkpt lat="47.19435" lon="-1.67714">
        <ele>56</ele>
        <time>2021-04-18T11:53:28.000Z</time>
      </trkpt>
      <trkpt lat="47.19426" lon="-1.6772">
        <ele>54</ele>
        <time>2021-04-18T11:53:31.000Z</time>
      </trkpt>
      <trkpt lat="47.19418" lon="-1.67728">
        <ele>53</ele>
        <time>2021-04-18T11:53:35.000Z</time>
      </trkpt>
      <trkpt lat="47.19417" lon="-1.67742">
        <ele>54</ele>
        <time>2021-04-18T11:53:38.000Z</time>
      </trkpt>
      <trkpt lat="47.19419" lon="-1.67756">
        <ele>54</ele>
        <time>2021-04-18T11:53:41.000Z</time>
      </trkpt>
      <trkpt lat="47.19423" lon="-1.67768">
        <ele>55</ele>
        <time>2021-04-18T11:53:44.000Z</time>
      </trkpt>
      <trkpt lat="47.19427" lon="-1.67782">
        <ele>55</ele>
        <time>2021-04-18T11:53:47.000Z</time>
      </trkpt>
      <trkpt lat="47.19433" lon="-1.67799">
        <ele>55</ele>
        <time>2021-04-18T11:53:51.000Z</time>
      </trkpt>
      <trkpt lat="47.19437" lon="-1.67818">
        <ele>57</ele>
        <time>2021-04-18T11:53:57.000Z</time>
      </trkpt>
      <trkpt lat="47.19439" lon="-1.6784">
        <ele>56</ele>
        <time>2021-04-18T11:54:02.000Z</time>
      </trkpt>
      <trkpt lat="47.19445" lon="-1.67854">
        <ele>58</ele>
        <time>2021-04-18T11:54:05.000Z</time>
      </trkpt>
      <trkpt lat="47.1945" lon="-1.67868">
        <ele>59</ele>
        <time>2021-04-18T11:54:08.000Z</time>
      </trkpt>
      <trkpt lat="47.19456" lon="-1.67878">
        <ele>58</ele>
        <time>2021-04-18T11:54:11.000Z</time>
      </trkpt>
      <trkpt lat="47.19462" lon="-1.6789">
        <ele>59</ele>
        <time>2021-04-18T11:54:13.000Z</time>
      </trkpt>
      <trkpt lat="47.19465" lon="-1.67903">
        <ele>59</ele>
        <time>2021-04-18T11:54:16.000Z</time>
      </trkpt>
      <trkpt lat="47.19469" lon="-1.67918">
        <ele>59</ele>
        <time>2021-04-18T11:54:19.000Z</time>
      </trkpt>
      <trkpt lat="47.19474" lon="-1.67932">
        <ele>60</ele>
        <time>2021-04-18T11:54:22.000Z</time>
      </trkpt>
      <trkpt lat="47.19482" lon="-1.67942">
        <ele>60</ele>
        <time>2021-04-18T11:54:25.000Z</time>
      </trkpt>
      <trkpt lat="47.19492" lon="-1.67951">
        <ele>63</ele>
        <time>2021-04-18T11:54:28.000Z</time>
      </trkpt>
      <trkpt lat="47.19496" lon="-1.67966">
        <ele>65</ele>
        <time>2021-04-18T11:54:31.000Z</time>
      </trkpt>
      <trkpt lat="47.19499" lon="-1.67985">
        <ele>66</ele>
        <time>2021-04-18T11:54:36.000Z</time>
      </trkpt>
      <trkpt lat="47.19495" lon="-1.67998">
        <ele>59</ele>
        <time>2021-04-18T11:55:22.000Z</time>
      </trkpt>
      <trkpt lat="47.19494" lon="-1.68012">
        <ele>70</ele>
        <time>2021-04-18T11:56:34.000Z</time>
      </trkpt>
      <trkpt lat="47.19498" lon="-1.68028">
        <ele>73</ele>
        <time>2021-04-18T11:56:39.000Z</time>
      </trkpt>
      <trkpt lat="47.19502" lon="-1.68044">
        <ele>73</ele>
        <time>2021-04-18T11:56:42.000Z</time>
      </trkpt>
      <trkpt lat="47.19502" lon="-1.68059">
        <ele>79</ele>
        <time>2021-04-18T11:56:45.000Z</time>
      </trkpt>
      <trkpt lat="47.19505" lon="-1.68073">
        <ele>78</ele>
        <time>2021-04-18T11:56:48.000Z</time>
      </trkpt>
      <trkpt lat="47.19506" lon="-1.68087">
        <ele>79</ele>
        <time>2021-04-18T11:56:51.000Z</time>
      </trkpt>
      <trkpt lat="47.19516" lon="-1.6809">
        <ele>80</ele>
        <time>2021-04-18T11:56:57.000Z</time>
      </trkpt>
      <trkpt lat="47.19525" lon="-1.68095">
        <ele>84</ele>
        <time>2021-04-18T11:57:05.000Z</time>
      </trkpt>
      <trkpt lat="47.19535" lon="-1.6809">
        <ele>83</ele>
        <time>2021-04-18T11:57:10.000Z</time>
      </trkpt>
      <trkpt lat="47.19543" lon="-1.6808">
        <ele>83</ele>
        <time>2021-04-18T11:57:15.000Z</time>
      </trkpt>
      <trkpt lat="47.1955" lon="-1.6807">
        <ele>85</ele>
        <time>2021-04-18T11:57:18.000Z</time>
      </trkpt>
      <trkpt lat="47.19561" lon="-1.68062">
        <ele>88</ele>
        <time>2021-04-18T11:57:22.000Z</time>
      </trkpt>
      <trkpt lat="47.19572" lon="-1.68058">
        <ele>91</ele>
        <time>2021-04-18T11:57:25.000Z</time>
      </trkpt>
      <trkpt lat="47.19585" lon="-1.68064">
        <ele>93</ele>
        <time>2021-04-18T11:57:29.000Z</time>
      </trkpt>
      <trkpt lat="47.19591" lon="-1.68074">
        <ele>82</ele>
        <time>2021-04-18T11:57:39.000Z</time>
      </trkpt>
      <trkpt lat="47.19601" lon="-1.68077">
        <ele>80</ele>
        <time>2021-04-18T12:00:37.000Z</time>
      </trkpt>
      <trkpt lat="47.19604" lon="-1.6809">
        <ele>83</ele>
        <time>2021-04-18T12:00:50.000Z</time>
      </trkpt>
      <trkpt lat="47.19614" lon="-1.68099">
        <ele>76</ele>
        <time>2021-04-18T12:01:08.000Z</time>
      </trkpt>
      <trkpt lat="47.1961" lon="-1.68111">
        <ele>69</ele>
        <time>2021-04-18T12:01:36.000Z</time>
      </trkpt>
      <trkpt lat="47.19607" lon="-1.68096">
        <ele>61</ele>
        <time>2021-04-18T12:03:00.000Z</time>
      </trkpt>
      <trkpt lat="47.19602" lon="-1.6808">
        <ele>61</ele>
        <time>2021-04-18T12:03:05.000Z</time>
      </trkpt>
      <trkpt lat="47.19611" lon="-1.68074">
        <ele>66</ele>
        <time>2021-04-18T12:03:12.000Z</time>
      </trkpt>
      <trkpt lat="47.1962" lon="-1.68083">
        <ele>76</ele>
        <time>2021-04-18T12:03:40.000Z</time>
      </trkpt>
      <trkpt lat="47.19631" lon="-1.68098">
        <ele>79</ele>
        <time>2021-04-18T12:03:43.000Z</time>
      </trkpt>
      <trkpt lat="47.19635" lon="-1.68112">
        <ele>79</ele>
        <time>2021-04-18T12:03:48.000Z</time>
      </trkpt>
      <trkpt lat="47.19639" lon="-1.68125">
        <ele>75</ele>
        <time>2021-04-18T12:03:52.000Z</time>
      </trkpt>
      <trkpt lat="47.19644" lon="-1.68136">
        <ele>73</ele>
        <time>2021-04-18T12:03:56.000Z</time>
      </trkpt>
      <trkpt lat="47.19647" lon="-1.68152">
        <ele>61</ele>
        <time>2021-04-18T12:04:55.000Z</time>
      </trkpt>
      <trkpt lat="47.1965" lon="-1.68164">
        <ele>64</ele>
        <time>2021-04-18T12:04:59.000Z</time>
      </trkpt>
      <trkpt lat="47.19651" lon="-1.6818">
        <ele>67</ele>
        <time>2021-04-18T12:05:02.000Z</time>
      </trkpt>
      <trkpt lat="47.19654" lon="-1.68192">
        <ele>68</ele>
        <time>2021-04-18T12:05:05.000Z</time>
      </trkpt>
      <trkpt lat="47.19658" lon="-1.68206">
        <ele>70</ele>
        <time>2021-04-18T12:05:08.000Z</time>
      </trkpt>
      <trkpt lat="47.19655" lon="-1.68221">
        <ele>71</ele>
        <time>2021-04-18T12:05:11.000Z</time>
      </trkpt>
      <trkpt lat="47.19646" lon="-1.68229">
        <ele>71</ele>
        <time>2021-04-18T12:05:16.000Z</time>
      </trkpt>
      <trkpt lat="47.1965" lon="-1.68242">
        <ele>71</ele>
        <time>2021-04-18T12:05:18.000Z</time>
      </trkpt>
      <trkpt lat="47.19655" lon="-1.68255">
        <ele>71</ele>
        <time>2021-04-18T12:05:21.000Z</time>
      </trkpt>
      <trkpt lat="47.19654" lon="-1.68269">
        <ele>70</ele>
        <time>2021-04-18T12:05:24.000Z</time>
      </trkpt>
      <trkpt lat="47.19646" lon="-1.68282">
        <ele>67</ele>
        <time>2021-04-18T12:05:28.000Z</time>
      </trkpt>
      <trkpt lat="47.19639" lon="-1.68297">
        <ele>64</ele>
        <time>2021-04-18T12:05:31.000Z</time>
      </trkpt>
      <trkpt lat="47.19634" lon="-1.68311">
        <ele>62</ele>
        <time>2021-04-18T12:05:39.000Z</time>
      </trkpt>
      <trkpt lat="47.19625" lon="-1.68318">
        <ele>60</ele>
        <time>2021-04-18T12:05:43.000Z</time>
      </trkpt>
      <trkpt lat="47.19613" lon="-1.68324">
        <ele>59</ele>
        <time>2021-04-18T12:05:46.000Z</time>
      </trkpt>
      <trkpt lat="47.19605" lon="-1.68332">
        <ele>63</ele>
        <time>2021-04-18T12:05:49.000Z</time>
      </trkpt>
      <trkpt lat="47.19598" lon="-1.68346">
        <ele>66</ele>
        <time>2021-04-18T12:05:53.000Z</time>
      </trkpt>
      <trkpt lat="47.19585" lon="-1.68359">
        <ele>63</ele>
        <time>2021-04-18T12:05:58.000Z</time>
      </trkpt>
      <trkpt lat="47.19578" lon="-1.6837">
        <ele>61</ele>
        <time>2021-04-18T12:06:03.000Z</time>
      </trkpt>
      <trkpt lat="47.19566" lon="-1.68363">
        <ele>57</ele>
        <time>2021-04-18T12:06:11.000Z</time>
      </trkpt>
      <trkpt lat="47.19563" lon="-1.68348">
        <ele>57</ele>
        <time>2021-04-18T12:06:14.000Z</time>
      </trkpt>
      <trkpt lat="47.19562" lon="-1.68333">
        <ele>57</ele>
        <time>2021-04-18T12:06:17.000Z</time>
      </trkpt>
      <trkpt lat="47.19559" lon="-1.68316">
        <ele>56</ele>
        <time>2021-04-18T12:06:21.000Z</time>
      </trkpt>
      <trkpt lat="47.19554" lon="-1.68302">
        <ele>54</ele>
        <time>2021-04-18T12:06:25.000Z</time>
      </trkpt>
      <trkpt lat="47.19551" lon="-1.68288">
        <ele>53</ele>
        <time>2021-04-18T12:06:30.000Z</time>
      </trkpt>
      <trkpt lat="47.19547" lon="-1.68274">
        <ele>51</ele>
        <time>2021-04-18T12:06:35.000Z</time>
      </trkpt>
      <trkpt lat="47.19546" lon="-1.6826">
        <ele>50</ele>
        <time>2021-04-18T12:06:38.000Z</time>
      </trkpt>
      <trkpt lat="47.19541" lon="-1.68247">
        <ele>50</ele>
        <time>2021-04-18T12:06:42.000Z</time>
      </trkpt>
      <trkpt lat="47.19537" lon="-1.68235">
        <ele>51</ele>
        <time>2021-04-18T12:06:45.000Z</time>
      </trkpt>
      <trkpt lat="47.19533" lon="-1.68219">
        <ele>52</ele>
        <time>2021-04-18T12:06:48.000Z</time>
      </trkpt>
      <trkpt lat="47.19526" lon="-1.68203">
        <ele>53</ele>
        <time>2021-04-18T12:06:52.000Z</time>
      </trkpt>
      <trkpt lat="47.19521" lon="-1.6819">
        <ele>53</ele>
        <time>2021-04-18T12:06:56.000Z</time>
      </trkpt>
      <trkpt lat="47.19514" lon="-1.68178">
        <ele>53</ele>
        <time>2021-04-18T12:07:00.000Z</time>
      </trkpt>
      <trkpt lat="47.19509" lon="-1.68163">
        <ele>54</ele>
        <time>2021-04-18T12:07:04.000Z</time>
      </trkpt>
      <trkpt lat="47.19502" lon="-1.6815">
        <ele>53</ele>
        <time>2021-04-18T12:07:08.000Z</time>
      </trkpt>
      <trkpt lat="47.19498" lon="-1.68135">
        <ele>53</ele>
        <time>2021-04-18T12:07:11.000Z</time>
      </trkpt>
      <trkpt lat="47.19492" lon="-1.68126">
        <ele>53</ele>
        <time>2021-04-18T12:07:15.000Z</time>
      </trkpt>
      <trkpt lat="47.19482" lon="-1.68123">
        <ele>50</ele>
        <time>2021-04-18T12:07:47.000Z</time>
      </trkpt>
      <trkpt lat="47.19491" lon="-1.68117">
        <ele>49</ele>
        <time>2021-04-18T12:08:28.000Z</time>
      </trkpt>
      <trkpt lat="47.19489" lon="-1.68099">
        <ele>53</ele>
        <time>2021-04-18T12:08:36.000Z</time>
      </trkpt>
      <trkpt lat="47.19487" lon="-1.68083">
        <ele>54</ele>
        <time>2021-04-18T12:08:39.000Z</time>
      </trkpt>
      <trkpt lat="47.19484" lon="-1.68067">
        <ele>56</ele>
        <time>2021-04-18T12:08:43.000Z</time>
      </trkpt>
      <trkpt lat="47.19482" lon="-1.6805">
        <ele>56</ele>
        <time>2021-04-18T12:08:47.000Z</time>
      </trkpt>
      <trkpt lat="47.19476" lon="-1.68033">
        <ele>56</ele>
        <time>2021-04-18T12:08:52.000Z</time>
      </trkpt>
      <trkpt lat="47.19474" lon="-1.68018">
        <ele>56</ele>
        <time>2021-04-18T12:08:58.000Z</time>
      </trkpt>
      <trkpt lat="47.19461" lon="-1.68025">
        <ele>54</ele>
        <time>2021-04-18T12:09:39.000Z</time>
      </trkpt>
      <trkpt lat="47.1947" lon="-1.68031">
        <ele>54</ele>
        <time>2021-04-18T12:12:57.000Z</time>
      </trkpt>
      <trkpt lat="47.19461" lon="-1.68043">
        <ele>58</ele>
        <time>2021-04-18T12:13:05.000Z</time>
      </trkpt>
      <trkpt lat="47.19452" lon="-1.68052">
        <ele>58</ele>
        <time>2021-04-18T12:13:09.000Z</time>
      </trkpt>
      <trkpt lat="47.19437" lon="-1.68065">
        <ele>60</ele>
        <time>2021-04-18T12:13:13.000Z</time>
      </trkpt>
      <trkpt lat="47.19425" lon="-1.6807">
        <ele>63</ele>
        <time>2021-04-18T12:13:16.000Z</time>
      </trkpt>
      <trkpt lat="47.19414" lon="-1.68074">
        <ele>65</ele>
        <time>2021-04-18T12:13:19.000Z</time>
      </trkpt>
      <trkpt lat="47.19401" lon="-1.68081">
        <ele>66</ele>
        <time>2021-04-18T12:13:21.000Z</time>
      </trkpt>
      <trkpt lat="47.19392" lon="-1.68086">
        <ele>66</ele>
        <time>2021-04-18T12:13:23.000Z</time>
      </trkpt>
      <trkpt lat="47.19384" lon="-1.68093">
        <ele>65</ele>
        <time>2021-04-18T12:13:25.000Z</time>
      </trkpt>
      <trkpt lat="47.19376" lon="-1.681">
        <ele>65</ele>
        <time>2021-04-18T12:13:27.000Z</time>
      </trkpt>
      <trkpt lat="47.19365" lon="-1.68108">
        <ele>63</ele>
        <time>2021-04-18T12:13:29.000Z</time>
      </trkpt>
      <trkpt lat="47.19356" lon="-1.68112">
        <ele>62</ele>
        <time>2021-04-18T12:13:31.000Z</time>
      </trkpt>
      <trkpt lat="47.19345" lon="-1.68121">
        <ele>61</ele>
        <time>2021-04-18T12:13:34.000Z</time>
      </trkpt>
      <trkpt lat="47.19336" lon="-1.68125">
        <ele>61</ele>
        <time>2021-04-18T12:13:36.000Z</time>
      </trkpt>
      <trkpt lat="47.19326" lon="-1.68132">
        <ele>60</ele>
        <time>2021-04-18T12:13:38.000Z</time>
      </trkpt>
      <trkpt lat="47.19313" lon="-1.68141">
        <ele>59</ele>
        <time>2021-04-18T12:13:41.000Z</time>
      </trkpt>
      <trkpt lat="47.19304" lon="-1.68146">
        <ele>59</ele>
        <time>2021-04-18T12:13:43.000Z</time>
      </trkpt>
      <trkpt lat="47.19292" lon="-1.68157">
        <ele>60</ele>
        <time>2021-04-18T12:13:46.000Z</time>
      </trkpt>
      <trkpt lat="47.19283" lon="-1.68164">
        <ele>59</ele>
        <time>2021-04-18T12:13:48.000Z</time>
      </trkpt>
      <trkpt lat="47.19274" lon="-1.6817">
        <ele>59</ele>
        <time>2021-04-18T12:13:50.000Z</time>
      </trkpt>
      <trkpt lat="47.19265" lon="-1.68177">
        <ele>59</ele>
        <time>2021-04-18T12:13:52.000Z</time>
      </trkpt>
      <trkpt lat="47.19254" lon="-1.68184">
        <ele>60</ele>
        <time>2021-04-18T12:13:55.000Z</time>
      </trkpt>
      <trkpt lat="47.19245" lon="-1.68189">
        <ele>61</ele>
        <time>2021-04-18T12:13:57.000Z</time>
      </trkpt>
      <trkpt lat="47.19232" lon="-1.68196">
        <ele>56</ele>
        <time>2021-04-18T12:14:00.000Z</time>
      </trkpt>
      <trkpt lat="47.19219" lon="-1.68206">
        <ele>59</ele>
        <time>2021-04-18T12:14:04.000Z</time>
      </trkpt>
      <trkpt lat="47.1921" lon="-1.68211">
        <ele>58</ele>
        <time>2021-04-18T12:14:06.000Z</time>
      </trkpt>
      <trkpt lat="47.19192" lon="-1.68225">
        <ele>58</ele>
        <time>2021-04-18T12:14:11.000Z</time>
      </trkpt>
      <trkpt lat="47.19183" lon="-1.68229">
        <ele>57</ele>
        <time>2021-04-18T12:14:14.000Z</time>
      </trkpt>
      <trkpt lat="47.19174" lon="-1.68221">
        <ele>57</ele>
        <time>2021-04-18T12:14:19.000Z</time>
      </trkpt>
      <trkpt lat="47.19164" lon="-1.68216">
        <ele>57</ele>
        <time>2021-04-18T12:14:25.000Z</time>
      </trkpt>
      <trkpt lat="47.19154" lon="-1.68216">
        <ele>59</ele>
        <time>2021-04-18T12:14:30.000Z</time>
      </trkpt>
      <trkpt lat="47.19146" lon="-1.6821">
        <ele>59</ele>
        <time>2021-04-18T12:14:36.000Z</time>
      </trkpt>
      <trkpt lat="47.19147" lon="-1.68194">
        <ele>62</ele>
        <time>2021-04-18T12:14:45.000Z</time>
      </trkpt>
      <trkpt lat="47.19143" lon="-1.68182">
        <ele>65</ele>
        <time>2021-04-18T12:14:51.000Z</time>
      </trkpt>
      <trkpt lat="47.19136" lon="-1.68193">
        <ele>71</ele>
        <time>2021-04-18T12:15:02.000Z</time>
      </trkpt>
      <trkpt lat="47.1913" lon="-1.68205">
        <ele>72</ele>
        <time>2021-04-18T12:15:09.000Z</time>
      </trkpt>
      <trkpt lat="47.19127" lon="-1.68189">
        <ele>73</ele>
        <time>2021-04-18T12:23:25.000Z</time>
      </trkpt>
      <trkpt lat="47.19124" lon="-1.68177">
        <ele>71</ele>
        <time>2021-04-18T12:23:32.000Z</time>
      </trkpt>
      <trkpt lat="47.19121" lon="-1.68192">
        <ele>74</ele>
        <time>2021-04-18T12:23:58.000Z</time>
      </trkpt>
      <trkpt lat="47.19119" lon="-1.68206">
        <ele>77</ele>
        <time>2021-04-18T12:24:02.000Z</time>
      </trkpt>
      <trkpt lat="47.19118" lon="-1.68222">
        <ele>79</ele>
        <time>2021-04-18T12:24:07.000Z</time>
      </trkpt>
      <trkpt lat="47.19118" lon="-1.68238">
        <ele>82</ele>
        <time>2021-04-18T12:24:13.000Z</time>
      </trkpt>
      <trkpt lat="47.19124" lon="-1.68249">
        <ele>79</ele>
        <time>2021-04-18T12:24:17.000Z</time>
      </trkpt>
      <trkpt lat="47.19131" lon="-1.68257">
        <ele>81</ele>
        <time>2021-04-18T12:24:21.000Z</time>
      </trkpt>
      <trkpt lat="47.19138" lon="-1.68267">
        <ele>82</ele>
        <time>2021-04-18T12:24:28.000Z</time>
      </trkpt>
      <trkpt lat="47.1913" lon="-1.68254">
        <ele>75</ele>
        <time>2021-04-18T12:26:16.000Z</time>
      </trkpt>
      <trkpt lat="47.19121" lon="-1.68245">
        <ele>76</ele>
        <time>2021-04-18T12:26:18.000Z</time>
      </trkpt>
      <trkpt lat="47.19119" lon="-1.68226">
        <ele>77</ele>
        <time>2021-04-18T12:26:21.000Z</time>
      </trkpt>
      <trkpt lat="47.19119" lon="-1.68208">
        <ele>76</ele>
        <time>2021-04-18T12:26:24.000Z</time>
      </trkpt>
      <trkpt lat="47.19116" lon="-1.68188">
        <ele>76</ele>
        <time>2021-04-18T12:26:27.000Z</time>
      </trkpt>
      <trkpt lat="47.19118" lon="-1.68169">
        <ele>78</ele>
        <time>2021-04-18T12:26:29.000Z</time>
      </trkpt>
      <trkpt lat="47.19116" lon="-1.68146">
        <ele>78</ele>
        <time>2021-04-18T12:26:32.000Z</time>
      </trkpt>
      <trkpt lat="47.19111" lon="-1.6813">
        <ele>77</ele>
        <time>2021-04-18T12:26:35.000Z</time>
      </trkpt>
      <trkpt lat="47.19105" lon="-1.68113">
        <ele>77</ele>
        <time>2021-04-18T12:26:38.000Z</time>
      </trkpt>
      <trkpt lat="47.19103" lon="-1.681">
        <ele>77</ele>
        <time>2021-04-18T12:26:40.000Z</time>
      </trkpt>
      <trkpt lat="47.19099" lon="-1.68087">
        <ele>76</ele>
        <time>2021-04-18T12:26:42.000Z</time>
      </trkpt>
      <trkpt lat="47.19092" lon="-1.68079">
        <ele>77</ele>
        <time>2021-04-18T12:26:44.000Z</time>
      </trkpt>
      <trkpt lat="47.19087" lon="-1.68068">
        <ele>79</ele>
        <time>2021-04-18T12:26:46.000Z</time>
      </trkpt>
      <trkpt lat="47.19082" lon="-1.68055">
        <ele>79</ele>
        <time>2021-04-18T12:26:48.000Z</time>
      </trkpt>
      <trkpt lat="47.19076" lon="-1.68042">
        <ele>78</ele>
        <time>2021-04-18T12:26:50.000Z</time>
      </trkpt>
      <trkpt lat="47.19066" lon="-1.68033">
        <ele>76</ele>
        <time>2021-04-18T12:26:53.000Z</time>
      </trkpt>
      <trkpt lat="47.19056" lon="-1.6803">
        <ele>76</ele>
        <time>2021-04-18T12:26:55.000Z</time>
      </trkpt>
      <trkpt lat="47.19044" lon="-1.68025">
        <ele>77</ele>
        <time>2021-04-18T12:26:58.000Z</time>
      </trkpt>
      <trkpt lat="47.19032" lon="-1.68023">
        <ele>76</ele>
        <time>2021-04-18T12:27:01.000Z</time>
      </trkpt>
      <trkpt lat="47.19015" lon="-1.68022">
        <ele>76</ele>
        <time>2021-04-18T12:27:05.000Z</time>
      </trkpt>
      <trkpt lat="47.19003" lon="-1.68029">
        <ele>78</ele>
        <time>2021-04-18T12:27:08.000Z</time>
      </trkpt>
      <trkpt lat="47.18995" lon="-1.68015">
        <ele>79</ele>
        <time>2021-04-18T12:27:13.000Z</time>
      </trkpt>
      <trkpt lat="47.1899" lon="-1.68001">
        <ele>79</ele>
        <time>2021-04-18T12:27:15.000Z</time>
      </trkpt>
      <trkpt lat="47.18982" lon="-1.67993">
        <ele>80</ele>
        <time>2021-04-18T12:27:17.000Z</time>
      </trkpt>
      <trkpt lat="47.18977" lon="-1.67979">
        <ele>80</ele>
        <time>2021-04-18T12:27:20.000Z</time>
      </trkpt>
      <trkpt lat="47.18979" lon="-1.67963">
        <ele>79</ele>
        <time>2021-04-18T12:27:25.000Z</time>
      </trkpt>
      <trkpt lat="47.18988" lon="-1.67948">
        <ele>80</ele>
        <time>2021-04-18T12:27:28.000Z</time>
      </trkpt>
      <trkpt lat="47.1899" lon="-1.67934">
        <ele>80</ele>
        <time>2021-04-18T12:27:30.000Z</time>
      </trkpt>
      <trkpt lat="47.18991" lon="-1.67921">
        <ele>80</ele>
        <time>2021-04-18T12:27:32.000Z</time>
      </trkpt>
      <trkpt lat="47.18985" lon="-1.67909">
        <ele>79</ele>
        <time>2021-04-18T12:27:34.000Z</time>
      </trkpt>
      <trkpt lat="47.18977" lon="-1.67896">
        <ele>79</ele>
        <time>2021-04-18T12:27:37.000Z</time>
      </trkpt>
      <trkpt lat="47.18969" lon="-1.67888">
        <ele>78</ele>
        <time>2021-04-18T12:27:39.000Z</time>
      </trkpt>
      <trkpt lat="47.18963" lon="-1.6788">
        <ele>78</ele>
        <time>2021-04-18T12:27:41.000Z</time>
      </trkpt>
      <trkpt lat="47.18955" lon="-1.67873">
        <ele>78</ele>
        <time>2021-04-18T12:27:43.000Z</time>
      </trkpt>
      <trkpt lat="47.18943" lon="-1.67871">
        <ele>77</ele>
        <time>2021-04-18T12:27:46.000Z</time>
      </trkpt>
      <trkpt lat="47.18931" lon="-1.67877">
        <ele>83</ele>
        <time>2021-04-18T12:27:49.000Z</time>
      </trkpt>
      <trkpt lat="47.1892" lon="-1.67875">
        <ele>83</ele>
        <time>2021-04-18T12:27:54.000Z</time>
      </trkpt>
      <trkpt lat="47.18919" lon="-1.67858">
        <ele>81</ele>
        <time>2021-04-18T12:27:56.000Z</time>
      </trkpt>
      <trkpt lat="47.18918" lon="-1.6784">
        <ele>80</ele>
        <time>2021-04-18T12:27:58.000Z</time>
      </trkpt>
      <trkpt lat="47.18917" lon="-1.67827">
        <ele>80</ele>
        <time>2021-04-18T12:28:00.000Z</time>
      </trkpt>
      <trkpt lat="47.18916" lon="-1.67809">
        <ele>79</ele>
        <time>2021-04-18T12:28:03.000Z</time>
      </trkpt>
      <trkpt lat="47.18915" lon="-1.67796">
        <ele>79</ele>
        <time>2021-04-18T12:28:06.000Z</time>
      </trkpt>
      <trkpt lat="47.18916" lon="-1.67781">
        <ele>79</ele>
        <time>2021-04-18T12:28:10.000Z</time>
      </trkpt>
      <trkpt lat="47.18913" lon="-1.67765">
        <ele>79</ele>
        <time>2021-04-18T12:28:12.000Z</time>
      </trkpt>
      <trkpt lat="47.18911" lon="-1.6775">
        <ele>79</ele>
        <time>2021-04-18T12:28:15.000Z</time>
      </trkpt>
      <trkpt lat="47.18907" lon="-1.67736">
        <ele>79</ele>
        <time>2021-04-18T12:28:19.000Z</time>
      </trkpt>
      <trkpt lat="47.18913" lon="-1.67725">
        <ele>80</ele>
        <time>2021-04-18T12:28:26.000Z</time>
      </trkpt>
      <trkpt lat="47.18921" lon="-1.67718">
        <ele>80</ele>
        <time>2021-04-18T12:28:28.000Z</time>
      </trkpt>
      <trkpt lat="47.18929" lon="-1.6771">
        <ele>80</ele>
        <time>2021-04-18T12:28:31.000Z</time>
      </trkpt>
      <trkpt lat="47.18937" lon="-1.67703">
        <ele>78</ele>
        <time>2021-04-18T12:28:39.000Z</time>
      </trkpt>
      <trkpt lat="47.1894" lon="-1.6769">
        <ele>72</ele>
        <time>2021-04-18T12:29:04.000Z</time>
      </trkpt>
      <trkpt lat="47.18942" lon="-1.67676">
        <ele>74</ele>
        <time>2021-04-18T12:29:11.000Z</time>
      </trkpt>
      <trkpt lat="47.18938" lon="-1.67664">
        <ele>75</ele>
        <time>2021-04-18T12:29:16.000Z</time>
      </trkpt>
      <trkpt lat="47.18931" lon="-1.67652">
        <ele>79</ele>
        <time>2021-04-18T12:29:22.000Z</time>
      </trkpt>
      <trkpt lat="47.18931" lon="-1.67638">
        <ele>76</ele>
        <time>2021-04-18T12:29:36.000Z</time>
      </trkpt>
      <trkpt lat="47.18931" lon="-1.67624">
        <ele>73</ele>
        <time>2021-04-18T12:29:49.000Z</time>
      </trkpt>
      <trkpt lat="47.18933" lon="-1.67611">
        <ele>74</ele>
        <time>2021-04-18T12:29:55.000Z</time>
      </trkpt>
      <trkpt lat="47.18933" lon="-1.67598">
        <ele>75</ele>
        <time>2021-04-18T12:30:00.000Z</time>
      </trkpt>
      <trkpt lat="47.18935" lon="-1.67585">
        <ele>77</ele>
        <time>2021-04-18T12:30:07.000Z</time>
      </trkpt>
      <trkpt lat="47.18932" lon="-1.67572">
        <ele>81</ele>
        <time>2021-04-18T12:30:11.000Z</time>
      </trkpt>
      <trkpt lat="47.18925" lon="-1.6756">
        <ele>82</ele>
        <time>2021-04-18T12:30:15.000Z</time>
      </trkpt>
      <trkpt lat="47.18922" lon="-1.67543">
        <ele>82</ele>
        <time>2021-04-18T12:30:18.000Z</time>
      </trkpt>
      <trkpt lat="47.18918" lon="-1.67531">
        <ele>82</ele>
        <time>2021-04-18T12:30:20.000Z</time>
      </trkpt>
      <trkpt lat="47.18919" lon="-1.67509">
        <ele>85</ele>
        <time>2021-04-18T12:30:23.000Z</time>
      </trkpt>
      <trkpt lat="47.18918" lon="-1.67491">
        <ele>86</ele>
        <time>2021-04-18T12:30:25.000Z</time>
      </trkpt>
      <trkpt lat="47.18921" lon="-1.67475">
        <ele>86</ele>
        <time>2021-04-18T12:30:27.000Z</time>
      </trkpt>
      <trkpt lat="47.18921" lon="-1.67461">
        <ele>85</ele>
        <time>2021-04-18T12:30:29.000Z</time>
      </trkpt>
      <trkpt lat="47.18919" lon="-1.67447">
        <ele>83</ele>
        <time>2021-04-18T12:30:32.000Z</time>
      </trkpt>
      <trkpt lat="47.18912" lon="-1.67436">
        <ele>81</ele>
        <time>2021-04-18T12:30:37.000Z</time>
      </trkpt>
      <trkpt lat="47.18904" lon="-1.67423">
        <ele>81</ele>
        <time>2021-04-18T12:30:42.000Z</time>
      </trkpt>
      <trkpt lat="47.189" lon="-1.6741">
        <ele>80</ele>
        <time>2021-04-18T12:30:45.000Z</time>
      </trkpt>
      <trkpt lat="47.18894" lon="-1.67394">
        <ele>82</ele>
        <time>2021-04-18T12:30:50.000Z</time>
      </trkpt>
      <trkpt lat="47.18891" lon="-1.6738">
        <ele>84</ele>
        <time>2021-04-18T12:30:53.000Z</time>
      </trkpt>
      <trkpt lat="47.18889" lon="-1.67362">
        <ele>84</ele>
        <time>2021-04-18T12:30:56.000Z</time>
      </trkpt>
      <trkpt lat="47.18885" lon="-1.67344">
        <ele>87</ele>
        <time>2021-04-18T12:30:59.000Z</time>
      </trkpt>
      <trkpt lat="47.18882" lon="-1.67328">
        <ele>85</ele>
        <time>2021-04-18T12:31:02.000Z</time>
      </trkpt>
      <trkpt lat="47.1888" lon="-1.67312">
        <ele>86</ele>
        <time>2021-04-18T12:31:05.000Z</time>
      </trkpt>
      <trkpt lat="47.18877" lon="-1.67295">
        <ele>85</ele>
        <time>2021-04-18T12:31:08.000Z</time>
      </trkpt>
      <trkpt lat="47.18874" lon="-1.67282">
        <ele>86</ele>
        <time>2021-04-18T12:31:11.000Z</time>
      </trkpt>
      <trkpt lat="47.18873" lon="-1.67268">
        <ele>86</ele>
        <time>2021-04-18T12:31:15.000Z</time>
      </trkpt>
      <trkpt lat="47.18872" lon="-1.6725">
        <ele>84</ele>
        <time>2021-04-18T12:31:19.000Z</time>
      </trkpt>
      <trkpt lat="47.18867" lon="-1.67237">
        <ele>85</ele>
        <time>2021-04-18T12:31:22.000Z</time>
      </trkpt>
      <trkpt lat="47.18861" lon="-1.67222">
        <ele>85</ele>
        <time>2021-04-18T12:31:25.000Z</time>
      </trkpt>
      <trkpt lat="47.18864" lon="-1.67208">
        <ele>86</ele>
        <time>2021-04-18T12:31:27.000Z</time>
      </trkpt>
      <trkpt lat="47.18867" lon="-1.67193">
        <ele>84</ele>
        <time>2021-04-18T12:31:30.000Z</time>
      </trkpt>
      <trkpt lat="47.18867" lon="-1.67177">
        <ele>82</ele>
        <time>2021-04-18T12:31:35.000Z</time>
      </trkpt>
      <trkpt lat="47.18863" lon="-1.67164">
        <ele>80</ele>
        <time>2021-04-18T12:31:39.000Z</time>
      </trkpt>
      <trkpt lat="47.18857" lon="-1.67149">
        <ele>80</ele>
        <time>2021-04-18T12:31:42.000Z</time>
      </trkpt>
      <trkpt lat="47.18855" lon="-1.67134">
        <ele>80</ele>
        <time>2021-04-18T12:31:45.000Z</time>
      </trkpt>
      <trkpt lat="47.18859" lon="-1.67119">
        <ele>79</ele>
        <time>2021-04-18T12:31:52.000Z</time>
      </trkpt>
      <trkpt lat="47.18863" lon="-1.67108">
        <ele>76</ele>
        <time>2021-04-18T12:31:56.000Z</time>
      </trkpt>
      <trkpt lat="47.18865" lon="-1.67093">
        <ele>74</ele>
        <time>2021-04-18T12:32:11.000Z</time>
      </trkpt>
      <trkpt lat="47.18865" lon="-1.67078">
        <ele>72</ele>
        <time>2021-04-18T12:32:14.000Z</time>
      </trkpt>
      <trkpt lat="47.18866" lon="-1.67064">
        <ele>71</ele>
        <time>2021-04-18T12:32:16.000Z</time>
      </trkpt>
      <trkpt lat="47.18864" lon="-1.67048">
        <ele>63</ele>
        <time>2021-04-18T12:32:43.000Z</time>
      </trkpt>
      <trkpt lat="47.18862" lon="-1.67033">
        <ele>63</ele>
        <time>2021-04-18T12:32:46.000Z</time>
      </trkpt>
      <trkpt lat="47.18859" lon="-1.67018">
        <ele>67</ele>
        <time>2021-04-18T12:32:48.000Z</time>
      </trkpt>
      <trkpt lat="47.18859" lon="-1.67">
        <ele>71</ele>
        <time>2021-04-18T12:32:51.000Z</time>
      </trkpt>
      <trkpt lat="47.18857" lon="-1.66981">
        <ele>71</ele>
        <time>2021-04-18T12:32:53.000Z</time>
      </trkpt>
      <trkpt lat="47.18854" lon="-1.66965">
        <ele>71</ele>
        <time>2021-04-18T12:32:55.000Z</time>
      </trkpt>
      <trkpt lat="47.18852" lon="-1.6695">
        <ele>70</ele>
        <time>2021-04-18T12:32:57.000Z</time>
      </trkpt>
      <trkpt lat="47.18849" lon="-1.66935">
        <ele>69</ele>
        <time>2021-04-18T12:32:59.000Z</time>
      </trkpt>
      <trkpt lat="47.18848" lon="-1.66922">
        <ele>69</ele>
        <time>2021-04-18T12:33:01.000Z</time>
      </trkpt>
      <trkpt lat="47.18843" lon="-1.66909">
        <ele>67</ele>
        <time>2021-04-18T12:33:03.000Z</time>
      </trkpt>
      <trkpt lat="47.18839" lon="-1.66895">
        <ele>66</ele>
        <time>2021-04-18T12:33:05.000Z</time>
      </trkpt>
      <trkpt lat="47.18835" lon="-1.66882">
        <ele>65</ele>
        <time>2021-04-18T12:33:07.000Z</time>
      </trkpt>
      <trkpt lat="47.18834" lon="-1.66865">
        <ele>64</ele>
        <time>2021-04-18T12:33:10.000Z</time>
      </trkpt>
      <trkpt lat="47.18829" lon="-1.6684">
        <ele>63</ele>
        <time>2021-04-18T12:33:14.000Z</time>
      </trkpt>
      <trkpt lat="47.18825" lon="-1.66826">
        <ele>61</ele>
        <time>2021-04-18T12:33:16.000Z</time>
      </trkpt>
      <trkpt lat="47.18818" lon="-1.66814">
        <ele>61</ele>
        <time>2021-04-18T12:33:18.000Z</time>
      </trkpt>
      <trkpt lat="47.18811" lon="-1.66798">
        <ele>59</ele>
        <time>2021-04-18T12:33:21.000Z</time>
      </trkpt>
      <trkpt lat="47.18807" lon="-1.66784">
        <ele>59</ele>
        <time>2021-04-18T12:33:23.000Z</time>
      </trkpt>
      <trkpt lat="47.18805" lon="-1.66768">
        <ele>59</ele>
        <time>2021-04-18T12:33:26.000Z</time>
      </trkpt>
      <trkpt lat="47.18805" lon="-1.66753">
        <ele>58</ele>
        <time>2021-04-18T12:33:30.000Z</time>
      </trkpt>
      <trkpt lat="47.18801" lon="-1.66739">
        <ele>59</ele>
        <time>2021-04-18T12:33:35.000Z</time>
      </trkpt>
      <trkpt lat="47.18799" lon="-1.66725">
        <ele>57</ele>
        <time>2021-04-18T12:33:39.000Z</time>
      </trkpt>
      <trkpt lat="47.18796" lon="-1.66711">
        <ele>56</ele>
        <time>2021-04-18T12:33:43.000Z</time>
      </trkpt>
      <trkpt lat="47.18793" lon="-1.66698">
        <ele>54</ele>
        <time>2021-04-18T12:34:02.000Z</time>
      </trkpt>
      <trkpt lat="47.18789" lon="-1.66684">
        <ele>52</ele>
        <time>2021-04-18T12:34:27.000Z</time>
      </trkpt>
      <trkpt lat="47.18789" lon="-1.66666">
        <ele>51</ele>
        <time>2021-04-18T12:34:31.000Z</time>
      </trkpt>
      <trkpt lat="47.18789" lon="-1.66648">
        <ele>51</ele>
        <time>2021-04-18T12:34:34.000Z</time>
      </trkpt>
      <trkpt lat="47.18787" lon="-1.66633">
        <ele>51</ele>
        <time>2021-04-18T12:34:37.000Z</time>
      </trkpt>
      <trkpt lat="47.18785" lon="-1.6662">
        <ele>55</ele>
        <time>2021-04-18T12:34:40.000Z</time>
      </trkpt>
      <trkpt lat="47.18783" lon="-1.66607">
        <ele>55</ele>
        <time>2021-04-18T12:34:43.000Z</time>
      </trkpt>
      <trkpt lat="47.18781" lon="-1.66593">
        <ele>55</ele>
        <time>2021-04-18T12:35:30.000Z</time>
      </trkpt>
      <trkpt lat="47.18779" lon="-1.66579">
        <ele>55</ele>
        <time>2021-04-18T12:35:37.000Z</time>
      </trkpt>
      <trkpt lat="47.18775" lon="-1.66567">
        <ele>54</ele>
        <time>2021-04-18T12:36:17.000Z</time>
      </trkpt>
      <trkpt lat="47.18771" lon="-1.66555">
        <ele>53</ele>
        <time>2021-04-18T12:36:21.000Z</time>
      </trkpt>
      <trkpt lat="47.18773" lon="-1.66541">
        <ele>52</ele>
        <time>2021-04-18T12:36:48.000Z</time>
      </trkpt>
      <trkpt lat="47.18771" lon="-1.66528">
        <ele>52</ele>
        <time>2021-04-18T12:36:54.000Z</time>
      </trkpt>
      <trkpt lat="47.18769" lon="-1.66512">
        <ele>57</ele>
        <time>2021-04-18T12:36:58.000Z</time>
      </trkpt>
      <trkpt lat="47.18764" lon="-1.665">
        <ele>57</ele>
        <time>2021-04-18T12:37:01.000Z</time>
      </trkpt>
      <trkpt lat="47.18764" lon="-1.66483">
        <ele>56</ele>
        <time>2021-04-18T12:37:04.000Z</time>
      </trkpt>
      <trkpt lat="47.1876" lon="-1.6647">
        <ele>56</ele>
        <time>2021-04-18T12:37:08.000Z</time>
      </trkpt>
      <trkpt lat="47.18752" lon="-1.66457">
        <ele>58</ele>
        <time>2021-04-18T12:37:12.000Z</time>
      </trkpt>
      <trkpt lat="47.18752" lon="-1.66443">
        <ele>60</ele>
        <time>2021-04-18T12:37:16.000Z</time>
      </trkpt>
      <trkpt lat="47.18761" lon="-1.66428">
        <ele>60</ele>
        <time>2021-04-18T12:37:21.000Z</time>
      </trkpt>
      <trkpt lat="47.18766" lon="-1.66417">
        <ele>60</ele>
        <time>2021-04-18T12:37:24.000Z</time>
      </trkpt>
      <trkpt lat="47.18771" lon="-1.66402">
        <ele>61</ele>
        <time>2021-04-18T12:37:28.000Z</time>
      </trkpt>
      <trkpt lat="47.18774" lon="-1.66385">
        <ele>62</ele>
        <time>2021-04-18T12:37:32.000Z</time>
      </trkpt>
      <trkpt lat="47.18777" lon="-1.66372">
        <ele>63</ele>
        <time>2021-04-18T12:37:35.000Z</time>
      </trkpt>
      <trkpt lat="47.18775" lon="-1.66357">
        <ele>64</ele>
        <time>2021-04-18T12:37:39.000Z</time>
      </trkpt>
      <trkpt lat="47.18773" lon="-1.66343">
        <ele>65</ele>
        <time>2021-04-18T12:37:43.000Z</time>
      </trkpt>
      <trkpt lat="47.18775" lon="-1.66327">
        <ele>67</ele>
        <time>2021-04-18T12:37:46.000Z</time>
      </trkpt>
      <trkpt lat="47.18776" lon="-1.66306">
        <ele>67</ele>
        <time>2021-04-18T12:37:50.000Z</time>
      </trkpt>
      <trkpt lat="47.18777" lon="-1.6629">
        <ele>67</ele>
        <time>2021-04-18T12:37:53.000Z</time>
      </trkpt>
      <trkpt lat="47.18779" lon="-1.66277">
        <ele>67</ele>
        <time>2021-04-18T12:37:57.000Z</time>
      </trkpt>
      <trkpt lat="47.18778" lon="-1.66264">
        <ele>66</ele>
        <time>2021-04-18T12:38:04.000Z</time>
      </trkpt>
      <trkpt lat="47.18771" lon="-1.6625">
        <ele>66</ele>
        <time>2021-04-18T12:38:12.000Z</time>
      </trkpt>
      <trkpt lat="47.18766" lon="-1.66236">
        <ele>66</ele>
        <time>2021-04-18T12:38:19.000Z</time>
      </trkpt>
      <trkpt lat="47.18768" lon="-1.6622">
        <ele>67</ele>
        <time>2021-04-18T12:38:23.000Z</time>
      </trkpt>
      <trkpt lat="47.18771" lon="-1.66207">
        <ele>68</ele>
        <time>2021-04-18T12:38:26.000Z</time>
      </trkpt>
      <trkpt lat="47.18776" lon="-1.6619">
        <ele>69</ele>
        <time>2021-04-18T12:38:30.000Z</time>
      </trkpt>
      <trkpt lat="47.18779" lon="-1.66176">
        <ele>71</ele>
        <time>2021-04-18T12:38:33.000Z</time>
      </trkpt>
      <trkpt lat="47.18775" lon="-1.66157">
        <ele>69</ele>
        <time>2021-04-18T12:38:37.000Z</time>
      </trkpt>
      <trkpt lat="47.18769" lon="-1.66145">
        <ele>70</ele>
        <time>2021-04-18T12:38:40.000Z</time>
      </trkpt>
      <trkpt lat="47.18766" lon="-1.6613">
        <ele>70</ele>
        <time>2021-04-18T12:38:44.000Z</time>
      </trkpt>
      <trkpt lat="47.18766" lon="-1.66115">
        <ele>69</ele>
        <time>2021-04-18T12:38:50.000Z</time>
      </trkpt>
      <trkpt lat="47.18766" lon="-1.66101">
        <ele>71</ele>
        <time>2021-04-18T12:38:53.000Z</time>
      </trkpt>
      <trkpt lat="47.18765" lon="-1.66083">
        <ele>70</ele>
        <time>2021-04-18T12:38:56.000Z</time>
      </trkpt>
      <trkpt lat="47.18763" lon="-1.66068">
        <ele>72</ele>
        <time>2021-04-18T12:38:58.000Z</time>
      </trkpt>
      <trkpt lat="47.18762" lon="-1.66054">
        <ele>76</ele>
        <time>2021-04-18T12:39:00.000Z</time>
      </trkpt>
      <trkpt lat="47.18759" lon="-1.6604">
        <ele>77</ele>
        <time>2021-04-18T12:39:02.000Z</time>
      </trkpt>
      <trkpt lat="47.18755" lon="-1.66028">
        <ele>77</ele>
        <time>2021-04-18T12:39:04.000Z</time>
      </trkpt>
      <trkpt lat="47.18747" lon="-1.66015">
        <ele>79</ele>
        <time>2021-04-18T12:39:08.000Z</time>
      </trkpt>
      <trkpt lat="47.18741" lon="-1.66004">
        <ele>78</ele>
        <time>2021-04-18T12:39:10.000Z</time>
      </trkpt>
      <trkpt lat="47.18735" lon="-1.6599">
        <ele>74</ele>
        <time>2021-04-18T12:39:12.000Z</time>
      </trkpt>
      <trkpt lat="47.18729" lon="-1.65978">
        <ele>74</ele>
        <time>2021-04-18T12:39:14.000Z</time>
      </trkpt>
      <trkpt lat="47.18721" lon="-1.65967">
        <ele>73</ele>
        <time>2021-04-18T12:39:16.000Z</time>
      </trkpt>
      <trkpt lat="47.18717" lon="-1.65946">
        <ele>70</ele>
        <time>2021-04-18T12:39:19.000Z</time>
      </trkpt>
      <trkpt lat="47.18718" lon="-1.65928">
        <ele>70</ele>
        <time>2021-04-18T12:39:22.000Z</time>
      </trkpt>
      <trkpt lat="47.18715" lon="-1.65906">
        <ele>65</ele>
        <time>2021-04-18T12:39:25.000Z</time>
      </trkpt>
      <trkpt lat="47.18711" lon="-1.65889">
        <ele>61</ele>
        <time>2021-04-18T12:39:27.000Z</time>
      </trkpt>
      <trkpt lat="47.18706" lon="-1.65875">
        <ele>59</ele>
        <time>2021-04-18T12:39:29.000Z</time>
      </trkpt>
      <trkpt lat="47.18699" lon="-1.65862">
        <ele>58</ele>
        <time>2021-04-18T12:39:31.000Z</time>
      </trkpt>
      <trkpt lat="47.1869" lon="-1.65849">
        <ele>58</ele>
        <time>2021-04-18T12:39:34.000Z</time>
      </trkpt>
      <trkpt lat="47.18681" lon="-1.65838">
        <ele>58</ele>
        <time>2021-04-18T12:39:37.000Z</time>
      </trkpt>
      <trkpt lat="47.18675" lon="-1.65827">
        <ele>59</ele>
        <time>2021-04-18T12:39:40.000Z</time>
      </trkpt>
      <trkpt lat="47.18667" lon="-1.65816">
        <ele>60</ele>
        <time>2021-04-18T12:39:44.000Z</time>
      </trkpt>
      <trkpt lat="47.18657" lon="-1.65805">
        <ele>62</ele>
        <time>2021-04-18T12:39:47.000Z</time>
      </trkpt>
      <trkpt lat="47.1865" lon="-1.65795">
        <ele>64</ele>
        <time>2021-04-18T12:39:49.000Z</time>
      </trkpt>
      <trkpt lat="47.18644" lon="-1.65783">
        <ele>65</ele>
        <time>2021-04-18T12:39:51.000Z</time>
      </trkpt>
      <trkpt lat="47.18637" lon="-1.65772">
        <ele>66</ele>
        <time>2021-04-18T12:39:53.000Z</time>
      </trkpt>
      <trkpt lat="47.18631" lon="-1.6576">
        <ele>66</ele>
        <time>2021-04-18T12:39:55.000Z</time>
      </trkpt>
      <trkpt lat="47.1862" lon="-1.65743">
        <ele>67</ele>
        <time>2021-04-18T12:39:58.000Z</time>
      </trkpt>
      <trkpt lat="47.18615" lon="-1.65729">
        <ele>66</ele>
        <time>2021-04-18T12:40:00.000Z</time>
      </trkpt>
      <trkpt lat="47.18606" lon="-1.65714">
        <ele>65</ele>
        <time>2021-04-18T12:40:03.000Z</time>
      </trkpt>
      <trkpt lat="47.186" lon="-1.65698">
        <ele>64</ele>
        <time>2021-04-18T12:40:06.000Z</time>
      </trkpt>
      <trkpt lat="47.18596" lon="-1.65685">
        <ele>64</ele>
        <time>2021-04-18T12:40:08.000Z</time>
      </trkpt>
      <trkpt lat="47.18592" lon="-1.65671">
        <ele>65</ele>
        <time>2021-04-18T12:40:10.000Z</time>
      </trkpt>
      <trkpt lat="47.18586" lon="-1.65659">
        <ele>65</ele>
        <time>2021-04-18T12:40:12.000Z</time>
      </trkpt>
      <trkpt lat="47.1858" lon="-1.65647">
        <ele>64</ele>
        <time>2021-04-18T12:40:14.000Z</time>
      </trkpt>
      <trkpt lat="47.18575" lon="-1.65634">
        <ele>62</ele>
        <time>2021-04-18T12:40:16.000Z</time>
      </trkpt>
      <trkpt lat="47.18569" lon="-1.65616">
        <ele>61</ele>
        <time>2021-04-18T12:40:19.000Z</time>
      </trkpt>
      <trkpt lat="47.18558" lon="-1.65607">
        <ele>60</ele>
        <time>2021-04-18T12:40:22.000Z</time>
      </trkpt>
      <trkpt lat="47.1855" lon="-1.65602">
        <ele>59</ele>
        <time>2021-04-18T12:40:24.000Z</time>
      </trkpt>
      <trkpt lat="47.18542" lon="-1.65593">
        <ele>59</ele>
        <time>2021-04-18T12:40:26.000Z</time>
      </trkpt>
      <trkpt lat="47.18538" lon="-1.65581">
        <ele>59</ele>
        <time>2021-04-18T12:40:28.000Z</time>
      </trkpt>
      <trkpt lat="47.18533" lon="-1.65564">
        <ele>60</ele>
        <time>2021-04-18T12:40:31.000Z</time>
      </trkpt>
      <trkpt lat="47.18527" lon="-1.65548">
        <ele>59</ele>
        <time>2021-04-18T12:40:34.000Z</time>
      </trkpt>
      <trkpt lat="47.18519" lon="-1.65534">
        <ele>58</ele>
        <time>2021-04-18T12:40:37.000Z</time>
      </trkpt>
      <trkpt lat="47.18511" lon="-1.65522">
        <ele>58</ele>
        <time>2021-04-18T12:40:40.000Z</time>
      </trkpt>
      <trkpt lat="47.18504" lon="-1.65512">
        <ele>58</ele>
        <time>2021-04-18T12:40:43.000Z</time>
      </trkpt>
      <trkpt lat="47.18496" lon="-1.65504">
        <ele>58</ele>
        <time>2021-04-18T12:40:46.000Z</time>
      </trkpt>
      <trkpt lat="47.18486" lon="-1.655">
        <ele>58</ele>
        <time>2021-04-18T12:40:49.000Z</time>
      </trkpt>
      <trkpt lat="47.18475" lon="-1.6549">
        <ele>59</ele>
        <time>2021-04-18T12:40:53.000Z</time>
      </trkpt>
      <trkpt lat="47.18467" lon="-1.65481">
        <ele>59</ele>
        <time>2021-04-18T12:40:57.000Z</time>
      </trkpt>
      <trkpt lat="47.18458" lon="-1.65473">
        <ele>59</ele>
        <time>2021-04-18T12:41:01.000Z</time>
      </trkpt>
      <trkpt lat="47.18452" lon="-1.65461">
        <ele>59</ele>
        <time>2021-04-18T12:41:05.000Z</time>
      </trkpt>
      <trkpt lat="47.18448" lon="-1.65447">
        <ele>58</ele>
        <time>2021-04-18T12:41:09.000Z</time>
      </trkpt>
      <trkpt lat="47.18434" lon="-1.65449">
        <ele>56</ele>
        <time>2021-04-18T12:41:13.000Z</time>
      </trkpt>
      <trkpt lat="47.18425" lon="-1.65453">
        <ele>56</ele>
        <time>2021-04-18T12:41:16.000Z</time>
      </trkpt>
      <trkpt lat="47.18414" lon="-1.65457">
        <ele>57</ele>
        <time>2021-04-18T12:41:19.000Z</time>
      </trkpt>
      <trkpt lat="47.18404" lon="-1.65459">
        <ele>58</ele>
        <time>2021-04-18T12:41:22.000Z</time>
      </trkpt>
      <trkpt lat="47.18395" lon="-1.65463">
        <ele>59</ele>
        <time>2021-04-18T12:41:26.000Z</time>
      </trkpt>
      <trkpt lat="47.18382" lon="-1.65469">
        <ele>56</ele>
        <time>2021-04-18T12:41:29.000Z</time>
      </trkpt>
      <trkpt lat="47.18374" lon="-1.65457">
        <ele>56</ele>
        <time>2021-04-18T12:41:32.000Z</time>
      </trkpt>
      <trkpt lat="47.18375" lon="-1.65443">
        <ele>58</ele>
        <time>2021-04-18T12:41:35.000Z</time>
      </trkpt>
      <trkpt lat="47.18368" lon="-1.65432">
        <ele>60</ele>
        <time>2021-04-18T12:41:39.000Z</time>
      </trkpt>
      <trkpt lat="47.1836" lon="-1.6542">
        <ele>60</ele>
        <time>2021-04-18T12:41:42.000Z</time>
      </trkpt>
      <trkpt lat="47.18353" lon="-1.65406">
        <ele>65</ele>
        <time>2021-04-18T12:41:45.000Z</time>
      </trkpt>
      <trkpt lat="47.18348" lon="-1.65394">
        <ele>66</ele>
        <time>2021-04-18T12:41:48.000Z</time>
      </trkpt>
      <trkpt lat="47.18347" lon="-1.65378">
        <ele>66</ele>
        <time>2021-04-18T12:41:50.000Z</time>
      </trkpt>
      <trkpt lat="47.18345" lon="-1.65365">
        <ele>67</ele>
        <time>2021-04-18T12:41:52.000Z</time>
      </trkpt>
      <trkpt lat="47.18342" lon="-1.65351">
        <ele>67</ele>
        <time>2021-04-18T12:41:54.000Z</time>
      </trkpt>
      <trkpt lat="47.18339" lon="-1.65335">
        <ele>64</ele>
        <time>2021-04-18T12:41:56.000Z</time>
      </trkpt>
      <trkpt lat="47.18336" lon="-1.65319">
        <ele>63</ele>
        <time>2021-04-18T12:41:59.000Z</time>
      </trkpt>
      <trkpt lat="47.18334" lon="-1.65301">
        <ele>61</ele>
        <time>2021-04-18T12:42:02.000Z</time>
      </trkpt>
      <trkpt lat="47.18329" lon="-1.65285">
        <ele>61</ele>
        <time>2021-04-18T12:42:05.000Z</time>
      </trkpt>
      <trkpt lat="47.18328" lon="-1.65272">
        <ele>62</ele>
        <time>2021-04-18T12:42:07.000Z</time>
      </trkpt>
      <trkpt lat="47.18328" lon="-1.65258">
        <ele>62</ele>
        <time>2021-04-18T12:42:09.000Z</time>
      </trkpt>
      <trkpt lat="47.18329" lon="-1.65243">
        <ele>62</ele>
        <time>2021-04-18T12:42:12.000Z</time>
      </trkpt>
      <trkpt lat="47.18328" lon="-1.65229">
        <ele>62</ele>
        <time>2021-04-18T12:42:15.000Z</time>
      </trkpt>
      <trkpt lat="47.18331" lon="-1.65215">
        <ele>65</ele>
        <time>2021-04-18T12:42:19.000Z</time>
      </trkpt>
      <trkpt lat="47.18338" lon="-1.65205">
        <ele>66</ele>
        <time>2021-04-18T12:42:26.000Z</time>
      </trkpt>
      <trkpt lat="47.18349" lon="-1.65204">
        <ele>67</ele>
        <time>2021-04-18T12:42:34.000Z</time>
      </trkpt>
      <trkpt lat="47.18359" lon="-1.65201">
        <ele>67</ele>
        <time>2021-04-18T12:42:37.000Z</time>
      </trkpt>
      <trkpt lat="47.18367" lon="-1.65194">
        <ele>66</ele>
        <time>2021-04-18T12:42:39.000Z</time>
      </trkpt>
      <trkpt lat="47.18376" lon="-1.65185">
        <ele>65</ele>
        <time>2021-04-18T12:42:41.000Z</time>
      </trkpt>
      <trkpt lat="47.18386" lon="-1.6518">
        <ele>65</ele>
        <time>2021-04-18T12:42:43.000Z</time>
      </trkpt>
      <trkpt lat="47.18396" lon="-1.65177">
        <ele>65</ele>
        <time>2021-04-18T12:42:45.000Z</time>
      </trkpt>
      <trkpt lat="47.18407" lon="-1.65172">
        <ele>64</ele>
        <time>2021-04-18T12:42:48.000Z</time>
      </trkpt>
      <trkpt lat="47.18413" lon="-1.65158">
        <ele>62</ele>
        <time>2021-04-18T12:42:52.000Z</time>
      </trkpt>
      <trkpt lat="47.18412" lon="-1.65143">
        <ele>60</ele>
        <time>2021-04-18T12:42:56.000Z</time>
      </trkpt>
      <trkpt lat="47.18409" lon="-1.6513">
        <ele>59</ele>
        <time>2021-04-18T12:42:59.000Z</time>
      </trkpt>
      <trkpt lat="47.18406" lon="-1.65114">
        <ele>58</ele>
        <time>2021-04-18T12:43:03.000Z</time>
      </trkpt>
      <trkpt lat="47.18405" lon="-1.65099">
        <ele>58</ele>
        <time>2021-04-18T12:43:07.000Z</time>
      </trkpt>
      <trkpt lat="47.18399" lon="-1.65086">
        <ele>59</ele>
        <time>2021-04-18T12:43:11.000Z</time>
      </trkpt>
      <trkpt lat="47.1839" lon="-1.6508">
        <ele>60</ele>
        <time>2021-04-18T12:43:14.000Z</time>
      </trkpt>
      <trkpt lat="47.18379" lon="-1.65077">
        <ele>60</ele>
        <time>2021-04-18T12:43:18.000Z</time>
      </trkpt>
      <trkpt lat="47.18371" lon="-1.6507">
        <ele>60</ele>
        <time>2021-04-18T12:43:21.000Z</time>
      </trkpt>
      <trkpt lat="47.18366" lon="-1.65052">
        <ele>61</ele>
        <time>2021-04-18T12:43:24.000Z</time>
      </trkpt>
      <trkpt lat="47.18367" lon="-1.65036">
        <ele>60</ele>
        <time>2021-04-18T12:43:27.000Z</time>
      </trkpt>
      <trkpt lat="47.18372" lon="-1.65021">
        <ele>60</ele>
        <time>2021-04-18T12:43:30.000Z</time>
      </trkpt>
      <trkpt lat="47.18376" lon="-1.65007">
        <ele>60</ele>
        <time>2021-04-18T12:43:33.000Z</time>
      </trkpt>
      <trkpt lat="47.18381" lon="-1.64995">
        <ele>60</ele>
        <time>2021-04-18T12:43:36.000Z</time>
      </trkpt>
      <trkpt lat="47.18387" lon="-1.64982">
        <ele>61</ele>
        <time>2021-04-18T12:43:41.000Z</time>
      </trkpt>
      <trkpt lat="47.18394" lon="-1.64965">
        <ele>61</ele>
        <time>2021-04-18T12:43:44.000Z</time>
      </trkpt>
      <trkpt lat="47.18399" lon="-1.64954">
        <ele>62</ele>
        <time>2021-04-18T12:43:46.000Z</time>
      </trkpt>
      <trkpt lat="47.18405" lon="-1.6494">
        <ele>62</ele>
        <time>2021-04-18T12:43:49.000Z</time>
      </trkpt>
      <trkpt lat="47.18405" lon="-1.64925">
        <ele>60</ele>
        <time>2021-04-18T12:43:52.000Z</time>
      </trkpt>
      <trkpt lat="47.18408" lon="-1.6491">
        <ele>60</ele>
        <time>2021-04-18T12:43:55.000Z</time>
      </trkpt>
      <trkpt lat="47.18412" lon="-1.64886">
        <ele>63</ele>
        <time>2021-04-18T12:43:59.000Z</time>
      </trkpt>
      <trkpt lat="47.18415" lon="-1.64873">
        <ele>63</ele>
        <time>2021-04-18T12:44:02.000Z</time>
      </trkpt>
      <trkpt lat="47.18422" lon="-1.64885">
        <ele>67</ele>
        <time>2021-04-18T12:44:06.000Z</time>
      </trkpt>
      <trkpt lat="47.18426" lon="-1.64902">
        <ele>69</ele>
        <time>2021-04-18T12:44:09.000Z</time>
      </trkpt>
      <trkpt lat="47.18431" lon="-1.64917">
        <ele>71</ele>
        <time>2021-04-18T12:44:12.000Z</time>
      </trkpt>
      <trkpt lat="47.18439" lon="-1.64929">
        <ele>70</ele>
        <time>2021-04-18T12:44:14.000Z</time>
      </trkpt>
      <trkpt lat="47.18449" lon="-1.6494">
        <ele>68</ele>
        <time>2021-04-18T12:44:16.000Z</time>
      </trkpt>
      <trkpt lat="47.18464" lon="-1.64955">
        <ele>67</ele>
        <time>2021-04-18T12:44:19.000Z</time>
      </trkpt>
      <trkpt lat="47.18474" lon="-1.64966">
        <ele>64</ele>
        <time>2021-04-18T12:44:21.000Z</time>
      </trkpt>
      <trkpt lat="47.18483" lon="-1.64975">
        <ele>63</ele>
        <time>2021-04-18T12:44:23.000Z</time>
      </trkpt>
      <trkpt lat="47.18492" lon="-1.64985">
        <ele>61</ele>
        <time>2021-04-18T12:44:25.000Z</time>
      </trkpt>
      <trkpt lat="47.18505" lon="-1.64997">
        <ele>57</ele>
        <time>2021-04-18T12:44:28.000Z</time>
      </trkpt>
      <trkpt lat="47.18513" lon="-1.65004">
        <ele>56</ele>
        <time>2021-04-18T12:44:30.000Z</time>
      </trkpt>
      <trkpt lat="47.18522" lon="-1.65017">
        <ele>54</ele>
        <time>2021-04-18T12:44:33.000Z</time>
      </trkpt>
      <trkpt lat="47.18531" lon="-1.65023">
        <ele>53</ele>
        <time>2021-04-18T12:44:36.000Z</time>
      </trkpt>
      <trkpt lat="47.1854" lon="-1.65031">
        <ele>53</ele>
        <time>2021-04-18T12:44:40.000Z</time>
      </trkpt>
      <trkpt lat="47.18552" lon="-1.65041">
        <ele>54</ele>
        <time>2021-04-18T12:44:46.000Z</time>
      </trkpt>
      <trkpt lat="47.18561" lon="-1.65049">
        <ele>54</ele>
        <time>2021-04-18T12:44:49.000Z</time>
      </trkpt>
      <trkpt lat="47.1857" lon="-1.65053">
        <ele>57</ele>
        <time>2021-04-18T12:44:52.000Z</time>
      </trkpt>
      <trkpt lat="47.18581" lon="-1.65057">
        <ele>58</ele>
        <time>2021-04-18T12:44:56.000Z</time>
      </trkpt>
      <trkpt lat="47.18597" lon="-1.65061">
        <ele>58</ele>
        <time>2021-04-18T12:45:00.000Z</time>
      </trkpt>
      <trkpt lat="47.18618" lon="-1.65073">
        <ele>57</ele>
        <time>2021-04-18T12:45:03.000Z</time>
      </trkpt>
      <trkpt lat="47.18633" lon="-1.65079">
        <ele>57</ele>
        <time>2021-04-18T12:45:06.000Z</time>
      </trkpt>
      <trkpt lat="47.18648" lon="-1.65084">
        <ele>56</ele>
        <time>2021-04-18T12:45:09.000Z</time>
      </trkpt>
      <trkpt lat="47.18662" lon="-1.65089">
        <ele>55</ele>
        <time>2021-04-18T12:45:12.000Z</time>
      </trkpt>
      <trkpt lat="47.18672" lon="-1.65092">
        <ele>57</ele>
        <time>2021-04-18T12:45:14.000Z</time>
      </trkpt>
      <trkpt lat="47.18682" lon="-1.65097">
        <ele>58</ele>
        <time>2021-04-18T12:45:16.000Z</time>
      </trkpt>
      <trkpt lat="47.18691" lon="-1.651">
        <ele>57</ele>
        <time>2021-04-18T12:45:18.000Z</time>
      </trkpt>
      <trkpt lat="47.18701" lon="-1.65105">
        <ele>55</ele>
        <time>2021-04-18T12:45:20.000Z</time>
      </trkpt>
      <trkpt lat="47.18712" lon="-1.6511">
        <ele>55</ele>
        <time>2021-04-18T12:45:23.000Z</time>
      </trkpt>
      <trkpt lat="47.18723" lon="-1.65117">
        <ele>54</ele>
        <time>2021-04-18T12:45:26.000Z</time>
      </trkpt>
      <trkpt lat="47.18732" lon="-1.6512">
        <ele>53</ele>
        <time>2021-04-18T12:45:31.000Z</time>
      </trkpt>
      <trkpt lat="47.18741" lon="-1.65127">
        <ele>52</ele>
        <time>2021-04-18T12:45:36.000Z</time>
      </trkpt>
      <trkpt lat="47.18751" lon="-1.65129">
        <ele>55</ele>
        <time>2021-04-18T12:45:40.000Z</time>
      </trkpt>
      <trkpt lat="47.18759" lon="-1.65134">
        <ele>56</ele>
        <time>2021-04-18T12:45:42.000Z</time>
      </trkpt>
      <trkpt lat="47.18769" lon="-1.65137">
        <ele>57</ele>
        <time>2021-04-18T12:45:44.000Z</time>
      </trkpt>
      <trkpt lat="47.18779" lon="-1.65142">
        <ele>57</ele>
        <time>2021-04-18T12:45:46.000Z</time>
      </trkpt>
      <trkpt lat="47.18789" lon="-1.65156">
        <ele>53</ele>
        <time>2021-04-18T12:46:03.000Z</time>
      </trkpt>
      <trkpt lat="47.18802" lon="-1.65167">
        <ele>56</ele>
        <time>2021-04-18T12:46:06.000Z</time>
      </trkpt>
      <trkpt lat="47.18815" lon="-1.65177">
        <ele>55</ele>
        <time>2021-04-18T12:46:09.000Z</time>
      </trkpt>
      <trkpt lat="47.18824" lon="-1.65185">
        <ele>55</ele>
        <time>2021-04-18T12:46:11.000Z</time>
      </trkpt>
      <trkpt lat="47.18835" lon="-1.65195">
        <ele>55</ele>
        <time>2021-04-18T12:46:14.000Z</time>
      </trkpt>
      <trkpt lat="47.18845" lon="-1.65202">
        <ele>54</ele>
        <time>2021-04-18T12:46:19.000Z</time>
      </trkpt>
      <trkpt lat="47.18853" lon="-1.65208">
        <ele>53</ele>
        <time>2021-04-18T12:46:29.000Z</time>
      </trkpt>
      <trkpt lat="47.18865" lon="-1.65212">
        <ele>55</ele>
        <time>2021-04-18T12:46:32.000Z</time>
      </trkpt>
      <trkpt lat="47.18874" lon="-1.65215">
        <ele>56</ele>
        <time>2021-04-18T12:46:34.000Z</time>
      </trkpt>
      <trkpt lat="47.18882" lon="-1.65221">
        <ele>57</ele>
        <time>2021-04-18T12:46:36.000Z</time>
      </trkpt>
      <trkpt lat="47.18894" lon="-1.65232">
        <ele>58</ele>
        <time>2021-04-18T12:46:38.000Z</time>
      </trkpt>
      <trkpt lat="47.18905" lon="-1.65237">
        <ele>60</ele>
        <time>2021-04-18T12:46:40.000Z</time>
      </trkpt>
      <trkpt lat="47.18915" lon="-1.6524">
        <ele>60</ele>
        <time>2021-04-18T12:46:42.000Z</time>
      </trkpt>
      <trkpt lat="47.18925" lon="-1.65245">
        <ele>60</ele>
        <time>2021-04-18T12:46:44.000Z</time>
      </trkpt>
      <trkpt lat="47.18935" lon="-1.65252">
        <ele>58</ele>
        <time>2021-04-18T12:46:46.000Z</time>
      </trkpt>
      <trkpt lat="47.18944" lon="-1.6526">
        <ele>57</ele>
        <time>2021-04-18T12:46:48.000Z</time>
      </trkpt>
      <trkpt lat="47.18954" lon="-1.65261">
        <ele>58</ele>
        <time>2021-04-18T12:46:50.000Z</time>
      </trkpt>
      <trkpt lat="47.18966" lon="-1.65266">
        <ele>59</ele>
        <time>2021-04-18T12:46:53.000Z</time>
      </trkpt>
      <trkpt lat="47.18981" lon="-1.65271">
        <ele>59</ele>
        <time>2021-04-18T12:46:57.000Z</time>
      </trkpt>
      <trkpt lat="47.18992" lon="-1.65264">
        <ele>63</ele>
        <time>2021-04-18T12:47:03.000Z</time>
      </trkpt>
      <trkpt lat="47.19001" lon="-1.65254">
        <ele>60</ele>
        <time>2021-04-18T12:47:07.000Z</time>
      </trkpt>
      <trkpt lat="47.19014" lon="-1.65244">
        <ele>58</ele>
        <time>2021-04-18T12:47:10.000Z</time>
      </trkpt>
      <trkpt lat="47.19015" lon="-1.65226">
        <ele>56</ele>
        <time>2021-04-18T12:47:16.000Z</time>
      </trkpt>
      <trkpt lat="47.19013" lon="-1.65213">
        <ele>57</ele>
        <time>2021-04-18T12:47:19.000Z</time>
      </trkpt>
      <trkpt lat="47.19013" lon="-1.65199">
        <ele>55</ele>
        <time>2021-04-18T12:47:21.000Z</time>
      </trkpt>
      <trkpt lat="47.19012" lon="-1.65185">
        <ele>53</ele>
        <time>2021-04-18T12:47:23.000Z</time>
      </trkpt>
      <trkpt lat="47.19009" lon="-1.65162">
        <ele>53</ele>
        <time>2021-04-18T12:47:27.000Z</time>
      </trkpt>
      <trkpt lat="47.19007" lon="-1.65145">
        <ele>51</ele>
        <time>2021-04-18T12:47:30.000Z</time>
      </trkpt>
      <trkpt lat="47.19011" lon="-1.65132">
        <ele>51</ele>
        <time>2021-04-18T12:47:33.000Z</time>
      </trkpt>
      <trkpt lat="47.19017" lon="-1.65119">
        <ele>50</ele>
        <time>2021-04-18T12:47:36.000Z</time>
      </trkpt>
      <trkpt lat="47.19017" lon="-1.65102">
        <ele>49</ele>
        <time>2021-04-18T12:47:40.000Z</time>
      </trkpt>
      <trkpt lat="47.1902" lon="-1.65087">
        <ele>48</ele>
        <time>2021-04-18T12:47:43.000Z</time>
      </trkpt>
      <trkpt lat="47.19022" lon="-1.65071">
        <ele>48</ele>
        <time>2021-04-18T12:47:46.000Z</time>
      </trkpt>
      <trkpt lat="47.19019" lon="-1.65052">
        <ele>49</ele>
        <time>2021-04-18T12:47:49.000Z</time>
      </trkpt>
      <trkpt lat="47.19013" lon="-1.6504">
        <ele>47</ele>
        <time>2021-04-18T12:47:52.000Z</time>
      </trkpt>
      <trkpt lat="47.19002" lon="-1.65029">
        <ele>47</ele>
        <time>2021-04-18T12:47:55.000Z</time>
      </trkpt>
      <trkpt lat="47.18999" lon="-1.65016">
        <ele>48</ele>
        <time>2021-04-18T12:47:58.000Z</time>
      </trkpt>
      <trkpt lat="47.19001" lon="-1.64999">
        <ele>49</ele>
        <time>2021-04-18T12:48:01.000Z</time>
      </trkpt>
      <trkpt lat="47.18998" lon="-1.64982">
        <ele>50</ele>
        <time>2021-04-18T12:48:06.000Z</time>
      </trkpt>
      <trkpt lat="47.18998" lon="-1.64966">
        <ele>52</ele>
        <time>2021-04-18T12:48:08.000Z</time>
      </trkpt>
      <trkpt lat="47.18994" lon="-1.64944">
        <ele>52</ele>
        <time>2021-04-18T12:48:11.000Z</time>
      </trkpt>
      <trkpt lat="47.18991" lon="-1.6493">
        <ele>53</ele>
        <time>2021-04-18T12:48:13.000Z</time>
      </trkpt>
      <trkpt lat="47.18988" lon="-1.64917">
        <ele>53</ele>
        <time>2021-04-18T12:48:15.000Z</time>
      </trkpt>
      <trkpt lat="47.18988" lon="-1.64899">
        <ele>54</ele>
        <time>2021-04-18T12:48:18.000Z</time>
      </trkpt>
      <trkpt lat="47.18987" lon="-1.64882">
        <ele>54</ele>
        <time>2021-04-18T12:48:21.000Z</time>
      </trkpt>
      <trkpt lat="47.18985" lon="-1.64864">
        <ele>54</ele>
        <time>2021-04-18T12:48:24.000Z</time>
      </trkpt>
      <trkpt lat="47.18986" lon="-1.6485">
        <ele>54</ele>
        <time>2021-04-18T12:48:27.000Z</time>
      </trkpt>
      <trkpt lat="47.18986" lon="-1.64834">
        <ele>54</ele>
        <time>2021-04-18T12:48:32.000Z</time>
      </trkpt>
      <trkpt lat="47.18984" lon="-1.64818">
        <ele>52</ele>
        <time>2021-04-18T12:48:50.000Z</time>
      </trkpt>
      <trkpt lat="47.18987" lon="-1.64803">
        <ele>52</ele>
        <time>2021-04-18T12:48:53.000Z</time>
      </trkpt>
      <trkpt lat="47.18987" lon="-1.64784">
        <ele>54</ele>
        <time>2021-04-18T12:48:56.000Z</time>
      </trkpt>
      <trkpt lat="47.18988" lon="-1.64765">
        <ele>53</ele>
        <time>2021-04-18T12:48:59.000Z</time>
      </trkpt>
      <trkpt lat="47.18989" lon="-1.64745">
        <ele>53</ele>
        <time>2021-04-18T12:49:02.000Z</time>
      </trkpt>
      <trkpt lat="47.1899" lon="-1.64731">
        <ele>52</ele>
        <time>2021-04-18T12:49:04.000Z</time>
      </trkpt>
      <trkpt lat="47.18991" lon="-1.64716">
        <ele>52</ele>
        <time>2021-04-18T12:49:06.000Z</time>
      </trkpt>
      <trkpt lat="47.18992" lon="-1.64701">
        <ele>51</ele>
        <time>2021-04-18T12:49:08.000Z</time>
      </trkpt>
      <trkpt lat="47.1899" lon="-1.64687">
        <ele>51</ele>
        <time>2021-04-18T12:49:10.000Z</time>
      </trkpt>
      <trkpt lat="47.1899" lon="-1.64665">
        <ele>53</ele>
        <time>2021-04-18T12:49:13.000Z</time>
      </trkpt>
      <trkpt lat="47.18991" lon="-1.64649">
        <ele>52</ele>
        <time>2021-04-18T12:49:15.000Z</time>
      </trkpt>
      <trkpt lat="47.18991" lon="-1.64635">
        <ele>53</ele>
        <time>2021-04-18T12:49:17.000Z</time>
      </trkpt>
      <trkpt lat="47.18992" lon="-1.6462">
        <ele>53</ele>
        <time>2021-04-18T12:49:19.000Z</time>
      </trkpt>
      <trkpt lat="47.18998" lon="-1.64594">
        <ele>53</ele>
        <time>2021-04-18T12:49:23.000Z</time>
      </trkpt>
      <trkpt lat="47.18997" lon="-1.64575">
        <ele>53</ele>
        <time>2021-04-18T12:49:26.000Z</time>
      </trkpt>
      <trkpt lat="47.18996" lon="-1.64561">
        <ele>54</ele>
        <time>2021-04-18T12:49:28.000Z</time>
      </trkpt>
      <trkpt lat="47.18995" lon="-1.64547">
        <ele>54</ele>
        <time>2021-04-18T12:49:30.000Z</time>
      </trkpt>
      <trkpt lat="47.18993" lon="-1.64527">
        <ele>54</ele>
        <time>2021-04-18T12:49:33.000Z</time>
      </trkpt>
      <trkpt lat="47.18993" lon="-1.64509">
        <ele>53</ele>
        <time>2021-04-18T12:49:36.000Z</time>
      </trkpt>
      <trkpt lat="47.18996" lon="-1.64491">
        <ele>55</ele>
        <time>2021-04-18T12:49:39.000Z</time>
      </trkpt>
      <trkpt lat="47.18999" lon="-1.64473">
        <ele>55</ele>
        <time>2021-04-18T12:49:42.000Z</time>
      </trkpt>
      <trkpt lat="47.19003" lon="-1.64455">
        <ele>54</ele>
        <time>2021-04-18T12:49:45.000Z</time>
      </trkpt>
      <trkpt lat="47.19008" lon="-1.64439">
        <ele>54</ele>
        <time>2021-04-18T12:49:48.000Z</time>
      </trkpt>
      <trkpt lat="47.19014" lon="-1.64428">
        <ele>53</ele>
        <time>2021-04-18T12:49:51.000Z</time>
      </trkpt>
      <trkpt lat="47.19027" lon="-1.64419">
        <ele>54</ele>
        <time>2021-04-18T12:49:55.000Z</time>
      </trkpt>
      <trkpt lat="47.1904" lon="-1.6442">
        <ele>56</ele>
        <time>2021-04-18T12:49:58.000Z</time>
      </trkpt>
      <trkpt lat="47.1905" lon="-1.64421">
        <ele>56</ele>
        <time>2021-04-18T12:50:01.000Z</time>
      </trkpt>
      <trkpt lat="47.19052" lon="-1.64407">
        <ele>58</ele>
        <time>2021-04-18T12:50:06.000Z</time>
      </trkpt>
      <trkpt lat="47.19055" lon="-1.64394">
        <ele>59</ele>
        <time>2021-04-18T12:50:07.000Z</time>
      </trkpt>
      <trkpt lat="47.19057" lon="-1.64375">
        <ele>60</ele>
        <time>2021-04-18T12:50:09.000Z</time>
      </trkpt>
      <trkpt lat="47.19062" lon="-1.64353">
        <ele>60</ele>
        <time>2021-04-18T12:50:12.000Z</time>
      </trkpt>
      <trkpt lat="47.19063" lon="-1.6434">
        <ele>60</ele>
        <time>2021-04-18T12:50:14.000Z</time>
      </trkpt>
      <trkpt lat="47.19065" lon="-1.64321">
        <ele>59</ele>
        <time>2021-04-18T12:50:17.000Z</time>
      </trkpt>
      <trkpt lat="47.19055" lon="-1.64315">
        <ele>59</ele>
        <time>2021-04-18T12:50:21.000Z</time>
      </trkpt>
      <trkpt lat="47.19043" lon="-1.64314">
        <ele>59</ele>
        <time>2021-04-18T12:50:25.000Z</time>
      </trkpt>
      <trkpt lat="47.19038" lon="-1.643">
        <ele>59</ele>
        <time>2021-04-18T12:50:32.000Z</time>
      </trkpt>
      <trkpt lat="47.19041" lon="-1.64283">
        <ele>63</ele>
        <time>2021-04-18T12:50:36.000Z</time>
      </trkpt>
      <trkpt lat="47.19041" lon="-1.64268">
        <ele>62</ele>
        <time>2021-04-18T12:50:39.000Z</time>
      </trkpt>
      <trkpt lat="47.19038" lon="-1.64253">
        <ele>61</ele>
        <time>2021-04-18T12:50:42.000Z</time>
      </trkpt>
      <trkpt lat="47.1904" lon="-1.64237">
        <ele>59</ele>
        <time>2021-04-18T12:50:45.000Z</time>
      </trkpt>
      <trkpt lat="47.19044" lon="-1.6422">
        <ele>59</ele>
        <time>2021-04-18T12:50:48.000Z</time>
      </trkpt>
      <trkpt lat="47.19044" lon="-1.64205">
        <ele>60</ele>
        <time>2021-04-18T12:50:51.000Z</time>
      </trkpt>
      <trkpt lat="47.19048" lon="-1.64189">
        <ele>60</ele>
        <time>2021-04-18T12:50:54.000Z</time>
      </trkpt>
      <trkpt lat="47.19046" lon="-1.64168">
        <ele>59</ele>
        <time>2021-04-18T12:50:58.000Z</time>
      </trkpt>
      <trkpt lat="47.19038" lon="-1.64153">
        <ele>57</ele>
        <time>2021-04-18T12:51:01.000Z</time>
      </trkpt>
      <trkpt lat="47.19029" lon="-1.64142">
        <ele>58</ele>
        <time>2021-04-18T12:51:04.000Z</time>
      </trkpt>
      <trkpt lat="47.19022" lon="-1.64129">
        <ele>57</ele>
        <time>2021-04-18T12:51:06.000Z</time>
      </trkpt>
      <trkpt lat="47.19016" lon="-1.64118">
        <ele>57</ele>
        <time>2021-04-18T12:51:08.000Z</time>
      </trkpt>
      <trkpt lat="47.19009" lon="-1.64107">
        <ele>57</ele>
        <time>2021-04-18T12:51:10.000Z</time>
      </trkpt>
      <trkpt lat="47.19002" lon="-1.64098">
        <ele>56</ele>
        <time>2021-04-18T12:51:12.000Z</time>
      </trkpt>
      <trkpt lat="47.18993" lon="-1.6409">
        <ele>57</ele>
        <time>2021-04-18T12:51:14.000Z</time>
      </trkpt>
      <trkpt lat="47.18988" lon="-1.64077">
        <ele>56</ele>
        <time>2021-04-18T12:51:16.000Z</time>
      </trkpt>
      <trkpt lat="47.18983" lon="-1.64065">
        <ele>56</ele>
        <time>2021-04-18T12:51:18.000Z</time>
      </trkpt>
      <trkpt lat="47.18975" lon="-1.64056">
        <ele>56</ele>
        <time>2021-04-18T12:51:20.000Z</time>
      </trkpt>
      <trkpt lat="47.18968" lon="-1.64044">
        <ele>55</ele>
        <time>2021-04-18T12:51:22.000Z</time>
      </trkpt>
      <trkpt lat="47.18963" lon="-1.64033">
        <ele>55</ele>
        <time>2021-04-18T12:51:24.000Z</time>
      </trkpt>
      <trkpt lat="47.18957" lon="-1.64021">
        <ele>55</ele>
        <time>2021-04-18T12:51:26.000Z</time>
      </trkpt>
      <trkpt lat="47.1895" lon="-1.64011">
        <ele>55</ele>
        <time>2021-04-18T12:51:28.000Z</time>
      </trkpt>
      <trkpt lat="47.18942" lon="-1.64001">
        <ele>55</ele>
        <time>2021-04-18T12:51:30.000Z</time>
      </trkpt>
      <trkpt lat="47.18936" lon="-1.63988">
        <ele>55</ele>
        <time>2021-04-18T12:51:32.000Z</time>
      </trkpt>
      <trkpt lat="47.1893" lon="-1.63976">
        <ele>55</ele>
        <time>2021-04-18T12:51:34.000Z</time>
      </trkpt>
      <trkpt lat="47.18923" lon="-1.63966">
        <ele>55</ele>
        <time>2021-04-18T12:51:36.000Z</time>
      </trkpt>
      <trkpt lat="47.18916" lon="-1.63956">
        <ele>55</ele>
        <time>2021-04-18T12:51:38.000Z</time>
      </trkpt>
      <trkpt lat="47.18908" lon="-1.63945">
        <ele>55</ele>
        <time>2021-04-18T12:51:40.000Z</time>
      </trkpt>
      <trkpt lat="47.18901" lon="-1.63931">
        <ele>55</ele>
        <time>2021-04-18T12:51:42.000Z</time>
      </trkpt>
      <trkpt lat="47.18894" lon="-1.6392">
        <ele>55</ele>
        <time>2021-04-18T12:51:44.000Z</time>
      </trkpt>
      <trkpt lat="47.18886" lon="-1.63908">
        <ele>55</ele>
        <time>2021-04-18T12:51:46.000Z</time>
      </trkpt>
      <trkpt lat="47.18879" lon="-1.63895">
        <ele>54</ele>
        <time>2021-04-18T12:51:48.000Z</time>
      </trkpt>
      <trkpt lat="47.18872" lon="-1.63884">
        <ele>54</ele>
        <time>2021-04-18T12:51:50.000Z</time>
      </trkpt>
      <trkpt lat="47.18865" lon="-1.63874">
        <ele>54</ele>
        <time>2021-04-18T12:51:52.000Z</time>
      </trkpt>
      <trkpt lat="47.18857" lon="-1.63862">
        <ele>54</ele>
        <time>2021-04-18T12:51:54.000Z</time>
      </trkpt>
      <trkpt lat="47.18852" lon="-1.63846">
        <ele>55</ele>
        <time>2021-04-18T12:51:56.000Z</time>
      </trkpt>
      <trkpt lat="47.18846" lon="-1.63833">
        <ele>55</ele>
        <time>2021-04-18T12:51:58.000Z</time>
      </trkpt>
      <trkpt lat="47.18839" lon="-1.63819">
        <ele>55</ele>
        <time>2021-04-18T12:52:00.000Z</time>
      </trkpt>
      <trkpt lat="47.18833" lon="-1.63806">
        <ele>55</ele>
        <time>2021-04-18T12:52:02.000Z</time>
      </trkpt>
      <trkpt lat="47.18827" lon="-1.63792">
        <ele>55</ele>
        <time>2021-04-18T12:52:04.000Z</time>
      </trkpt>
      <trkpt lat="47.18822" lon="-1.63779">
        <ele>55</ele>
        <time>2021-04-18T12:52:06.000Z</time>
      </trkpt>
      <trkpt lat="47.18817" lon="-1.63765">
        <ele>55</ele>
        <time>2021-04-18T12:52:08.000Z</time>
      </trkpt>
      <trkpt lat="47.18812" lon="-1.63751">
        <ele>55</ele>
        <time>2021-04-18T12:52:10.000Z</time>
      </trkpt>
      <trkpt lat="47.18807" lon="-1.63738">
        <ele>55</ele>
        <time>2021-04-18T12:52:12.000Z</time>
      </trkpt>
      <trkpt lat="47.18803" lon="-1.63723">
        <ele>55</ele>
        <time>2021-04-18T12:52:14.000Z</time>
      </trkpt>
      <trkpt lat="47.18798" lon="-1.6371">
        <ele>55</ele>
        <time>2021-04-18T12:52:16.000Z</time>
      </trkpt>
      <trkpt lat="47.18788" lon="-1.63685">
        <ele>56</ele>
        <time>2021-04-18T12:52:20.000Z</time>
      </trkpt>
      <trkpt lat="47.18784" lon="-1.63672">
        <ele>56</ele>
        <time>2021-04-18T12:52:22.000Z</time>
      </trkpt>
      <trkpt lat="47.18779" lon="-1.63658">
        <ele>57</ele>
        <time>2021-04-18T12:52:24.000Z</time>
      </trkpt>
      <trkpt lat="47.18773" lon="-1.63647">
        <ele>56</ele>
        <time>2021-04-18T12:52:26.000Z</time>
      </trkpt>
      <trkpt lat="47.18768" lon="-1.63633">
        <ele>56</ele>
        <time>2021-04-18T12:52:28.000Z</time>
      </trkpt>
      <trkpt lat="47.18764" lon="-1.63619">
        <ele>56</ele>
        <time>2021-04-18T12:52:30.000Z</time>
      </trkpt>
      <trkpt lat="47.18758" lon="-1.63608">
        <ele>56</ele>
        <time>2021-04-18T12:52:32.000Z</time>
      </trkpt>
      <trkpt lat="47.18751" lon="-1.63598">
        <ele>56</ele>
        <time>2021-04-18T12:52:34.000Z</time>
      </trkpt>
      <trkpt lat="47.18747" lon="-1.63584">
        <ele>56</ele>
        <time>2021-04-18T12:52:36.000Z</time>
      </trkpt>
      <trkpt lat="47.18743" lon="-1.63571">
        <ele>57</ele>
        <time>2021-04-18T12:52:38.000Z</time>
      </trkpt>
      <trkpt lat="47.1874" lon="-1.63558">
        <ele>57</ele>
        <time>2021-04-18T12:52:40.000Z</time>
      </trkpt>
      <trkpt lat="47.18734" lon="-1.63543">
        <ele>57</ele>
        <time>2021-04-18T12:52:43.000Z</time>
      </trkpt>
      <trkpt lat="47.18728" lon="-1.6353">
        <ele>56</ele>
        <time>2021-04-18T12:52:46.000Z</time>
      </trkpt>
      <trkpt lat="47.1872" lon="-1.63514">
        <ele>57</ele>
        <time>2021-04-18T12:52:50.000Z</time>
      </trkpt>
      <trkpt lat="47.18713" lon="-1.635">
        <ele>57</ele>
        <time>2021-04-18T12:52:53.000Z</time>
      </trkpt>
      <trkpt lat="47.18707" lon="-1.63488">
        <ele>57</ele>
        <time>2021-04-18T12:52:55.000Z</time>
      </trkpt>
      <trkpt lat="47.18702" lon="-1.63477">
        <ele>57</ele>
        <time>2021-04-18T12:52:57.000Z</time>
      </trkpt>
      <trkpt lat="47.18693" lon="-1.63463">
        <ele>57</ele>
        <time>2021-04-18T12:53:00.000Z</time>
      </trkpt>
      <trkpt lat="47.18684" lon="-1.6345">
        <ele>57</ele>
        <time>2021-04-18T12:53:03.000Z</time>
      </trkpt>
      <trkpt lat="47.18675" lon="-1.63445">
        <ele>56</ele>
        <time>2021-04-18T12:53:06.000Z</time>
      </trkpt>
      <trkpt lat="47.18669" lon="-1.63434">
        <ele>56</ele>
        <time>2021-04-18T12:53:08.000Z</time>
      </trkpt>
      <trkpt lat="47.1866" lon="-1.63428">
        <ele>55</ele>
        <time>2021-04-18T12:53:11.000Z</time>
      </trkpt>
      <trkpt lat="47.18653" lon="-1.63442">
        <ele>55</ele>
        <time>2021-04-18T12:53:15.000Z</time>
      </trkpt>
      <trkpt lat="47.18649" lon="-1.63456">
        <ele>53</ele>
        <time>2021-04-18T12:53:22.000Z</time>
      </trkpt>
      <trkpt lat="47.18639" lon="-1.63457">
        <ele>58</ele>
        <time>2021-04-18T12:54:07.000Z</time>
      </trkpt>
      <trkpt lat="47.18631" lon="-1.63464">
        <ele>59</ele>
        <time>2021-04-18T12:54:10.000Z</time>
      </trkpt>
      <trkpt lat="47.18623" lon="-1.63474">
        <ele>59</ele>
        <time>2021-04-18T12:54:13.000Z</time>
      </trkpt>
      <trkpt lat="47.18615" lon="-1.63482">
        <ele>59</ele>
        <time>2021-04-18T12:54:15.000Z</time>
      </trkpt>
      <trkpt lat="47.18605" lon="-1.63488">
        <ele>60</ele>
        <time>2021-04-18T12:54:18.000Z</time>
      </trkpt>
      <trkpt lat="47.18595" lon="-1.63497">
        <ele>60</ele>
        <time>2021-04-18T12:54:21.000Z</time>
      </trkpt>
      <trkpt lat="47.18587" lon="-1.63505">
        <ele>61</ele>
        <time>2021-04-18T12:54:23.000Z</time>
      </trkpt>
      <trkpt lat="47.18576" lon="-1.6351">
        <ele>60</ele>
        <time>2021-04-18T12:54:25.000Z</time>
      </trkpt>
      <trkpt lat="47.18567" lon="-1.63515">
        <ele>59</ele>
        <time>2021-04-18T12:54:27.000Z</time>
      </trkpt>
      <trkpt lat="47.18558" lon="-1.63523">
        <ele>58</ele>
        <time>2021-04-18T12:54:29.000Z</time>
      </trkpt>
      <trkpt lat="47.18548" lon="-1.63529">
        <ele>58</ele>
        <time>2021-04-18T12:54:31.000Z</time>
      </trkpt>
      <trkpt lat="47.18534" lon="-1.63541">
        <ele>57</ele>
        <time>2021-04-18T12:54:34.000Z</time>
      </trkpt>
      <trkpt lat="47.1852" lon="-1.63541">
        <ele>56</ele>
        <time>2021-04-18T12:54:37.000Z</time>
      </trkpt>
      <trkpt lat="47.1851" lon="-1.6354">
        <ele>56</ele>
        <time>2021-04-18T12:54:39.000Z</time>
      </trkpt>
      <trkpt lat="47.18494" lon="-1.63538">
        <ele>54</ele>
        <time>2021-04-18T12:54:42.000Z</time>
      </trkpt>
      <trkpt lat="47.18484" lon="-1.63534">
        <ele>56</ele>
        <time>2021-04-18T12:54:44.000Z</time>
      </trkpt>
      <trkpt lat="47.18472" lon="-1.6353">
        <ele>56</ele>
        <time>2021-04-18T12:54:46.000Z</time>
      </trkpt>
      <trkpt lat="47.18461" lon="-1.63525">
        <ele>56</ele>
        <time>2021-04-18T12:54:48.000Z</time>
      </trkpt>
      <trkpt lat="47.1845" lon="-1.63519">
        <ele>56</ele>
        <time>2021-04-18T12:54:50.000Z</time>
      </trkpt>
      <trkpt lat="47.1844" lon="-1.63512">
        <ele>56</ele>
        <time>2021-04-18T12:54:52.000Z</time>
      </trkpt>
      <trkpt lat="47.18429" lon="-1.63505">
        <ele>56</ele>
        <time>2021-04-18T12:54:54.000Z</time>
      </trkpt>
      <trkpt lat="47.18419" lon="-1.63497">
        <ele>56</ele>
        <time>2021-04-18T12:54:56.000Z</time>
      </trkpt>
      <trkpt lat="47.18408" lon="-1.6349">
        <ele>55</ele>
        <time>2021-04-18T12:54:58.000Z</time>
      </trkpt>
      <trkpt lat="47.18391" lon="-1.63478">
        <ele>55</ele>
        <time>2021-04-18T12:55:01.000Z</time>
      </trkpt>
      <trkpt lat="47.1838" lon="-1.63471">
        <ele>55</ele>
        <time>2021-04-18T12:55:03.000Z</time>
      </trkpt>
      <trkpt lat="47.1837" lon="-1.63466">
        <ele>55</ele>
        <time>2021-04-18T12:55:05.000Z</time>
      </trkpt>
      <trkpt lat="47.1836" lon="-1.63457">
        <ele>55</ele>
        <time>2021-04-18T12:55:07.000Z</time>
      </trkpt>
      <trkpt lat="47.18349" lon="-1.6345">
        <ele>54</ele>
        <time>2021-04-18T12:55:09.000Z</time>
      </trkpt>
      <trkpt lat="47.18339" lon="-1.63443">
        <ele>54</ele>
        <time>2021-04-18T12:55:11.000Z</time>
      </trkpt>
      <trkpt lat="47.18328" lon="-1.63435">
        <ele>54</ele>
        <time>2021-04-18T12:55:13.000Z</time>
      </trkpt>
      <trkpt lat="47.18313" lon="-1.63425">
        <ele>54</ele>
        <time>2021-04-18T12:55:16.000Z</time>
      </trkpt>
      <trkpt lat="47.18302" lon="-1.63418">
        <ele>54</ele>
        <time>2021-04-18T12:55:18.000Z</time>
      </trkpt>
      <trkpt lat="47.18291" lon="-1.63411">
        <ele>52</ele>
        <time>2021-04-18T12:55:20.000Z</time>
      </trkpt>
      <trkpt lat="47.18281" lon="-1.63405">
        <ele>51</ele>
        <time>2021-04-18T12:55:22.000Z</time>
      </trkpt>
      <trkpt lat="47.18271" lon="-1.63398">
        <ele>52</ele>
        <time>2021-04-18T12:55:24.000Z</time>
      </trkpt>
      <trkpt lat="47.18261" lon="-1.6339">
        <ele>52</ele>
        <time>2021-04-18T12:55:26.000Z</time>
      </trkpt>
      <trkpt lat="47.1825" lon="-1.63382">
        <ele>51</ele>
        <time>2021-04-18T12:55:28.000Z</time>
      </trkpt>
      <trkpt lat="47.18239" lon="-1.63375">
        <ele>52</ele>
        <time>2021-04-18T12:55:30.000Z</time>
      </trkpt>
      <trkpt lat="47.18229" lon="-1.63368">
        <ele>52</ele>
        <time>2021-04-18T12:55:32.000Z</time>
      </trkpt>
      <trkpt lat="47.18218" lon="-1.63361">
        <ele>52</ele>
        <time>2021-04-18T12:55:34.000Z</time>
      </trkpt>
      <trkpt lat="47.18208" lon="-1.63355">
        <ele>52</ele>
        <time>2021-04-18T12:55:36.000Z</time>
      </trkpt>
      <trkpt lat="47.18196" lon="-1.6335">
        <ele>52</ele>
        <time>2021-04-18T12:55:38.000Z</time>
      </trkpt>
      <trkpt lat="47.18186" lon="-1.63342">
        <ele>53</ele>
        <time>2021-04-18T12:55:40.000Z</time>
      </trkpt>
      <trkpt lat="47.18176" lon="-1.63332">
        <ele>53</ele>
        <time>2021-04-18T12:55:42.000Z</time>
      </trkpt>
      <trkpt lat="47.18165" lon="-1.63325">
        <ele>54</ele>
        <time>2021-04-18T12:55:44.000Z</time>
      </trkpt>
      <trkpt lat="47.18154" lon="-1.63319">
        <ele>48</ele>
        <time>2021-04-18T12:55:46.000Z</time>
      </trkpt>
      <trkpt lat="47.18144" lon="-1.63309">
        <ele>50</ele>
        <time>2021-04-18T12:55:48.000Z</time>
      </trkpt>
      <trkpt lat="47.18135" lon="-1.63301">
        <ele>51</ele>
        <time>2021-04-18T12:55:50.000Z</time>
      </trkpt>
      <trkpt lat="47.18125" lon="-1.63293">
        <ele>53</ele>
        <time>2021-04-18T12:55:52.000Z</time>
      </trkpt>
      <trkpt lat="47.18116" lon="-1.63286">
        <ele>53</ele>
        <time>2021-04-18T12:55:54.000Z</time>
      </trkpt>
      <trkpt lat="47.18107" lon="-1.63282">
        <ele>51</ele>
        <time>2021-04-18T12:55:56.000Z</time>
      </trkpt>
      <trkpt lat="47.18099" lon="-1.63272">
        <ele>54</ele>
        <time>2021-04-18T12:55:58.000Z</time>
      </trkpt>
      <trkpt lat="47.18092" lon="-1.63261">
        <ele>54</ele>
        <time>2021-04-18T12:56:00.000Z</time>
      </trkpt>
      <trkpt lat="47.18086" lon="-1.63252">
        <ele>55</ele>
        <time>2021-04-18T12:56:02.000Z</time>
      </trkpt>
      <trkpt lat="47.1808" lon="-1.63239">
        <ele>56</ele>
        <time>2021-04-18T12:56:04.000Z</time>
      </trkpt>
      <trkpt lat="47.18073" lon="-1.63223">
        <ele>57</ele>
        <time>2021-04-18T12:56:07.000Z</time>
      </trkpt>
      <trkpt lat="47.1807" lon="-1.63209">
        <ele>57</ele>
        <time>2021-04-18T12:56:09.000Z</time>
      </trkpt>
      <trkpt lat="47.18066" lon="-1.63196">
        <ele>58</ele>
        <time>2021-04-18T12:56:11.000Z</time>
      </trkpt>
      <trkpt lat="47.18062" lon="-1.63184">
        <ele>58</ele>
        <time>2021-04-18T12:56:13.000Z</time>
      </trkpt>
      <trkpt lat="47.18058" lon="-1.63169">
        <ele>59</ele>
        <time>2021-04-18T12:56:16.000Z</time>
      </trkpt>
      <trkpt lat="47.18052" lon="-1.63159">
        <ele>59</ele>
        <time>2021-04-18T12:56:19.000Z</time>
      </trkpt>
      <trkpt lat="47.18046" lon="-1.63144">
        <ele>62</ele>
        <time>2021-04-18T12:56:21.000Z</time>
      </trkpt>
      <trkpt lat="47.1804" lon="-1.63132">
        <ele>62</ele>
        <time>2021-04-18T12:56:23.000Z</time>
      </trkpt>
      <trkpt lat="47.18032" lon="-1.63118">
        <ele>62</ele>
        <time>2021-04-18T12:56:26.000Z</time>
      </trkpt>
      <trkpt lat="47.18024" lon="-1.63107">
        <ele>62</ele>
        <time>2021-04-18T12:56:28.000Z</time>
      </trkpt>
      <trkpt lat="47.18018" lon="-1.63095">
        <ele>63</ele>
        <time>2021-04-18T12:56:30.000Z</time>
      </trkpt>
      <trkpt lat="47.18012" lon="-1.63082">
        <ele>63</ele>
        <time>2021-04-18T12:56:32.000Z</time>
      </trkpt>
      <trkpt lat="47.18006" lon="-1.6307">
        <ele>63</ele>
        <time>2021-04-18T12:56:34.000Z</time>
      </trkpt>
      <trkpt lat="47.17996" lon="-1.63053">
        <ele>64</ele>
        <time>2021-04-18T12:56:37.000Z</time>
      </trkpt>
      <trkpt lat="47.17989" lon="-1.63041">
        <ele>65</ele>
        <time>2021-04-18T12:56:39.000Z</time>
      </trkpt>
      <trkpt lat="47.17983" lon="-1.63028">
        <ele>66</ele>
        <time>2021-04-18T12:56:41.000Z</time>
      </trkpt>
      <trkpt lat="47.17975" lon="-1.63017">
        <ele>66</ele>
        <time>2021-04-18T12:56:43.000Z</time>
      </trkpt>
      <trkpt lat="47.17969" lon="-1.63003">
        <ele>66</ele>
        <time>2021-04-18T12:56:45.000Z</time>
      </trkpt>
      <trkpt lat="47.17963" lon="-1.62988">
        <ele>67</ele>
        <time>2021-04-18T12:56:47.000Z</time>
      </trkpt>
      <trkpt lat="47.17957" lon="-1.62974">
        <ele>67</ele>
        <time>2021-04-18T12:56:49.000Z</time>
      </trkpt>
      <trkpt lat="47.1795" lon="-1.62962">
        <ele>67</ele>
        <time>2021-04-18T12:56:51.000Z</time>
      </trkpt>
      <trkpt lat="47.17941" lon="-1.62948">
        <ele>66</ele>
        <time>2021-04-18T12:56:53.000Z</time>
      </trkpt>
      <trkpt lat="47.17935" lon="-1.62935">
        <ele>66</ele>
        <time>2021-04-18T12:56:55.000Z</time>
      </trkpt>
      <trkpt lat="47.17923" lon="-1.62922">
        <ele>66</ele>
        <time>2021-04-18T12:56:58.000Z</time>
      </trkpt>
      <trkpt lat="47.17912" lon="-1.62908">
        <ele>68</ele>
        <time>2021-04-18T12:57:01.000Z</time>
      </trkpt>
      <trkpt lat="47.17906" lon="-1.62899">
        <ele>68</ele>
        <time>2021-04-18T12:57:03.000Z</time>
      </trkpt>
      <trkpt lat="47.17897" lon="-1.6289">
        <ele>68</ele>
        <time>2021-04-18T12:57:05.000Z</time>
      </trkpt>
      <trkpt lat="47.1789" lon="-1.62878">
        <ele>68</ele>
        <time>2021-04-18T12:57:07.000Z</time>
      </trkpt>
      <trkpt lat="47.17883" lon="-1.6287">
        <ele>68</ele>
        <time>2021-04-18T12:57:09.000Z</time>
      </trkpt>
      <trkpt lat="47.17873" lon="-1.62868">
        <ele>68</ele>
        <time>2021-04-18T12:57:11.000Z</time>
      </trkpt>
      <trkpt lat="47.17863" lon="-1.62864">
        <ele>69</ele>
        <time>2021-04-18T12:57:13.000Z</time>
      </trkpt>
      <trkpt lat="47.17855" lon="-1.62854">
        <ele>69</ele>
        <time>2021-04-18T12:57:15.000Z</time>
      </trkpt>
      <trkpt lat="47.17847" lon="-1.62843">
        <ele>69</ele>
        <time>2021-04-18T12:57:17.000Z</time>
      </trkpt>
      <trkpt lat="47.17839" lon="-1.62831">
        <ele>69</ele>
        <time>2021-04-18T12:57:19.000Z</time>
      </trkpt>
      <trkpt lat="47.17833" lon="-1.62818">
        <ele>70</ele>
        <time>2021-04-18T12:57:21.000Z</time>
      </trkpt>
      <trkpt lat="47.17825" lon="-1.62808">
        <ele>70</ele>
        <time>2021-04-18T12:57:23.000Z</time>
      </trkpt>
      <trkpt lat="47.17817" lon="-1.62797">
        <ele>70</ele>
        <time>2021-04-18T12:57:25.000Z</time>
      </trkpt>
      <trkpt lat="47.17809" lon="-1.62786">
        <ele>70</ele>
        <time>2021-04-18T12:57:27.000Z</time>
      </trkpt>
      <trkpt lat="47.17801" lon="-1.62774">
        <ele>69</ele>
        <time>2021-04-18T12:57:29.000Z</time>
      </trkpt>
      <trkpt lat="47.17794" lon="-1.62762">
        <ele>70</ele>
        <time>2021-04-18T12:57:31.000Z</time>
      </trkpt>
      <trkpt lat="47.17786" lon="-1.62751">
        <ele>70</ele>
        <time>2021-04-18T12:57:33.000Z</time>
      </trkpt>
      <trkpt lat="47.17778" lon="-1.6274">
        <ele>69</ele>
        <time>2021-04-18T12:57:35.000Z</time>
      </trkpt>
      <trkpt lat="47.17767" lon="-1.62722">
        <ele>69</ele>
        <time>2021-04-18T12:57:38.000Z</time>
      </trkpt>
      <trkpt lat="47.1776" lon="-1.62711">
        <ele>68</ele>
        <time>2021-04-18T12:57:40.000Z</time>
      </trkpt>
      <trkpt lat="47.17752" lon="-1.62701">
        <ele>69</ele>
        <time>2021-04-18T12:57:42.000Z</time>
      </trkpt>
      <trkpt lat="47.17744" lon="-1.6269">
        <ele>68</ele>
        <time>2021-04-18T12:57:44.000Z</time>
      </trkpt>
      <trkpt lat="47.17736" lon="-1.62677">
        <ele>68</ele>
        <time>2021-04-18T12:57:46.000Z</time>
      </trkpt>
      <trkpt lat="47.17728" lon="-1.62665">
        <ele>69</ele>
        <time>2021-04-18T12:57:48.000Z</time>
      </trkpt>
      <trkpt lat="47.17721" lon="-1.62652">
        <ele>69</ele>
        <time>2021-04-18T12:57:50.000Z</time>
      </trkpt>
      <trkpt lat="47.17714" lon="-1.62642">
        <ele>68</ele>
        <time>2021-04-18T12:57:52.000Z</time>
      </trkpt>
      <trkpt lat="47.17707" lon="-1.6263">
        <ele>68</ele>
        <time>2021-04-18T12:57:54.000Z</time>
      </trkpt>
      <trkpt lat="47.177" lon="-1.62618">
        <ele>69</ele>
        <time>2021-04-18T12:57:56.000Z</time>
      </trkpt>
      <trkpt lat="47.17688" lon="-1.62605">
        <ele>69</ele>
        <time>2021-04-18T12:57:59.000Z</time>
      </trkpt>
      <trkpt lat="47.17679" lon="-1.62598">
        <ele>70</ele>
        <time>2021-04-18T12:58:01.000Z</time>
      </trkpt>
      <trkpt lat="47.17674" lon="-1.62585">
        <ele>71</ele>
        <time>2021-04-18T12:58:03.000Z</time>
      </trkpt>
      <trkpt lat="47.17668" lon="-1.62572">
        <ele>70</ele>
        <time>2021-04-18T12:58:05.000Z</time>
      </trkpt>
      <trkpt lat="47.17661" lon="-1.62561">
        <ele>69</ele>
        <time>2021-04-18T12:58:07.000Z</time>
      </trkpt>
      <trkpt lat="47.17652" lon="-1.6255">
        <ele>69</ele>
        <time>2021-04-18T12:58:09.000Z</time>
      </trkpt>
      <trkpt lat="47.17645" lon="-1.62539">
        <ele>70</ele>
        <time>2021-04-18T12:58:11.000Z</time>
      </trkpt>
      <trkpt lat="47.17637" lon="-1.62527">
        <ele>70</ele>
        <time>2021-04-18T12:58:13.000Z</time>
      </trkpt>
      <trkpt lat="47.1763" lon="-1.62517">
        <ele>68</ele>
        <time>2021-04-18T12:58:15.000Z</time>
      </trkpt>
      <trkpt lat="47.17622" lon="-1.62504">
        <ele>70</ele>
        <time>2021-04-18T12:58:17.000Z</time>
      </trkpt>
      <trkpt lat="47.17614" lon="-1.62492">
        <ele>71</ele>
        <time>2021-04-18T12:58:19.000Z</time>
      </trkpt>
      <trkpt lat="47.17606" lon="-1.62481">
        <ele>71</ele>
        <time>2021-04-18T12:58:21.000Z</time>
      </trkpt>
      <trkpt lat="47.17599" lon="-1.62471">
        <ele>71</ele>
        <time>2021-04-18T12:58:23.000Z</time>
      </trkpt>
      <trkpt lat="47.1759" lon="-1.62459">
        <ele>71</ele>
        <time>2021-04-18T12:58:25.000Z</time>
      </trkpt>
      <trkpt lat="47.17582" lon="-1.62447">
        <ele>71</ele>
        <time>2021-04-18T12:58:27.000Z</time>
      </trkpt>
      <trkpt lat="47.17574" lon="-1.62436">
        <ele>71</ele>
        <time>2021-04-18T12:58:29.000Z</time>
      </trkpt>
      <trkpt lat="47.17567" lon="-1.62424">
        <ele>72</ele>
        <time>2021-04-18T12:58:31.000Z</time>
      </trkpt>
      <trkpt lat="47.17559" lon="-1.62413">
        <ele>72</ele>
        <time>2021-04-18T12:58:33.000Z</time>
      </trkpt>
      <trkpt lat="47.17551" lon="-1.62402">
        <ele>72</ele>
        <time>2021-04-18T12:58:35.000Z</time>
      </trkpt>
      <trkpt lat="47.17542" lon="-1.62394">
        <ele>72</ele>
        <time>2021-04-18T12:58:37.000Z</time>
      </trkpt>
      <trkpt lat="47.17531" lon="-1.62393">
        <ele>71</ele>
        <time>2021-04-18T12:58:39.000Z</time>
      </trkpt>
      <trkpt lat="47.17522" lon="-1.624">
        <ele>71</ele>
        <time>2021-04-18T12:58:41.000Z</time>
      </trkpt>
      <trkpt lat="47.17511" lon="-1.62408">
        <ele>69</ele>
        <time>2021-04-18T12:58:43.000Z</time>
      </trkpt>
      <trkpt lat="47.17491" lon="-1.62403">
        <ele>76</ele>
        <time>2021-04-18T12:58:46.000Z</time>
      </trkpt>
      <trkpt lat="47.17486" lon="-1.62386">
        <ele>67</ele>
        <time>2021-04-18T12:58:48.000Z</time>
      </trkpt>
      <trkpt lat="47.17476" lon="-1.62375">
        <ele>66</ele>
        <time>2021-04-18T12:58:50.000Z</time>
      </trkpt>
      <trkpt lat="47.17458" lon="-1.62372">
        <ele>67</ele>
        <time>2021-04-18T12:58:53.000Z</time>
      </trkpt>
      <trkpt lat="47.17445" lon="-1.62372">
        <ele>67</ele>
        <time>2021-04-18T12:58:55.000Z</time>
      </trkpt>
      <trkpt lat="47.1742" lon="-1.62375">
        <ele>68</ele>
        <time>2021-04-18T12:58:58.000Z</time>
      </trkpt>
      <trkpt lat="47.17408" lon="-1.62373">
        <ele>67</ele>
        <time>2021-04-18T12:59:00.000Z</time>
      </trkpt>
      <trkpt lat="47.17394" lon="-1.62371">
        <ele>66</ele>
        <time>2021-04-18T12:59:02.000Z</time>
      </trkpt>
      <trkpt lat="47.17377" lon="-1.62372">
        <ele>66</ele>
        <time>2021-04-18T12:59:04.000Z</time>
      </trkpt>
      <trkpt lat="47.1736" lon="-1.62375">
        <ele>65</ele>
        <time>2021-04-18T12:59:06.000Z</time>
      </trkpt>
      <trkpt lat="47.17348" lon="-1.62374">
        <ele>63</ele>
        <time>2021-04-18T12:59:08.000Z</time>
      </trkpt>
      <trkpt lat="47.17336" lon="-1.62375">
        <ele>64</ele>
        <time>2021-04-18T12:59:10.000Z</time>
      </trkpt>
      <trkpt lat="47.17324" lon="-1.6238">
        <ele>62</ele>
        <time>2021-04-18T12:59:12.000Z</time>
      </trkpt>
      <trkpt lat="47.17311" lon="-1.62384">
        <ele>59</ele>
        <time>2021-04-18T12:59:14.000Z</time>
      </trkpt>
      <trkpt lat="47.17298" lon="-1.62384">
        <ele>61</ele>
        <time>2021-04-18T12:59:16.000Z</time>
      </trkpt>
      <trkpt lat="47.17284" lon="-1.62384">
        <ele>62</ele>
        <time>2021-04-18T12:59:18.000Z</time>
      </trkpt>
      <trkpt lat="47.17271" lon="-1.62386">
        <ele>62</ele>
        <time>2021-04-18T12:59:20.000Z</time>
      </trkpt>
      <trkpt lat="47.17257" lon="-1.62388">
        <ele>62</ele>
        <time>2021-04-18T12:59:22.000Z</time>
      </trkpt>
      <trkpt lat="47.17244" lon="-1.62392">
        <ele>62</ele>
        <time>2021-04-18T12:59:24.000Z</time>
      </trkpt>
      <trkpt lat="47.17231" lon="-1.62394">
        <ele>62</ele>
        <time>2021-04-18T12:59:26.000Z</time>
      </trkpt>
      <trkpt lat="47.17212" lon="-1.62399">
        <ele>62</ele>
        <time>2021-04-18T12:59:29.000Z</time>
      </trkpt>
      <trkpt lat="47.17199" lon="-1.62401">
        <ele>62</ele>
        <time>2021-04-18T12:59:31.000Z</time>
      </trkpt>
      <trkpt lat="47.17186" lon="-1.62402">
        <ele>62</ele>
        <time>2021-04-18T12:59:33.000Z</time>
      </trkpt>
      <trkpt lat="47.17168" lon="-1.62406">
        <ele>62</ele>
        <time>2021-04-18T12:59:36.000Z</time>
      </trkpt>
      <trkpt lat="47.17155" lon="-1.62408">
        <ele>63</ele>
        <time>2021-04-18T12:59:38.000Z</time>
      </trkpt>
      <trkpt lat="47.17142" lon="-1.62411">
        <ele>62</ele>
        <time>2021-04-18T12:59:40.000Z</time>
      </trkpt>
      <trkpt lat="47.17123" lon="-1.62415">
        <ele>63</ele>
        <time>2021-04-18T12:59:43.000Z</time>
      </trkpt>
      <trkpt lat="47.17111" lon="-1.62419">
        <ele>63</ele>
        <time>2021-04-18T12:59:45.000Z</time>
      </trkpt>
      <trkpt lat="47.17098" lon="-1.62423">
        <ele>63</ele>
        <time>2021-04-18T12:59:47.000Z</time>
      </trkpt>
      <trkpt lat="47.17084" lon="-1.62428">
        <ele>62</ele>
        <time>2021-04-18T12:59:49.000Z</time>
      </trkpt>
      <trkpt lat="47.17067" lon="-1.62438">
        <ele>63</ele>
        <time>2021-04-18T12:59:52.000Z</time>
      </trkpt>
      <trkpt lat="47.1705" lon="-1.62448">
        <ele>62</ele>
        <time>2021-04-18T12:59:55.000Z</time>
      </trkpt>
      <trkpt lat="47.17038" lon="-1.62454">
        <ele>62</ele>
        <time>2021-04-18T12:59:57.000Z</time>
      </trkpt>
      <trkpt lat="47.17027" lon="-1.62461">
        <ele>63</ele>
        <time>2021-04-18T12:59:59.000Z</time>
      </trkpt>
      <trkpt lat="47.17015" lon="-1.62468">
        <ele>62</ele>
        <time>2021-04-18T13:00:01.000Z</time>
      </trkpt>
      <trkpt lat="47.17004" lon="-1.62474">
        <ele>62</ele>
        <time>2021-04-18T13:00:03.000Z</time>
      </trkpt>
      <trkpt lat="47.16993" lon="-1.6248">
        <ele>63</ele>
        <time>2021-04-18T13:00:05.000Z</time>
      </trkpt>
      <trkpt lat="47.16983" lon="-1.62485">
        <ele>63</ele>
        <time>2021-04-18T13:00:07.000Z</time>
      </trkpt>
      <trkpt lat="47.16972" lon="-1.62491">
        <ele>63</ele>
        <time>2021-04-18T13:00:09.000Z</time>
      </trkpt>
      <trkpt lat="47.16957" lon="-1.62498">
        <ele>62</ele>
        <time>2021-04-18T13:00:12.000Z</time>
      </trkpt>
      <trkpt lat="47.16943" lon="-1.625">
        <ele>64</ele>
        <time>2021-04-18T13:00:15.000Z</time>
      </trkpt>
      <trkpt lat="47.16934" lon="-1.62498">
        <ele>65</ele>
        <time>2021-04-18T13:00:17.000Z</time>
      </trkpt>
      <trkpt lat="47.16922" lon="-1.62496">
        <ele>65</ele>
        <time>2021-04-18T13:00:20.000Z</time>
      </trkpt>
      <trkpt lat="47.16914" lon="-1.62505">
        <ele>62</ele>
        <time>2021-04-18T13:00:25.000Z</time>
      </trkpt>
      <trkpt lat="47.16905" lon="-1.62512">
        <ele>64</ele>
        <time>2021-04-18T13:00:28.000Z</time>
      </trkpt>
      <trkpt lat="47.1689" lon="-1.62509">
        <ele>68</ele>
        <time>2021-04-18T13:00:32.000Z</time>
      </trkpt>
      <trkpt lat="47.16878" lon="-1.62506">
        <ele>72</ele>
        <time>2021-04-18T13:00:35.000Z</time>
      </trkpt>
      <trkpt lat="47.16865" lon="-1.62501">
        <ele>74</ele>
        <time>2021-04-18T13:00:38.000Z</time>
      </trkpt>
      <trkpt lat="47.16855" lon="-1.62494">
        <ele>76</ele>
        <time>2021-04-18T13:00:40.000Z</time>
      </trkpt>
      <trkpt lat="47.16846" lon="-1.6249">
        <ele>78</ele>
        <time>2021-04-18T13:00:42.000Z</time>
      </trkpt>
      <trkpt lat="47.16834" lon="-1.62489">
        <ele>78</ele>
        <time>2021-04-18T13:00:45.000Z</time>
      </trkpt>
      <trkpt lat="47.16823" lon="-1.62487">
        <ele>78</ele>
        <time>2021-04-18T13:00:48.000Z</time>
      </trkpt>
      <trkpt lat="47.16813" lon="-1.62494">
        <ele>78</ele>
        <time>2021-04-18T13:00:52.000Z</time>
      </trkpt>
      <trkpt lat="47.16807" lon="-1.62508">
        <ele>78</ele>
        <time>2021-04-18T13:00:56.000Z</time>
      </trkpt>
      <trkpt lat="47.16802" lon="-1.62524">
        <ele>77</ele>
        <time>2021-04-18T13:01:00.000Z</time>
      </trkpt>
      <trkpt lat="47.16804" lon="-1.62538">
        <ele>76</ele>
        <time>2021-04-18T13:01:04.000Z</time>
      </trkpt>
      <trkpt lat="47.16817" lon="-1.62549">
        <ele>74</ele>
        <time>2021-04-18T13:01:08.000Z</time>
      </trkpt>
      <trkpt lat="47.16825" lon="-1.62557">
        <ele>73</ele>
        <time>2021-04-18T13:01:11.000Z</time>
      </trkpt>
      <trkpt lat="47.16832" lon="-1.62568">
        <ele>72</ele>
        <time>2021-04-18T13:01:14.000Z</time>
      </trkpt>
      <trkpt lat="47.16832" lon="-1.62582">
        <ele>72</ele>
        <time>2021-04-18T13:01:17.000Z</time>
      </trkpt>
      <trkpt lat="47.16826" lon="-1.62595">
        <ele>72</ele>
        <time>2021-04-18T13:01:21.000Z</time>
      </trkpt>
      <trkpt lat="47.16815" lon="-1.62594">
        <ele>65</ele>
        <time>2021-04-18T13:02:42.000Z</time>
      </trkpt>
      <trkpt lat="47.1681" lon="-1.62582">
        <ele>66</ele>
        <time>2021-04-18T13:02:59.000Z</time>
      </trkpt>
      <trkpt lat="47.16807" lon="-1.62569">
        <ele>63</ele>
        <time>2021-04-18T13:04:16.000Z</time>
      </trkpt>
    </trkseg>
  </trk>
</gpx>